Site Date LOGGERID PROGID AIRTEMP_MEAN_150_0_04 AIRTEMP_MEAN_250_0_03 AIRTEMP_MEAN_350_0_02 AIRTEMP_MEAN_450_0_01 AIRTEMP_MEAN_350_0_08 RELHUM_MEAN_150_0_04 RELHUM_MEAN_450_0_01 DEWPT_MEAN_150_0_04 DEWPT_MEAN_450_0_01 SW_IN_MEAN_600_0_01 SW_OUT_MEAN_600_0_01 SOILTEMP_MEAN_0_10_01 SOILTEMP_MEAN_0_20_02 SOILTEMP_MEAN_0_50_03 SOILTEMP_MEAN_0_100_04 BATTERY_INST_0_0_01 AIRTEMP_MAX_150_0_04 AIRTEMP_MAX_250_0_03 AIRTEMP_MAX_350_0_02 AIRTEMP_MAX_450_0_01 AIRTEMP_MAX_350_0_08 DEWPT_MAX_150_0_04 DEWPT_MAX_450_0_01 SW_IN_MAX_600_0_01 SW_OUT_MAX_600_0_01 WSPD_PRO_MAX_1000_0_01 WSPD_SNC_MAX_1000_0_02 AIRTEMP_MIN_150_0_04 AIRTEMP_MIN_250_0_03 AIRTEMP_MIN_350_0_02 AIRTEMP_MIN_450_0_01 AIRTEMP_MIN_350_0_08 DEWPT_MIN_150_0_04 DEWPT_MIN_450_0_01 SNOWDEP_INST_0_0_01 SNOWDEP_MED_0_0_01 SNOWDEP_QUAL SWE_INST_0_0_01 SWE_MED_0_0_01 WSPD_PRO_MEAN_1000_0_01 WDIR_PRO_MEAN_1000_0_01 WDIR_PRO_STDDEV_1000_0_01 WSPD_SNC_MEAN_1000_0_02 WDIR_SNC_MEAN_1000_0_02 WDIR_SNC_STDDEV_1000_0_02 SATVP_MEAN_150_0_04 VAP_MEAN_150_0_04 VPD_MEAN_150_0_04 SATVP_MEAN_450_0_01 VAP_MEAN_450_0_01 VPD_MEAN_450_0_01
WS7MET_125 2018-01-22 00:15:00 125 30483.0 -0.030 0.051 0.137 0.035 0.104 100.000 100.000 -0.030 0.035 0.00 0.00 2.359 2.985 4.053 4.857 12.930 0.068 0.067 0.144 0.103 0.125 0.068 0.103 0.00 0.00 0.0000   -0.102 0.047 0.125 -0.034 0.067 -0.102 -0.034     318     0.0000 0.00 0.00   0.000 0.000 6.094 6.094 0.000 6.123 6.123 0.000
WS7MET_125 2018-01-22 00:10:00 125 30483.0 -0.034 0.047 0.131 0.019 0.078 100.000 100.000 -0.034 0.019 0.00 0.00 2.359 2.985 4.055 4.856 12.950 0.000 0.047 0.144 0.102 0.096 0.000 0.103 0.00 0.00 0.0000   -0.068 0.047 0.125 -0.068 0.067 -0.068 -0.068     318     0.0000 0.00 0.00   0.000 0.000 6.093 6.093 0.000 6.116 6.116 0.000
WS7MET_125 2018-01-22 00:05:00 125 30483.0 -0.020 0.058 0.144 0.022 0.091 100.000 100.000 -0.020 0.022 0.00 0.00 2.359 2.985 4.055 4.856 12.950 0.068 0.067 0.144 0.068 0.105 0.068 0.068 0.00 0.00 0.0000   -0.102 0.047 0.144 -0.034 0.086 -0.102 -0.034     318     0.0000 0.00 0.00   0.000 0.000 6.099 6.099 0.000 6.118 6.118 0.000
WS7MET_125 2018-01-22 00:00:00 125 30483.0 -0.005 0.071 0.154 0.017 0.105 100.000 100.000 -0.005 0.017 0.00 0.00 2.359 2.986 4.055 4.856 12.950 0.068 0.086 0.163 0.103 0.115 0.069 0.103 0.00 0.00 0.0000   -0.068 0.067 0.144 -0.102 0.096 -0.068 -0.102     318     0.0000 0.00 0.00   0.000 0.000 6.106 6.106 0.000 6.115 6.115 0.000
WS7MET_125 2018-01-21 23:55:00 125 30483.0 -0.020 0.084 0.163 0.052 0.120 100.000 100.000 -0.020 0.052 0.00 0.00 2.360 2.988 4.054 4.856 12.950 0.034 0.086 0.163 0.103 0.125 0.035 0.103 0.00 0.00 0.0000   -0.068 0.076 0.163 -0.034 0.105 -0.068 -0.034     318     0.0000 0.00 0.00   0.000 0.000 6.099 6.099 0.000 6.131 6.131 -0.000
WS7MET_125 2018-01-21 23:50:00 125 30483.0 -0.010 0.086 0.170 0.062 0.121 100.000 100.000 -0.010 0.062 0.00 0.00 2.361 2.994 4.055 4.856 12.960 0.069 0.096 0.182 0.103 0.154 0.069 0.103 0.00 0.00 0.0000   -0.068 0.076 0.163 0.001 0.105 -0.068 0.001     318     0.0000 0.00 0.00   0.000 0.000 6.103 6.103 0.000 6.135 6.135 0.000
WS7MET_125 2018-01-21 23:45:00 125 30483.0 -0.017 0.068 0.148 0.029 0.113 100.000 100.000 -0.017 0.029 0.00 0.00 2.363 2.993 4.055 4.856 12.960 0.102 0.086 0.173 0.102 0.163 0.102 0.102 0.00 0.00 0.0000   -0.102 0.047 0.125 -0.034 0.047 -0.102 -0.034     318     0.0000 0.00 0.00   0.000 0.000 6.100 6.100 -0.000 6.121 6.121 -0.000
WS7MET_125 2018-01-21 23:40:00 125 30483.0 -0.032 0.060 0.142 0.041 0.087 100.000 100.000 -0.032 0.041 0.00 0.00 2.368 2.995 4.055 4.856 12.960 0.068 0.067 0.144 0.137 0.115 0.068 0.137 0.00 0.00 0.0000   -0.068 0.047 0.125 -0.034 0.047 -0.068 -0.034     318     0.0000 0.00 0.00   0.000 0.000 6.094 6.094 -0.000 6.126 6.126 0.000
WS7MET_125 2018-01-21 23:35:00 125 30483.0 -0.032 0.067 0.151 0.044 0.109 100.000 100.000 -0.032 0.044 0.00 0.00 2.368 2.995 4.055 4.856 12.970 0.034 0.076 0.163 0.102 0.125 0.034 0.102 0.00 0.00 0.0000   -0.102 0.057 0.144 -0.034 0.086 -0.102 -0.034     318     0.0000 0.00 0.00   0.000 0.000 6.094 6.094 -0.000 6.127 6.127 -0.000
WS7MET_125 2018-01-21 23:30:00 125 30483.0 -0.024 0.079 0.163 0.061 0.123 100.000 100.000 -0.024 0.061 0.00 0.00 2.368 2.995 4.055 4.856 12.970 0.034 0.086 0.163 0.137 0.125 0.034 0.137 0.00 0.00 0.0000   -0.102 0.067 0.163 0.000 0.115 -0.102 0.000     318     0.0000 0.00 0.00   0.000 0.000 6.097 6.097 0.000 6.135 6.135 0.000
WS7MET_125 2018-01-21 23:25:00 125 30483.0 -0.031 0.074 0.163 0.067 0.121 100.000 100.000 -0.031 0.067 0.00 0.00 2.369 2.995 4.054 4.856 12.970 0.034 0.086 0.163 0.137 0.134 0.034 0.137 0.00 0.00 0.0000   -0.102 0.067 0.163 -0.034 0.105 -0.102 -0.034     318     0.0000 0.00 0.00   0.000 0.000 6.094 6.094 0.000 6.138 6.138 0.000
WS7MET_125 2018-01-21 23:20:00 125 30483.0 -0.015 0.085 0.179 0.051 0.138 100.000 100.000 -0.015 0.051 0.00 0.00 2.369 2.995 4.054 4.856 12.970 0.068 0.096 0.182 0.102 0.163 0.068 0.102 0.00 0.00 0.0000   -0.102 0.067 0.163 0.000 0.096 -0.102 0.000     318     0.0000 0.00 0.00   0.000 0.000 6.101 6.101 0.000 6.131 6.131 0.000
WS7MET_125 2018-01-21 23:15:00 125 30483.0 -0.049 0.078 0.171 0.053 0.142 100.000 100.000 -0.049 0.053 0.00 0.00 2.374 2.998 4.049 4.856 12.970 0.034 0.086 0.182 0.102 0.154 0.034 0.102 0.00 0.00 0.0000   -0.136 0.067 0.154 -0.034 0.125 -0.137 -0.034     318     0.0000 0.00 0.00   0.000 0.000 6.086 6.086 0.000 6.131 6.131 0.000
WS7MET_125 2018-01-21 23:10:00 125 30483.0 -0.031 0.052 0.144 0.024 0.107 100.000 100.000 -0.031 0.024 0.00 0.00 2.375 3.000 4.050 4.856 12.980 0.000 0.067 0.154 0.102 0.125 0.000 0.103 0.00 0.00 0.0000   -0.102 0.047 0.144 -0.034 0.096 -0.102 -0.034     318     0.0000 0.00 0.00   0.000 0.000 6.094 6.094 0.000 6.118 6.118 0.000
WS7MET_125 2018-01-21 23:05:00 125 30483.0 -0.068 0.062 0.144 0.031 0.107 100.000 100.000 -0.068 0.031 0.00 0.00 2.376 3.003 4.050 4.856 12.980 0.000 0.067 0.154 0.068 0.125 0.000 0.068 0.00 0.00 0.0000   -0.136 0.057 0.144 -0.068 0.086 -0.136 -0.068     318     0.0000 0.00 0.00   0.000 0.000 6.078 6.078 0.000 6.122 6.122 0.000
WS7MET_125 2018-01-21 23:00:00 125 30483.0 -0.046 0.057 0.150 0.026 0.112 100.000 100.000 -0.046 0.026 0.00 0.00 2.379 3.004 4.047 4.856 12.990 0.034 0.067 0.163 0.137 0.125 0.034 0.137 0.00 0.00 0.0000   -0.102 0.047 0.134 -0.034 0.086 -0.102 -0.034     318     0.0000 0.00 0.00   0.000 0.000 6.087 6.087 0.000 6.119 6.119 0.000
WS7MET_125 2018-01-21 22:55:00 125 30483.0 -0.053 0.047 0.144 0.026 0.100 100.000 100.000 -0.053 0.026 0.00 0.00 2.379 3.004 4.046 4.856 12.990 0.000 0.047 0.144 0.069 0.105 0.000 0.069 0.00 0.00 0.0000   -0.102 0.047 0.144 -0.068 0.086 -0.102 -0.068     318     0.0000 0.00 0.00   0.000 0.000 6.084 6.084 0.000 6.119 6.119 0.000
WS7MET_125 2018-01-21 22:50:00 125 30483.0 -0.037 0.047 0.144 0.024 0.100 100.000 100.000 -0.037 0.024 0.00 0.00 2.379 3.004 4.045 4.856 12.990 0.035 0.047 0.144 0.102 0.115 0.035 0.102 0.00 0.00 0.0000   -0.102 0.047 0.144 -0.034 0.096 -0.102 -0.034     318     0.0000 0.00 0.00   0.000 0.000 6.091 6.091 0.000 6.118 6.118 0.000
WS7MET_125 2018-01-21 22:45:00 125 30483.0 -0.036 0.051 0.144 0.029 0.107 100.000 100.000 -0.036 0.029 0.00 0.00 2.379 3.004 4.043 4.856 13.000 0.000 0.057 0.144 0.068 0.115 0.000 0.068 0.00 0.00 0.0000   -0.137 0.047 0.144 -0.034 0.096 -0.137 -0.034     318     0.0000 0.00 0.00   0.000 0.000 6.092 6.092 0.000 6.121 6.121 -0.000
WS7MET_125 2018-01-21 22:40:00 125 30483.0 -0.041 0.061 0.144 0.024 0.113 100.000 100.000 -0.041 0.024 0.00 0.00 2.379 3.004 4.043 4.856 13.000 0.034 0.067 0.144 0.102 0.125 0.034 0.102 0.00 0.00 0.0000   -0.102 0.047 0.144 -0.034 0.105 -0.102 -0.034     318     0.0000 0.00 0.00   0.000 0.000 6.090 6.090 0.000 6.118 6.118 0.000
WS7MET_125 2018-01-21 22:35:00 125 30483.0 -0.048 0.048 0.141 0.010 0.101 100.000 100.000 -0.048 0.010 0.00 0.00 2.379 3.004 4.042 4.856 13.000 0.034 0.057 0.144 0.068 0.115 0.034 0.068 0.00 0.00 0.0000   -0.102 0.047 0.134 -0.068 0.086 -0.102 -0.068     318     0.0000 0.00 0.00   0.000 0.000 6.086 6.086 0.000 6.112 6.112 0.000
WS7MET_125 2018-01-21 22:30:00 125 30483.0 -0.049 0.047 0.133 0.002 0.102 100.000 100.000 -0.050 0.002 0.00 0.00 2.379 3.011 4.040 4.856 13.000 0.034 0.047 0.144 0.068 0.115 0.034 0.068 0.00 0.00 0.0000   -0.102 0.047 0.125 -0.068 0.086 -0.102 -0.068     318     0.0000 0.00 0.00   0.000 0.000 6.086 6.086 0.000 6.109 6.109 0.000
WS7MET_125 2018-01-21 22:25:00 125 30483.0 -0.065 0.029 0.118 -0.014 0.087 100.000 100.000 -0.065 -0.014 0.00 0.00 2.379 3.013 4.038 4.856 13.010 0.000 0.047 0.125 0.034 0.105 0.000 0.034 0.00 0.00 0.0000   -0.137 0.009 0.105 -0.068 0.067 -0.137 -0.068     318     0.0000 0.00 0.00   0.000 0.000 6.079 6.079 0.000 6.102 6.102 0.000
WS7MET_125 2018-01-21 22:20:00 125 30483.0 -0.067 -0.001 0.087 -0.032 0.045 100.000 100.000 -0.067 -0.032 0.00 0.00 2.379 3.014 4.037 4.856 13.010 0.000 0.009 0.105 0.034 0.067 0.000 0.034 0.00 0.00 0.0000   -0.137 -0.011 0.086 -0.137 0.028 -0.137 -0.137     318     0.0000 0.00 0.00   0.000 0.000 6.078 6.078 0.000 6.094 6.094 -0.000
WS7MET_125 2018-01-21 22:15:00 125 30483.0 -0.058 0.016 0.110 0.002 0.039 100.000 100.000 -0.058 0.002 0.00 0.00 2.379 3.015 4.038 4.856 13.010 0.034 0.028 0.125 0.068 0.057 0.034 0.068 0.00 0.00 0.0000   -0.137 0.009 0.096 -0.068 0.028 -0.137 -0.068     318     0.0000 0.00 0.00   0.000 0.000 6.082 6.082 0.000 6.109 6.109 0.000
WS7MET_125 2018-01-21 22:10:00 125 30483.0 -0.041 0.045 0.127 0.014 0.078 100.000 100.000 -0.041 0.014 0.00 0.00 2.379 3.016 4.038 4.856 13.020 0.034 0.047 0.134 0.068 0.086 0.034 0.068 0.00 0.00 0.0000   -0.102 0.028 0.125 -0.068 0.057 -0.102 -0.068     318     0.0000 0.00 0.00   0.000 0.000 6.090 6.090 0.000 6.114 6.114 0.000
WS7MET_125 2018-01-21 22:05:00 125 30483.0 -0.031 0.054 0.145 0.032 0.094 100.000 100.000 -0.031 0.033 0.00 0.00 2.379 3.019 4.038 4.856 13.020 0.034 0.067 0.154 0.102 0.115 0.034 0.103 0.00 0.00 0.0000   -0.102 0.047 0.134 -0.068 0.086 -0.102 -0.068     318     0.0000 0.00 0.00   0.000 0.000 6.094 6.094 0.000 6.122 6.122 0.000
WS7MET_125 2018-01-21 22:00:00 125 30483.0 -0.012 0.066 0.150 0.041 0.106 100.000 100.000 -0.012 0.041 0.00 0.00 2.382 3.023 4.036 4.856 13.020 0.068 0.067 0.163 0.103 0.115 0.068 0.103 0.00 0.00 0.0000   -0.102 0.057 0.144 -0.068 0.105 -0.102 -0.068     318     0.0000 0.00 0.00   0.000 0.000 6.102 6.102 0.000 6.126 6.126 0.000
WS7MET_125 2018-01-21 21:55:00 125 30483.0 -0.020 0.072 0.168 0.048 0.110 100.000 100.000 -0.020 0.048 0.00 0.00 2.386 3.023 4.037 4.856 13.030 0.069 0.086 0.182 0.103 0.134 0.069 0.103 0.00 0.00 0.0000   -0.068 0.067 0.163 0.000 0.096 -0.068 0.000     318     0.0000 0.00 0.00   0.000 0.000 6.099 6.099 0.000 6.129 6.129 0.000
WS7MET_125 2018-01-21 21:50:00 125 30483.0 -0.025 0.070 0.165 0.040 0.118 100.000 100.000 -0.025 0.040 0.00 0.00 2.388 3.023 4.035 4.856 13.030 0.069 0.086 0.182 0.103 0.134 0.069 0.103 0.00 0.00 0.0000   -0.068 0.067 0.163 -0.033 0.105 -0.068 -0.033     318     0.0000 0.00 0.00   0.000 0.000 6.097 6.097 0.000 6.126 6.126 -0.000
WS7MET_125 2018-01-21 21:45:00 125 30483.0 -0.015 0.083 0.174 0.065 0.118 100.000 100.000 -0.015 0.065 0.00 0.00 2.394 3.023 4.035 4.856 13.030 0.035 0.086 0.182 0.137 0.154 0.035 0.137 0.00 0.00 0.0000   -0.102 0.067 0.163 0.000 0.096 -0.102 0.000     318     0.0000 0.00 0.00   0.000 0.000 6.101 6.101 0.000 6.137 6.137 0.000
WS7MET_125 2018-01-21 21:40:00 125 30483.0 -0.032 0.077 0.173 0.057 0.132 100.000 100.000 -0.032 0.057 0.00 0.00 2.392 3.024 4.035 4.856 13.030 0.000 0.086 0.182 0.137 0.154 0.000 0.137 0.00 0.00 0.0000   -0.102 0.067 0.163 -0.068 0.115 -0.102 -0.068     318     0.0000 0.00 0.00   0.000 0.000 6.094 6.094 -0.000 6.133 6.133 0.000
WS7MET_125 2018-01-21 21:35:00 125 30483.0 -0.017 0.067 0.163 0.047 0.114 100.000 100.000 -0.017 0.047 0.00 0.00 2.395 3.026 4.036 4.856 13.040 0.069 0.067 0.163 0.137 0.125 0.069 0.137 0.00 0.00 0.0000   -0.102 0.067 0.163 0.000 0.105 -0.102 0.000     318     0.0000 0.00 0.00   0.000 0.000 6.100 6.100 -0.000 6.129 6.129 0.000
WS7MET_125 2018-01-21 21:30:00 125 30483.0 -0.009 0.067 0.156 0.043 0.111 100.000 100.000 -0.009 0.043 0.00 0.00 2.397 3.029 4.035 4.856 13.040 0.068 0.067 0.163 0.137 0.125 0.068 0.137 0.00 0.00 0.0000   -0.102 0.067 0.144 -0.068 0.096 -0.102 -0.068     318     0.0000 0.00 0.00   0.000 0.000 6.104 6.104 0.000 6.127 6.127 -0.000
WS7MET_125 2018-01-21 21:25:00 125 30483.0 -0.031 0.060 0.145 0.020 0.101 100.000 100.000 -0.031 0.021 0.00 0.00 2.398 3.033 4.035 4.856 13.040 0.034 0.067 0.154 0.068 0.115 0.034 0.068 0.00 0.00 0.0000   -0.068 0.047 0.144 -0.034 0.086 -0.068 -0.034     318     0.0000 0.00 0.00   0.000 0.000 6.094 6.094 0.000 6.117 6.117 0.000
WS7MET_125 2018-01-21 21:20:00 125 30483.0 -0.034 0.064 0.144 0.032 0.110 100.000 100.000 -0.034 0.032 0.00 0.00 2.398 3.035 4.035 4.856 13.050 0.068 0.067 0.144 0.137 0.115 0.068 0.137 0.00 0.00 0.0000   -0.102 0.057 0.144 -0.068 0.086 -0.102 -0.068     318     0.0000 0.00 0.00   0.000 0.000 6.093 6.093 0.000 6.122 6.122 0.000
WS7MET_125 2018-01-21 21:15:00 125 30483.0 -0.039 0.050 0.144 0.015 0.102 100.000 100.000 -0.039 0.015 0.00 0.00 2.398 3.036 4.038 4.856 13.050 0.034 0.057 0.144 0.102 0.105 0.034 0.102 0.00 0.00 0.0000   -0.137 0.047 0.144 -0.034 0.096 -0.137 -0.034     318     0.0000 0.00 0.00   0.000 0.000 6.090 6.090 -0.000 6.114 6.114 0.000
WS7MET_125 2018-01-21 21:10:00 125 30483.0 -0.044 0.048 0.144 0.020 0.094 100.000 100.000 -0.044 0.021 0.00 0.00 2.398 3.039 4.035 4.856 13.060 0.034 0.057 0.144 0.137 0.105 0.034 0.137 0.00 0.00 0.0000   -0.137 0.047 0.144 -0.034 0.086 -0.137 -0.034     318     0.0000 0.00 0.00   0.000 0.000 6.088 6.088 0.000 6.117 6.117 0.000
WS7MET_125 2018-01-21 21:05:00 125 30483.0 -0.039 0.048 0.144 0.034 0.096 100.000 100.000 -0.039 0.034 0.00 0.00 2.398 3.043 4.035 4.856 13.060 0.034 0.057 0.144 0.068 0.105 0.034 0.068 0.00 0.00 0.0000   -0.102 0.047 0.144 0.000 0.086 -0.102 0.000     318     0.0000 0.00 0.00   0.000 0.000 6.090 6.090 -0.000 6.123 6.123 0.000
WS7MET_125 2018-01-21 21:00:00 125 30483.0 -0.051 0.047 0.144 0.026 0.107 100.000 100.000 -0.051 0.026 0.00 0.00 2.398 3.043 4.035 4.856 13.060 0.000 0.047 0.144 0.102 0.115 0.000 0.102 0.00 0.00 0.0000   -0.102 0.047 0.144 -0.068 0.096 -0.102 -0.068     318     0.0000 0.00 0.00   0.000 0.000 6.085 6.085 0.000 6.119 6.119 0.000
WS7MET_125 2018-01-21 20:55:00 125 30483.0 -0.043 0.049 0.144 0.038 0.097 100.000 100.000 -0.043 0.038 0.00 0.00 2.398 3.043 4.035 4.856 13.070 0.068 0.057 0.154 0.102 0.105 0.068 0.102 0.00 0.00 0.0000   -0.136 0.047 0.144 0.000 0.086 -0.137 0.000     318     0.0000 0.00 0.00   0.000 0.000 6.089 6.089 0.000 6.125 6.125 0.000
WS7MET_125 2018-01-21 20:50:00 125 30483.0 -0.029 0.050 0.144 0.038 0.100 100.000 100.000 -0.029 0.038 0.00 0.00 2.398 3.044 4.035 4.856 13.070 0.034 0.057 0.154 0.102 0.115 0.034 0.103 0.00 0.00 0.0000   -0.102 0.047 0.144 -0.068 0.086 -0.102 -0.068     318     0.0000 0.00 0.00   0.000 0.000 6.095 6.095 0.000 6.125 6.125 0.000
WS7MET_125 2018-01-21 20:45:00 125 30483.0 -0.032 0.063 0.160 0.053 0.108 100.000 100.000 -0.032 0.053 0.00 0.00 2.399 3.046 4.035 4.856 13.070 0.034 0.067 0.163 0.102 0.115 0.034 0.103 0.00 0.00 0.0000   -0.102 0.047 0.144 -0.034 0.096 -0.102 -0.034     318     0.0000 0.00 0.00   0.000 0.000 6.094 6.094 -0.000 6.131 6.131 0.000
WS7MET_125 2018-01-21 20:40:00 125 30483.0 0.002 0.072 0.163 0.041 0.115 100.000 100.000 0.002 0.041 0.00 0.00 2.404 3.051 4.036 4.856 13.080 0.137 0.086 0.163 0.171 0.125 0.137 0.171 0.00 0.00 0.0000   -0.068 0.067 0.163 -0.068 0.105 -0.068 -0.068     318     0.0000 0.00 0.00   0.000 0.000 6.109 6.109 0.000 6.126 6.126 0.000
WS7MET_125 2018-01-21 20:35:00 125 30483.0 -0.018 0.079 0.164 0.036 0.114 100.000 100.000 -0.018 0.036 0.00 0.00 2.408 3.055 4.035 4.856 13.080 0.069 0.086 0.173 0.137 0.125 0.069 0.137 0.00 0.00 0.0000   -0.102 0.076 0.163 -0.068 0.105 -0.102 -0.068     318     0.0000 0.00 0.00   0.000 0.000 6.100 6.100 0.000 6.124 6.124 0.000
WS7MET_125 2018-01-21 20:30:00 125 30483.0 -0.015 0.074 0.164 0.042 0.120 100.000 100.000 -0.015 0.042 0.00 0.00 2.415 3.061 4.036 4.856 13.080 0.035 0.086 0.173 0.137 0.125 0.035 0.137 0.00 0.00 0.0000   -0.068 0.067 0.163 -0.034 0.115 -0.068 -0.034     318     0.0000 0.00 0.00   0.000 0.000 6.101 6.101 0.000 6.126 6.126 -0.000
WS7MET_125 2018-01-21 20:25:00 125 30483.0 -0.025 0.067 0.163 0.036 0.109 100.000 100.000 -0.025 0.036 0.00 0.00 2.417 3.062 4.036 4.856 13.080 0.034 0.067 0.163 0.103 0.125 0.034 0.103 0.00 0.00 0.0000   -0.102 0.067 0.163 -0.034 0.105 -0.102 -0.034     318     0.0000 0.00 0.00   0.000 0.000 6.097 6.097 0.000 6.124 6.124 0.000
WS7MET_125 2018-01-21 20:20:00 125 30483.0 -0.035 0.062 0.152 0.041 0.114 100.000 100.000 -0.036 0.041 0.00 0.00 2.417 3.062 4.037 4.856 13.080 0.034 0.067 0.163 0.103 0.125 0.035 0.103 0.00 0.00 0.0000   -0.102 0.047 0.144 -0.034 0.105 -0.102 -0.034     318     0.0000 0.00 0.00   0.000 0.000 6.092 6.092 0.000 6.126 6.126 0.000
WS7MET_125 2018-01-21 20:15:00 125 30483.0 -0.032 0.047 0.137 0.000 0.096 100.000 100.000 -0.032 0.000 0.00 0.00 2.417 3.062 4.038 4.856 13.090 0.035 0.047 0.144 0.069 0.115 0.035 0.069 0.00 0.00 0.0000   -0.102 0.047 0.125 -0.034 0.086 -0.102 -0.034     318     0.0000 0.00 0.00   0.000 0.000 6.094 6.094 -0.000 6.108 6.108 0.000
WS7MET_125 2018-01-21 20:10:00 125 30483.0 -0.032 0.048 0.143 0.022 0.091 100.000 100.000 -0.032 0.022 0.00 0.00 2.417 3.062 4.036 4.856 13.100 0.034 0.057 0.144 0.102 0.105 0.034 0.102 0.00 0.00 0.0000   -0.102 0.047 0.134 -0.068 0.086 -0.102 -0.068     318     0.0000 0.00 0.00   0.000 0.000 6.094 6.094 -0.000 6.118 6.118 0.000
WS7MET_125 2018-01-21 20:05:00 125 30483.0 -0.049 0.047 0.141 0.022 0.092 100.000 100.000 -0.049 0.022 0.00 0.00 2.417 3.065 4.037 4.856 13.100 0.000 0.047 0.144 0.102 0.105 0.000 0.102 0.00 0.00 0.0000   -0.102 0.047 0.134 -0.034 0.086 -0.102 -0.034     318     0.0000 0.00 0.00   0.000 0.000 6.086 6.086 0.000 6.118 6.118 0.000
WS7MET_125 2018-01-21 20:00:00 125 30483.0 -0.058 0.043 0.127 0.014 0.082 100.000 100.000 -0.058 0.014 0.00 0.00 2.417 3.072 4.038 4.856 13.110 0.000 0.047 0.134 0.068 0.086 0.000 0.068 0.00 0.00 0.0000   -0.136 0.028 0.125 -0.068 0.076 -0.137 -0.068     318     0.0000 0.00 0.00   0.000 0.000 6.082 6.082 0.000 6.114 6.114 0.000
WS7MET_125 2018-01-21 19:55:00 125 30483.0 -0.049 0.028 0.124 0.000 0.071 100.000 100.000 -0.049 0.000 0.00 0.00 2.417 3.072 4.040 4.856 13.110 0.068 0.028 0.125 0.068 0.086 0.068 0.068 0.00 0.00 0.0000   -0.136 0.028 0.115 -0.068 0.067 -0.136 -0.068     318     0.0000 0.00 0.00   0.000 0.000 6.086 6.086 0.000 6.108 6.108 0.000
WS7MET_125 2018-01-21 19:50:00 125 30483.0 -0.051 0.028 0.125 0.000 0.074 100.000 100.000 -0.051 0.000 0.00 0.00 2.420 3.073 4.045 4.856 13.110 0.034 0.028 0.125 0.103 0.105 0.034 0.103 0.00 0.00 0.0000   -0.136 0.028 0.125 -0.068 0.057 -0.136 -0.068     318     0.0000 0.00 0.00   0.000 0.000 6.085 6.085 0.000 6.108 6.108 0.000
WS7MET_125 2018-01-21 19:45:00 125 30483.0 -0.042 0.043 0.133 0.016 0.082 100.000 100.000 -0.042 0.016 0.00 0.00 2.426 3.080 4.048 4.856 13.120 0.001 0.047 0.144 0.103 0.115 0.001 0.103 0.00 0.00 0.0000   -0.102 0.028 0.125 -0.034 0.067 -0.102 -0.034     318     0.0000 0.00 0.00   0.000 0.000 6.089 6.089 0.000 6.115 6.115 0.000
WS7MET_125 2018-01-21 19:40:00 125 30483.0 -0.037 0.047 0.144 0.028 0.090 100.000 100.000 -0.037 0.028 0.00 0.00 2.434 3.081 4.050 4.856 13.120 0.069 0.047 0.144 0.103 0.096 0.069 0.103 0.00 0.00 0.0000   -0.102 0.047 0.144 -0.068 0.086 -0.102 -0.068     318     0.0000 0.00 0.00   0.000 0.000 6.091 6.091 0.000 6.120 6.120 -0.000
WS7MET_125 2018-01-21 19:35:00 125 30483.0 -0.049 0.057 0.154 0.039 0.083 100.000 100.000 -0.050 0.039 0.00 0.00 2.436 3.081 4.052 4.856 13.120 0.034 0.067 0.173 0.137 0.125 0.034 0.137 0.00 0.00 0.0000   -0.137 0.047 0.144 -0.034 0.067 -0.137 -0.034     318     0.0000 0.00 0.00   0.000 0.000 6.086 6.086 0.000 6.125 6.125 0.000
WS7MET_125 2018-01-21 19:30:00 125 30483.0 -0.026 0.067 0.166 0.063 0.123 100.000 100.000 -0.026 0.063 0.00 0.00 2.436 3.081 4.053 4.856 13.130 0.034 0.067 0.173 0.137 0.125 0.034 0.137 0.00 0.00 0.0000   -0.102 0.067 0.163 -0.068 0.115 -0.102 -0.068     318     0.0000 0.00 0.00   0.000 0.000 6.096 6.096 0.000 6.136 6.136 0.000
WS7MET_125 2018-01-21 19:25:00 125 30483.0 -0.049 0.067 0.163 0.031 0.116 100.000 100.000 -0.050 0.031 0.00 0.00 2.436 3.087 4.055 4.856 13.130 0.000 0.076 0.163 0.102 0.125 0.000 0.102 0.00 0.00 0.0000   -0.102 0.057 0.154 -0.034 0.105 -0.102 -0.034     318     0.0000 0.00 0.00   0.000 0.000 6.086 6.086 0.000 6.122 6.122 0.000
WS7MET_125 2018-01-21 19:20:00 125 30483.0 -0.065 0.050 0.145 0.015 0.099 100.000 100.000 -0.065 0.015 0.00 0.00 2.436 3.097 4.055 4.856 13.130 0.000 0.067 0.154 0.068 0.105 0.000 0.068 0.00 0.00 0.0000   -0.171 0.047 0.144 -0.068 0.086 -0.171 -0.068     318     0.0000 0.00 0.00   0.000 0.000 6.079 6.079 0.000 6.114 6.114 0.000
WS7MET_125 2018-01-21 19:15:00 125 30483.0 -0.044 0.040 0.129 0.005 0.074 100.000 100.000 -0.044 0.005 0.00 0.00 2.436 3.098 4.053 4.856 13.130 0.000 0.047 0.144 0.068 0.096 0.000 0.068 0.00 0.00 0.0000   -0.102 0.028 0.125 -0.068 0.057 -0.102 -0.068     318     0.0000 0.00 0.00   0.000 0.000 6.088 6.088 0.000 6.110 6.110 0.000
WS7MET_125 2018-01-21 19:10:00 125 30483.0 -0.061 0.047 0.133 0.000 0.082 100.000 100.000 -0.061 0.000 0.00 0.00 2.436 3.100 4.055 4.856 13.150 0.000 0.047 0.144 0.068 0.086 0.000 0.068 0.00 0.00 0.0000   -0.137 0.038 0.125 -0.068 0.067 -0.137 -0.068     318     0.0000 0.00 0.00   0.000 0.000 6.081 6.081 0.000 6.108 6.108 0.000
WS7MET_125 2018-01-21 19:05:00 125 30483.0 -0.070 0.038 0.124 0.014 0.078 100.000 100.000 -0.070 0.014 0.00 0.00 2.437 3.100 4.055 4.856 13.150 0.000 0.047 0.134 0.068 0.086 0.000 0.068 0.00 0.00 0.0000   -0.137 0.028 0.105 -0.068 0.067 -0.137 -0.068     318     0.0000 0.00 0.00   0.000 0.000 6.077 6.077 0.000 6.114 6.114 0.000
WS7MET_125 2018-01-21 19:00:00 125 30483.0 -0.077 0.015 0.103 -0.026 0.050 100.000 100.000 -0.077 -0.026 0.00 0.00 2.445 3.104 4.055 4.856 13.150 0.000 0.028 0.105 0.068 0.067 0.000 0.068 0.00 0.00 0.0000   -0.171 0.009 0.096 -0.102 0.028 -0.171 -0.102     318     0.0000 0.00 0.00   0.000 0.000 6.074 6.074 0.000 6.096 6.096 0.000
WS7MET_125 2018-01-21 18:55:00 125 30483.0 -0.075 0.014 0.105 -0.010 0.042 100.000 100.000 -0.075 -0.010 0.00 0.00 2.448 3.109 4.055 4.856 13.160 0.000 0.028 0.105 0.034 0.057 0.000 0.034 0.00 0.00 0.0000   -0.137 0.009 0.105 -0.068 0.028 -0.137 -0.068     318     0.0000 0.00 0.00   0.000 0.000 6.075 6.075 0.000 6.103 6.103 0.000
WS7MET_125 2018-01-21 18:50:00 125 30483.0 -0.058 0.028 0.119 0.009 0.055 100.000 100.000 -0.058 0.009 0.00 0.00 2.455 3.115 4.055 4.856 13.160 0.000 0.028 0.125 0.102 0.086 0.000 0.102 0.00 0.00 0.0000   -0.102 0.028 0.105 -0.068 0.047 -0.102 -0.068     318     0.0000 0.00 0.00   0.000 0.000 6.082 6.082 0.000 6.112 6.112 0.000
WS7MET_125 2018-01-21 18:45:00 125 30483.0 -0.043 0.039 0.134 0.022 0.064 100.000 100.000 -0.043 0.022 0.00 0.00 2.456 3.119 4.055 4.856 13.170 0.034 0.047 0.144 0.137 0.096 0.034 0.137 0.00 0.00 0.0000   -0.137 0.018 0.105 -0.068 0.009 -0.137 -0.068     318     0.0000 0.00 0.00   0.000 0.000 6.089 6.089 0.000 6.118 6.118 0.000
WS7MET_125 2018-01-21 18:40:00 125 30483.0 -0.084 0.028 0.126 0.003 0.083 100.000 100.000 -0.084 0.003 0.00 0.00 2.456 3.120 4.055 4.856 13.170 0.000 0.047 0.144 0.068 0.096 0.000 0.068 0.00 0.00 0.0000   -0.171 0.009 0.105 -0.068 0.067 -0.171 -0.068     318     0.0000 0.00 0.00   0.000 0.000 6.071 6.071 0.000 6.109 6.109 0.000
WS7MET_125 2018-01-21 18:35:00 125 30483.0 -0.072 0.000 0.088 -0.015 0.030 100.000 100.000 -0.072 -0.015 0.00 0.00 2.456 3.124 4.056 4.856 13.170 0.000 0.009 0.105 0.034 0.047 0.000 0.034 0.00 0.00 0.0000   -0.102 -0.011 0.086 -0.068 0.009 -0.102 -0.068     318     0.0000 0.00 0.00   0.000 0.000 6.076 6.076 0.000 6.101 6.101 0.000
WS7MET_125 2018-01-21 18:30:00 125 30483.0 -0.063 0.016 0.111 -0.010 0.027 100.000 100.000 -0.063 -0.010 0.00 0.00 2.458 3.130 4.060 4.856 13.180 0.000 0.028 0.125 0.034 0.047 0.000 0.034 0.00 0.00 0.0000   -0.171 -0.001 0.096 -0.068 0.009 -0.171 -0.068     318     0.0000 0.00 0.00   0.000 0.000 6.080 6.080 0.000 6.103 6.103 0.000
WS7MET_125 2018-01-21 18:25:00 125 30483.0 -0.038 0.036 0.131 0.015 0.057 100.000 100.000 -0.038 0.015 0.00 0.00 2.471 3.139 4.063 4.856 13.180 0.000 0.047 0.144 0.102 0.154 0.000 0.102 0.00 0.00 0.0000   -0.068 0.018 0.125 -0.068 0.009 -0.068 -0.068     318     0.0000 0.00 0.00   0.000 0.000 6.091 6.091 -0.000 6.114 6.114 0.000
WS7MET_125 2018-01-21 18:20:00 125 30483.0 -0.039 0.057 0.154 0.043 0.093 100.000 100.000 -0.039 0.043 0.00 0.00 2.474 3.139 4.070 4.856 13.190 0.000 0.067 0.163 0.102 0.192 0.000 0.102 0.00 0.00 0.0000   -0.102 0.047 0.144 -0.034 0.047 -0.102 -0.034     318     0.0000 0.00 0.00   0.000 0.000 6.090 6.090 -0.000 6.127 6.127 -0.000
WS7MET_125 2018-01-21 18:15:00 125 30483.0 -0.072 0.049 0.141 0.020 0.093 100.000 100.000 -0.072 0.021 0.00 0.00 2.475 3.139 4.072 4.857 13.180 -0.034 0.067 0.163 0.137 0.202 -0.034 0.137 0.00 0.00 0.0000   -0.171 0.047 0.134 -0.068 0.067 -0.171 -0.068     318     0.0000 0.00 0.00   0.000 0.000 6.076 6.076 0.000 6.117 6.117 0.000
WS7MET_125 2018-01-21 18:10:00 125 30483.0 -0.068 0.041 0.130 0.027 0.087 100.000 100.000 -0.068 0.027 0.00 0.00 2.475 3.147 4.074 4.857 13.200 -0.034 0.047 0.144 0.102 0.096 -0.034 0.102 0.00 0.00 0.0000   -0.137 0.028 0.125 -0.034 0.076 -0.137 -0.034     318     0.0000 0.00 0.00   0.000 0.000 6.078 6.078 0.000 6.120 6.120 0.000
WS7MET_125 2018-01-21 18:05:00 125 30483.0 -0.082 0.015 0.111 -0.007 0.057 100.000 100.000 -0.082 -0.007 0.00 0.00 2.475 3.149 4.074 4.859 13.200 0.000 0.028 0.125 0.068 0.086 0.000 0.068 0.00 0.00 0.0000   -0.171 0.009 0.105 -0.068 0.047 -0.171 -0.068     318     0.0000 0.00 0.00   0.000 0.000 6.071 6.071 0.000 6.105 6.105 0.000
WS7MET_125 2018-01-21 18:00:00 125 30483.0 -0.070 0.009 0.105 -0.027 0.049 100.000 100.000 -0.070 -0.027 0.00 0.00 2.479 3.153 4.074 4.859 13.210 0.000 0.009 0.105 0.034 0.067 0.000 0.034 0.00 0.00 0.0000   -0.137 0.009 0.096 -0.102 0.028 -0.137 -0.102     318     0.0000 0.00 0.00   0.000 0.000 6.077 6.077 0.000 6.096 6.096 0.000
WS7MET_125 2018-01-21 17:55:00 125 30483.0 -0.090 0.009 0.105 -0.014 0.035 100.000 100.000 -0.090 -0.014 0.00 0.00 2.487 3.158 4.074 4.861 13.210 -0.034 0.009 0.105 0.034 0.047 -0.034 0.034 0.00 0.00 0.0000   -0.171 0.009 0.105 -0.068 0.028 -0.171 -0.068     318     0.0000 0.00 0.00   0.000 0.000 6.068 6.068 0.000 6.102 6.102 0.000
WS7MET_125 2018-01-21 17:50:00 125 30483.0 -0.051 0.023 0.116 -0.009 0.045 100.000 100.000 -0.051 -0.009 0.00 0.00 2.494 3.161 4.074 4.864 13.210 0.034 0.028 0.125 0.068 0.047 0.034 0.068 0.00 0.00 0.0000   -0.102 0.009 0.105 -0.068 0.038 -0.102 -0.068     318     0.0000 0.00 0.00   0.000 0.000 6.085 6.085 0.000 6.104 6.104 0.000
WS7MET_125 2018-01-21 17:45:00 125 30483.0 -0.051 0.047 0.128 0.003 0.072 100.000 100.000 -0.051 0.003 0.00 0.00 2.494 3.171 4.074 4.866 13.220 0.000 0.047 0.134 0.068 0.086 0.000 0.068 0.00 0.00 0.0000   -0.102 0.038 0.125 -0.068 0.047 -0.102 -0.068     318     0.0000 0.00 0.00   0.000 0.000 6.085 6.085 0.000 6.109 6.109 0.000
WS7MET_125 2018-01-21 17:40:00 125 30483.0 -0.032 0.047 0.134 0.005 0.068 100.000 100.000 -0.032 0.005 0.00 0.00 2.494 3.176 4.079 4.870 13.220 0.034 0.047 0.144 0.102 0.086 0.034 0.102 0.00 0.00 0.0000   -0.102 0.047 0.125 -0.102 0.057 -0.102 -0.102     318     0.0000 0.00 0.00   0.000 0.000 6.094 6.094 -0.000 6.110 6.110 0.000
WS7MET_125 2018-01-21 17:35:00 125 30483.0 -0.043 0.047 0.144 0.000 0.072 100.000 100.000 -0.043 0.000 0.00 0.00 2.506 3.178 4.091 4.874 13.230 0.034 0.047 0.144 0.068 0.086 0.034 0.068 0.00 0.00 0.0000   -0.102 0.047 0.144 -0.102 0.067 -0.102 -0.102     318     0.0000 0.00 0.00   0.000 0.000 6.089 6.089 0.000 6.108 6.108 0.000
WS7MET_125 2018-01-21 17:30:00 125 30483.0 -0.053 0.047 0.142 0.017 0.071 100.000 100.000 -0.053 0.017 0.00 0.00 2.513 3.185 4.093 4.876 13.230 0.000 0.047 0.144 0.102 0.076 0.000 0.102 0.00 0.00 0.0000   -0.137 0.047 0.134 -0.068 0.067 -0.137 -0.068     318     0.0000 0.00 0.00   0.000 0.000 6.084 6.084 0.000 6.115 6.115 0.000
WS7MET_125 2018-01-21 17:25:00 125 30483.0 -0.070 0.034 0.126 -0.005 0.060 100.000 100.000 -0.070 -0.005 0.00 0.00 2.513 3.192 4.093 4.876 13.240 0.000 0.047 0.134 0.068 0.067 0.000 0.068 0.00 0.00 0.0000   -0.137 0.028 0.115 -0.068 0.047 -0.137 -0.068     318     0.0000 0.00 0.00   0.000 0.000 6.077 6.077 0.000 6.106 6.106 0.000
WS7MET_125 2018-01-21 17:20:00 125 30483.0 -0.078 0.024 0.122 0.005 0.061 100.000 100.000 -0.079 0.005 0.00 0.00 2.514 3.197 4.094 4.876 13.240 -0.034 0.028 0.125 0.102 0.086 -0.034 0.102 0.00 0.00 0.0000   -0.137 0.009 0.105 -0.068 0.047 -0.137 -0.068     318     0.0000 0.00 0.00   0.000 0.000 6.073 6.073 0.000 6.110 6.110 0.000
WS7MET_125 2018-01-21 17:15:00 125 30483.0 -0.073 -0.007 0.085 -0.039 0.032 100.000 100.000 -0.073 -0.039 0.00 0.00 2.519 3.202 4.102 4.876 13.240 0.000 0.009 0.105 0.034 0.067 0.000 0.034 0.00 0.00 0.0000   -0.137 -0.020 0.067 -0.137 0.009 -0.137 -0.137     318     0.0000 0.00 0.00   0.000 0.000 6.075 6.075 0.000 6.090 6.090 -0.000
WS7MET_125 2018-01-21 17:10:00 125 30483.0 -0.097 -0.016 0.071 -0.039 -0.005 100.000 100.000 -0.097 -0.039 0.00 0.00 2.529 3.215 4.112 4.876 13.260 0.000 -0.011 0.086 0.034 0.009 0.000 0.034 0.00 0.00 0.0000   -0.205 -0.020 0.067 -0.137 -0.011 -0.205 -0.137     318     0.0000 0.00 0.00   0.000 0.000 6.065 6.065 0.000 6.090 6.090 -0.000
WS7MET_125 2018-01-21 17:05:00 125 30483.0 -0.068 -0.006 0.086 -0.024 -0.004 100.000 100.000 -0.068 -0.024 0.00 0.00 2.532 3.216 4.113 4.876 13.260 0.000 0.009 0.086 0.068 0.009 0.000 0.068 0.00 0.00 0.0000   -0.137 -0.011 0.086 -0.102 -0.011 -0.137 -0.102     318     0.0000 0.00 0.00   0.000 0.000 6.078 6.078 0.000 6.097 6.097 0.000
WS7MET_125 2018-01-21 17:00:00 125 30483.0 -0.065 0.006 0.090 -0.024 0.011 100.000 100.000 -0.065 -0.024 0.00 0.00 2.535 3.222 4.113 4.876 13.270 0.000 0.009 0.096 0.068 0.028 0.000 0.068 0.00 0.00 0.0000   -0.102 -0.001 0.086 -0.068 -0.030 -0.102 -0.068     318     0.0000 0.00 0.00   0.000 0.000 6.079 6.079 0.000 6.097 6.097 0.000
WS7MET_125 2018-01-21 16:55:00 125 30483.0 -0.068 0.007 0.103 -0.005 -0.018 100.000 100.000 -0.068 -0.005 0.00 0.07 2.547 3.227 4.124 4.876 13.270 0.000 0.009 0.105 0.068 -0.001 0.000 0.068 0.00 1.34 0.0000   -0.137 -0.001 0.086 -0.068 -0.030 -0.137 -0.068     318     0.0000 0.00 0.00   0.000 0.000 6.078 6.078 0.000 6.106 6.106 0.000
WS7MET_125 2018-01-21 16:50:00 125 30483.0 -0.031 0.029 0.119 0.012 0.023 100.000 100.000 -0.031 0.012 0.00 1.21 2.552 3.236 4.132 4.879 13.280 0.034 0.047 0.125 0.102 0.047 0.034 0.102 0.00 1.34 0.0000   -0.102 0.009 0.105 -0.034 -0.001 -0.102 -0.034     318     0.0000 0.00 0.00   0.000 0.000 6.094 6.094 0.000 6.113 6.113 0.000
WS7MET_125 2018-01-21 16:45:00 125 30483.0 -0.014 0.048 0.136 0.026 0.034 100.000 100.000 -0.014 0.026 0.00 1.34 2.554 3.246 4.132 4.888 13.280 0.068 0.057 0.144 0.068 0.047 0.068 0.068 0.00 1.34 0.0000   -0.102 0.047 0.125 -0.034 0.028 -0.102 -0.034     318     0.0000 0.00 0.00   0.000 0.000 6.102 6.102 0.000 6.119 6.119 0.000
WS7MET_125 2018-01-21 16:40:00 125 30483.0 0.005 0.067 0.156 0.056 0.039 100.000 100.000 0.005 0.056 0.00 1.28 2.567 3.254 4.145 4.895 13.290 0.102 0.086 0.173 0.137 0.047 0.102 0.137 0.00 1.34 0.0000   -0.068 0.057 0.144 0.000 0.028 -0.068 0.000     318     0.0000 0.00 0.00   0.000 0.000 6.110 6.110 0.000 6.133 6.133 0.000
WS7MET_125 2018-01-21 16:35:00 125 30483.0 0.003 0.090 0.186 0.056 0.056 100.000 100.000 0.003 0.056 0.00 1.34 2.571 3.259 4.151 4.895 13.290 0.034 0.105 0.202 0.137 0.086 0.034 0.137 0.00 1.34 0.0000   -0.068 0.086 0.173 -0.034 0.038 -0.068 -0.034     318     0.0000 0.00 0.00   0.000 0.000 6.109 6.109 0.000 6.133 6.133 0.000
WS7MET_125 2018-01-21 16:30:00 125 30483.0 0.051 0.123 0.217 0.108 0.092 100.000 100.000 0.051 0.108 0.00 1.34 2.584 3.269 4.152 4.895 13.300 0.102 0.144 0.240 0.171 0.134 0.102 0.171 0.00 1.34 0.0000   -0.034 0.105 0.202 0.034 0.067 -0.034 0.034     318     0.0000 0.00 0.00   0.000 0.000 6.131 6.131 0.000 6.156 6.156 0.000
WS7MET_125 2018-01-21 16:25:00 125 30483.0 0.067 0.130 0.234 0.126 0.113 100.000 100.000 0.067 0.126 0.00 1.41 2.590 3.276 4.158 4.895 13.310 0.137 0.144 0.240 0.205 0.144 0.137 0.205 0.00 2.69 0.0000   -0.034 0.125 0.221 0.068 0.086 -0.034 0.068     318     0.0000 0.00 0.00   0.000 0.000 6.138 6.138 0.000 6.164 6.164 0.000
WS7MET_125 2018-01-21 16:20:00 125 30483.0 0.085 0.175 0.279 0.186 0.115 100.000 100.000 0.085 0.186 0.00 2.69 2.592 3.292 4.171 4.895 13.310 0.171 0.202 0.308 0.307 0.154 0.171 0.307 0.00 2.69 0.0000   0.000 0.144 0.240 0.137 0.076 0.000 0.137     318     0.0000 0.00 0.00   0.000 0.000 6.146 6.146 0.000 6.191 6.191 0.000
WS7MET_125 2018-01-21 16:15:00 125 30483.0 0.133 0.226 0.337 0.212 0.150 100.000 100.000 0.133 0.212 0.00 3.63 2.607 3.296 4.180 4.895 13.310 0.239 0.260 0.375 0.273 0.173 0.239 0.273 0.00 4.03 0.0000   0.068 0.202 0.318 0.171 0.125 0.068 0.171     318     0.0000 0.00 0.00   0.000 0.000 6.167 6.167 0.000 6.203 6.203 0.000
WS7MET_125 2018-01-21 16:10:00 125 30483.0 0.208 0.292 0.411 0.329 0.209 100.000 100.000 0.208 0.330 0.00 3.29 2.611 3.304 4.190 4.895 13.320 0.273 0.337 0.472 0.410 0.250 0.273 0.410 0.00 4.03 0.0000   0.171 0.260 0.375 0.239 0.163 0.171 0.239     318     0.0000 0.00 0.00   0.000 0.000 6.201 6.201 0.000 6.256 6.256 0.000
WS7MET_125 2018-01-21 16:05:00 125 30483.0 0.253 0.401 0.528 0.447 0.384 100.000 100.000 0.253 0.447 0.00 4.03 2.627 3.313 4.191 4.898 13.340 0.375 0.453 0.588 0.512 0.539 0.376 0.512 0.00 4.03 0.3660   0.205 0.337 0.472 0.341 0.260 0.205 0.342     318     0.0460 20.19 0.25   0.000 0.000 6.221 6.221 0.000 6.309 6.309 0.000
WS7MET_125 2018-01-21 16:00:00 125 30483.0 0.282 0.413 0.545 0.485 0.379 100.000 100.000 0.282 0.485 0.81 4.43 2.629 3.324 4.207 4.904 13.350 0.341 0.453 0.568 0.580 0.462 0.342 0.581 1.34 5.37 0.3850   0.205 0.395 0.530 0.375 0.327 0.205 0.376     318     0.0750 341.50 27.25   0.000 0.000 6.234 6.234 0.000 6.327 6.327 0.000
WS7MET_125 2018-01-21 15:55:00 125 30483.0 0.346 0.482 0.617 0.532 0.427 100.000 100.000 0.347 0.533 1.34 6.31 2.641 3.333 4.210 4.909 13.360 0.444 0.510 0.645 0.614 0.453 0.444 0.615 1.34 8.06 0.4180   0.239 0.453 0.578 0.444 0.395 0.239 0.444     318     0.0960 344.10 7.78   0.000 0.000 6.263 6.264 0.000 6.348 6.349 0.000
WS7MET_125 2018-01-21 15:50:00 125 30483.0 0.461 0.586 0.737 0.695 0.518 100.000 100.000 0.461 0.695 0.74 4.36 2.648 3.343 4.225 4.914 13.360 0.614 0.665 0.819 0.853 0.588 0.615 0.854 1.34 5.37 0.2220   0.307 0.510 0.665 0.580 0.453 0.307 0.581     318     0.0110 354.50 0.00   0.000 0.000 6.316 6.316 0.000 6.424 6.424 0.000
WS7MET_125 2018-01-21 15:45:00 125 30483.0 0.638 0.746 0.880 0.817 0.664 100.000 100.000 0.639 0.818 1.14 4.90 2.658 3.351 4.228 4.915 13.370 0.751 0.819 0.935 0.956 0.838 0.751 0.956 1.34 6.72 0.5810   0.512 0.665 0.819 0.751 0.501 0.512 0.751     318     0.1740 61.04 23.89   0.000 0.000 6.397 6.398 0.000 6.481 6.481 0.000
WS7MET_125 2018-01-21 15:40:00 125 30483.0 0.756 0.888 1.003 0.925 0.885 100.000 100.000 0.756 0.926 0.54 4.43 2.667 3.365 4.237 4.915 13.380 0.819 0.935 1.050 0.990 1.012 0.820 0.990 1.34 5.37 0.8490   0.683 0.819 0.935 0.785 0.742 0.683 0.786     318     0.2430 69.73 17.28   0.000 0.000 6.452 6.452 0.000 6.531 6.532 0.000
WS7MET_125 2018-01-21 15:35:00 125 30483.0 0.761 0.894 1.045 1.015 0.864 100.000 100.000 0.762 1.016 0.34 4.03 2.673 3.370 4.248 4.915 13.390 0.853 0.992 1.146 1.126 0.935 0.854 1.127 1.34 4.03 0.8430   0.648 0.838 0.992 0.922 0.838 0.649 0.922     318     0.3100 53.47 17.48   0.000 0.000 6.454 6.455 0.000 6.574 6.574 0.000
WS7MET_125 2018-01-21 15:30:00 125 30483.0 0.869 1.034 1.183 1.130 1.030 100.000 100.000 0.869 1.130 0.07 4.10 2.684 3.378 4.257 4.915 13.400 0.956 1.118 1.262 1.195 1.118 0.956 1.195 1.34 5.37 0.6470   0.751 0.992 1.146 1.024 0.963 0.751 1.025     318     0.3600 69.41 28.87   0.000 0.000 6.505 6.505 0.000 6.629 6.629 0.000
WS7MET_125 2018-01-21 15:25:00 125 30483.0 0.838 1.089 1.233 1.119 1.182 100.000 100.000 0.838 1.120 1.34 6.45 2.691 3.386 4.267 4.915 13.420 0.990 1.185 1.310 1.229 1.301 0.990 1.230 1.34 8.06 0.9870   0.683 0.973 1.127 0.990 1.089 0.683 0.990     318     0.3500 68.12 57.01   0.000 0.000 6.490 6.490 0.000 6.623 6.624 0.000
WS7MET_125 2018-01-21 15:20:00 125 30483.0 0.761 0.925 1.107 1.089 0.894 100.000 100.000 0.762 1.089 1.34 5.71 2.703 3.392 4.273 4.920 13.420 0.887 0.973 1.146 1.195 1.146 0.888 1.195 1.34 6.72 0.7580   0.648 0.857 1.031 1.024 0.761 0.649 1.025     318     0.2540 57.39 56.15   0.000 0.000 6.454 6.455 0.000 6.609 6.609 0.000
WS7MET_125 2018-01-21 15:15:00 125 30483.0 1.002 1.154 1.316 1.266 1.007 100.000 100.000 1.002 1.267 1.34 6.51 2.708 3.407 4.285 4.924 13.440 1.126 1.281 1.435 1.399 1.339 1.127 1.400 1.34 8.06 0.6860   0.922 0.973 1.156 1.058 0.790 0.922 1.059     318     0.1530 36.75 34.39   0.000 0.000 6.568 6.568 0.000 6.694 6.694 0.000
WS7MET_125 2018-01-21 15:10:00 125 30483.0 1.058 1.258 1.404 1.312 1.168 100.000 100.000 1.059 1.313 1.68 9.47 2.722 3.415 4.291 4.931 13.470 1.160 1.329 1.464 1.399 1.301 1.161 1.400 2.69 12.09 2.0910   0.990 1.166 1.339 1.195 0.925 0.990 1.195     318     0.4840 310.90 83.80   0.000 0.000 6.594 6.595 0.000 6.716 6.717 0.000
WS7MET_125 2018-01-21 15:05:00 125 30483.0 1.114 1.311 1.478 1.430 1.193 100.000 100.000 1.115 1.431 1.95 11.21 2.727 3.425 4.306 4.933 13.480 1.263 1.406 1.570 1.502 1.455 1.264 1.503 2.69 14.77 1.7840   0.990 1.214 1.397 1.365 1.012 0.990 1.366     318     0.3900 4.24 73.41   0.000 0.000 6.621 6.622 -0.000 6.773 6.774 0.000
WS7MET_125 2018-01-21 15:00:00 125 30483.0 1.104 1.337 1.485 1.389 1.362 100.000 100.000 1.105 1.390 2.55 12.22 2.742 3.433 4.306 4.933 13.480 1.195 1.397 1.532 1.502 1.474 1.195 1.503 2.69 13.43 1.8420   0.990 1.223 1.416 1.263 1.204 0.990 1.264     318     0.7640 276.20 38.15   0.000 0.000 6.616 6.617 0.000 6.753 6.754 0.000
WS7MET_125 2018-01-21 14:55:00 125 30483.0 1.085 1.200 1.373 1.333 1.041 100.000 100.000 1.086 1.334 1.88 10.27 2.745 3.446 4.319 4.934 13.480 1.195 1.223 1.416 1.433 1.156 1.195 1.434 2.69 12.09 1.6590   1.024 1.166 1.339 1.229 0.877 1.025 1.230     318     0.2010 233.60 41.65   0.000 0.000 6.607 6.608 0.000 6.726 6.727 0.000
WS7MET_125 2018-01-21 14:50:00 125 30483.0 1.345 1.471 1.622 1.555 1.352 100.000 100.000 1.346 1.556 2.89 15.44 2.754 3.450 4.326 4.934 13.510 1.468 1.599 1.724 1.672 1.628 1.469 1.674 4.03 20.14 1.2220   1.195 1.243 1.416 1.365 0.925 1.195 1.366     318     0.5650 80.60 54.98   0.000 0.000 6.732 6.733 0.000 6.835 6.835 0.000
WS7MET_125 2018-01-21 14:45:00 125 30483.0 1.415 1.546 1.689 1.618 1.424 100.000 100.000 1.416 1.619 2.69 14.64 2.763 3.457 4.341 4.934 13.500 1.536 1.666 1.763 1.707 1.628 1.537 1.708 2.69 17.46 1.4500   1.297 1.445 1.609 1.536 1.262 1.298 1.537     318     0.2290 137.30 60.17   0.000 0.000 6.766 6.767 0.000 6.866 6.866 0.000
WS7MET_125 2018-01-21 14:40:00 125 30483.0 1.410 1.595 1.734 1.630 1.570 100.000 100.000 1.411 1.631 2.69 13.50 2.773 3.467 4.344 4.934 13.500 1.502 1.657 1.763 1.741 1.657 1.503 1.742 2.69 16.12 1.0850   1.263 1.512 1.666 1.570 1.416 1.264 1.571     318     0.3290 232.90 77.85   0.000 0.000 6.764 6.764 0.000 6.871 6.872 0.000
WS7MET_125 2018-01-21 14:35:00 125 30483.0 1.488 1.650 1.778 1.707 1.595 100.000 100.000 1.489 1.708 2.69 16.72 2.783 3.475 4.354 4.934 13.520 1.604 1.705 1.830 1.775 1.705 1.605 1.776 2.69 18.80 1.6660   1.399 1.512 1.666 1.604 1.397 1.400 1.605     318     0.7140 48.98 94.70   0.000 0.000 6.802 6.802 -0.000 6.910 6.910 0.000
WS7MET_125 2018-01-21 14:30:00 125 30483.0 1.345 1.548 1.710 1.633 1.543 100.000 100.000 1.346 1.634 2.75 17.32 2.789 3.485 4.364 4.934 13.530 1.433 1.666 1.801 1.741 1.695 1.434 1.742 4.03 21.49 1.4370   1.263 1.416 1.599 1.536 1.310 1.264 1.537     318     0.3540 147.40 77.66   0.000 0.000 6.732 6.733 0.000 6.873 6.873 0.000
WS7MET_125 2018-01-21 14:25:00 125 30483.0 1.346 1.576 1.746 1.667 1.514 100.000 100.000 1.347 1.668 3.56 19.27 2.801 3.489 4.374 4.934 13.530 1.399 1.628 1.801 1.741 1.695 1.400 1.742 4.03 21.49 1.3330   1.229 1.512 1.705 1.604 1.329 1.230 1.605     318     0.4500 106.50 63.75   0.000 0.000 6.733 6.733 0.000 6.890 6.890 0.000
WS7MET_125 2018-01-21 14:20:00 125 30483.0 1.244 1.511 1.697 1.638 1.511 100.000 100.000 1.245 1.639 4.03 21.55 2.806 3.503 4.383 4.934 13.540 1.365 1.628 1.782 1.741 1.714 1.366 1.742 4.03 26.86 1.8620   1.126 1.397 1.609 1.570 1.291 1.127 1.571     318     0.6600 89.30 63.82   0.000 0.000 6.683 6.684 0.000 6.875 6.876 0.000
WS7MET_125 2018-01-21 14:15:00 125 30483.0 1.321 1.579 1.740 1.611 1.577 100.000 100.000 1.322 1.612 4.03 22.56 2.819 3.507 4.386 4.934 13.530 1.399 1.666 1.801 1.707 1.753 1.400 1.708 4.03 26.86 1.5160   1.195 1.455 1.647 1.468 1.397 1.195 1.469     318     0.6590 65.26 19.88   0.000 0.000 6.721 6.721 -0.000 6.862 6.863 0.000
WS7MET_125 2018-01-21 14:10:00 125 30483.0 0.910 1.210 1.414 1.340 1.256 100.000 100.000 0.910 1.341 4.03 22.36 2.821 3.522 4.401 4.934 13.510 1.126 1.416 1.589 1.536 1.666 1.127 1.537 4.03 28.20 0.6010   0.648 0.963 1.214 1.195 0.819 0.649 1.195     318     0.1310 6.43 70.12   0.000 0.000 6.524 6.524 0.000 6.730 6.730 0.000
WS7MET_125 2018-01-21 14:05:00 125 30483.0 0.848 1.110 1.411 1.420 1.130 100.000 100.000 0.849 1.421 4.03 22.76 2.831 3.524 4.404 4.934 13.510 0.956 1.204 1.560 1.570 1.455 0.956 1.571 4.03 25.52 1.0780   0.751 0.992 1.243 1.195 0.838 0.751 1.195     318     0.2560 52.96 31.57   0.000 0.000 6.495 6.496 -0.000 6.769 6.769 0.000
WS7MET_125 2018-01-21 14:00:00 125 30483.0 0.858 1.072 1.301 1.302 1.030 100.000 100.000 0.859 1.303 4.03 25.05 2.841 3.531 4.420 4.934 13.510 0.956 1.204 1.416 1.468 1.464 0.956 1.469 4.03 28.20 0.6660   0.751 0.954 1.185 1.195 0.723 0.751 1.195     318     0.1700 28.68 8.54   0.000 0.000 6.500 6.500 0.000 6.711 6.712 0.000
WS7MET_125 2018-01-21 13:55:00 125 30483.0 0.867 1.142 1.359 1.305 1.183 100.000 100.000 0.867 1.306 4.03 25.99 2.852 3.541 4.422 4.934 13.500 0.990 1.281 1.493 1.433 1.464 0.990 1.434 4.03 29.54 0.8560   0.751 1.050 1.262 1.195 0.915 0.751 1.195     318     0.3900 71.70 84.60   0.000 0.000 6.504 6.504 -0.000 6.713 6.713 0.000
WS7MET_125 2018-01-21 13:50:00 125 30483.0 0.995 1.272 1.443 1.370 1.224 100.000 100.000 0.996 1.371 4.03 25.05 2.860 3.545 4.437 4.935 13.470 1.126 1.416 1.570 1.502 1.512 1.127 1.503 4.03 29.54 1.6730   0.853 1.040 1.243 1.195 0.838 0.854 1.195     318     0.6800 110.10 81.80   0.000 0.000 6.564 6.565 -0.000 6.744 6.745 0.000
WS7MET_125 2018-01-21 13:45:00 125 30483.0 0.766 1.031 1.236 1.191 0.985 100.000 100.000 0.767 1.192 4.03 27.73 2.865 3.559 4.443 4.939 13.450 0.887 1.204 1.416 1.331 1.262 0.888 1.332 4.03 30.89 1.2610   0.648 0.935 1.146 1.092 0.751 0.649 1.093     318     0.3470 238.10 74.20   0.000 0.000 6.457 6.457 0.000 6.658 6.658 0.000
WS7MET_125 2018-01-21 13:40:00 125 30483.0 0.717 1.020 1.230 1.193 1.081 100.000 100.000 0.717 1.193 4.03 21.62 2.879 3.563 4.457 4.943 13.400 0.853 1.156 1.378 1.297 1.339 0.854 1.298 4.03 24.17 1.8100   0.478 0.915 1.127 1.024 0.896 0.478 1.020     318     0.6760 335.30 33.39   0.000 0.000 6.434 6.434 0.000 6.659 6.659 -0.000
WS7MET_125 2018-01-21 13:35:00 125 30483.0 0.520 0.760 1.014 1.090 0.697 100.000 100.000 0.521 1.091 4.03 26.99 2.886 3.571 4.460 4.945 13.400 0.614 0.819 1.089 1.195 0.857 0.615 1.195 4.03 36.26 1.0130   0.410 0.665 0.896 0.990 0.520 0.410 0.990     318     0.2340 303.00 45.38   0.000 0.000 6.343 6.343 0.000 6.610 6.610 0.000
WS7MET_125 2018-01-21 13:30:00 125 30483.0 0.565 0.871 1.148 1.183 0.896 100.000 100.000 0.565 1.183 4.03 20.82 2.898 3.582 4.472 4.945 13.360 0.614 0.992 1.301 1.263 1.262 0.615 1.264 4.03 26.86 0.7320   0.478 0.790 1.031 1.058 0.665 0.478 1.059     318     0.1730 352.40 57.37   0.000 0.000 6.364 6.364 0.000 6.654 6.654 0.000
WS7MET_125 2018-01-21 13:25:00 125 30483.0 0.580 0.935 1.208 1.189 0.905 100.000 100.000 0.581 1.190 4.03 22.02 2.898 3.586 4.480 4.950 13.350 0.648 1.050 1.368 1.297 1.349 0.649 1.298 4.03 26.86 1.0390   0.478 0.800 1.060 1.058 0.655 0.478 1.059     318     0.2450 40.16 30.33   0.000 0.000 6.370 6.371 0.000 6.657 6.657 0.000
WS7MET_125 2018-01-21 13:20:00 125 30483.0 0.437 0.689 0.922 0.913 0.656 100.000 100.000 0.437 0.913 4.43 29.01 2.913 3.597 4.496 4.952 13.370 0.546 0.896 1.214 0.990 1.195 0.546 0.990 5.37 33.57 0.4440   0.375 0.636 0.857 0.819 0.530 0.376 0.820     318     0.1690 15.39 25.89   0.000 0.000 6.305 6.305 0.000 6.526 6.526 0.000
WS7MET_125 2018-01-21 13:15:00 125 30483.0 0.439 0.664 0.899 0.944 0.655 100.000 100.000 0.439 0.943 4.03 26.72 2.918 3.601 4.500 4.952 13.310 0.512 0.684 0.925 1.024 0.732 0.512 1.025 4.03 29.54 0.4440   0.375 0.645 0.877 0.853 0.597 0.376 0.854     318     0.1650 18.73 6.45   0.000 0.000 6.306 6.306 0.000 6.540 6.540 0.000
WS7MET_125 2018-01-21 13:10:00 125 30483.0 0.432 0.670 0.909 0.980 0.684 100.000 100.000 0.432 0.977 4.03 24.58 2.932 3.610 4.512 4.952 13.290 0.546 0.684 0.935 1.058 0.751 0.546 1.059 4.03 26.86 0.5810   0.375 0.636 0.877 0.853 0.607 0.376 0.844     318     0.2200 11.71 12.35   0.000 0.000 6.303 6.303 0.000 6.557 6.556 0.000
WS7MET_125 2018-01-21 13:05:00 125 30483.0 0.505 0.694 0.918 1.026 0.627 100.000 99.900 0.505 1.018 4.03 24.58 2.937 3.615 4.519 4.952 13.270 0.614 0.761 0.992 1.126 0.723 0.615 1.127 4.03 26.86 0.5160   0.410 0.645 0.877 0.853 0.578 0.410 0.840     318     0.1780 22.91 8.81   0.000 0.000 6.336 6.336 0.000 6.579 6.575 0.007
WS7MET_125 2018-01-21 13:00:00 125 30483.0 0.720 0.896 1.125 1.234 0.842 100.000 100.000 0.721 1.234 4.03 23.90 2.938 3.623 4.535 4.953 13.260 0.922 1.108 1.320 1.331 1.166 0.922 1.332 4.03 25.52 0.7450   0.580 0.771 0.992 1.058 0.684 0.581 1.059     318     0.1060 80.40 23.06   0.000 0.000 6.435 6.436 0.000 6.679 6.679 0.000
WS7MET_125 2018-01-21 12:55:00 125 30483.0 0.693 0.925 1.130 1.106 0.928 100.000 100.000 0.693 1.107 4.03 22.23 2.955 3.631 4.537 4.953 13.230 0.887 1.204 1.397 1.263 1.416 0.888 1.264 4.03 28.20 1.3390   0.546 0.751 0.992 1.024 0.616 0.546 1.025     318     0.3680 319.10 83.40   0.000 0.000 6.423 6.423 0.000 6.617 6.618 0.000
WS7MET_125 2018-01-21 12:50:00 125 30483.0 0.881 1.155 1.362 1.341 1.122 100.000 100.000 0.881 1.342 3.63 16.72 2.956 3.640 4.542 4.953 13.200 1.024 1.435 1.609 1.502 1.657 1.025 1.503 4.03 17.46 0.9280   0.683 0.867 1.108 1.160 0.742 0.683 1.161     318     0.4080 27.11 42.63   0.000 0.000 6.511 6.511 0.000 6.730 6.731 0.000
WS7MET_125 2018-01-21 12:45:00 125 30483.0 0.672 1.016 1.279 1.285 1.055 100.000 100.000 0.673 1.286 3.83 18.06 2.963 3.642 4.556 4.953 13.190 0.819 1.223 1.512 1.399 1.493 0.820 1.400 4.03 18.80 1.1170   0.546 0.857 1.108 1.195 0.838 0.546 1.195     318     0.6170 325.30 63.18   0.000 0.000 6.413 6.413 0.000 6.703 6.704 0.000
WS7MET_125 2018-01-21 12:40:00 125 30483.0 0.724 0.959 1.166 1.007 0.963 100.000 100.000 0.724 1.008 3.76 18.40 2.975 3.651 4.559 4.953 13.180 0.853 1.146 1.455 1.195 1.416 0.854 1.195 4.03 20.14 1.4500   0.580 0.780 0.954 0.887 0.549 0.581 0.888     318     0.3940 50.79 28.82   0.000 0.000 6.437 6.437 0.000 6.570 6.571 0.000
WS7MET_125 2018-01-21 12:35:00 125 30483.0 0.381 0.635 0.787 0.597 0.689 100.000 100.000 0.381 0.598 3.22 16.52 2.975 3.658 4.573 4.952 13.170 0.887 1.204 1.320 0.990 1.397 0.888 0.990 4.03 18.80 1.6730   0.137 0.356 0.491 0.410 0.289 0.137 0.410     318     0.6160 285.10 50.60   0.000 0.000 6.279 6.279 0.000 6.378 6.379 0.000
WS7MET_125 2018-01-21 12:30:00 125 30483.0 0.201 0.335 0.470 0.442 0.285 100.000 100.000 0.202 0.442 4.03 20.82 2.975 3.659 4.576 4.951 13.160 0.307 0.337 0.491 0.512 0.337 0.307 0.512 4.03 22.83 0.9210   0.137 0.318 0.453 0.341 0.260 0.137 0.342     318     0.4550 328.60 26.97   0.000 0.000 6.198 6.198 0.000 6.307 6.307 0.000
WS7MET_125 2018-01-21 12:25:00 125 30483.0 0.236 0.377 0.533 0.505 0.300 100.000 100.000 0.236 0.505 3.02 16.52 2.982 3.664 4.576 4.949 13.140 0.307 0.414 0.607 0.580 0.395 0.307 0.581 4.03 18.80 0.9670   0.137 0.337 0.472 0.444 0.269 0.137 0.444     318     0.4080 344.50 34.69   0.000 0.000 6.213 6.213 -0.000 6.336 6.336 0.000
WS7MET_125 2018-01-21 12:20:00 125 30483.0 0.258 0.419 0.563 0.520 0.346 100.000 100.000 0.258 0.521 4.03 20.75 2.990 3.673 4.579 4.950 13.130 0.307 0.433 0.588 0.580 0.433 0.307 0.581 4.03 22.83 0.6730   0.205 0.395 0.539 0.444 0.279 0.205 0.444     318     0.2140 337.00 14.16   0.000 0.000 6.223 6.223 0.000 6.343 6.343 0.000
WS7MET_125 2018-01-21 12:15:00 125 30483.0 0.236 0.396 0.536 0.495 0.295 100.000 100.000 0.236 0.495 3.89 20.48 2.995 3.679 4.592 4.950 13.110 0.341 0.414 0.568 0.614 0.346 0.342 0.615 4.03 22.83 0.8750   0.171 0.385 0.520 0.410 0.260 0.171 0.410     318     0.3180 359.00 21.82   0.000 0.000 6.213 6.213 -0.000 6.331 6.331 0.000
WS7MET_125 2018-01-21 12:10:00 125 30483.0 0.312 0.503 0.683 0.660 0.432 100.000 100.000 0.313 0.661 3.29 18.73 2.995 3.679 4.594 4.950 13.110 0.410 0.568 0.790 0.785 0.588 0.410 0.786 4.03 24.17 0.5620   0.239 0.424 0.578 0.546 0.318 0.239 0.546     318     0.2900 325.30 31.17   0.000 0.000 6.248 6.248 0.000 6.407 6.408 0.000
WS7MET_125 2018-01-21 12:05:00 125 30483.0 0.292 0.530 0.740 0.625 0.556 100.000 100.000 0.292 0.625 4.03 23.84 2.995 3.679 4.595 4.951 13.100 0.444 0.780 1.031 0.785 1.012 0.444 0.786 4.03 26.86 1.7900   0.171 0.337 0.491 0.410 0.279 0.171 0.410     318     0.5660 355.30 39.70   0.000 0.000 6.239 6.239 0.000 6.391 6.391 -0.000
WS7MET_125 2018-01-21 12:00:00 125 30483.0 0.176 0.334 0.460 0.401 0.240 100.000 100.000 0.176 0.401 4.03 24.64 2.999 3.679 4.595 4.952 13.090 0.239 0.356 0.472 0.478 0.269 0.239 0.478 4.03 29.54 0.6660   0.102 0.318 0.453 0.307 0.221 0.102 0.307     318     0.3310 345.50 25.14   0.000 0.000 6.186 6.186 0.000 6.288 6.288 0.000
WS7MET_125 2018-01-21 11:55:00 125 30483.0 0.155 0.318 0.463 0.422 0.260 100.000 100.000 0.155 0.422 4.03 21.76 3.006 3.685 4.595 4.948 13.060 0.205 0.337 0.472 0.478 0.298 0.205 0.478 4.03 24.17 0.7190   0.068 0.298 0.453 0.341 0.221 0.068 0.342     318     0.2440 359.70 20.79   0.000 0.000 6.177 6.177 0.000 6.298 6.298 0.000
WS7MET_125 2018-01-21 11:50:00 125 30483.0 0.160 0.319 0.509 0.539 0.303 100.000 100.000 0.161 0.540 4.03 20.75 3.011 3.687 4.595 4.946 13.050 0.239 0.337 0.559 0.614 0.385 0.239 0.615 4.03 22.83 1.5610   0.102 0.318 0.472 0.410 0.240 0.102 0.410     318     0.7460 345.40 60.11   0.000 0.000 6.179 6.180 0.000 6.352 6.352 0.000
WS7MET_125 2018-01-21 11:45:00 125 30483.0 0.195 0.350 0.500 0.423 0.269 100.000 100.000 0.195 0.424 4.03 24.44 3.014 3.688 4.595 4.948 13.050 0.273 0.375 0.568 0.478 0.424 0.273 0.478 4.03 26.86 0.9280   0.137 0.318 0.453 0.375 0.202 0.137 0.376     318     0.4100 339.00 45.60   0.000 0.000 6.195 6.195 0.000 6.298 6.299 0.000
WS7MET_125 2018-01-21 11:40:00 125 30483.0 0.177 0.349 0.493 0.415 0.266 100.000 100.000 0.178 0.415 3.89 23.37 3.014 3.689 4.595 4.945 13.030 0.239 0.366 0.510 0.512 0.356 0.239 0.512 4.03 29.54 1.5810   0.102 0.337 0.472 0.341 0.221 0.102 0.342     318     0.5500 22.27 14.58   0.000 0.000 6.187 6.187 0.000 6.295 6.295 0.000
WS7MET_125 2018-01-21 11:35:00 125 30483.0 0.179 0.331 0.473 0.445 0.215 100.000 100.000 0.179 0.446 4.03 31.83 3.014 3.689 4.595 4.944 13.020 0.239 0.356 0.491 0.546 0.260 0.239 0.546 4.03 34.92 1.1370   0.102 0.318 0.453 0.341 0.192 0.102 0.342     318     0.5870 22.54 30.17   0.000 0.000 6.188 6.188 0.000 6.308 6.309 0.000
WS7MET_125 2018-01-21 11:30:00 125 30483.0 0.195 0.361 0.511 0.422 0.219 100.000 100.000 0.195 0.422 4.23 29.81 3.014 3.691 4.599 4.947 13.000 0.239 0.395 0.549 0.478 0.279 0.239 0.478 5.37 33.57 1.2480   0.102 0.318 0.453 0.307 0.163 0.102 0.307     318     0.5060 297.80 54.68   0.000 0.000 6.195 6.195 0.000 6.298 6.298 0.000
WS7MET_125 2018-01-21 11:25:00 125 30483.0 0.189 0.387 0.543 0.420 0.280 100.000 100.000 0.190 0.420 4.03 27.19 3.014 3.696 4.601 4.945 12.970 0.239 0.453 0.684 0.580 0.520 0.239 0.581 4.03 30.89 0.9600   0.137 0.337 0.453 0.239 0.163 0.137 0.239     318     0.5380 26.61 37.44   0.000 0.000 6.192 6.193 0.000 6.297 6.297 0.000
WS7MET_125 2018-01-21 11:20:00 125 30483.0 0.215 0.431 0.572 0.469 0.252 100.000 100.000 0.215 0.470 4.36 30.08 3.014 3.697 4.601 4.944 12.960 0.307 0.510 0.684 0.580 0.462 0.307 0.581 5.37 32.23 1.1830   0.171 0.375 0.510 0.375 0.182 0.171 0.376     318     0.4770 8.16 33.23   0.000 0.000 6.204 6.204 0.000 6.319 6.320 0.000
WS7MET_125 2018-01-21 11:15:00 125 30483.0 0.184 0.390 0.529 0.360 0.306 100.000 100.000 0.184 0.360 4.03 27.66 3.014 3.698 4.604 4.944 12.920 0.239 0.549 0.732 0.546 0.684 0.239 0.546 4.03 30.89 0.9150   0.102 0.337 0.453 0.239 0.182 0.102 0.239     318     0.3760 20.75 26.58   0.000 0.000 6.190 6.190 0.000 6.270 6.270 0.000
WS7MET_125 2018-01-21 11:10:00 125 30483.0 0.147 0.294 0.407 0.268 0.157 100.000 100.000 0.147 0.268 4.03 28.40 3.014 3.698 4.605 4.945 12.910 0.205 0.337 0.443 0.341 0.192 0.205 0.342 4.03 29.54 0.9800   0.102 0.279 0.395 0.205 0.144 0.102 0.205     318     0.3360 6.90 23.58   0.000 0.000 6.173 6.173 0.000 6.228 6.228 -0.000
WS7MET_125 2018-01-21 11:05:00 125 30483.0 0.138 0.293 0.411 0.242 0.168 100.000 100.000 0.138 0.242 4.03 26.12 3.015 3.698 4.607 4.943 12.880 0.171 0.298 0.424 0.307 0.182 0.171 0.307 4.03 28.20 1.0130   0.068 0.279 0.395 0.171 0.163 0.068 0.171     318     0.5110 357.30 43.93   0.000 0.000 6.169 6.169 0.000 6.216 6.216 0.000
WS7MET_125 2018-01-21 11:00:00 125 30483.0 0.133 0.303 0.431 0.273 0.197 100.000 100.000 0.133 0.273 4.03 24.91 3.022 3.698 4.613 4.944 12.850 0.205 0.366 0.491 0.375 0.375 0.205 0.376 4.03 28.20 1.1960   0.068 0.279 0.404 0.171 0.125 0.068 0.171     318     0.6460 355.70 43.62   0.000 0.000 6.167 6.167 0.000 6.230 6.230 -0.000
WS7MET_125 2018-01-21 10:55:00 125 30483.0 0.128 0.306 0.419 0.275 0.225 100.000 100.000 0.128 0.275 4.03 21.22 3.024 3.699 4.614 4.944 12.830 0.171 0.366 0.491 0.341 0.472 0.171 0.342 4.03 21.49 0.9870   0.034 0.240 0.346 0.171 0.125 0.034 0.171     318     0.4750 15.00 43.69   0.000 0.000 6.165 6.165 0.000 6.231 6.231 0.000
WS7MET_125 2018-01-21 10:50:00 125 30483.0 0.077 0.246 0.354 0.225 0.157 100.000 100.000 0.077 0.225 4.03 21.42 3.028 3.705 4.615 4.943 12.810 0.205 0.279 0.375 0.273 0.182 0.205 0.273 4.03 22.83 0.8100   0.000 0.221 0.337 0.137 0.134 0.000 0.137     318     0.3630 1.31 18.16   0.000 0.000 6.142 6.142 0.000 6.209 6.209 0.000
WS7MET_125 2018-01-21 10:45:00 125 30483.0 0.053 0.200 0.306 0.208 0.129 100.000 100.000 0.053 0.208 3.42 18.26 3.031 3.708 4.615 4.944 12.780 0.102 0.231 0.337 0.273 0.163 0.102 0.273 4.03 22.83 0.6400   0.000 0.173 0.279 0.137 0.105 0.000 0.137     318     0.3320 357.50 12.49   0.000 0.000 6.131 6.131 0.000 6.201 6.201 0.000
WS7MET_125 2018-01-21 10:40:00 125 30483.0 0.027 0.186 0.290 0.147 0.110 100.000 100.000 0.027 0.147 2.69 13.30 3.033 3.707 4.614 4.944 12.770 0.102 0.202 0.298 0.205 0.154 0.102 0.205 2.69 14.77 1.3330   -0.068 0.163 0.279 0.068 0.067 -0.068 0.068     318     0.3080 339.10 38.32   0.000 0.000 6.120 6.120 0.000 6.173 6.173 0.000
WS7MET_125 2018-01-21 10:35:00 125 30483.0 0.034 0.170 0.272 0.137 0.098 100.000 100.000 0.034 0.137 2.69 14.91 3.033 3.708 4.615 4.943 12.760 0.102 0.182 0.279 0.205 0.105 0.103 0.205 2.69 16.12 0.8430   -0.034 0.154 0.260 0.068 0.086 -0.034 0.068     318     0.2240 343.00 32.10   0.000 0.000 6.123 6.123 0.000 6.169 6.169 0.000
WS7MET_125 2018-01-21 10:30:00 125 30483.0 0.041 0.162 0.266 0.130 0.128 100.000 100.000 0.041 0.130 2.22 11.42 3.033 3.710 4.615 4.944 12.750 0.137 0.163 0.298 0.205 0.202 0.137 0.205 2.69 13.43 0.7320   -0.034 0.144 0.240 0.034 0.086 -0.034 0.034     318     0.3900 15.68 25.56   0.000 0.000 6.126 6.126 0.000 6.166 6.166 0.000
WS7MET_125 2018-01-21 10:25:00 125 30483.0 0.004 0.130 0.226 0.098 0.094 100.000 100.000 0.004 0.098 1.41 9.94 3.033 3.714 4.615 4.944 12.750 0.103 0.154 0.240 0.205 0.115 0.103 0.205 2.69 10.74 0.5750   -0.068 0.115 0.211 0.034 0.076 -0.068 0.034     318     0.0990 346.20 8.53   0.000 0.000 6.110 6.110 0.000 6.151 6.151 0.000
WS7MET_125 2018-01-21 10:20:00 125 30483.0 0.007 0.119 0.220 0.079 0.078 100.000 100.000 0.007 0.079 1.34 8.06 3.033 3.715 4.615 4.943 12.740 0.069 0.125 0.221 0.137 0.105 0.069 0.137 1.34 8.06 1.1110   -0.034 0.105 0.211 0.035 0.067 -0.034 0.035     318     0.3620 358.60 36.41   0.000 0.000 6.111 6.111 0.000 6.143 6.143 0.000
WS7MET_125 2018-01-21 10:15:00 125 30483.0 0.001 0.125 0.223 0.108 0.089 100.000 100.000 0.001 0.108 1.34 8.06 3.033 3.716 4.614 4.943 12.740 0.069 0.125 0.231 0.239 0.105 0.069 0.240 1.34 8.06 1.0000   -0.067 0.125 0.221 0.035 0.076 -0.067 0.035     318     0.5100 354.40 30.26   0.000 0.000 6.108 6.108 0.000 6.156 6.156 0.000
WS7MET_125 2018-01-21 10:10:00 125 30483.0 -0.003 0.124 0.222 0.103 0.051 100.000 100.000 -0.003 0.103 1.34 9.40 3.033 3.717 4.615 4.942 12.740 0.069 0.125 0.231 0.172 0.086 0.069 0.172 1.34 9.40 0.7840   -0.102 0.115 0.221 0.035 0.028 -0.102 0.035     318     0.1870 327.10 21.18   0.000 0.000 6.106 6.106 0.000 6.154 6.154 -0.000
WS7MET_125 2018-01-21 10:05:00 125 30483.0 0.013 0.148 0.259 0.166 0.085 100.000 100.000 0.013 0.166 1.34 9.74 3.033 3.717 4.615 4.941 12.740 0.070 0.173 0.298 0.240 0.144 0.070 0.241 1.34 10.74 0.6600   -0.067 0.125 0.240 0.070 0.028 -0.067 0.070     318     0.2060 317.40 35.89   0.000 0.000 6.114 6.114 0.000 6.182 6.182 0.000
WS7MET_125 2018-01-21 10:00:00 125 30483.0 -0.001 0.123 0.237 0.103 0.091 100.000 100.000 -0.001 0.103 1.34 8.66 3.034 3.717 4.615 4.940 12.730 0.103 0.182 0.298 0.171 0.221 0.103 0.171 1.34 9.40 0.3400   -0.068 0.105 0.211 0.034 0.047 -0.068 0.034     318     0.0660 342.90 5.66   0.000 0.000 6.107 6.107 0.000 6.154 6.154 -0.000
WS7MET_125 2018-01-21 09:55:00 125 30483.0 -0.012 0.114 0.219 0.086 0.071 100.000 100.000 -0.012 0.086 1.34 6.85 3.036 3.717 4.615 4.941 12.730 0.069 0.125 0.231 0.137 0.086 0.069 0.137 1.34 8.06 0.5030   -0.068 0.096 0.202 -0.034 0.047 -0.068 -0.034     318     0.0750 350.50 1.44   0.000 0.000 6.102 6.102 0.000 6.146 6.146 0.000
WS7MET_125 2018-01-21 09:50:00 125 30483.0 -0.020 0.090 0.196 0.067 0.037 100.000 100.000 -0.020 0.067 1.34 7.39 3.040 3.719 4.615 4.940 12.730 0.069 0.105 0.202 0.137 0.067 0.069 0.137 1.34 8.06 0.6210   -0.068 0.086 0.182 -0.033 0.028 -0.068 -0.033     318     0.1270 354.80 10.72   0.000 0.000 6.099 6.099 0.000 6.138 6.138 0.000
WS7MET_125 2018-01-21 09:45:00 125 30483.0 -0.025 0.092 0.206 0.103 0.044 100.000 100.000 -0.025 0.103 1.34 6.92 3.047 3.720 4.615 4.938 12.730 0.069 0.105 0.221 0.137 0.086 0.069 0.137 1.34 8.06 0.9540   -0.102 0.086 0.192 0.035 0.028 -0.102 0.035     318     0.1450 8.40 14.69   0.000 0.000 6.097 6.097 0.000 6.154 6.154 -0.000
WS7MET_125 2018-01-21 09:40:00 125 30483.0 -0.025 0.106 0.230 0.113 0.034 100.000 100.000 -0.025 0.113 1.34 5.64 3.050 3.722 4.615 4.937 12.730 0.035 0.125 0.260 0.205 0.086 0.035 0.205 1.34 6.72 0.6270   -0.068 0.086 0.202 0.035 0.009 -0.068 0.035     318     0.1240 40.28 5.83   0.000 0.000 6.097 6.097 0.000 6.158 6.158 -0.000
WS7MET_125 2018-01-21 09:35:00 125 30483.0 0.007 0.149 0.294 0.197 0.104 100.000 100.000 0.007 0.197 1.34 6.45 3.052 3.726 4.615 4.939 12.730 0.069 0.163 0.318 0.240 0.211 0.069 0.240 1.34 8.06 0.0460   -0.034 0.125 0.260 0.103 0.067 -0.034 0.103     318     0.0040 353.80 30.27   0.000 0.000 6.111 6.111 0.000 6.196 6.196 0.000
WS7MET_125 2018-01-21 09:30:00 125 30483.0 0.026 0.168 0.311 0.193 0.158 100.000 100.000 0.026 0.193 1.34 6.78 3.052 3.727 4.615 4.937 12.730 0.069 0.202 0.356 0.239 0.289 0.069 0.239 1.34 8.06 0.6470   -0.034 0.125 0.260 0.069 0.047 -0.034 0.069     318     0.0980 345.00 13.33   0.000 0.000 6.119 6.119 0.000 6.194 6.194 0.000
WS7MET_125 2018-01-21 09:25:00 125 30483.0 0.035 0.163 0.285 0.151 0.156 100.000 100.000 0.035 0.151 1.34 5.37 3.052 3.727 4.615 4.936 12.730 0.137 0.240 0.366 0.240 0.337 0.137 0.240 1.34 5.37 1.0390   -0.067 0.086 0.202 0.035 0.067 -0.068 0.035     318     0.3390 48.55 35.90   0.000 0.000 6.123 6.123 0.000 6.175 6.175 0.000
WS7MET_125 2018-01-21 09:20:00 125 30483.0 -0.035 0.074 0.182 0.050 0.047 100.000 100.000 -0.035 0.050 0.81 4.63 3.052 3.727 4.615 4.936 12.730 0.001 0.096 0.221 0.137 0.115 0.001 0.137 1.34 5.37 2.1950   -0.102 0.047 0.144 -0.034 0.009 -0.102 -0.034     318     0.7450 47.69 25.73   0.000 0.000 6.092 6.092 0.000 6.130 6.130 -0.000
WS7MET_125 2018-01-21 09:15:00 125 30483.0 0.016 0.120 0.226 0.108 0.071 100.000 100.000 0.016 0.108 1.34 5.37 3.052 3.728 4.616 4.937 12.730 0.137 0.163 0.260 0.205 0.144 0.137 0.205 1.34 5.37 0.8170   -0.034 0.086 0.192 0.035 0.009 -0.034 0.035     318     0.2130 329.10 58.45   0.000 0.000 6.115 6.115 0.000 6.156 6.156 0.000
WS7MET_125 2018-01-21 09:10:00 125 30483.0 -0.029 0.097 0.200 0.087 0.091 100.000 100.000 -0.029 0.087 0.34 4.30 3.052 3.730 4.615 4.935 12.740 0.034 0.182 0.298 0.171 0.279 0.034 0.171 1.34 5.37 0.6340   -0.068 0.067 0.163 0.000 0.038 -0.068 0.000     318     0.2120 311.40 49.31   0.000 0.000 6.095 6.095 0.000 6.147 6.147 0.000
WS7MET_125 2018-01-21 09:05:00 125 30483.0 -0.041 0.077 0.181 0.058 0.060 100.000 100.000 -0.041 0.058 0.00 4.03 3.052 3.735 4.615 4.936 12.740 0.000 0.086 0.202 0.137 0.096 0.000 0.137 0.00 4.03 0.6080   -0.136 0.067 0.163 0.000 0.047 -0.137 0.000     318     0.2180 24.64 40.82   0.000 0.000 6.090 6.090 0.000 6.134 6.134 0.000
WS7MET_125 2018-01-21 09:00:00 125 30483.0 -0.002 0.087 0.184 0.063 0.049 100.000 100.000 -0.002 0.063 0.00 4.03 3.052 3.736 4.615 4.935 12.740 0.068 0.125 0.221 0.137 0.067 0.068 0.137 0.00 4.03 1.2280   -0.034 0.067 0.163 0.000 0.047 -0.034 0.000     318     0.5660 37.08 26.41   0.000 0.000 6.107 6.107 0.000 6.136 6.136 0.000
WS7MET_125 2018-01-21 08:55:00 125 30483.0 -0.008 0.100 0.192 0.050 0.109 100.000 100.000 -0.008 0.050 0.00 4.03 3.052 3.736 4.615 4.934 12.740 0.103 0.202 0.279 0.171 0.356 0.103 0.171 0.00 4.03 0.8820   -0.102 0.028 0.125 -0.068 0.009 -0.102 -0.068     318     0.3490 28.46 61.81   0.000 0.000 6.104 6.104 0.000 6.130 6.130 -0.000
WS7MET_125 2018-01-21 08:50:00 125 30483.0 -0.054 0.036 0.143 0.028 -0.001 100.000 100.000 -0.054 0.028 0.00 4.03 3.052 3.736 4.616 4.934 12.740 0.000 0.047 0.163 0.137 0.009 0.000 0.137 0.00 4.03 0.9150   -0.102 0.028 0.125 -0.034 -0.020 -0.102 -0.034     318     0.2330 42.45 25.38   0.000 0.000 6.084 6.084 0.000 6.120 6.120 -0.000
WS7MET_125 2018-01-21 08:45:00 125 30483.0 -0.028 0.073 0.186 0.081 0.039 100.000 100.000 -0.028 0.081 0.20 4.03 3.052 3.736 4.616 4.934 12.750 0.069 0.105 0.221 0.137 0.067 0.069 0.137 1.34 4.03 0.6530   -0.136 0.047 0.154 0.000 0.009 -0.136 0.000     318     0.3100 357.90 41.41   0.000 0.000 6.095 6.095 0.000 6.144 6.144 0.000
WS7MET_125 2018-01-21 08:40:00 125 30483.0 -0.002 0.111 0.207 0.060 0.102 100.000 100.000 -0.002 0.060 0.00 4.03 3.055 3.736 4.620 4.935 12.750 0.068 0.182 0.260 0.171 0.240 0.068 0.171 0.00 4.03 1.2150   -0.102 0.028 0.144 -0.068 0.009 -0.102 -0.068     318     0.4370 84.90 66.23   0.000 0.000 6.107 6.107 0.000 6.135 6.135 0.000
WS7MET_125 2018-01-21 08:35:00 125 30483.0 -0.078 0.019 0.122 0.016 0.018 100.000 100.000 -0.078 0.016 0.00 3.09 3.059 3.738 4.624 4.935 12.750 -0.034 0.028 0.125 0.068 0.038 -0.034 0.069 0.00 4.03 0.9280   -0.170 0.009 0.105 -0.034 0.009 -0.171 -0.034     318     0.3600 23.65 28.13   0.000 0.000 6.073 6.073 0.000 6.115 6.115 0.000
WS7MET_125 2018-01-21 08:30:00 125 30483.0 -0.095 0.015 0.115 -0.001 0.035 100.000 100.000 -0.095 -0.001 0.00 2.75 3.062 3.742 4.622 4.934 12.750 -0.034 0.047 0.144 0.069 0.115 -0.034 0.069 0.00 4.03 0.6790   -0.136 -0.001 0.105 -0.102 0.009 -0.136 -0.102     318     0.1730 336.50 56.96   0.000 0.000 6.066 6.066 0.000 6.107 6.107 0.000
WS7MET_125 2018-01-21 08:25:00 125 30483.0 -0.122 -0.019 0.075 -0.042 -0.009 100.000 100.000 -0.122 -0.042 0.00 2.01 3.062 3.745 4.625 4.934 12.750 -0.034 0.009 0.105 0.035 0.047 -0.034 0.035 0.00 2.69 0.9340   -0.204 -0.030 0.067 -0.136 -0.030 -0.204 -0.136     318     0.2880 14.34 18.29   0.000 0.000 6.054 6.054 0.000 6.089 6.089 0.000
WS7MET_125 2018-01-21 08:20:00 125 30483.0 -0.100 -0.030 0.073 -0.047 -0.028 100.000 100.000 -0.100 -0.047 0.00 1.34 3.063 3.746 4.625 4.934 12.750 -0.034 -0.030 0.086 0.001 -0.011 -0.034 0.001 0.00 1.34 0.5100   -0.170 -0.030 0.067 -0.102 -0.040 -0.170 -0.102     318     0.1470 292.30 54.23   0.000 0.000 6.063 6.063 0.000 6.087 6.087 0.000
WS7MET_125 2018-01-21 08:15:00 125 30483.0 -0.101 -0.009 0.099 -0.018 -0.028 100.000 100.000 -0.101 -0.018 0.00 1.34 3.065 3.747 4.627 4.934 12.750 -0.033 0.009 0.125 0.069 -0.011 -0.033 0.070 0.00 1.34 0.3850   -0.170 -0.030 0.076 -0.102 -0.040 -0.170 -0.102     318     0.1230 34.45 11.14   0.000 0.000 6.063 6.063 0.000 6.100 6.100 0.000
WS7MET_125 2018-01-21 08:10:00 125 30483.0 -0.074 0.023 0.126 -0.021 0.029 100.000 100.000 -0.074 -0.021 0.00 1.34 3.067 3.750 4.630 4.934 12.770 -0.033 0.047 0.144 0.035 0.086 -0.033 0.035 0.00 1.34 1.3790   -0.136 -0.030 0.067 -0.068 -0.030 -0.136 -0.068     318     0.3020 89.20 75.01   0.000 0.000 6.075 6.075 0.000 6.098 6.098 0.000
WS7MET_125 2018-01-21 08:05:00 125 30483.0 -0.112 -0.026 0.072 -0.049 -0.016 100.000 100.000 -0.112 -0.049 0.00 1.34 3.070 3.753 4.631 4.934 12.770 -0.033 -0.020 0.086 0.035 0.009 -0.033 0.035 0.00 1.34 0.6600   -0.171 -0.030 0.067 -0.136 -0.040 -0.171 -0.137     318     0.3350 47.21 15.36   0.000 0.000 6.058 6.058 0.000 6.086 6.086 0.000
WS7MET_125 2018-01-21 08:00:00 125 30483.0 -0.099 -0.007 0.089 -0.032 -0.014 100.000 100.000 -0.099 -0.032 0.00 0.74 3.072 3.756 4.633 4.934 12.770 -0.034 0.028 0.144 0.034 0.047 -0.034 0.034 0.00 1.34 0.9210   -0.171 -0.030 0.067 -0.102 -0.030 -0.171 -0.102     318     0.4150 38.82 45.66   0.000 0.000 6.064 6.064 0.000 6.094 6.094 -0.000
WS7MET_125 2018-01-21 07:55:00 125 30483.0 -0.121 -0.030 0.086 -0.043 -0.023 100.000 100.000 -0.121 -0.043 0.00 0.00 3.072 3.756 4.634 4.934 12.770 -0.034 0.057 0.154 0.068 0.163 -0.034 0.068 0.00 0.00 0.7120   -0.171 -0.059 0.057 -0.171 -0.078 -0.171 -0.171     318     0.0840 53.17 45.01   0.000 0.000 6.054 6.054 0.000 6.089 6.089 0.000
WS7MET_125 2018-01-21 07:50:00 125 30483.0 -0.094 -0.016 0.102 -0.019 -0.001 100.000 100.000 -0.094 -0.019 0.00 0.00 3.072 3.756 4.634 4.934 12.770 -0.034 0.009 0.125 0.068 0.086 -0.034 0.068 0.00 0.00 1.2150   -0.171 -0.049 0.067 -0.068 -0.049 -0.171 -0.068     318     0.4490 119.00 73.10   0.000 0.000 6.066 6.066 -0.000 6.099 6.099 0.000
WS7MET_125 2018-01-21 07:45:00 125 30483.0 -0.133 -0.020 0.094 -0.037 0.022 100.000 100.000 -0.133 -0.037 0.00 0.00 3.072 3.756 4.634 4.934 12.770 -0.034 0.028 0.144 0.034 0.086 -0.034 0.034 0.00 0.00 0.8890   -0.205 -0.069 0.028 -0.136 -0.030 -0.205 -0.136     318     0.2490 105.20 52.69   0.000 0.000 6.049 6.049 0.000 6.091 6.091 0.000
WS7MET_125 2018-01-21 07:40:00 125 30483.0 -0.153 -0.077 0.029 -0.090 -0.057 100.000 100.000 -0.153 -0.090 0.00 0.00 3.072 3.756 4.634 4.934 12.780 -0.102 -0.069 0.038 -0.034 -0.030 -0.102 -0.034 0.00 0.00 1.5220   -0.238 -0.088 0.018 -0.170 -0.088 -0.238 -0.170     318     0.4050 87.40 31.98   0.000 0.000 6.040 6.040 0.000 6.068 6.068 0.000
WS7MET_125 2018-01-21 07:35:00 125 30483.0 -0.142 -0.066 0.035 -0.076 -0.054 100.000 100.000 -0.143 -0.076 0.00 0.00 3.072 3.756 4.634 4.934 12.780 -0.101 -0.049 0.047 0.001 -0.030 -0.101 0.001 0.00 0.00 0.5680   -0.238 -0.069 0.028 -0.170 -0.069 -0.238 -0.170     318     0.2100 178.10 48.39   0.000 0.000 6.045 6.045 0.000 6.074 6.074 0.000
WS7MET_125 2018-01-21 07:30:00 125 30483.0 -0.110 -0.023 0.077 -0.040 -0.014 100.000 100.000 -0.110 -0.040 0.00 0.00 3.073 3.757 4.634 4.934 12.780 -0.033 0.009 0.115 0.035 0.086 -0.033 0.035 0.00 0.00 1.2940   -0.170 -0.049 0.047 -0.136 -0.049 -0.170 -0.136     318     0.3500 38.60 50.22   0.000 0.000 6.059 6.059 0.000 6.090 6.090 0.000
WS7MET_125 2018-01-21 07:25:00 125 30483.0 -0.134 -0.045 0.059 -0.045 -0.022 100.000 100.000 -0.134 -0.045 0.00 0.00 3.080 3.760 4.634 4.934 12.780 -0.101 0.009 0.125 0.035 0.134 -0.101 0.035 0.00 0.00 0.8560   -0.204 -0.069 0.028 -0.136 -0.069 -0.204 -0.136     318     0.2730 110.90 37.27   0.000 0.000 6.048 6.048 0.000 6.088 6.088 0.000
WS7MET_125 2018-01-21 07:20:00 125 30483.0 -0.117 -0.034 0.070 -0.037 -0.029 100.000 100.000 -0.117 -0.037 0.00 0.00 3.080 3.764 4.634 4.934 12.780 -0.068 -0.020 0.086 0.034 -0.011 -0.068 0.034 0.00 0.00 0.4900   -0.205 -0.049 0.067 -0.102 -0.049 -0.205 -0.102     318     0.1670 40.26 46.00   0.000 0.000 6.056 6.056 0.000 6.091 6.091 0.000
WS7MET_125 2018-01-21 07:15:00 125 30483.0 -0.100 0.003 0.102 -0.015 0.016 100.000 100.000 -0.100 -0.015 0.00 0.00 3.083 3.763 4.634 4.934 12.780 -0.034 0.028 0.125 0.069 0.125 -0.034 0.069 0.00 0.00 0.6210   -0.170 -0.020 0.076 -0.102 -0.030 -0.171 -0.102     318     0.1140 332.40 41.11   0.000 0.000 6.063 6.063 0.000 6.101 6.101 0.000
WS7MET_125 2018-01-21 07:10:00 125 30483.0 -0.131 -0.055 0.048 -0.057 -0.041 100.000 100.000 -0.131 -0.057 0.00 0.00 3.086 3.765 4.634 4.934 12.790 -0.068 -0.011 0.096 0.035 0.038 -0.068 0.035 0.00 0.00 1.1500   -0.204 -0.069 0.038 -0.102 -0.049 -0.204 -0.102     318     0.2710 69.51 39.53   0.000 0.000 6.050 6.050 -0.000 6.083 6.083 0.000
WS7MET_125 2018-01-21 07:05:00 125 30483.0 -0.101 -0.036 0.066 -0.036 -0.032 100.000 100.000 -0.101 -0.036 0.00 0.00 3.089 3.765 4.634 4.934 12.790 -0.032 -0.030 0.086 0.036 -0.001 -0.032 0.036 0.00 0.00 0.6340   -0.203 -0.049 0.047 -0.170 -0.049 -0.203 -0.170     318     0.1650 56.13 10.03   0.000 0.000 6.063 6.063 0.000 6.092 6.092 0.000
WS7MET_125 2018-01-21 07:00:00 125 30483.0 -0.091 -0.018 0.097 0.000 -0.008 100.000 100.000 -0.091 0.000 0.00 0.00 3.091 3.765 4.634 4.934 12.800 -0.032 -0.001 0.125 0.070 0.028 -0.032 0.070 0.00 0.00 1.0710   -0.135 -0.030 0.076 -0.067 -0.030 -0.136 -0.067     318     0.4460 57.55 24.07   0.000 0.000 6.067 6.067 0.000 6.108 6.108 0.000
WS7MET_125 2018-01-21 06:55:00 125 30483.0 -0.102 0.001 0.104 0.016 0.006 100.000 100.000 -0.102 0.016 0.00 0.00 3.091 3.766 4.634 4.934 12.800 -0.033 0.018 0.125 0.103 0.047 -0.033 0.103 0.00 0.00 0.6470   -0.170 -0.020 0.086 -0.067 -0.011 -0.170 -0.067     318     0.1650 59.17 39.31   0.000 0.000 6.063 6.063 -0.000 6.115 6.115 0.000
WS7MET_125 2018-01-21 06:50:00 125 30483.0 -0.099 -0.017 0.084 -0.020 0.007 100.000 100.000 -0.099 -0.020 0.00 0.00 3.091 3.766 4.634 4.934 12.800 0.000 -0.011 0.105 0.068 0.047 0.000 0.068 0.00 0.00 0.9470   -0.170 -0.030 0.067 -0.102 -0.030 -0.171 -0.102     318     0.3390 39.85 11.75   0.000 0.000 6.064 6.064 0.000 6.099 6.099 0.000
WS7MET_125 2018-01-21 06:45:00 125 30483.0 -0.104 -0.021 0.083 -0.029 -0.026 100.000 100.000 -0.104 -0.029 0.00 0.00 3.091 3.767 4.634 4.934 12.800 -0.068 -0.001 0.105 0.035 -0.001 -0.068 0.035 0.00 0.00 0.5550   -0.170 -0.030 0.067 -0.102 -0.040 -0.170 -0.102     318     0.1650 53.12 38.57   0.000 0.000 6.062 6.062 0.000 6.095 6.095 0.000
WS7MET_125 2018-01-21 06:40:00 125 30483.0 -0.093 0.003 0.102 -0.013 0.007 100.000 100.000 -0.093 -0.013 0.00 0.00 3.091 3.771 4.635 4.934 12.800 -0.034 0.009 0.115 0.069 0.028 -0.034 0.069 0.00 0.00 0.7770   -0.136 -0.011 0.086 -0.068 -0.011 -0.137 -0.068     318     0.2890 49.99 30.48   0.000 0.000 6.067 6.067 0.000 6.102 6.102 0.000
WS7MET_125 2018-01-21 06:35:00 125 30483.0 -0.087 0.010 0.112 0.019 0.006 100.000 100.000 -0.087 0.019 0.00 0.00 3.091 3.775 4.635 4.934 12.810 -0.034 0.028 0.125 0.103 0.028 -0.034 0.103 0.00 0.00 0.9080   -0.171 -0.011 0.086 -0.034 -0.011 -0.171 -0.034     318     0.3670 31.63 31.14   0.000 0.000 6.069 6.069 -0.000 6.116 6.116 0.000
WS7MET_125 2018-01-21 06:30:00 125 30483.0 -0.078 0.037 0.145 0.024 0.037 100.000 100.000 -0.078 0.024 0.00 0.00 3.091 3.775 4.639 4.934 12.810 -0.034 0.047 0.163 0.069 0.067 -0.034 0.069 0.00 0.00 0.8170   -0.136 0.028 0.134 -0.034 0.009 -0.136 -0.034     318     0.2510 42.54 11.25   0.000 0.000 6.073 6.073 0.000 6.118 6.118 0.000
WS7MET_125 2018-01-21 06:25:00 125 30483.0 -0.124 0.010 0.110 -0.013 0.024 100.000 100.000 -0.124 -0.013 0.00 0.00 3.091 3.775 4.640 4.934 12.810 -0.068 0.047 0.144 0.103 0.067 -0.068 0.103 0.00 0.00 0.9020   -0.204 -0.030 0.067 -0.102 -0.040 -0.204 -0.102     318     0.5170 53.70 38.84   0.000 0.000 6.053 6.053 0.000 6.102 6.102 0.000
WS7MET_125 2018-01-21 06:20:00 125 30483.0 -0.096 -0.012 0.088 -0.018 0.005 100.000 100.000 -0.096 -0.018 0.00 0.00 3.091 3.775 4.642 4.934 12.810 -0.033 -0.011 0.096 0.070 0.018 -0.033 0.070 0.00 0.00 1.3790   -0.136 -0.020 0.086 -0.067 -0.011 -0.136 -0.068     318     0.5010 40.86 41.71   0.000 0.000 6.065 6.065 0.000 6.100 6.100 0.000
WS7MET_125 2018-01-21 06:15:00 125 30483.0 -0.103 -0.022 0.085 -0.047 -0.004 100.000 100.000 -0.103 -0.047 0.00 0.00 3.091 3.776 4.644 4.934 12.810 -0.033 -0.001 0.115 0.035 0.067 -0.033 0.035 0.00 0.00 0.6860   -0.169 -0.049 0.057 -0.102 -0.049 -0.170 -0.102     318     0.3250 58.97 37.44   0.000 0.000 6.062 6.062 0.000 6.087 6.087 0.000
WS7MET_125 2018-01-21 06:10:00 125 30483.0 -0.114 -0.015 0.082 -0.011 -0.013 100.000 100.000 -0.114 -0.011 0.00 0.00 3.091 3.775 4.644 4.934 12.820 -0.034 -0.011 0.086 0.035 -0.001 -0.034 0.035 0.00 0.00 0.9470   -0.170 -0.030 0.067 -0.102 -0.040 -0.171 -0.102     318     0.3870 28.98 43.59   0.000 0.000 6.057 6.057 0.000 6.103 6.103 0.000
WS7MET_125 2018-01-21 06:05:00 125 30483.0 -0.076 -0.009 0.095 0.014 -0.006 100.000 100.000 -0.076 0.014 0.00 0.00 3.092 3.778 4.647 4.934 12.820 0.035 0.009 0.105 0.103 0.018 0.035 0.103 0.00 0.00 0.9870   -0.136 -0.020 0.086 -0.034 -0.020 -0.136 -0.034     318     0.4740 46.89 35.01   0.000 0.000 6.074 6.074 0.000 6.114 6.114 0.000
WS7MET_125 2018-01-21 06:00:00 125 30483.0 -0.054 0.034 0.134 0.032 0.018 100.000 100.000 -0.054 0.032 0.00 0.00 3.097 3.783 4.648 4.934 12.820 0.036 0.057 0.163 0.138 0.047 0.036 0.138 0.00 0.00 1.0130   -0.102 0.009 0.105 -0.033 -0.011 -0.102 -0.033     318     0.3580 44.26 17.38   0.000 0.000 6.084 6.084 0.000 6.122 6.122 0.000
WS7MET_125 2018-01-21 05:55:00 125 30483.0 -0.072 0.057 0.148 0.047 0.056 100.000 100.000 -0.072 0.048 0.00 0.00 3.103 3.785 4.651 4.934 12.830 0.002 0.086 0.182 0.104 0.105 0.002 0.104 0.00 0.00 1.7310   -0.135 0.009 0.105 -0.067 0.009 -0.135 -0.067     318     0.7300 26.18 29.56   0.000 0.000 6.076 6.076 0.000 6.129 6.129 0.000
WS7MET_125 2018-01-21 05:50:00 125 30483.0 -0.073 0.021 0.113 0.018 0.026 100.000 100.000 -0.073 0.018 0.00 0.00 3.108 3.787 4.651 4.934 12.830 -0.033 0.028 0.125 0.103 0.038 -0.033 0.104 0.00 0.00 1.7840   -0.135 0.009 0.105 -0.033 0.018 -0.136 -0.033     318     0.2670 9.75 24.58   0.000 0.000 6.075 6.075 0.000 6.116 6.116 0.000
WS7MET_125 2018-01-21 05:45:00 125 30483.0 -0.057 0.043 0.128 0.025 0.040 100.000 100.000 -0.057 0.025 0.00 0.00 3.110 3.787 4.653 4.934 12.830 0.035 0.047 0.144 0.103 0.047 0.035 0.103 0.00 0.00 0.9870   -0.102 0.028 0.125 -0.067 0.028 -0.102 -0.067     318     0.6980 12.21 20.26   0.000 0.000 6.083 6.083 0.000 6.119 6.119 0.000
WS7MET_125 2018-01-21 05:40:00 125 30483.0 -0.060 0.042 0.135 0.058 0.043 100.000 100.000 -0.060 0.058 0.00 0.00 3.110 3.788 4.653 4.934 12.830 0.002 0.047 0.144 0.138 0.047 0.002 0.138 0.00 0.00 0.5810   -0.135 0.028 0.125 -0.033 0.038 -0.135 -0.033     318     0.4450 355.70 20.99   0.000 0.000 6.081 6.081 -0.000 6.134 6.134 0.000
WS7MET_125 2018-01-21 05:35:00 125 30483.0 -0.073 0.038 0.128 0.030 0.038 100.000 100.000 -0.073 0.030 0.00 0.00 3.110 3.789 4.653 4.934 12.830 -0.033 0.047 0.144 0.103 0.047 -0.033 0.103 0.00 0.00 0.8890   -0.136 0.028 0.125 -0.068 0.028 -0.136 -0.068     318     0.4510 353.90 16.10   0.000 0.000 6.075 6.075 0.000 6.121 6.121 0.000
WS7MET_125 2018-01-21 05:30:00 125 30483.0 -0.059 0.043 0.142 0.057 0.040 100.000 100.000 -0.059 0.057 0.00 0.00 3.110 3.793 4.653 4.934 12.840 0.001 0.047 0.144 0.137 0.047 0.001 0.137 0.00 0.00 0.7250   -0.102 0.028 0.125 0.001 0.028 -0.102 0.001     318     0.4480 352.10 25.48   0.000 0.000 6.082 6.082 -0.000 6.133 6.133 0.000
WS7MET_125 2018-01-21 05:25:00 125 30483.0 -0.068 0.046 0.150 0.075 0.047 100.000 100.000 -0.068 0.076 0.00 0.00 3.110 3.794 4.653 4.934 12.840 0.001 0.047 0.163 0.137 0.047 0.001 0.137 0.00 0.00 0.5490   -0.136 0.038 0.144 0.034 0.047 -0.136 0.034     318     0.3730 343.90 22.14   0.000 0.000 6.078 6.078 0.000 6.141 6.142 0.000
WS7MET_125 2018-01-21 05:20:00 125 30483.0 -0.071 0.025 0.126 0.041 0.029 100.000 100.000 -0.071 0.041 0.00 0.00 3.110 3.794 4.653 4.934 12.840 0.034 0.038 0.163 0.103 0.047 0.034 0.103 0.00 0.00 1.5420   -0.136 0.018 0.105 -0.034 0.009 -0.136 -0.034     318     0.5960 5.88 37.34   0.000 0.000 6.076 6.076 -0.000 6.126 6.126 0.000
WS7MET_125 2018-01-21 05:15:00 125 30483.0 -0.074 0.017 0.117 0.042 0.012 100.000 100.000 -0.074 0.042 0.00 0.00 3.110 3.794 4.653 4.934 12.840 0.035 0.028 0.125 0.103 0.028 0.035 0.103 0.00 0.00 0.8560   -0.136 0.009 0.105 -0.034 0.009 -0.136 -0.034     318     0.3480 351.50 35.09   0.000 0.000 6.075 6.075 0.000 6.126 6.126 -0.000
WS7MET_125 2018-01-21 05:10:00 125 30483.0 -0.069 0.035 0.149 0.079 0.014 100.000 100.000 -0.069 0.080 0.00 0.00 3.110 3.794 4.653 4.934 12.850 0.001 0.067 0.182 0.138 0.028 0.001 0.138 0.00 0.00 0.9540   -0.136 0.018 0.125 -0.033 0.009 -0.136 -0.033     318     0.5940 9.59 44.85   0.000 0.000 6.077 6.077 0.000 6.143 6.143 0.000
WS7MET_125 2018-01-21 05:05:00 125 30483.0 -0.043 0.114 0.242 0.125 0.087 100.000 100.000 -0.043 0.125 0.00 0.00 3.113 3.797 4.653 4.934 12.850 0.034 0.173 0.318 0.205 0.240 0.034 0.205 0.00 0.00 2.1300   -0.102 0.067 0.182 0.034 0.009 -0.102 0.034     318     0.6030 48.87 40.94   0.000 0.000 6.089 6.089 0.000 6.164 6.164 0.000
WS7MET_125 2018-01-21 05:00:00 125 30483.0 -0.121 -0.020 0.082 -0.005 -0.002 100.000 100.000 -0.121 -0.005 0.00 0.00 3.119 3.800 4.653 4.934 12.850 -0.034 -0.011 0.105 0.069 0.009 -0.034 0.069 0.00 0.00 0.8490   -0.205 -0.030 0.067 -0.068 -0.011 -0.205 -0.068     318     0.3620 359.70 46.60   0.000 0.000 6.054 6.054 0.000 6.106 6.106 0.000
WS7MET_125 2018-01-21 04:55:00 125 30483.0 -0.107 -0.024 0.076 -0.013 -0.009 100.000 100.000 -0.107 -0.013 0.00 0.00 3.123 3.803 4.653 4.934 12.860 -0.034 -0.011 0.086 0.035 0.009 -0.034 0.035 0.00 0.00 1.8230   -0.204 -0.030 0.067 -0.068 -0.030 -0.204 -0.068     318     0.6370 36.94 37.74   0.000 0.000 6.060 6.060 0.000 6.102 6.102 0.000
WS7MET_125 2018-01-21 04:50:00 125 30483.0 -0.113 0.000 0.094 0.018 -0.006 100.000 100.000 -0.113 0.018 0.00 0.00 3.129 3.804 4.653 4.934 12.860 -0.033 0.009 0.105 0.103 0.009 -0.033 0.103 0.00 0.00 0.8100   -0.170 -0.020 0.067 -0.068 -0.030 -0.170 -0.068     318     0.3110 334.80 11.82   0.000 0.000 6.058 6.058 0.000 6.116 6.116 0.000
WS7MET_125 2018-01-21 04:45:00 125 30483.0 -0.081 0.018 0.117 0.032 0.009 100.000 100.000 -0.081 0.032 0.00 0.00 3.129 3.804 4.653 4.934 12.860 -0.033 0.028 0.134 0.103 0.028 -0.033 0.103 0.00 0.00 0.7640   -0.169 0.009 0.096 -0.033 -0.001 -0.169 -0.033     318     0.4600 16.49 14.92   0.000 0.000 6.072 6.072 0.000 6.122 6.122 0.000
WS7MET_125 2018-01-21 04:40:00 125 30483.0 -0.082 0.035 0.145 0.064 0.022 100.000 100.000 -0.083 0.064 0.00 0.00 3.129 3.804 4.653 4.934 12.860 -0.033 0.047 0.163 0.172 0.028 -0.033 0.172 0.00 0.00 0.5880   -0.170 0.028 0.125 -0.067 0.009 -0.170 -0.067     318     0.3290 337.90 7.90   0.000 0.000 6.071 6.071 0.000 6.136 6.136 0.000
WS7MET_125 2018-01-21 04:35:00 125 30483.0 -0.065 0.078 0.213 0.133 0.021 100.000 100.000 -0.065 0.133 0.00 0.00 3.129 3.806 4.653 4.934 12.860 0.036 0.134 0.298 0.240 0.067 0.036 0.240 0.00 0.00 0.7250   -0.136 0.047 0.163 0.036 0.009 -0.136 0.036     318     0.3990 352.30 13.55   0.000 0.000 6.079 6.079 0.000 6.167 6.167 0.000
WS7MET_125 2018-01-21 04:30:00 125 30483.0 -0.084 0.071 0.218 0.070 0.069 100.000 100.000 -0.084 0.070 0.00 0.00 3.129 3.809 4.653 4.934 12.870 -0.032 0.202 0.414 0.206 0.260 -0.032 0.206 0.00 0.00 1.3920   -0.203 -0.030 0.067 -0.033 -0.011 -0.204 -0.033     318     0.3130 43.69 57.25   0.000 0.000 6.071 6.071 0.000 6.139 6.139 0.000
WS7MET_125 2018-01-21 04:25:00 125 30483.0 -0.123 -0.020 0.085 0.008 -0.011 100.000 100.000 -0.123 0.008 0.00 0.00 3.129 3.813 4.653 4.934 12.870 -0.032 -0.011 0.086 0.070 -0.011 -0.032 0.070 0.00 0.00 0.9730   -0.203 -0.030 0.076 -0.067 -0.020 -0.204 -0.067     318     0.3530 349.00 27.11   0.000 0.000 6.053 6.053 -0.000 6.111 6.111 0.000
WS7MET_125 2018-01-21 04:20:00 125 30483.0 -0.102 0.009 0.122 0.049 -0.022 100.000 100.000 -0.103 0.049 0.00 0.00 3.129 3.814 4.654 4.934 12.870 -0.032 0.047 0.163 0.173 -0.011 -0.032 0.173 0.00 0.00 0.7190   -0.204 -0.020 0.086 0.001 -0.030 -0.204 0.001     318     0.4070 349.50 17.05   0.000 0.000 6.063 6.062 -0.000 6.130 6.130 0.000
WS7MET_125 2018-01-21 04:15:00 125 30483.0 -0.044 0.161 0.291 0.152 0.032 100.000 100.000 -0.044 0.152 0.00 0.00 3.129 3.814 4.655 4.933 12.870 0.036 0.308 0.433 0.275 0.240 0.036 0.275 0.00 0.00 0.6930   -0.134 0.047 0.182 0.071 -0.020 -0.134 0.071     318     0.2220 354.60 21.15   0.000 0.000 6.088 6.088 0.000 6.176 6.176 0.000
WS7MET_125 2018-01-21 04:10:00 125 30483.0 -0.136 0.026 0.130 -0.042 0.069 100.000 100.000 -0.136 -0.042 0.00 0.00 3.129 3.814 4.653 4.933 12.880 0.002 0.337 0.472 0.105 0.375 0.002 0.105 0.00 0.00 1.2150   -0.237 -0.059 0.038 -0.135 -0.030 -0.237 -0.135     318     0.5540 0.03 31.88   0.000 0.000 6.048 6.048 0.000 6.089 6.089 0.000
WS7MET_125 2018-01-21 04:05:00 125 30483.0 -0.149 -0.055 0.028 -0.090 -0.028 100.000 100.000 -0.149 -0.090 0.00 0.00 3.129 3.814 4.653 4.934 12.880 -0.068 -0.049 0.028 -0.033 -0.011 -0.068 -0.033 0.00 0.00 0.5100   -0.238 -0.069 0.028 -0.170 -0.030 -0.238 -0.170     318     0.3190 334.30 18.21   0.000 0.000 6.042 6.042 0.000 6.068 6.068 0.000
WS7MET_125 2018-01-21 04:00:00 125 30483.0 -0.151 -0.059 0.038 -0.066 -0.039 100.000 100.000 -0.151 -0.066 0.00 0.00 3.130 3.814 4.653 4.933 12.880 -0.101 -0.030 0.067 0.035 -0.011 -0.101 0.035 0.00 0.00 1.3330   -0.238 -0.078 0.028 -0.136 -0.059 -0.238 -0.136     318     0.4470 338.80 53.33   0.000 0.000 6.041 6.041 0.000 6.079 6.079 0.000
WS7MET_125 2018-01-21 03:55:00 125 30483.0 -0.134 -0.013 0.083 -0.011 0.006 100.000 100.000 -0.134 -0.011 0.00 0.00 3.130 3.817 4.653 4.934 12.890 -0.067 -0.011 0.086 0.069 0.009 -0.067 0.070 0.00 0.00 0.9600   -0.204 -0.030 0.067 -0.101 -0.011 -0.204 -0.101     318     0.4130 345.90 13.45   0.000 0.000 6.048 6.048 0.000 6.103 6.103 0.000
WS7MET_125 2018-01-21 03:50:00 125 30483.0 -0.156 -0.040 0.051 -0.060 -0.016 100.000 100.000 -0.156 -0.060 0.00 0.00 3.136 3.821 4.654 4.934 12.890 -0.067 -0.011 0.067 -0.033 0.009 -0.067 -0.033 0.00 0.00 0.5490   -0.203 -0.049 0.028 -0.101 -0.040 -0.204 -0.101     318     0.3040 337.80 17.77   0.000 0.000 6.039 6.039 0.000 6.081 6.081 -0.000
WS7MET_125 2018-01-21 03:45:00 125 30483.0 -0.115 -0.039 0.057 -0.064 -0.024 100.000 100.000 -0.115 -0.064 0.00 0.00 3.139 3.824 4.656 4.934 12.890 -0.033 -0.030 0.067 0.001 -0.011 -0.033 0.001 0.00 0.00 0.4310   -0.204 -0.049 0.038 -0.135 -0.040 -0.204 -0.135     318     0.1440 327.00 15.46   0.000 0.000 6.057 6.057 0.000 6.079 6.079 0.000
WS7MET_125 2018-01-21 03:40:00 125 30483.0 -0.098 -0.018 0.071 -0.041 -0.015 100.000 100.000 -0.098 -0.041 0.00 0.00 3.139 3.827 4.657 4.933 12.890 -0.032 0.009 0.096 0.002 0.009 -0.032 0.002 0.00 0.00 0.4380   -0.170 -0.040 0.047 -0.101 -0.030 -0.170 -0.101     318     0.2100 7.56 30.52   0.000 0.000 6.064 6.064 0.000 6.090 6.090 0.000
WS7MET_125 2018-01-21 03:35:00 125 30483.0 -0.107 0.009 0.086 -0.039 0.009 100.000 100.000 -0.107 -0.039 0.00 0.00 3.140 3.831 4.665 4.931 12.900 -0.034 0.009 0.086 0.035 0.009 -0.034 0.035 0.00 0.00 0.7320   -0.170 0.009 0.086 -0.102 0.009 -0.170 -0.102     318     0.4730 342.20 1.00   0.000 0.000 6.060 6.060 0.000 6.090 6.090 -0.000
WS7MET_125 2018-01-21 03:30:00 125 30483.0 -0.098 0.007 0.087 -0.029 0.004 100.000 100.000 -0.099 -0.029 0.00 0.00 3.148 3.831 4.667 4.933 12.900 -0.034 0.009 0.096 0.069 0.009 -0.034 0.069 0.00 0.00 0.7380   -0.170 -0.001 0.086 -0.102 -0.001 -0.170 -0.102     318     0.4800 328.70 10.66   0.000 0.000 6.064 6.064 0.000 6.095 6.095 0.000
WS7MET_125 2018-01-21 03:25:00 125 30483.0 -0.119 0.009 0.086 -0.033 0.006 100.000 100.000 -0.119 -0.034 0.00 0.00 3.148 3.832 4.669 4.933 12.900 -0.033 0.009 0.086 0.035 0.009 -0.033 0.035 0.00 0.00 0.7450   -0.170 0.009 0.086 -0.102 -0.011 -0.170 -0.102     318     0.6040 350.00 8.82   0.000 0.000 6.055 6.055 0.000 6.093 6.093 0.000
WS7MET_125 2018-01-21 03:20:00 125 30483.0 -0.090 0.007 0.088 -0.039 0.005 100.000 100.000 -0.090 -0.039 0.00 0.00 3.149 3.833 4.671 4.933 12.900 -0.033 0.009 0.105 0.069 0.009 -0.033 0.069 0.00 0.00 0.5750   -0.170 -0.001 0.086 -0.102 -0.001 -0.170 -0.102     318     0.4690 340.00 2.37   0.000 0.000 6.068 6.068 0.000 6.090 6.090 -0.000
WS7MET_125 2018-01-21 03:15:00 125 30483.0 -0.117 0.001 0.086 -0.040 -0.004 100.000 100.000 -0.117 -0.040 0.00 0.00 3.149 3.833 4.671 4.931 12.900 -0.067 0.009 0.096 0.001 0.009 -0.067 0.001 0.00 0.00 0.7320   -0.204 -0.011 0.076 -0.101 -0.011 -0.204 -0.102     318     0.5180 338.20 7.58   0.000 0.000 6.056 6.056 0.000 6.090 6.090 0.000
WS7MET_125 2018-01-21 03:10:00 125 30483.0 -0.127 -0.015 0.074 -0.028 -0.018 100.000 100.000 -0.127 -0.028 0.00 0.00 3.149 3.833 4.672 4.933 12.910 -0.067 -0.001 0.086 0.035 -0.011 -0.067 0.035 0.00 0.00 1.0910   -0.238 -0.030 0.067 -0.101 -0.030 -0.238 -0.101     318     0.6180 356.60 17.05   0.000 0.000 6.052 6.052 0.000 6.095 6.095 0.000
WS7MET_125 2018-01-21 03:05:00 125 30483.0 -0.127 -0.027 0.067 -0.055 -0.031 100.000 100.000 -0.127 -0.055 0.00 0.00 3.149 3.833 4.673 4.934 12.910 -0.033 -0.011 0.067 0.001 -0.020 -0.033 0.001 0.00 0.00 0.6930   -0.170 -0.030 0.067 -0.102 -0.040 -0.170 -0.102     318     0.4800 354.60 17.28   0.000 0.000 6.052 6.052 0.000 6.083 6.083 0.000
WS7MET_125 2018-01-21 03:00:00 125 30483.0 -0.111 -0.030 0.060 -0.050 -0.034 100.000 100.000 -0.111 -0.050 0.00 0.00 3.149 3.833 4.672 4.932 12.910 -0.066 -0.030 0.067 0.036 -0.030 -0.066 0.036 0.00 0.00 0.5030   -0.169 -0.030 0.047 -0.135 -0.040 -0.169 -0.135     318     0.3650 349.70 11.06   0.000 0.000 6.059 6.059 0.000 6.086 6.086 0.000
WS7MET_125 2018-01-21 02:55:00 125 30483.0 -0.124 -0.036 0.047 -0.056 -0.047 100.000 100.000 -0.124 -0.056 0.00 0.00 3.150 3.834 4.673 4.932 12.920 -0.066 -0.030 0.047 0.002 -0.040 -0.066 0.002 0.00 0.00 0.7580   -0.203 -0.049 0.047 -0.135 -0.049 -0.203 -0.135     318     0.4190 350.10 13.76   0.000 0.000 6.053 6.053 0.000 6.083 6.083 0.000
WS7MET_125 2018-01-21 02:50:00 125 30483.0 -0.136 -0.035 0.048 -0.056 -0.049 100.000 100.000 -0.136 -0.056 0.00 0.00 3.151 3.836 4.673 4.931 12.920 -0.067 -0.030 0.057 0.036 -0.040 -0.067 0.036 0.00 0.00 0.6470   -0.203 -0.049 0.047 -0.134 -0.049 -0.203 -0.134     318     0.4490 346.30 6.84   0.000 0.000 6.048 6.048 0.000 6.083 6.083 0.000
WS7MET_125 2018-01-21 02:45:00 125 30483.0 -0.133 -0.052 0.029 -0.085 -0.053 100.000 100.000 -0.133 -0.085 0.00 0.00 3.154 3.839 4.673 4.932 12.920 -0.066 -0.049 0.038 -0.032 -0.049 -0.066 -0.032 0.00 0.00 0.7910   -0.202 -0.069 0.028 -0.134 -0.059 -0.202 -0.135     318     0.5160 352.60 13.35   0.000 0.000 6.049 6.049 0.000 6.070 6.070 0.000
WS7MET_125 2018-01-21 02:40:00 125 30483.0 -0.157 -0.069 0.025 -0.074 -0.062 100.000 100.000 -0.157 -0.074 0.00 0.00 3.158 3.840 4.673 4.932 12.920 -0.100 -0.059 0.028 0.036 -0.059 -0.100 0.036 0.00 0.00 0.3270   -0.238 -0.078 0.009 -0.135 -0.069 -0.238 -0.135     318     0.0790 320.20 15.11   0.000 0.000 6.038 6.038 0.000 6.075 6.075 0.000
WS7MET_125 2018-01-21 02:35:00 125 30483.0 -0.180 -0.081 0.005 -0.105 -0.067 100.000 100.000 -0.180 -0.105 0.00 0.00 3.161 3.843 4.673 4.932 12.930 -0.134 -0.069 0.028 -0.032 -0.059 -0.134 -0.032 0.00 0.00 0.5680   -0.270 -0.098 -0.011 -0.134 -0.078 -0.271 -0.134     318     0.2330 355.80 16.29   0.000 0.000 6.028 6.028 0.000 6.061 6.061 0.000
WS7MET_125 2018-01-21 02:30:00 125 30483.0 -0.174 -0.083 0.006 -0.091 -0.069 100.000 100.000 -0.174 -0.091 0.00 0.00 3.167 3.842 4.673 4.931 12.930 -0.099 -0.069 0.009 -0.031 -0.069 -0.099 -0.031 0.00 0.00 0.5030   -0.236 -0.088 -0.011 -0.168 -0.078 -0.236 -0.168     318     0.1040 330.10 2.75   0.000 0.000 6.031 6.031 0.000 6.067 6.067 0.000
WS7MET_125 2018-01-21 02:25:00 125 30483.0 -0.164 -0.088 0.001 -0.101 -0.069 100.000 100.000 -0.164 -0.101 0.00 0.00 3.165 3.842 4.673 4.926 12.930 -0.099 -0.088 0.009 -0.030 -0.069 -0.099 -0.030 0.00 0.00 0.4310   -0.236 -0.088 -0.011 -0.202 -0.069 -0.236 -0.202     318     0.0850 15.61 11.52   0.000 0.000 6.035 6.035 0.000 6.063 6.063 0.000
WS7MET_125 2018-01-21 02:20:00 125 30483.0 -0.166 -0.095 -0.011 -0.120 -0.083 100.000 100.000 -0.166 -0.120 0.00 0.00 3.168 3.843 4.673 4.930 12.930 -0.099 -0.088 -0.011 -0.031 -0.069 -0.100 -0.031 0.00 0.00 0.6660   -0.236 -0.107 -0.011 -0.168 -0.088 -0.236 -0.168     318     0.3650 14.44 11.68   0.000 0.000 6.034 6.034 0.000 6.055 6.055 0.000
WS7MET_125 2018-01-21 02:15:00 125 30483.0 -0.173 -0.104 -0.011 -0.106 -0.089 100.000 100.000 -0.173 -0.107 0.00 0.00 3.168 3.847 4.673 4.928 12.930 -0.100 -0.088 -0.011 -0.032 -0.088 -0.100 -0.032 0.00 0.00 1.1500   -0.237 -0.107 -0.011 -0.169 -0.098 -0.237 -0.169     318     0.3310 5.98 48.74   0.000 0.000 6.031 6.031 0.000 6.061 6.060 0.000
WS7MET_125 2018-01-21 02:10:00 125 30483.0 -0.206 -0.111 -0.019 -0.122 -0.102 100.000 100.000 -0.206 -0.122 0.00 0.00 3.168 3.849 4.673 4.927 12.940 -0.134 -0.107 -0.011 -0.031 -0.088 -0.134 -0.032 0.00 0.00 0.7710   -0.271 -0.126 -0.030 -0.203 -0.107 -0.271 -0.203     318     0.4220 330.90 15.61   0.000 0.000 6.017 6.017 0.000 6.054 6.054 0.000
WS7MET_125 2018-01-21 02:05:00 125 30483.0 -0.215 -0.126 -0.030 -0.113 -0.107 100.000 100.000 -0.215 -0.113 0.00 0.00 3.168 3.852 4.673 4.929 12.950 -0.167 -0.126 -0.030 -0.031 -0.107 -0.167 -0.031 0.00 0.00 0.7770   -0.304 -0.126 -0.030 -0.202 -0.107 -0.305 -0.202     318     0.5030 5.09 17.56   0.000 0.000 6.013 6.013 0.000 6.058 6.058 0.000
WS7MET_125 2018-01-21 02:00:00 125 30483.0 -0.206 -0.114 -0.013 -0.094 -0.098 100.000 100.000 -0.207 -0.094 0.00 0.00 3.168 3.852 4.673 4.925 12.950 -0.133 -0.088 0.009 -0.031 -0.078 -0.133 -0.031 0.00 0.00 0.7910   -0.270 -0.126 -0.030 -0.201 -0.107 -0.271 -0.201     318     0.4150 21.98 43.08   0.000 0.000 6.017 6.016 0.000 6.066 6.066 -0.000
WS7MET_125 2018-01-21 01:55:00 125 30483.0 -0.228 -0.166 -0.084 -0.194 -0.145 100.000 100.000 -0.228 -0.194 0.00 0.00 3.168 3.852 4.674 4.924 12.950 -0.132 -0.069 0.009 -0.098 -0.059 -0.132 -0.098 0.00 0.00 0.8820   -0.303 -0.204 -0.117 -0.269 -0.184 -0.303 -0.269     318     0.4300 16.17 25.77   0.000 0.000 6.007 6.007 -0.000 6.022 6.022 0.000
WS7MET_125 2018-01-21 01:50:00 125 30483.0 -0.227 -0.151 -0.071 -0.163 -0.111 100.000 100.000 -0.227 -0.164 0.00 0.00 3.168 3.852 4.674 4.926 12.950 -0.167 -0.107 -0.030 -0.065 -0.011 -0.167 -0.065 0.00 0.00 0.9930   -0.304 -0.184 -0.107 -0.235 -0.155 -0.304 -0.236     318     0.4080 1.57 17.32   0.000 0.000 6.008 6.008 0.000 6.036 6.035 0.000
WS7MET_125 2018-01-21 01:45:00 125 30483.0 -0.309 -0.243 -0.161 -0.281 -0.196 100.000 100.000 -0.309 -0.282 0.00 0.00 3.168 3.855 4.675 4.924 12.960 -0.235 -0.107 -0.049 -0.167 0.009 -0.236 -0.167 0.00 0.00 0.8430   -0.372 -0.262 -0.184 -0.372 -0.242 -0.372 -0.372     318     0.4230 31.60 49.99   0.000 0.000 5.972 5.972 0.000 5.984 5.984 0.000
WS7MET_125 2018-01-21 01:40:00 125 30483.0 -0.322 -0.273 -0.194 -0.307 -0.242 100.000 100.000 -0.322 -0.307 0.00 0.00 3.170 3.858 4.677 4.922 12.960 -0.269 -0.262 -0.175 -0.234 -0.223 -0.269 -0.235 0.00 0.00 1.2220   -0.372 -0.281 -0.204 -0.372 -0.262 -0.372 -0.372     318     0.6510 14.21 21.78   0.000 0.000 5.966 5.966 0.000 5.973 5.973 0.000
WS7MET_125 2018-01-21 01:35:00 125 30483.0 -0.326 -0.262 -0.187 -0.293 -0.241 100.000 100.000 -0.326 -0.293 0.00 0.00 3.177 3.862 4.678 4.924 12.960 -0.269 -0.252 -0.165 -0.235 -0.223 -0.269 -0.235 0.00 0.00 0.4830   -0.372 -0.271 -0.204 -0.372 -0.252 -0.372 -0.372     318     0.2450 351.60 27.25   0.000 0.000 5.964 5.964 -0.000 5.979 5.979 0.000
WS7MET_125 2018-01-21 01:30:00 125 30483.0 -0.297 -0.233 -0.156 -0.278 -0.206 100.000 100.000 -0.297 -0.278 0.00 0.00 3.181 3.862 4.679 4.924 12.970 -0.200 -0.223 -0.146 -0.201 -0.184 -0.200 -0.201 0.00 0.00 0.8170   -0.338 -0.242 -0.165 -0.337 -0.233 -0.338 -0.337     318     0.3540 351.50 37.92   0.000 0.000 5.977 5.977 -0.000 5.985 5.985 0.000
WS7MET_125 2018-01-21 01:25:00 125 30483.0 -0.308 -0.227 -0.153 -0.262 -0.189 100.000 100.000 -0.308 -0.262 0.00 0.00 3.184 3.862 4.680 4.921 12.970 -0.235 -0.223 -0.146 -0.200 -0.184 -0.236 -0.200 0.00 0.00 0.6270   -0.371 -0.242 -0.165 -0.337 -0.204 -0.372 -0.337     318     0.1610 16.04 8.96   0.000 0.000 5.972 5.972 0.000 5.992 5.992 0.000
WS7MET_125 2018-01-21 01:20:00 125 30483.0 -0.324 -0.240 -0.165 -0.297 -0.207 100.000 100.000 -0.324 -0.297 0.00 0.00 3.187 3.867 4.681 4.918 12.970 -0.270 -0.233 -0.165 -0.235 -0.194 -0.270 -0.236 0.00 0.00 0.7190   -0.372 -0.242 -0.165 -0.372 -0.223 -0.372 -0.372     318     0.3280 310.10 55.05   0.000 0.000 5.965 5.965 0.000 5.977 5.977 -0.000
WS7MET_125 2018-01-21 01:15:00 125 30483.0 -0.328 -0.257 -0.180 -0.289 -0.214 100.000 100.000 -0.328 -0.289 0.00 0.00 3.187 3.870 4.681 4.919 12.970 -0.268 -0.242 -0.165 -0.234 -0.194 -0.269 -0.234 0.00 0.00 0.5950   -0.439 -0.281 -0.204 -0.371 -0.233 -0.440 -0.371     318     0.2390 358.40 49.44   0.000 0.000 5.964 5.964 0.000 5.981 5.981 0.000
WS7MET_125 2018-01-21 01:10:00 125 30483.0 -0.349 -0.275 -0.199 -0.311 -0.246 100.000 100.000 -0.349 -0.311 0.00 0.00 3.187 3.871 4.681 4.917 12.980 -0.268 -0.262 -0.184 -0.268 -0.223 -0.268 -0.268 0.00 0.00 1.0060   -0.405 -0.300 -0.223 -0.371 -0.281 -0.405 -0.371     318     0.4350 301.30 52.55   0.000 0.000 5.954 5.954 0.000 5.971 5.971 0.000
WS7MET_125 2018-01-21 01:05:00 125 30483.0 -0.331 -0.267 -0.189 -0.292 -0.220 100.000 100.000 -0.332 -0.292 0.00 0.00 3.187 3.871 4.682 4.915 12.980 -0.268 -0.262 -0.184 -0.234 -0.204 -0.268 -0.234 0.00 0.00 0.3140   -0.371 -0.281 -0.204 -0.337 -0.242 -0.371 -0.337     318     0.0830 352.70 7.27   0.000 0.000 5.962 5.962 -0.000 5.979 5.979 0.000
WS7MET_125 2018-01-21 01:00:00 125 30483.0 -0.330 -0.276 -0.201 -0.315 -0.241 100.000 100.000 -0.331 -0.315 0.00 0.00 3.187 3.871 4.688 4.915 12.980 -0.270 -0.262 -0.184 -0.234 -0.223 -0.270 -0.234 0.00 0.00 0.2550   -0.371 -0.281 -0.204 -0.405 -0.262 -0.371 -0.405     318     0.0860 340.00 1.22   0.000 0.000 5.963 5.962 0.000 5.969 5.969 -0.000
WS7MET_125 2018-01-21 00:55:00 125 30483.0 -0.339 -0.274 -0.203 -0.324 -0.243 100.000 100.000 -0.339 -0.324 0.00 0.00 3.187 3.871 4.688 4.916 12.990 -0.235 -0.262 -0.194 -0.268 -0.233 -0.235 -0.269 0.00 0.00 0.0000   -0.406 -0.281 -0.204 -0.372 -0.262 -0.406 -0.372     318     0.0000 0.00 0.00   0.000 0.000 5.959 5.959 0.000 5.965 5.965 0.000
WS7MET_125 2018-01-21 00:50:00 125 30483.0 -0.330 -0.279 -0.207 -0.347 -0.250 100.000 100.000 -0.330 -0.347 0.00 0.00 3.187 3.871 4.692 4.916 12.990 -0.201 -0.262 -0.194 -0.268 -0.233 -0.201 -0.268 0.00 0.00 0.4570   -0.371 -0.281 -0.223 -0.406 -0.262 -0.372 -0.406     318     0.2450 309.60 23.07   0.000 0.000 5.963 5.963 0.000 5.955 5.955 0.000
WS7MET_125 2018-01-21 00:45:00 125 30483.0 -0.372 -0.297 -0.232 -0.362 -0.265 100.000 100.000 -0.372 -0.362 0.00 0.00 3.188 3.872 4.692 4.915 12.990 -0.301 -0.281 -0.204 -0.268 -0.242 -0.302 -0.268 0.00 0.00 0.7120   -0.438 -0.320 -0.242 -0.439 -0.281 -0.438 -0.439     318     0.4070 346.90 17.06   0.000 0.000 5.944 5.944 0.000 5.949 5.949 0.000
WS7MET_125 2018-01-21 00:40:00 125 30483.0 -0.365 -0.319 -0.243 -0.375 -0.286 100.000 100.000 -0.365 -0.376 0.00 0.00 3.193 3.873 4.692 4.915 12.990 -0.302 -0.310 -0.242 -0.303 -0.281 -0.302 -0.303 0.00 0.00 0.5290   -0.471 -0.320 -0.252 -0.438 -0.300 -0.472 -0.439     318     0.2300 351.70 25.13   0.000 0.000 5.947 5.947 -0.000 5.943 5.943 -0.000
WS7MET_125 2018-01-21 00:35:00 125 30483.0 -0.370 -0.320 -0.243 -0.355 -0.280 100.000 100.000 -0.370 -0.355 0.00 0.00 3.201 3.877 4.692 4.915 13.000 -0.301 -0.320 -0.242 -0.267 -0.262 -0.301 -0.268 0.00 0.00 0.5230   -0.439 -0.329 -0.252 -0.405 -0.300 -0.439 -0.405     318     0.2690 14.25 10.87   0.000 0.000 5.945 5.945 0.000 5.952 5.952 0.000
WS7MET_125 2018-01-21 00:30:00 125 30483.0 -0.392 -0.329 -0.257 -0.367 -0.296 100.000 100.000 -0.393 -0.367 0.00 0.00 3.206 3.880 4.692 4.915 13.000 -0.336 -0.320 -0.242 -0.267 -0.281 -0.336 -0.267 0.00 0.00 0.8230   -0.473 -0.339 -0.262 -0.438 -0.300 -0.473 -0.438     318     0.2760 351.20 23.02   0.000 0.000 5.936 5.935 0.000 5.947 5.947 -0.000
WS7MET_125 2018-01-21 00:25:00 125 30483.0 -0.399 -0.339 -0.263 -0.382 -0.296 100.000 100.000 -0.399 -0.382 0.00 0.00 3.205 3.881 4.692 4.915 13.000 -0.335 -0.329 -0.252 -0.233 -0.271 -0.336 -0.233 0.00 0.00 0.6930   -0.438 -0.349 -0.281 -0.472 -0.310 -0.439 -0.473     318     0.4000 334.60 24.34   0.000 0.000 5.933 5.933 0.000 5.940 5.940 0.000
WS7MET_125 2018-01-21 00:20:00 125 30483.0 -0.413 -0.358 -0.285 -0.414 -0.319 100.000 100.000 -0.413 -0.415 0.00 0.00 3.206 3.881 4.692 4.915 13.000 -0.301 -0.358 -0.281 -0.336 -0.300 -0.301 -0.337 0.00 0.00 0.7910   -0.472 -0.358 -0.300 -0.506 -0.339 -0.473 -0.506     318     0.2410 330.80 32.90   0.000 0.000 5.927 5.927 0.000 5.926 5.926 0.000
WS7MET_125 2018-01-21 00:15:00 125 30483.0 -0.427 -0.356 -0.283 -0.386 -0.330 100.000 100.000 -0.427 -0.386 0.00 0.00 3.206 3.882 4.692 4.916 13.010 -0.334 -0.339 -0.262 -0.300 -0.300 -0.334 -0.300 0.00 0.00 0.6010   -0.505 -0.368 -0.300 -0.437 -0.339 -0.506 -0.437     318     0.2410 331.90 9.49   0.000 0.000 5.921 5.921 0.000 5.938 5.938 0.000
WS7MET_125 2018-01-21 00:10:00 125 30483.0 -0.429 -0.354 -0.275 -0.390 -0.310 100.000 100.000 -0.429 -0.390 0.00 0.00 3.206 3.883 4.692 4.915 13.010 -0.368 -0.339 -0.262 -0.334 -0.291 -0.369 -0.335 0.00 0.00 0.5750   -0.506 -0.368 -0.300 -0.472 -0.339 -0.506 -0.472     318     0.2160 325.80 37.16   0.000 0.000 5.920 5.920 0.000 5.937 5.937 0.000
WS7MET_125 2018-01-21 00:05:00 125 30483.0 -0.454 -0.361 -0.286 -0.405 -0.269 100.000 100.000 -0.455 -0.405 0.00 0.00 3.206 3.886 4.692 4.915 13.020 -0.403 -0.339 -0.262 -0.335 -0.233 -0.404 -0.335 0.00 0.00 0.7250   -0.539 -0.416 -0.339 -0.472 -0.320 -0.540 -0.472     318     0.3320 5.69 32.75   0.000 0.000 5.909 5.908 0.000 5.930 5.930 -0.000
WS7MET_125 2018-01-21 00:00:00 125 30483.0 -0.538 -0.457 -0.385 -0.498 -0.375 100.000 100.000 -0.539 -0.498 0.00 0.00 3.206 3.890 4.692 4.915 13.020 -0.472 -0.416 -0.339 -0.437 -0.310 -0.472 -0.438 0.00 0.00 0.6340   -0.609 -0.474 -0.397 -0.575 -0.445 -0.609 -0.575     318     0.0890 188.70 41.01   0.000 0.000 5.873 5.872 0.000 5.890 5.890 0.000
WS7MET_125 2018-01-20 23:55:00 125 30483.0 -0.560 -0.452 -0.374 -0.468 -0.393 100.000 100.000 -0.560 -0.468 0.00 0.00 3.206 3.891 4.692 4.915 13.020 -0.504 -0.436 -0.358 -0.403 -0.339 -0.505 -0.403 0.00 0.00 0.3920   -0.642 -0.474 -0.397 -0.539 -0.455 -0.642 -0.540     318     0.1420 347.00 25.91   0.000 0.000 5.863 5.863 0.000 5.903 5.903 0.000
WS7MET_125 2018-01-20 23:50:00 125 30483.0 -0.570 -0.498 -0.420 -0.529 -0.418 100.000 100.000 -0.570 -0.529 0.00 0.00 3.206 3.891 4.692 4.915 13.030 -0.472 -0.455 -0.378 -0.470 -0.329 -0.472 -0.471 0.00 0.00 0.0000   -0.641 -0.523 -0.436 -0.607 -0.455 -0.641 -0.607     318     0.0000 0.00 0.00   0.000 0.000 5.859 5.859 0.000 5.877 5.877 0.000
WS7MET_125 2018-01-20 23:45:00 125 30483.0 -0.607 -0.529 -0.445 -0.514 -0.449 100.000 100.000 -0.607 -0.515 0.00 0.00 3.206 3.891 4.692 4.915 13.030 -0.572 -0.513 -0.436 -0.436 -0.416 -0.573 -0.437 0.00 0.00 0.0000   -0.675 -0.532 -0.455 -0.573 -0.474 -0.676 -0.573     318     0.0000 0.00 0.00   0.000 0.000 5.843 5.843 0.000 5.883 5.883 0.000
WS7MET_125 2018-01-20 23:40:00 125 30483.0 -0.657 -0.551 -0.462 -0.533 -0.424 100.000 100.000 -0.658 -0.533 0.00 0.00 3.206 3.891 4.692 4.915 13.030 -0.538 -0.532 -0.455 -0.471 -0.387 -0.539 -0.471 0.00 0.00 0.0000   -0.745 -0.591 -0.484 -0.642 -0.474 -0.745 -0.643     318     0.0000 0.00 0.00   0.000 0.000 5.822 5.821 0.000 5.875 5.875 0.000
WS7MET_125 2018-01-20 23:35:00 125 30483.0 -0.710 -0.615 -0.529 -0.552 -0.460 100.000 100.000 -0.711 -0.552 0.00 0.00 3.211 3.891 4.692 4.915 13.040 -0.642 -0.591 -0.494 -0.471 -0.416 -0.642 -0.471 0.00 0.00 0.0000   -0.779 -0.629 -0.542 -0.608 -0.503 -0.780 -0.608     318     0.0000 0.00 0.00   0.000 0.000 5.799 5.799 0.000 5.867 5.867 -0.000
WS7MET_125 2018-01-20 23:30:00 125 30483.0 -0.708 -0.575 -0.503 -0.515 -0.445 100.000 100.000 -0.708 -0.515 0.00 0.00 3.216 3.898 4.692 4.915 13.040 -0.643 -0.561 -0.474 -0.438 -0.397 -0.643 -0.438 0.00 0.00 0.0000   -0.813 -0.591 -0.532 -0.609 -0.474 -0.814 -0.609     318     0.0000 0.00 0.00   0.000 0.000 5.800 5.800 0.000 5.883 5.883 0.000
WS7MET_125 2018-01-20 23:25:00 125 30483.0 -0.660 -0.558 -0.479 -0.527 -0.425 100.000 100.000 -0.660 -0.527 0.00 0.00 3.216 3.900 4.692 4.915 13.040 -0.610 -0.552 -0.474 -0.473 -0.387 -0.610 -0.474 0.00 0.00 0.1890   -0.747 -0.571 -0.494 -0.611 -0.503 -0.747 -0.612     318     0.0150 49.27 4.61   0.000 0.000 5.821 5.821 0.000 5.877 5.877 0.000
WS7MET_125 2018-01-20 23:20:00 125 30483.0 -0.624 -0.511 -0.420 -0.459 -0.469 100.000 100.000 -0.625 -0.459 0.00 0.00 3.220 3.903 4.692 4.915 13.040 -0.541 -0.436 -0.358 -0.337 -0.368 -0.542 -0.337 0.00 0.00 0.2480   -0.713 -0.561 -0.474 -0.576 -0.542 -0.713 -0.577     318     0.0390 295.00 33.80   0.000 0.000 5.836 5.836 0.000 5.907 5.907 -0.000
WS7MET_125 2018-01-20 23:15:00 125 30483.0 -0.632 -0.473 -0.379 -0.436 -0.341 100.000 100.000 -0.633 -0.436 0.00 0.00 3.226 3.904 4.693 4.915 13.040 -0.576 -0.416 -0.339 -0.371 -0.310 -0.576 -0.371 0.00 0.00 0.3070   -0.713 -0.532 -0.436 -0.507 -0.387 -0.713 -0.508     318     0.1270 163.40 36.21   0.000 0.000 5.833 5.832 0.000 5.917 5.917 0.000
WS7MET_125 2018-01-20 23:10:00 125 30483.0 -0.653 -0.540 -0.456 -0.445 -0.390 100.000 100.000 -0.654 -0.445 0.00 0.00 3.226 3.907 4.692 4.915 13.050 -0.576 -0.532 -0.455 -0.371 -0.339 -0.576 -0.372 0.00 0.00 0.3070   -0.748 -0.561 -0.465 -0.508 -0.455 -0.748 -0.509     318     0.0550 217.80 21.93   0.000 0.000 5.824 5.823 0.000 5.913 5.913 0.000
WS7MET_125 2018-01-20 23:05:00 125 30483.0 -0.664 -0.561 -0.464 -0.464 -0.381 100.000 100.000 -0.664 -0.464 0.00 0.00 3.226 3.909 4.692 4.915 13.060 -0.577 -0.532 -0.445 -0.372 -0.339 -0.577 -0.372 0.00 0.00 0.1310   -0.781 -0.571 -0.474 -0.543 -0.436 -0.782 -0.543     318     0.0190 135.00 0.07   0.000 0.000 5.819 5.819 -0.000 5.905 5.905 0.000
WS7MET_125 2018-01-20 23:00:00 125 30483.0 -0.658 -0.557 -0.478 -0.482 -0.382 100.000 100.000 -0.658 -0.482 0.00 0.00 3.226 3.909 4.692 4.915 13.060 -0.575 -0.552 -0.455 -0.406 -0.358 -0.576 -0.406 0.00 0.00 0.1630   -0.746 -0.571 -0.503 -0.542 -0.397 -0.747 -0.542     318     0.0150 247.70 0.28   0.000 0.000 5.821 5.821 0.000 5.897 5.897 0.000
WS7MET_125 2018-01-20 22:55:00 125 30483.0 -0.644 -0.532 -0.486 -0.456 -0.397 100.000 100.000 -0.645 -0.457 0.00 0.00 3.226 3.910 4.692 4.915 13.060 -0.576 -0.494 -0.474 -0.371 -0.339 -0.577 -0.372 0.00 0.00 0.0000   -0.712 -0.552 -0.513 -0.508 -0.436 -0.713 -0.508     318     0.0000 0.00 0.00   0.000 0.000 5.827 5.827 0.000 5.908 5.908 0.000
WS7MET_125 2018-01-20 22:50:00 125 30483.0 -0.621 -0.497 -0.452 -0.425 -0.311 100.000 100.000 -0.621 -0.425 0.00 0.00 3.226 3.910 4.692 4.915 13.060 -0.542 -0.474 -0.436 -0.338 -0.291 -0.542 -0.338 0.00 0.00 0.3850   -0.679 -0.542 -0.474 -0.474 -0.339 -0.680 -0.475     318     0.1160 212.80 5.45   0.000 0.000 5.837 5.837 0.000 5.921 5.921 0.000
WS7MET_125 2018-01-20 22:45:00 125 30483.0 -0.616 -0.526 -0.437 -0.436 -0.366 100.000 100.000 -0.616 -0.437 0.00 0.00 3.226 3.910 4.692 4.915 13.070 -0.576 -0.474 -0.378 -0.337 -0.300 -0.576 -0.338 0.00 0.00 0.0000   -0.713 -0.571 -0.474 -0.507 -0.416 -0.713 -0.508     318     0.0000 0.00 0.00   0.000 0.000 5.839 5.839 0.000 5.917 5.916 0.000
WS7MET_125 2018-01-20 22:40:00 125 30483.0 -0.572 -0.464 -0.384 -0.396 -0.291 100.000 100.000 -0.572 -0.396 0.00 0.00 3.231 3.910 4.693 4.915 13.070 -0.475 -0.445 -0.378 -0.338 -0.271 -0.475 -0.338 0.00 0.00 0.0000   -0.611 -0.484 -0.397 -0.440 -0.320 -0.612 -0.441     318     0.0000 0.00 0.00   0.000 0.000 5.858 5.858 0.000 5.934 5.934 0.000
WS7MET_125 2018-01-20 22:35:00 125 30483.0 -0.576 -0.417 -0.321 -0.360 -0.235 100.000 100.000 -0.577 -0.360 0.00 0.00 3.237 3.910 4.694 4.915 13.070 -0.542 -0.387 -0.291 -0.270 -0.184 -0.542 -0.270 0.00 0.00 0.0000   -0.645 -0.455 -0.378 -0.441 -0.271 -0.646 -0.441     318     0.0000 0.00 0.00   0.000 0.000 5.856 5.856 0.000 5.950 5.950 0.000
WS7MET_125 2018-01-20 22:30:00 125 30483.0 -0.544 -0.411 -0.323 -0.387 -0.223 100.000 100.000 -0.544 -0.387 0.00 0.00 3.243 3.913 4.697 4.915 13.080 -0.474 -0.378 -0.281 -0.303 -0.184 -0.474 -0.303 0.00 0.00 0.5490   -0.644 -0.455 -0.397 -0.474 -0.291 -0.645 -0.474     318     0.1150 279.70 14.30   0.000 0.000 5.870 5.870 -0.000 5.938 5.938 0.000
WS7MET_125 2018-01-20 22:25:00 125 30483.0 -0.503 -0.436 -0.399 -0.368 -0.262 100.000 100.000 -0.503 -0.369 0.00 0.00 3.244 3.916 4.700 4.915 13.080 -0.408 -0.416 -0.387 -0.272 -0.242 -0.408 -0.272 0.00 0.00 0.1760   -0.576 -0.455 -0.407 -0.442 -0.300 -0.577 -0.442     318     0.0090 254.80 0.00   0.000 0.000 5.888 5.888 0.000 5.946 5.946 0.000
WS7MET_125 2018-01-20 22:20:00 125 30483.0 -0.393 -0.383 -0.311 -0.309 -0.190 100.000 100.000 -0.393 -0.310 0.00 0.00 3.245 3.919 4.704 4.915 13.080 -0.340 -0.339 -0.223 -0.237 -0.146 -0.340 -0.238 0.00 0.00 0.0000   -0.477 -0.416 -0.378 -0.408 -0.233 -0.477 -0.409     318     0.0000 0.00 0.00   0.000 0.000 5.935 5.935 0.000 5.972 5.971 0.000
WS7MET_125 2018-01-20 22:15:00 125 30483.0 -0.358 -0.314 -0.212 -0.260 -0.143 100.000 100.000 -0.358 -0.261 0.00 0.00 3.245 3.921 4.704 4.916 13.080 -0.271 -0.300 -0.194 -0.168 -0.136 -0.271 -0.168 0.00 0.00 0.2420   -0.408 -0.339 -0.223 -0.373 -0.155 -0.408 -0.373     318     0.0230 356.20 1.40   0.000 0.000 5.950 5.950 0.000 5.993 5.993 0.000
WS7MET_125 2018-01-20 22:10:00 125 30483.0 -0.334 -0.257 -0.168 -0.228 -0.130 100.000 100.000 -0.334 -0.229 0.00 0.00 3.245 3.920 4.708 4.915 13.090 -0.238 -0.223 -0.126 -0.134 -0.107 -0.238 -0.134 0.00 0.00 0.0000   -0.441 -0.300 -0.204 -0.305 -0.165 -0.442 -0.305     318     0.0000 0.00 0.00   0.000 0.000 5.961 5.961 0.000 6.007 6.007 -0.000
WS7MET_125 2018-01-20 22:05:00 125 30483.0 -0.299 -0.198 -0.109 -0.168 -0.112 100.000 100.000 -0.299 -0.168 0.00 0.00 3.245 3.924 4.709 4.915 13.100 -0.238 -0.184 -0.088 -0.102 -0.107 -0.238 -0.102 0.00 0.00 0.3330   -0.340 -0.223 -0.126 -0.238 -0.117 -0.341 -0.238     318     0.0400 316.10 1.35   0.000 0.000 5.976 5.976 0.000 6.034 6.034 -0.000
WS7MET_125 2018-01-20 22:00:00 125 30483.0 -0.319 -0.191 -0.096 -0.203 -0.100 100.000 100.000 -0.320 -0.203 0.00 0.00 3.245 3.926 4.711 4.915 13.100 -0.237 -0.184 -0.088 -0.101 -0.088 -0.237 -0.101 0.00 0.00 0.5880   -0.408 -0.204 -0.107 -0.306 -0.117 -0.409 -0.306     318     0.2840 341.20 22.70   0.000 0.000 5.967 5.967 0.000 6.018 6.018 0.000
WS7MET_125 2018-01-20 21:55:00 125 30483.0 -0.393 -0.255 -0.149 -0.261 -0.131 100.000 100.000 -0.393 -0.262 0.00 0.00 3.245 3.929 4.711 4.915 13.100 -0.340 -0.204 -0.098 -0.170 -0.098 -0.340 -0.170 0.00 0.00 0.4700   -0.477 -0.300 -0.204 -0.340 -0.165 -0.477 -0.340     318     0.2800 291.40 38.58   0.000 0.000 5.935 5.935 0.000 5.993 5.992 0.000
WS7MET_125 2018-01-20 21:50:00 125 30483.0 -0.436 -0.370 -0.269 -0.347 -0.208 100.000 100.000 -0.436 -0.348 0.00 0.00 3.245 3.929 4.711 4.915 13.110 -0.374 -0.329 -0.223 -0.306 -0.146 -0.374 -0.306 0.00 0.00 0.5550   -0.478 -0.387 -0.281 -0.409 -0.252 -0.478 -0.409     318     0.1240 30.35 24.82   0.000 0.000 5.917 5.917 0.000 5.955 5.955 0.000
WS7MET_125 2018-01-20 21:45:00 125 30483.0 -0.481 -0.384 -0.284 -0.339 -0.232 100.000 100.000 -0.481 -0.339 0.00 0.00 3.245 3.929 4.711 4.915 13.110 -0.409 -0.358 -0.262 -0.272 -0.184 -0.409 -0.273 0.00 0.00 0.3070   -0.546 -0.416 -0.300 -0.443 -0.310 -0.546 -0.444     318     0.0520 76.72 6.01   0.000 0.000 5.897 5.897 0.000 5.959 5.959 0.000
WS7MET_125 2018-01-20 21:40:00 125 30483.0 -0.406 -0.372 -0.276 -0.325 -0.231 100.000 100.000 -0.406 -0.326 0.00 0.00 3.248 3.929 4.711 4.915 13.110 -0.273 -0.339 -0.262 -0.238 -0.204 -0.273 -0.239 0.00 0.00 0.2160   -0.477 -0.397 -0.300 -0.409 -0.271 -0.477 -0.409     318     0.0410 189.30 0.03   0.000 0.000 5.930 5.930 -0.000 5.965 5.964 0.000
WS7MET_125 2018-01-20 21:35:00 125 30483.0 -0.406 -0.352 -0.271 -0.295 -0.204 100.000 100.000 -0.406 -0.295 0.00 0.00 3.256 3.930 4.711 4.915 13.120 -0.307 -0.339 -0.242 -0.238 -0.175 -0.307 -0.239 0.00 0.00 0.1700   -0.478 -0.368 -0.281 -0.375 -0.223 -0.478 -0.375     318     0.0170 142.90 0.49   0.000 0.000 5.930 5.930 -0.000 5.978 5.978 0.000
WS7MET_125 2018-01-20 21:30:00 125 30483.0 -0.380 -0.309 -0.215 -0.286 -0.156 100.000 100.000 -0.380 -0.286 0.00 0.00 3.260 3.933 4.711 4.915 13.120 -0.307 -0.281 -0.184 -0.204 -0.136 -0.307 -0.204 0.00 0.00 0.2160   -0.443 -0.339 -0.242 -0.375 -0.213 -0.443 -0.376     318     0.0350 270.30 30.73   0.000 0.000 5.941 5.941 0.000 5.982 5.982 0.000
WS7MET_125 2018-01-20 21:25:00 125 30483.0 -0.341 -0.275 -0.197 -0.278 -0.184 100.000 100.000 -0.342 -0.278 0.00 0.00 3.264 3.938 4.711 4.915 13.120 -0.307 -0.242 -0.165 -0.171 -0.146 -0.307 -0.171 0.00 0.00 0.2290   -0.410 -0.320 -0.242 -0.341 -0.242 -0.410 -0.342     318     0.0460 261.70 13.09   0.000 0.000 5.958 5.957 0.000 5.985 5.985 0.000
WS7MET_125 2018-01-20 21:20:00 125 30483.0 -0.321 -0.251 -0.171 -0.246 -0.156 100.000 100.000 -0.321 -0.246 0.00 0.00 3.264 3.938 4.711 4.915 13.130 -0.273 -0.242 -0.165 -0.171 -0.146 -0.273 -0.171 0.00 0.00 0.5950   -0.375 -0.262 -0.184 -0.307 -0.165 -0.376 -0.307     318     0.3420 239.40 17.24   0.000 0.000 5.967 5.967 0.000 5.999 5.999 0.000
WS7MET_125 2018-01-20 21:15:00 125 30483.0 -0.302 -0.257 -0.163 -0.246 -0.164 100.000 100.000 -0.302 -0.246 0.00 0.00 3.264 3.939 4.711 4.915 13.130 -0.239 -0.252 -0.155 -0.205 -0.155 -0.239 -0.205 0.00 0.00 0.5100   -0.375 -0.262 -0.165 -0.341 -0.175 -0.376 -0.341     318     0.1360 178.60 21.12   0.000 0.000 5.975 5.975 0.000 5.999 5.999 0.000
WS7MET_125 2018-01-20 21:10:00 125 30483.0 -0.304 -0.247 -0.165 -0.241 -0.152 100.000 100.000 -0.304 -0.241 0.00 0.00 3.264 3.941 4.711 4.915 13.140 -0.239 -0.242 -0.165 -0.171 -0.146 -0.239 -0.171 0.00 0.00 0.1370   -0.375 -0.262 -0.165 -0.307 -0.165 -0.376 -0.307     318     0.0080 146.50 0.00   0.000 0.000 5.974 5.974 0.000 6.002 6.002 0.000
WS7MET_125 2018-01-20 21:05:00 125 30483.0 -0.293 -0.249 -0.168 -0.211 -0.122 100.000 100.000 -0.294 -0.212 0.00 0.00 3.264 3.943 4.711 4.915 13.140 -0.239 -0.242 -0.165 -0.136 -0.117 -0.239 -0.136 0.00 0.00 0.0000   -0.375 -0.262 -0.184 -0.273 -0.126 -0.376 -0.273     318     0.0000 0.00 0.00   0.000 0.000 5.979 5.978 0.000 6.015 6.014 0.000
WS7MET_125 2018-01-20 21:00:00 125 30483.0 -0.346 -0.278 -0.214 -0.245 -0.114 100.000 100.000 -0.346 -0.246 0.00 0.00 3.264 3.946 4.711 4.914 13.150 -0.273 -0.262 -0.204 -0.170 -0.107 -0.273 -0.171 0.00 0.00 0.0000   -0.443 -0.300 -0.223 -0.307 -0.126 -0.444 -0.307     318     0.0000 0.00 0.00   0.000 0.000 5.956 5.956 0.000 6.000 5.999 0.000
WS7MET_125 2018-01-20 20:55:00 125 30483.0 -0.353 -0.307 -0.239 -0.284 -0.129 100.000 100.000 -0.353 -0.285 0.00 0.00 3.264 3.947 4.711 4.915 13.150 -0.306 -0.300 -0.223 -0.204 -0.107 -0.307 -0.204 0.00 0.00 0.0000   -0.409 -0.320 -0.242 -0.341 -0.146 -0.409 -0.341     318     0.0000 0.00 0.00   0.000 0.000 5.953 5.953 0.000 5.983 5.982 0.000
WS7MET_125 2018-01-20 20:50:00 125 30483.0 -0.339 -0.285 -0.220 -0.244 -0.115 100.000 100.000 -0.339 -0.244 0.00 0.00 3.267 3.949 4.711 4.914 13.150 -0.273 -0.262 -0.184 -0.170 -0.107 -0.273 -0.170 0.00 0.00 0.0000   -0.443 -0.300 -0.242 -0.341 -0.126 -0.444 -0.341     318     0.0000 0.00 0.00   0.000 0.000 5.959 5.959 0.000 6.000 6.000 0.000
WS7MET_125 2018-01-20 20:45:00 125 30483.0 -0.266 -0.236 -0.159 -0.197 -0.140 100.000 100.000 -0.266 -0.198 0.00 0.00 3.273 3.949 4.711 4.915 13.150 -0.170 -0.184 -0.107 -0.136 -0.126 -0.170 -0.136 0.00 0.00 0.1110   -0.341 -0.262 -0.184 -0.273 -0.146 -0.341 -0.273     318     0.0110 317.80 1.13   0.000 0.000 5.991 5.991 0.000 6.021 6.020 0.000
WS7MET_125 2018-01-20 20:40:00 125 30483.0 -0.177 -0.119 -0.031 -0.072 -0.078 100.000 100.000 -0.177 -0.072 0.00 0.00 3.281 3.949 4.711 4.915 13.160 -0.067 -0.069 0.028 0.036 -0.001 -0.067 0.036 0.00 0.00 0.0000   -0.272 -0.184 -0.107 -0.204 -0.146 -0.273 -0.204     318     0.0000 0.00 0.00   0.000 0.000 6.030 6.030 0.000 6.076 6.076 0.000
WS7MET_125 2018-01-20 20:35:00 125 30483.0 -0.119 -0.036 0.059 -0.015 0.017 100.000 100.000 -0.119 -0.015 0.00 0.00 3.283 3.950 4.712 4.914 13.170 -0.068 -0.011 0.086 0.068 0.028 -0.068 0.069 0.00 0.00 0.0000   -0.205 -0.069 0.028 -0.068 -0.001 -0.205 -0.068     318     0.0000 0.00 0.00   0.000 0.000 6.055 6.055 0.000 6.101 6.101 0.000
WS7MET_125 2018-01-20 20:30:00 125 30483.0 -0.116 -0.007 0.087 -0.005 0.045 100.000 100.000 -0.116 -0.005 0.00 0.00 3.283 3.953 4.713 4.914 13.170 -0.034 0.009 0.096 0.069 0.047 -0.034 0.069 0.00 0.00 0.0000   -0.170 -0.011 0.086 -0.068 0.038 -0.170 -0.068     318     0.0000 0.00 0.00   0.000 0.000 6.056 6.056 0.000 6.106 6.106 0.000
WS7MET_125 2018-01-20 20:25:00 125 30483.0 -0.090 -0.010 0.080 -0.025 0.038 100.000 100.000 -0.090 -0.025 0.00 0.00 3.283 3.957 4.714 4.915 13.170 0.000 0.009 0.086 0.068 0.047 0.000 0.068 0.00 0.00 0.2940   -0.137 -0.020 0.067 -0.102 0.028 -0.137 -0.102     318     0.1420 316.20 2.87   0.000 0.000 6.068 6.068 0.000 6.097 6.097 0.000
WS7MET_125 2018-01-20 20:20:00 125 30483.0 -0.089 -0.006 0.080 0.005 0.029 100.000 100.000 -0.089 0.005 0.00 0.00 3.283 3.957 4.717 4.914 13.170 0.000 0.009 0.096 0.102 0.047 0.000 0.102 0.00 0.00 0.3530   -0.171 -0.020 0.067 -0.068 0.009 -0.171 -0.068     318     0.1390 322.00 17.73   0.000 0.000 6.068 6.068 -0.000 6.110 6.110 0.000
WS7MET_125 2018-01-20 20:15:00 125 30483.0 -0.096 -0.001 0.085 -0.007 0.033 100.000 100.000 -0.096 -0.007 0.00 0.00 3.283 3.959 4.717 4.914 13.180 0.000 0.009 0.086 0.068 0.047 0.000 0.068 0.00 0.00 0.4900   -0.205 -0.011 0.076 -0.102 0.028 -0.205 -0.102     318     0.2130 337.20 23.20   0.000 0.000 6.065 6.065 0.000 6.105 6.105 0.000
WS7MET_125 2018-01-20 20:10:00 125 30483.0 -0.075 0.025 0.104 0.003 0.048 100.000 100.000 -0.075 0.003 0.00 0.00 3.283 3.959 4.716 4.914 13.190 0.034 0.028 0.105 0.102 0.067 0.034 0.102 0.00 0.00 0.4570   -0.102 0.009 0.096 -0.068 0.038 -0.102 -0.068     318     0.2420 343.50 9.94   0.000 0.000 6.075 6.075 0.000 6.109 6.109 0.000
WS7MET_125 2018-01-20 20:05:00 125 30483.0 -0.096 0.028 0.105 0.005 0.050 100.000 100.000 -0.096 0.005 0.00 0.00 3.283 3.965 4.719 4.915 13.190 -0.068 0.028 0.105 0.068 0.057 -0.068 0.068 0.00 0.00 0.2610   -0.137 0.028 0.105 -0.068 0.047 -0.137 -0.068     318     0.1660 331.10 1.46   0.000 0.000 6.065 6.065 0.000 6.110 6.110 0.000
WS7MET_125 2018-01-20 20:00:00 125 30483.0 -0.099 0.008 0.093 -0.017 0.055 100.000 100.000 -0.099 -0.017 0.00 0.00 3.283 3.968 4.724 4.914 13.200 0.000 0.028 0.115 0.068 0.067 0.000 0.068 0.00 0.00 0.5230   -0.171 -0.020 0.067 -0.102 0.038 -0.171 -0.102     318     0.3620 345.10 12.77   0.000 0.000 6.064 6.064 0.000 6.100 6.100 -0.000
WS7MET_125 2018-01-20 19:55:00 125 30483.0 -0.130 -0.048 0.048 -0.024 0.016 100.000 100.000 -0.130 -0.024 0.00 0.00 3.284 3.968 4.724 4.914 13.200 -0.068 -0.030 0.067 0.034 0.038 -0.068 0.034 0.00 0.00 0.6340   -0.239 -0.059 0.038 -0.068 -0.011 -0.239 -0.068     318     0.1550 328.60 11.15   0.000 0.000 6.050 6.050 0.000 6.097 6.097 0.000
WS7MET_125 2018-01-20 19:50:00 125 30483.0 -0.138 -0.047 0.047 -0.043 0.015 100.000 100.000 -0.138 -0.043 0.00 0.00 3.288 3.968 4.728 4.913 13.210 -0.068 -0.030 0.047 0.034 0.038 -0.068 0.034 0.00 0.00 0.3720   -0.205 -0.049 0.047 -0.137 -0.011 -0.205 -0.137     318     0.0700 8.59 3.67   0.000 0.000 6.047 6.047 0.000 6.089 6.089 0.000
WS7MET_125 2018-01-20 19:45:00 125 30483.0 -0.131 -0.059 0.034 -0.043 0.009 100.000 100.000 -0.131 -0.043 0.00 0.00 3.291 3.968 4.731 4.913 13.210 -0.034 -0.049 0.047 0.034 0.009 -0.034 0.034 0.00 0.00 0.5030   -0.239 -0.069 0.028 -0.102 0.009 -0.239 -0.102     318     0.1140 0.54 3.14   0.000 0.000 6.050 6.050 -0.000 6.089 6.089 0.000
WS7MET_125 2018-01-20 19:40:00 125 30483.0 -0.118 -0.020 0.072 -0.032 0.024 100.000 100.000 -0.118 -0.032 0.00 0.00 3.293 3.968 4.730 4.912 13.210 -0.068 -0.011 0.086 0.034 0.047 -0.068 0.034 0.00 0.00 0.4250   -0.171 -0.049 0.047 -0.102 -0.001 -0.171 -0.102     318     0.0770 341.80 8.30   0.000 0.000 6.056 6.056 -0.000 6.094 6.094 -0.000
WS7MET_125 2018-01-20 19:35:00 125 30483.0 -0.114 -0.028 0.061 -0.034 0.022 100.000 100.000 -0.114 -0.034 0.00 0.00 3.295 3.970 4.731 4.908 13.220 -0.034 -0.011 0.067 0.034 0.047 -0.034 0.034 0.00 0.00 0.4770   -0.205 -0.040 0.047 -0.102 -0.001 -0.205 -0.102     318     0.2070 335.90 9.12   0.000 0.000 6.057 6.057 0.000 6.093 6.093 0.000
WS7MET_125 2018-01-20 19:30:00 125 30483.0 -0.125 -0.025 0.059 -0.029 0.008 100.000 100.000 -0.125 -0.029 0.00 0.00 3.301 3.975 4.731 4.907 13.230 -0.068 -0.001 0.086 0.034 0.028 -0.068 0.034 0.00 0.00 0.5290   -0.171 -0.040 0.047 -0.102 -0.011 -0.171 -0.102     318     0.2260 349.20 5.82   0.000 0.000 6.052 6.052 -0.000 6.095 6.095 0.000
WS7MET_125 2018-01-20 19:25:00 125 30483.0 -0.094 0.021 0.103 -0.002 0.043 100.000 100.000 -0.094 -0.002 0.00 0.00 3.303 3.977 4.731 4.910 13.230 -0.034 0.028 0.105 0.068 0.057 -0.034 0.068 0.00 0.00 0.3070   -0.171 0.009 0.086 -0.068 0.009 -0.171 -0.068     318     0.1570 335.60 1.22   0.000 0.000 6.066 6.066 -0.000 6.107 6.107 0.000
WS7MET_125 2018-01-20 19:20:00 125 30483.0 -0.068 0.026 0.114 -0.005 0.042 100.000 100.000 -0.068 -0.005 0.00 0.00 3.303 3.979 4.731 4.912 13.230 0.034 0.028 0.125 0.102 0.047 0.034 0.102 0.00 0.00 0.2740   -0.137 0.018 0.105 -0.068 0.028 -0.137 -0.068     318     0.1450 336.80 3.07   0.000 0.000 6.078 6.078 0.000 6.106 6.106 0.000
WS7MET_125 2018-01-20 19:15:00 125 30483.0 -0.046 0.055 0.135 0.019 0.049 100.000 100.000 -0.046 0.019 0.00 0.00 3.303 3.983 4.730 4.910 13.230 0.034 0.067 0.154 0.102 0.067 0.034 0.102 0.00 0.00 0.5160   -0.137 0.038 0.125 -0.034 0.038 -0.137 -0.034     318     0.2190 320.80 10.54   0.000 0.000 6.087 6.087 0.000 6.116 6.116 0.000
WS7MET_125 2018-01-20 19:10:00 125 30483.0 -0.073 0.058 0.144 0.032 0.071 100.000 100.000 -0.073 0.032 0.00 0.00 3.303 3.987 4.731 4.908 13.250 0.000 0.067 0.144 0.102 0.086 0.000 0.102 0.00 0.00 0.5160   -0.137 0.047 0.144 -0.034 0.067 -0.137 -0.034     318     0.2580 334.70 7.15   0.000 0.000 6.075 6.075 0.000 6.122 6.122 0.000
WS7MET_125 2018-01-20 19:05:00 125 30483.0 -0.061 0.051 0.144 0.027 0.060 100.000 100.000 -0.061 0.027 0.00 0.00 3.303 3.987 4.731 4.909 13.250 0.034 0.057 0.144 0.102 0.067 0.034 0.102 0.00 0.00 0.2550   -0.171 0.047 0.144 -0.034 0.047 -0.171 -0.034     318     0.1430 336.70 3.13   0.000 0.000 6.081 6.081 0.000 6.120 6.120 0.000
WS7MET_125 2018-01-20 19:00:00 125 30483.0 -0.051 0.054 0.144 0.029 0.057 100.000 100.000 -0.051 0.029 0.00 0.00 3.306 3.987 4.731 4.906 13.260 0.034 0.057 0.144 0.068 0.067 0.034 0.068 0.00 0.00 0.3530   -0.137 0.047 0.144 -0.034 0.047 -0.137 -0.034     318     0.2520 328.10 1.11   0.000 0.000 6.085 6.085 0.000 6.121 6.121 -0.000
WS7MET_125 2018-01-20 18:55:00 125 30483.0 -0.053 0.051 0.144 0.007 0.064 100.000 100.000 -0.053 0.007 0.00 0.00 3.308 3.987 4.731 4.906 13.260 0.068 0.057 0.144 0.068 0.067 0.068 0.068 0.00 0.00 0.1760   -0.137 0.047 0.144 -0.034 0.057 -0.137 -0.034     318     0.0490 338.20 5.24   0.000 0.000 6.084 6.084 0.000 6.111 6.111 0.000
WS7MET_125 2018-01-20 18:50:00 125 30483.0 -0.043 0.066 0.144 0.038 0.061 100.000 100.000 -0.043 0.038 0.00 0.00 3.314 3.987 4.731 4.906 13.270 0.034 0.067 0.144 0.102 0.076 0.034 0.102 0.00 0.00 0.3920   -0.137 0.057 0.144 -0.034 0.047 -0.137 -0.034     318     0.3180 346.10 5.97   0.000 0.000 6.089 6.089 0.000 6.125 6.125 0.000
WS7MET_125 2018-01-20 18:45:00 125 30483.0 -0.049 0.055 0.144 0.039 0.063 100.000 100.000 -0.050 0.039 0.00 0.00 3.316 3.987 4.731 4.906 13.280 0.034 0.067 0.144 0.102 0.076 0.034 0.102 0.00 0.00 0.4050   -0.102 0.047 0.144 -0.034 0.047 -0.102 -0.034     318     0.2370 350.40 9.43   0.000 0.000 6.086 6.086 0.000 6.125 6.125 0.000
WS7MET_125 2018-01-20 18:40:00 125 30483.0 -0.046 0.051 0.143 0.020 0.051 100.000 100.000 -0.046 0.021 0.00 0.00 3.318 3.988 4.731 4.905 13.280 0.034 0.067 0.144 0.102 0.067 0.034 0.102 0.00 0.00 0.5290   -0.137 0.047 0.134 -0.034 0.047 -0.137 -0.034     318     0.3730 11.73 5.07   0.000 0.000 6.087 6.087 0.000 6.117 6.117 0.000
WS7MET_125 2018-01-20 18:35:00 125 30483.0 -0.056 0.060 0.144 0.048 0.065 100.000 100.000 -0.056 0.048 0.00 0.00 3.321 3.990 4.731 4.907 13.280 0.068 0.067 0.144 0.171 0.076 0.068 0.171 0.00 0.00 0.2680   -0.137 0.057 0.144 -0.034 0.057 -0.137 -0.034     318     0.1500 352.50 11.20   0.000 0.000 6.083 6.083 0.000 6.129 6.129 0.000
WS7MET_125 2018-01-20 18:30:00 125 30483.0 -0.034 0.066 0.144 0.020 0.059 100.000 100.000 -0.034 0.021 0.00 0.00 3.322 3.993 4.731 4.906 13.290 0.068 0.067 0.144 0.102 0.067 0.068 0.102 0.00 0.00 0.4700   -0.137 0.057 0.144 -0.034 0.047 -0.137 -0.034     318     0.2530 346.30 20.14   0.000 0.000 6.093 6.093 0.000 6.117 6.117 0.000
WS7MET_125 2018-01-20 18:25:00 125 30483.0 -0.032 0.067 0.150 0.029 0.071 100.000 100.000 -0.032 0.029 0.00 0.00 3.322 3.997 4.731 4.905 13.300 0.000 0.076 0.163 0.137 0.086 0.000 0.137 0.00 0.00 0.4050   -0.068 0.067 0.144 -0.068 0.057 -0.068 -0.068     318     0.3310 336.10 11.40   0.000 0.000 6.094 6.094 -0.000 6.121 6.121 -0.000
WS7MET_125 2018-01-20 18:20:00 125 30483.0 -0.029 0.065 0.146 0.029 0.069 100.000 100.000 -0.029 0.029 0.00 0.00 3.322 3.997 4.731 4.905 13.300 0.034 0.067 0.154 0.102 0.076 0.034 0.102 0.00 0.00 0.4510   -0.068 0.057 0.144 -0.034 0.047 -0.068 -0.034     318     0.3030 338.50 7.71   0.000 0.000 6.095 6.095 0.000 6.121 6.121 -0.000
WS7MET_125 2018-01-20 18:15:00 125 30483.0 -0.031 0.052 0.143 0.019 0.062 100.000 100.000 -0.031 0.019 0.00 0.00 3.322 3.998 4.732 4.905 13.300 0.068 0.067 0.144 0.068 0.067 0.068 0.068 0.00 0.00 0.5550   -0.102 0.047 0.134 -0.034 0.047 -0.102 -0.034     318     0.3760 341.90 12.97   0.000 0.000 6.094 6.094 0.000 6.116 6.116 0.000
WS7MET_125 2018-01-20 18:10:00 125 30483.0 -0.072 0.046 0.125 0.005 0.050 100.000 100.000 -0.072 0.005 0.00 0.00 3.322 3.997 4.731 4.905 13.320 0.034 0.047 0.134 0.068 0.067 0.034 0.068 0.00 0.00 0.3010   -0.171 0.028 0.125 -0.068 0.047 -0.171 -0.068     318     0.2470 339.30 6.39   0.000 0.000 6.076 6.076 0.000 6.110 6.110 0.000
WS7MET_125 2018-01-20 18:05:00 125 30483.0 -0.060 0.027 0.112 0.010 0.037 100.000 100.000 -0.060 0.010 0.00 0.00 3.323 4.000 4.731 4.904 13.320 0.000 0.028 0.125 0.068 0.047 0.000 0.068 0.00 0.00 0.3660   -0.102 0.018 0.105 -0.068 0.009 -0.102 -0.068     318     0.2510 349.60 13.74   0.000 0.000 6.081 6.081 -0.000 6.112 6.112 0.000
WS7MET_125 2018-01-20 18:00:00 125 30483.0 -0.082 0.028 0.123 0.010 0.041 100.000 100.000 -0.082 0.010 0.00 0.00 3.326 4.004 4.731 4.905 13.330 0.000 0.028 0.125 0.102 0.047 0.000 0.102 0.00 0.00 0.5160   -0.171 0.028 0.105 -0.068 0.028 -0.171 -0.068     318     0.3670 0.50 10.99   0.000 0.000 6.071 6.071 0.000 6.112 6.112 0.000
WS7MET_125 2018-01-20 17:55:00 125 30483.0 -0.061 0.019 0.109 -0.003 0.044 100.000 100.000 -0.061 -0.003 0.00 0.00 3.330 4.006 4.732 4.905 13.340 0.000 0.028 0.125 0.034 0.047 0.000 0.034 0.00 0.00 0.5030   -0.171 0.009 0.105 -0.068 0.038 -0.171 -0.068     318     0.1860 359.40 2.39   0.000 0.000 6.081 6.081 0.000 6.106 6.106 0.000
WS7MET_125 2018-01-20 17:50:00 125 30483.0 -0.080 0.006 0.099 -0.020 0.038 100.000 100.000 -0.080 -0.020 0.00 0.00 3.335 4.006 4.734 4.905 13.340 0.000 0.018 0.105 0.034 0.047 0.000 0.034 0.00 0.00 0.6470   -0.205 -0.001 0.086 -0.068 0.018 -0.205 -0.068     318     0.3110 9.60 17.00   0.000 0.000 6.072 6.072 0.000 6.099 6.099 0.000
WS7MET_125 2018-01-20 17:45:00 125 30483.0 -0.078 -0.009 0.086 -0.012 0.009 100.000 100.000 -0.079 -0.012 0.00 0.00 3.341 4.006 4.735 4.905 13.350 -0.034 -0.001 0.086 0.068 0.018 -0.034 0.068 0.00 0.00 0.5490   -0.137 -0.011 0.086 -0.068 0.009 -0.137 -0.068     318     0.1570 1.35 3.54   0.000 0.000 6.073 6.073 0.000 6.102 6.102 0.000
WS7MET_125 2018-01-20 17:40:00 125 30483.0 -0.068 -0.004 0.086 -0.020 0.010 100.000 100.000 -0.068 -0.020 0.00 0.00 3.341 4.006 4.740 4.905 13.360 0.034 0.009 0.086 0.068 0.018 0.034 0.068 0.00 0.00 0.2420   -0.137 -0.011 0.086 -0.068 0.009 -0.137 -0.068     318     0.0400 354.20 0.05   0.000 0.000 6.078 6.078 0.000 6.099 6.099 0.000
WS7MET_125 2018-01-20 17:35:00 125 30483.0 -0.080 0.004 0.086 -0.012 0.013 100.000 100.000 -0.080 -0.012 0.00 0.00 3.341 4.008 4.747 4.905 13.370 -0.034 0.009 0.086 0.102 0.028 -0.034 0.102 0.00 0.00 0.2550   -0.137 -0.011 0.086 -0.068 0.009 -0.137 -0.068     318     0.0300 335.20 8.41   0.000 0.000 6.072 6.072 0.000 6.102 6.102 0.000
WS7MET_125 2018-01-20 17:30:00 125 30483.0 -0.072 0.009 0.099 -0.024 0.009 100.000 100.000 -0.072 -0.024 0.00 0.00 3.341 4.014 4.746 4.905 13.370 0.000 0.009 0.105 0.034 0.018 0.000 0.034 0.00 0.00 0.6930   -0.137 0.009 0.086 -0.102 0.009 -0.137 -0.102     318     0.2060 24.48 6.19   0.000 0.000 6.076 6.076 0.000 6.097 6.097 0.000
WS7MET_125 2018-01-20 17:25:00 125 30483.0 -0.096 0.011 0.101 -0.005 0.012 100.000 100.000 -0.096 -0.005 0.00 0.00 3.341 4.017 4.749 4.905 13.380 -0.034 0.018 0.105 0.068 0.028 -0.034 0.068 0.00 0.00 0.5230   -0.171 0.009 0.086 -0.068 -0.001 -0.171 -0.068     318     0.1390 344.30 6.67   0.000 0.000 6.065 6.065 0.000 6.106 6.106 0.000
WS7MET_125 2018-01-20 17:20:00 125 30483.0 -0.056 0.017 0.107 -0.012 0.011 100.000 100.000 -0.056 -0.012 0.00 0.00 3.341 4.020 4.750 4.905 13.390 0.000 0.028 0.115 0.102 0.028 0.000 0.102 0.00 0.00 0.4510   -0.102 0.009 0.105 -0.068 -0.011 -0.102 -0.068     318     0.1360 327.60 0.58   0.000 0.000 6.083 6.083 0.000 6.102 6.102 0.000
WS7MET_125 2018-01-20 17:15:00 125 30483.0 -0.051 0.025 0.115 0.003 0.019 100.000 100.000 -0.051 0.003 0.00 0.00 3.342 4.023 4.748 4.905 13.390 0.034 0.038 0.125 0.068 0.047 0.034 0.068 0.00 0.00 0.4050   -0.137 0.009 0.105 -0.102 -0.011 -0.137 -0.102     318     0.1390 342.30 11.81   0.000 0.000 6.085 6.085 0.000 6.109 6.109 0.000
WS7MET_125 2018-01-20 17:10:00 125 30483.0 -0.039 0.031 0.127 0.024 0.029 100.000 100.000 -0.039 0.024 0.00 0.00 3.346 4.025 4.750 4.905 13.410 0.034 0.047 0.144 0.068 0.047 0.034 0.068 0.00 0.00 0.2160   -0.102 0.028 0.125 -0.068 -0.001 -0.102 -0.068     318     0.0400 341.10 16.66   0.000 0.000 6.090 6.090 -0.000 6.118 6.118 0.000
WS7MET_125 2018-01-20 17:05:00 125 30483.0 -0.029 0.035 0.129 0.012 0.013 100.000 100.000 -0.029 0.012 0.00 0.00 3.355 4.026 4.750 4.905 13.420 0.068 0.047 0.144 0.068 0.028 0.068 0.068 0.00 0.00 0.5490   -0.102 0.028 0.125 -0.102 0.009 -0.102 -0.102     318     0.3180 22.74 7.91   0.000 0.000 6.095 6.095 0.000 6.113 6.113 0.000
WS7MET_125 2018-01-20 17:00:00 125 30483.0 -0.036 0.047 0.144 0.029 0.019 100.000 100.000 -0.036 0.029 0.00 0.00 3.361 4.026 4.750 4.905 13.430 0.034 0.047 0.144 0.102 0.038 0.034 0.102 0.00 0.00 0.2480   -0.137 0.047 0.144 0.000 -0.001 -0.137 0.000     318     0.0510 343.90 0.70   0.000 0.000 6.092 6.092 0.000 6.121 6.121 -0.000
WS7MET_125 2018-01-20 16:55:00 125 30483.0 -0.010 0.071 0.170 0.061 0.008 100.000 100.000 -0.010 0.061 0.00 0.00 3.360 4.026 4.750 4.905 13.440 0.068 0.096 0.182 0.137 0.018 0.068 0.137 0.00 0.00 0.3140   -0.102 0.047 0.144 0.000 -0.001 -0.102 0.000     318     0.0430 345.00 0.07   0.000 0.000 6.103 6.103 0.000 6.135 6.135 0.000
WS7MET_125 2018-01-20 16:50:00 125 30483.0 0.010 0.109 0.202 0.063 0.035 100.000 100.000 0.010 0.063 0.00 1.75 3.361 4.026 4.750 4.905 13.450 0.068 0.125 0.221 0.137 0.047 0.068 0.137 0.00 4.03 0.3200   -0.034 0.086 0.182 -0.034 0.028 -0.034 -0.034     318     0.1950 344.70 0.14   0.000 0.000 6.112 6.112 0.000 6.136 6.136 0.000
WS7MET_125 2018-01-20 16:45:00 125 30483.0 0.031 0.124 0.221 0.106 0.045 100.000 100.000 0.031 0.106 0.00 4.03 3.361 4.027 4.750 4.905 13.460 0.137 0.125 0.221 0.205 0.067 0.137 0.205 0.00 4.03 0.2740   -0.034 0.115 0.221 0.068 0.028 -0.034 0.068     318     0.0480 343.80 0.05   0.000 0.000 6.122 6.122 0.000 6.155 6.155 -0.000
WS7MET_125 2018-01-20 16:40:00 125 30483.0 0.041 0.131 0.224 0.101 0.051 100.000 100.000 0.041 0.101 0.00 4.03 3.361 4.031 4.750 4.905 13.480 0.137 0.144 0.240 0.171 0.067 0.137 0.171 0.00 4.03 0.3590   -0.034 0.125 0.221 0.000 0.038 -0.034 0.000     318     0.0990 321.80 3.84   0.000 0.000 6.126 6.126 0.000 6.153 6.153 0.000
WS7MET_125 2018-01-20 16:35:00 125 30483.0 0.061 0.144 0.240 0.125 0.057 100.000 100.000 0.061 0.118 0.40 5.30 3.361 4.034 4.750 4.905 13.490 0.137 0.144 0.240 0.171 0.067 0.137 0.171 1.34 6.72 0.3400   0.000 0.144 0.231 0.068 0.038 0.000 0.059     318     0.0790 338.20 13.42   0.000 0.000 6.135 6.135 0.000 6.164 6.160 0.000
WS7MET_125 2018-01-20 16:30:00 125 30483.0 0.085 0.164 0.255 0.142 0.047 100.000 99.800 0.085 0.115 1.34 6.51 3.361 4.035 4.750 4.905 13.510 0.171 0.182 0.279 0.205 0.047 0.171 0.172 1.34 6.72 0.4830   0.000 0.144 0.240 0.102 0.038 0.000 0.065     318     0.1920 332.30 5.99   0.000 0.000 6.146 6.146 0.000 6.171 6.159 0.012
WS7MET_125 2018-01-20 16:25:00 125 30483.0 0.094 0.185 0.280 0.145 0.054 100.000 99.600 0.094 0.094 0.87 5.37 3.361 4.036 4.750 4.905 13.530 0.171 0.202 0.298 0.205 0.067 0.171 0.167 1.34 6.72 0.3330   0.000 0.173 0.269 0.102 0.047 0.000 0.046     318     0.0660 340.90 2.01   0.000 0.000 6.150 6.150 0.000 6.173 6.150 0.025
WS7MET_125 2018-01-20 16:20:00 125 30483.0 0.118 0.211 0.303 0.201 0.057 100.000 99.400 0.118 0.122 1.34 7.39 3.361 4.040 4.750 4.906 13.550 0.205 0.240 0.327 0.239 0.067 0.205 0.164 1.34 9.40 0.3660   0.068 0.202 0.298 0.171 0.047 0.068 0.086     318     0.0730 313.10 3.22   0.000 0.000 6.160 6.160 0.000 6.198 6.162 0.037
WS7MET_125 2018-01-20 16:15:00 125 30483.0 0.160 0.230 0.326 0.229 0.059 100.000 99.100 0.161 0.110 2.42 13.16 3.366 4.045 4.751 4.905 13.590 0.205 0.240 0.337 0.307 0.076 0.205 0.180 2.69 14.77 0.6470   0.068 0.221 0.318 0.137 0.047 0.068 0.042     318     0.2890 351.30 29.49   0.000 0.000 6.179 6.180 0.000 6.210 6.157 0.056
WS7MET_125 2018-01-20 16:10:00 125 30483.0 0.198 0.271 0.370 0.297 0.069 100.000 98.800 0.198 0.135 2.69 16.85 3.370 4.045 4.752 4.905 13.650 0.273 0.279 0.375 0.410 0.086 0.273 0.220 2.69 18.80 0.4770   0.137 0.240 0.337 0.205 0.057 0.137 0.039     318     0.2850 9.55 36.29   0.000 0.000 6.196 6.196 0.000 6.241 6.168 0.075
WS7MET_125 2018-01-20 16:05:00 125 30483.0 0.247 0.316 0.420 0.381 0.077 100.000 98.400 0.248 0.159 2.69 16.12 3.371 4.045 4.752 4.904 13.700 0.307 0.375 0.472 0.478 0.086 0.307 0.240 2.69 17.46 0.6080   0.171 0.279 0.375 0.273 0.067 0.171 0.074     318     0.3390 13.12 39.87   0.000 0.000 6.218 6.219 0.000 6.279 6.179 0.100
WS7MET_125 2018-01-20 16:00:00 125 30483.0 0.328 0.433 0.534 0.478 0.112 100.000 97.900 0.328 0.189 3.22 16.92 3.376 4.045 4.758 4.904 13.820 0.410 0.510 0.597 0.614 0.182 0.410 0.285 4.03 22.83 0.9150   0.239 0.375 0.472 0.341 0.047 0.239 0.061     318     0.3010 31.70 24.86   0.000 0.000 6.255 6.255 0.000 6.324 6.192 0.133
WS7MET_125 2018-01-20 15:55:00 125 30483.0 0.461 0.654 0.748 0.681 0.093 100.000 97.200 0.461 0.292 4.16 26.59 3.380 4.045 4.758 4.900 14.100 0.546 0.800 0.877 0.887 0.105 0.546 0.456 5.37 33.57 0.9470   0.375 0.510 0.607 0.512 0.076 0.376 0.135     318     0.2520 17.77 17.17   0.000 0.000 6.316 6.316 0.000 6.417 6.239 0.180
WS7MET_125 2018-01-20 15:50:00 125 30483.0 0.553 0.869 0.968 1.019 0.135 100.000 96.800 0.553 0.572 5.91 39.68 3.380 4.045 4.759 4.901 13.950 0.648 0.935 1.050 1.229 0.182 0.649 0.850 9.40 60.43 0.3070   0.444 0.800 0.877 0.819 0.086 0.444 0.383     318     0.0590 328.40 3.54   0.000 0.000 6.358 6.358 0.000 6.576 6.367 0.210
WS7MET_125 2018-01-20 15:45:00 125 30483.0 0.539 0.858 0.993 1.119 0.170 100.000 98.500 0.540 0.904 11.42 74.94 3.380 4.047 4.758 4.898 14.420 0.614 0.896 1.050 1.263 0.192 0.615 0.986 13.43 84.60 0.4440   0.478 0.819 0.944 0.887 0.154 0.478 0.774     318     0.2370 6.54 22.67   0.000 0.000 6.352 6.352 0.000 6.623 6.521 0.099
WS7MET_125 2018-01-20 15:40:00 125 30483.0 0.408 0.670 0.781 0.637 0.100 100.000 99.200 0.408 0.519 12.22 72.39 3.380 4.051 4.760 4.899 14.080 0.580 0.819 0.915 0.922 0.163 0.581 0.798 14.77 85.90 0.3330   0.307 0.549 0.645 0.444 0.047 0.307 0.311     318     0.1530 13.43 20.18   0.000 0.000 6.292 6.292 0.000 6.397 6.342 0.051
WS7MET_125 2018-01-20 15:35:00 125 30483.0 0.352 0.602 0.718 0.517 0.043 100.000 99.100 0.352 0.399 6.38 42.30 3.380 4.058 4.758 4.899 13.510 0.478 0.645 0.761 0.648 0.057 0.478 0.540 8.06 53.72 0.7580   0.307 0.530 0.645 0.410 0.028 0.307 0.301     318     0.2540 0.05 20.17   0.000 0.000 6.266 6.266 -0.000 6.341 6.287 0.057
WS7MET_125 2018-01-20 15:30:00 125 30483.0 0.360 0.619 0.725 0.483 0.058 100.000 99.200 0.360 0.375 7.39 48.48 3.380 4.062 4.760 4.900 13.530 0.444 0.723 0.800 0.546 0.105 0.444 0.461 8.06 53.72 1.4770   0.273 0.549 0.674 0.410 0.038 0.273 0.287     318     0.5110 23.66 15.00   0.000 0.000 6.270 6.270 0.000 6.326 6.277 0.051
WS7MET_125 2018-01-20 15:25:00 125 30483.0 0.381 0.674 0.781 0.503 0.046 100.000 99.700 0.381 0.456 10.54 67.08 3.380 4.061 4.759 4.899 13.560 0.444 0.723 0.819 0.614 0.057 0.444 0.582 12.09 76.55 0.6140   0.239 0.626 0.723 0.375 0.028 0.239 0.347     318     0.2600 18.82 24.20   0.000 0.000 6.279 6.279 0.000 6.335 6.313 0.019
WS7MET_125 2018-01-20 15:20:00 125 30483.0 0.280 0.478 0.601 0.377 0.031 100.000 99.700 0.280 0.341 8.33 55.73 3.386 4.062 4.761 4.900 13.400 0.375 0.607 0.723 0.512 0.047 0.376 0.498 9.40 65.80 0.8560   0.205 0.414 0.530 0.307 -0.001 0.205 0.255     318     0.2720 33.11 4.40   0.000 0.000 6.233 6.233 0.000 6.277 6.261 0.019
WS7MET_125 2018-01-20 15:15:00 125 30483.0 0.261 0.415 0.558 0.290 -0.020 100.000 99.600 0.261 0.238 4.10 27.80 3.393 4.064 4.762 4.901 13.280 0.341 0.472 0.607 0.375 -0.001 0.342 0.328 6.72 44.32 0.5030   0.171 0.395 0.530 0.239 -0.030 0.171 0.182     318     0.2090 28.84 12.47   0.000 0.000 6.225 6.225 0.000 6.238 6.214 0.025
WS7MET_125 2018-01-20 15:10:00 125 30483.0 0.271 0.449 0.606 0.290 -0.023 100.000 99.500 0.272 0.222 3.49 20.41 3.398 4.064 4.764 4.900 13.280 0.341 0.472 0.636 0.375 0.009 0.342 0.310 4.03 22.83 0.1570   0.205 0.433 0.588 0.205 -0.030 0.205 0.134     318     0.0080 37.27 0.00   0.000 0.000 6.229 6.230 0.000 6.238 6.207 0.031
WS7MET_125 2018-01-20 15:05:00 125 30483.0 0.300 0.494 0.628 0.367 0.034 100.000 99.400 0.301 0.281 4.10 27.40 3.399 4.064 4.766 4.899 13.290 0.375 0.510 0.665 0.444 0.105 0.376 0.349 5.37 36.26 0.6790   0.239 0.472 0.607 0.307 -0.011 0.239 0.213     318     0.2490 68.22 47.54   0.000 0.000 6.242 6.243 0.000 6.273 6.234 0.038
WS7MET_125 2018-01-20 15:00:00 125 30483.0 0.283 0.505 0.630 0.377 -0.001 100.000 99.200 0.283 0.269 4.90 36.39 3.399 4.064 4.768 4.899 13.290 0.375 0.549 0.684 0.444 0.018 0.376 0.330 5.37 41.63 0.7580   0.239 0.472 0.588 0.273 -0.011 0.239 0.179     318     0.2530 44.01 16.23   0.000 0.000 6.235 6.235 0.000 6.277 6.228 0.050
WS7MET_125 2018-01-20 14:55:00 125 30483.0 0.365 0.612 0.724 0.413 -0.005 100.000 99.100 0.365 0.283 4.03 32.57 3.399 4.064 4.768 4.898 13.270 0.478 0.703 0.800 0.512 0.009 0.478 0.375 4.03 34.92 0.8430   0.307 0.549 0.665 0.341 -0.011 0.307 0.214     318     0.3830 44.37 10.39   0.000 0.000 6.272 6.272 0.000 6.294 6.235 0.057
WS7MET_125 2018-01-20 14:50:00 125 30483.0 0.486 0.845 0.955 0.553 -0.016 100.000 99.300 0.487 0.456 4.03 32.90 3.399 4.066 4.768 4.896 13.250 0.580 0.973 1.098 0.683 -0.001 0.581 0.617 4.03 34.92 0.8100   0.375 0.703 0.800 0.444 -0.030 0.376 0.316     318     0.2690 43.40 2.64   0.000 0.000 6.327 6.328 -0.000 6.358 6.313 0.045
WS7MET_125 2018-01-20 14:45:00 125 30483.0 0.461 0.917 1.015 0.623 0.008 100.000 99.700 0.461 0.585 6.92 49.89 3.399 4.068 4.769 4.897 13.270 0.580 0.973 1.089 0.717 0.028 0.581 0.660 9.40 65.80 0.0000   0.307 0.761 0.915 0.478 -0.030 0.307 0.469     318     0.0000 0.00 0.00   0.000 0.000 6.316 6.316 0.000 6.390 6.373 0.019
WS7MET_125 2018-01-20 14:40:00 125 30483.0 0.256 0.536 0.682 0.369 -0.023 100.000 99.800 0.256 0.344 11.42 74.20 3.399 4.074 4.769 4.896 13.270 0.341 0.723 0.877 0.478 0.009 0.342 0.455 13.43 85.90 0.4380   0.171 0.433 0.588 0.273 -0.049 0.171 0.250     318     0.0920 72.28 22.70   0.000 0.000 6.223 6.223 0.000 6.274 6.262 0.013
WS7MET_125 2018-01-20 14:35:00 125 30483.0 0.198 0.381 0.529 0.270 -0.027 100.000 99.700 0.198 0.229 6.78 47.27 3.399 4.074 4.769 4.897 13.180 0.273 0.433 0.578 0.375 -0.001 0.273 0.343 8.06 56.40 0.6210   0.102 0.318 0.472 0.171 -0.059 0.102 0.133     318     0.1990 93.90 40.38   0.000 0.000 6.196 6.196 0.000 6.229 6.210 0.019
WS7MET_125 2018-01-20 14:30:00 125 30483.0 0.189 0.327 0.489 0.232 -0.036 100.000 99.500 0.190 0.168 4.03 25.85 3.399 4.074 4.769 4.896 13.130 0.239 0.356 0.510 0.341 -0.020 0.239 0.290 5.37 36.26 0.4510   0.137 0.298 0.453 0.137 -0.059 0.137 0.061     318     0.0870 27.75 39.96   0.000 0.000 6.192 6.193 0.000 6.212 6.183 0.031
WS7MET_125 2018-01-20 14:25:00 125 30483.0 0.212 0.396 0.573 0.276 -0.043 100.000 99.400 0.212 0.196 4.03 24.84 3.399 4.074 4.769 4.898 13.110 0.341 0.433 0.626 0.375 -0.030 0.342 0.295 4.03 26.86 0.5810   0.102 0.356 0.510 0.137 -0.059 0.102 0.056     318     0.1080 134.10 57.85   0.000 0.000 6.203 6.203 0.000 6.232 6.195 0.037
WS7MET_125 2018-01-20 14:20:00 125 30483.0 0.232 0.432 0.568 0.341 -0.012 100.000 99.300 0.232 0.250 4.23 30.02 3.401 4.074 4.769 4.896 13.120 0.273 0.453 0.607 0.410 -0.001 0.273 0.315 5.37 42.97 0.7710   0.171 0.414 0.530 0.273 -0.030 0.171 0.193     318     0.0860 355.40 31.32   0.000 0.000 6.212 6.212 0.000 6.261 6.220 0.044
WS7MET_125 2018-01-20 14:15:00 125 30483.0 0.263 0.463 0.590 0.333 -0.016 100.000 99.400 0.263 0.245 7.05 49.69 3.408 4.080 4.769 4.896 13.110 0.307 0.491 0.616 0.375 -0.001 0.307 0.305 8.06 56.40 0.8690   0.171 0.424 0.559 0.273 -0.030 0.171 0.174     318     0.2220 309.30 43.71   0.000 0.000 6.226 6.226 0.000 6.257 6.218 0.038
WS7MET_125 2018-01-20 14:10:00 125 30483.0 0.287 0.515 0.665 0.360 -0.046 100.000 99.500 0.287 0.285 4.10 33.10 3.414 4.081 4.769 4.896 13.080 0.341 0.549 0.684 0.444 -0.030 0.342 0.368 5.37 36.26 0.7250   0.239 0.472 0.607 0.239 -0.059 0.239 0.168     318     0.2080 261.00 39.47   0.000 0.000 6.237 6.237 0.000 6.270 6.236 0.031
WS7MET_125 2018-01-20 14:05:00 125 30483.0 0.321 0.625 0.747 0.408 -0.039 100.000 99.500 0.321 0.340 4.10 31.02 3.418 4.083 4.769 4.896 13.060 0.410 0.694 0.819 0.478 -0.030 0.410 0.421 5.37 37.60 1.0910   0.239 0.539 0.665 0.307 -0.059 0.239 0.237     318     0.1810 33.04 5.34   0.000 0.000 6.252 6.252 0.000 6.292 6.261 0.031
WS7MET_125 2018-01-20 14:00:00 125 30483.0 0.311 0.626 0.767 0.444 -0.047 100.000 99.700 0.311 0.404 6.11 45.73 3.418 4.084 4.769 4.896 13.060 0.410 0.674 0.800 0.512 -0.030 0.410 0.456 6.72 53.72 0.0910   0.239 0.588 0.723 0.375 -0.059 0.239 0.338     318     0.0070 352.00 2.60   0.000 0.000 6.247 6.247 0.000 6.308 6.290 0.019
WS7MET_125 2018-01-20 13:55:00 125 30483.0 0.210 0.476 0.597 0.321 -0.050 100.000 99.500 0.210 0.257 6.45 48.55 3.418 4.084 4.769 4.895 13.040 0.307 0.588 0.694 0.375 -0.030 0.307 0.309 8.06 56.40 0.9930   0.102 0.414 0.549 0.273 -0.069 0.102 0.198     318     0.2150 185.20 61.82   0.000 0.000 6.202 6.202 0.000 6.252 6.223 0.031
WS7MET_125 2018-01-20 13:50:00 125 30483.0 0.222 0.514 0.659 0.305 -0.058 100.000 99.500 0.222 0.236 6.18 46.47 3.418 4.084 4.769 4.896 13.010 0.273 0.549 0.723 0.375 -0.049 0.273 0.319 8.06 56.40 1.3200   0.137 0.472 0.607 0.171 -0.069 0.137 0.086     318     0.2860 29.20 25.87   0.000 0.000 6.207 6.207 0.000 6.245 6.213 0.031
WS7MET_125 2018-01-20 13:45:00 125 30483.0 0.244 0.526 0.699 0.374 -0.067 100.000 99.500 0.244 0.301 7.25 52.11 3.418 4.088 4.769 4.895 13.000 0.307 0.568 0.761 0.478 -0.049 0.307 0.412 8.06 57.75 0.6270   0.171 0.453 0.607 0.307 -0.088 0.171 0.222     318     0.2900 63.99 54.46   0.000 0.000 6.217 6.217 0.000 6.276 6.243 0.031
WS7MET_125 2018-01-20 13:40:00 125 30483.0 0.230 0.518 0.743 0.374 -0.089 100.000 99.800 0.231 0.351 9.74 68.56 3.418 4.090 4.769 4.895 12.980 0.307 0.588 0.838 0.478 -0.078 0.307 0.469 10.74 72.52 1.0190   0.171 0.453 0.626 0.273 -0.107 0.171 0.240     318     0.0800 68.86 7.69   0.000 0.000 6.211 6.211 0.000 6.276 6.266 0.013
WS7MET_125 2018-01-20 13:35:00 125 30483.0 0.179 0.457 0.647 0.288 -0.090 100.000 99.800 0.179 0.255 7.92 57.68 3.419 4.093 4.769 4.895 12.950 0.239 0.510 0.703 0.375 -0.088 0.239 0.352 9.40 68.49 1.3200   0.137 0.414 0.588 0.205 -0.107 0.137 0.181     318     0.5440 53.84 28.29   0.000 0.000 6.188 6.188 0.000 6.237 6.222 0.012
WS7MET_125 2018-01-20 13:30:00 125 30483.0 0.177 0.496 0.700 0.350 -0.104 100.000 99.900 0.178 0.339 8.86 63.19 3.424 4.093 4.769 4.895 12.920 0.273 0.530 0.751 0.444 -0.069 0.273 0.444 10.74 77.89 1.0320   0.102 0.472 0.665 0.273 -0.126 0.102 0.273     318     0.3100 33.80 45.01   0.000 0.000 6.187 6.187 0.000 6.265 6.260 0.006
WS7MET_125 2018-01-20 13:25:00 125 30483.0 0.155 0.467 0.698 0.341 -0.112 100.000 100.000 0.155 0.342 8.80 62.31 3.434 4.097 4.769 4.895 12.890 0.205 0.510 0.742 0.410 -0.088 0.205 0.410 10.74 75.21 0.6600   0.068 0.414 0.645 0.239 -0.126 0.068 0.239     318     0.2480 88.40 62.05   0.000 0.000 6.177 6.177 0.000 6.261 6.261 0.000
WS7MET_125 2018-01-20 13:20:00 125 30483.0 0.198 0.530 0.795 0.353 -0.126 100.000 100.000 0.198 0.353 5.64 42.84 3.435 4.097 4.769 4.895 12.880 0.273 0.568 0.838 0.444 -0.098 0.273 0.444 6.72 51.03 1.0910   0.137 0.453 0.694 0.273 -0.155 0.137 0.273     318     0.0840 336.00 1.68   0.000 0.000 6.196 6.196 0.000 6.266 6.266 0.000
WS7MET_125 2018-01-20 13:15:00 125 30483.0 0.198 0.497 0.803 0.304 -0.141 100.000 100.000 0.198 0.304 5.37 41.09 3.437 4.099 4.769 4.895 12.870 0.273 0.530 0.848 0.375 -0.117 0.273 0.376 5.37 42.97 0.3720   0.137 0.472 0.761 0.205 -0.165 0.137 0.205     318     0.0420 116.70 19.55   0.000 0.000 6.196 6.196 0.000 6.244 6.244 0.000
WS7MET_125 2018-01-20 13:10:00 125 30483.0 0.189 0.490 0.744 0.276 -0.125 100.000 100.000 0.190 0.277 4.43 36.93 3.438 4.102 4.769 4.895 12.870 0.307 0.539 0.800 0.375 -0.117 0.307 0.376 5.37 41.63 0.1310   0.102 0.472 0.674 0.205 -0.126 0.102 0.205     318     0.0080 152.10 0.00   0.000 0.000 6.192 6.193 0.000 6.232 6.232 0.000
WS7MET_125 2018-01-20 13:05:00 125 30483.0 0.068 0.362 0.559 0.218 -0.134 100.000 100.000 0.068 0.219 5.98 45.12 3.438 4.103 4.769 4.895 12.870 0.137 0.472 0.665 0.341 -0.107 0.137 0.342 6.72 48.35 0.0850   -0.034 0.298 0.462 0.102 -0.165 -0.034 0.102     318     0.0080 266.50 0.80   0.000 0.000 6.138 6.138 -0.000 6.205 6.206 -0.000
WS7MET_125 2018-01-20 13:00:00 125 30483.0 0.034 0.308 0.446 0.155 -0.154 100.000 100.000 0.034 0.155 5.17 40.49 3.438 4.103 4.769 4.895 12.860 0.102 0.346 0.491 0.239 -0.126 0.102 0.239 5.37 45.66 0.3660   -0.034 0.279 0.414 0.102 -0.165 -0.034 0.102     318     0.1660 44.25 32.51   0.000 0.000 6.123 6.123 0.000 6.177 6.177 0.000
WS7MET_125 2018-01-20 12:55:00 125 30483.0 0.075 0.400 0.564 0.213 -0.137 100.000 100.000 0.075 0.213 5.78 44.12 3.438 4.103 4.769 4.895 12.850 0.205 0.443 0.607 0.273 -0.107 0.205 0.273 6.72 47.00 1.2870   0.000 0.337 0.472 0.068 -0.175 0.000 0.068     318     0.4880 53.53 10.40   0.000 0.000 6.141 6.141 0.000 6.203 6.203 0.000
WS7MET_125 2018-01-20 12:50:00 125 30483.0 0.050 0.374 0.557 0.183 -0.145 100.000 100.000 0.050 0.183 4.90 38.61 3.438 4.109 4.769 4.895 12.850 0.102 0.395 0.588 0.239 -0.126 0.102 0.239 5.37 42.97 0.2030   -0.034 0.356 0.530 0.137 -0.165 -0.034 0.137     318     0.0250 34.82 14.79   0.000 0.000 6.130 6.130 -0.000 6.190 6.190 0.000
WS7MET_125 2018-01-20 12:45:00 125 30483.0 0.009 0.315 0.487 0.123 -0.142 100.000 100.000 0.009 0.123 4.36 37.00 3.438 4.112 4.769 4.895 12.840 0.068 0.356 0.549 0.205 -0.126 0.068 0.205 5.37 40.29 0.0000   -0.068 0.279 0.433 0.034 -0.155 -0.068 0.034     318     0.0000 0.00 0.00   0.000 0.000 6.112 6.112 0.000 6.163 6.163 0.000
WS7MET_125 2018-01-20 12:40:00 125 30483.0 -0.019 0.230 0.386 0.096 -0.167 100.000 100.000 -0.019 0.096 5.30 41.63 3.438 4.113 4.769 4.895 12.840 0.102 0.279 0.424 0.171 -0.136 0.102 0.171 5.37 44.32 0.6140   -0.102 0.202 0.356 0.034 -0.204 -0.102 0.034     318     0.0950 42.46 26.48   0.000 0.000 6.099 6.099 0.000 6.151 6.151 0.000
WS7MET_125 2018-01-20 12:35:00 125 30483.0 -0.058 0.168 0.351 0.053 -0.202 100.000 100.000 -0.058 0.053 4.43 36.86 3.442 4.113 4.769 4.895 12.830 0.000 0.202 0.395 0.137 -0.146 0.000 0.137 5.37 38.95 1.1300   -0.102 0.134 0.298 -0.034 -0.242 -0.102 -0.034     318     0.2910 15.11 50.91   0.000 0.000 6.082 6.082 0.000 6.131 6.131 0.000
WS7MET_125 2018-01-20 12:30:00 125 30483.0 -0.099 0.121 0.262 0.007 -0.192 100.000 100.000 -0.099 0.007 4.03 32.03 3.446 4.114 4.769 4.895 12.830 0.000 0.163 0.298 0.102 -0.175 0.000 0.102 4.03 34.92 0.9470   -0.171 0.076 0.221 -0.068 -0.233 -0.171 -0.068     318     0.1100 50.76 3.60   0.000 0.000 6.064 6.064 0.000 6.111 6.111 0.000
WS7MET_125 2018-01-20 12:25:00 125 30483.0 -0.099 0.119 0.255 0.032 -0.166 100.000 100.000 -0.099 0.032 4.03 30.28 3.447 4.116 4.770 4.895 12.830 -0.034 0.144 0.298 0.102 -0.146 -0.034 0.102 4.03 32.23 0.7580   -0.171 0.067 0.221 -0.034 -0.242 -0.171 -0.034     318     0.1750 57.58 8.37   0.000 0.000 6.064 6.064 0.000 6.122 6.122 0.000
WS7MET_125 2018-01-20 12:20:00 125 30483.0 -0.130 0.032 0.180 -0.019 -0.214 100.000 100.000 -0.130 -0.019 4.03 32.23 3.453 4.122 4.771 4.895 12.820 -0.034 0.086 0.231 0.034 -0.155 -0.034 0.034 4.03 33.57 0.4120   -0.205 -0.001 0.144 -0.068 -0.262 -0.205 -0.068     318     0.0480 344.50 7.74   0.000 0.000 6.050 6.050 0.000 6.099 6.099 0.000
WS7MET_125 2018-01-20 12:15:00 125 30483.0 -0.166 -0.024 0.126 -0.060 -0.247 100.000 100.000 -0.166 -0.060 4.03 30.22 3.456 4.122 4.772 4.895 12.810 -0.102 0.028 0.182 0.034 -0.194 -0.102 0.034 4.03 32.23 0.0000   -0.239 -0.049 0.105 -0.137 -0.281 -0.239 -0.137     318     0.0000 0.00 0.00   0.000 0.000 6.034 6.034 0.000 6.081 6.081 -0.000
WS7MET_125 2018-01-20 12:10:00 125 30483.0 -0.109 0.039 0.203 -0.038 -0.211 100.000 100.000 -0.109 -0.038 4.03 26.46 3.456 4.122 4.770 4.895 12.820 0.000 0.086 0.279 0.068 -0.184 0.000 0.068 4.03 29.54 0.0000   -0.239 -0.011 0.144 -0.137 -0.242 -0.239 -0.137     318     0.0000 0.00 0.00   0.000 0.000 6.060 6.060 0.000 6.091 6.091 -0.000
WS7MET_125 2018-01-20 12:05:00 125 30483.0 -0.089 0.081 0.280 0.015 -0.213 100.000 100.000 -0.089 0.015 4.03 32.16 3.457 4.122 4.771 4.895 12.820 0.000 0.144 0.318 0.068 -0.155 0.000 0.068 4.03 33.57 0.0000   -0.205 0.009 0.202 -0.068 -0.281 -0.205 -0.068     318     0.0000 0.00 0.00   0.000 0.000 6.068 6.068 -0.000 6.114 6.114 0.000
WS7MET_125 2018-01-20 12:00:00 125 30483.0 -0.097 0.060 0.280 0.041 -0.240 100.000 100.000 -0.097 0.041 4.03 29.48 3.457 4.122 4.775 4.895 12.820 -0.034 0.125 0.356 0.102 -0.184 -0.034 0.102 4.03 30.89 0.0000   -0.205 -0.011 0.202 -0.068 -0.271 -0.205 -0.068     318     0.0000 0.00 0.00   0.000 0.000 6.065 6.065 0.000 6.126 6.126 0.000
WS7MET_125 2018-01-20 11:55:00 125 30483.0 -0.012 0.219 0.459 0.133 -0.175 100.000 100.000 -0.012 0.133 4.03 27.93 3.457 4.123 4.772 4.895 12.820 0.034 0.279 0.510 0.205 -0.146 0.034 0.205 4.03 29.54 0.0000   -0.102 0.154 0.375 0.068 -0.242 -0.102 0.068     318     0.0000 0.00 0.00   0.000 0.000 6.102 6.102 0.000 6.167 6.167 0.000
WS7MET_125 2018-01-20 11:50:00 125 30483.0 0.009 0.263 0.555 0.227 -0.251 100.000 100.000 0.009 0.227 4.36 33.71 3.457 4.128 4.779 4.895 12.820 0.068 0.337 0.636 0.307 -0.184 0.068 0.307 5.37 42.97 0.0000   -0.068 0.221 0.472 0.137 -0.320 -0.068 0.137     318     0.0000 0.00 0.00   0.000 0.000 6.112 6.112 0.000 6.209 6.209 0.000
WS7MET_125 2018-01-20 11:45:00 125 30483.0 0.079 0.371 0.641 0.276 -0.219 100.000 100.000 0.079 0.277 6.58 49.42 3.458 4.132 4.776 4.895 12.820 0.137 0.433 0.703 0.341 -0.155 0.137 0.342 6.72 51.03 0.0000   0.000 0.289 0.568 0.205 -0.339 0.000 0.205     318     0.0000 0.00 0.00   0.000 0.000 6.143 6.143 0.000 6.232 6.232 0.000
WS7MET_125 2018-01-20 11:40:00 125 30483.0 0.089 0.431 0.696 0.300 -0.231 100.000 100.000 0.089 0.301 6.72 47.61 3.463 4.136 4.780 4.895 12.810 0.171 0.491 0.723 0.341 -0.165 0.171 0.342 6.72 51.03 0.0000   0.034 0.375 0.645 0.205 -0.320 0.034 0.205     318     0.0000 0.00 0.00   0.000 0.000 6.147 6.147 0.000 6.242 6.243 0.000
WS7MET_125 2018-01-20 11:35:00 125 30483.0 0.073 0.429 0.666 0.237 -0.166 100.000 100.000 0.073 0.237 6.58 49.42 3.469 4.140 4.781 4.895 12.810 0.171 0.472 0.703 0.307 -0.146 0.171 0.307 6.72 52.38 0.0000   0.000 0.375 0.626 0.171 -0.184 0.000 0.171     318     0.0000 0.00 0.00   0.000 0.000 6.140 6.140 0.000 6.214 6.214 0.000
WS7MET_125 2018-01-20 11:30:00 125 30483.0 0.050 0.381 0.571 0.184 -0.166 100.000 100.000 0.050 0.184 6.11 45.73 3.470 4.141 4.784 4.895 12.800 0.102 0.414 0.626 0.239 -0.155 0.102 0.239 6.72 49.69 0.0000   -0.034 0.346 0.530 0.137 -0.184 -0.034 0.137     318     0.0000 0.00 0.00   0.000 0.000 6.130 6.130 -0.000 6.190 6.190 0.000
WS7MET_125 2018-01-20 11:25:00 125 30483.0 0.024 0.310 0.490 0.140 -0.165 100.000 100.000 0.024 0.140 6.18 46.94 3.475 4.141 4.786 4.895 12.800 0.102 0.346 0.530 0.239 -0.146 0.102 0.239 6.72 49.69 0.0000   -0.068 0.260 0.424 0.034 -0.184 -0.068 0.034     318     0.0000 0.00 0.00   0.000 0.000 6.118 6.118 0.000 6.170 6.170 -0.000
WS7MET_125 2018-01-20 11:20:00 125 30483.0 -0.009 0.221 0.408 0.067 -0.220 100.000 100.000 -0.009 0.067 4.90 39.42 3.476 4.141 4.788 4.895 12.790 0.068 0.240 0.414 0.137 -0.184 0.068 0.137 6.72 45.66 0.0260   -0.102 0.202 0.395 -0.034 -0.281 -0.102 -0.034     318     0.0020 68.43 0.01   0.000 0.000 6.104 6.104 0.000 6.138 6.138 0.000
WS7MET_125 2018-01-20 11:15:00 125 30483.0 0.027 0.279 0.485 0.116 -0.234 100.000 100.000 0.027 0.116 4.03 31.22 3.476 4.141 4.784 4.893 12.780 0.102 0.318 0.530 0.171 -0.194 0.102 0.171 4.03 32.23 0.0000   -0.068 0.202 0.395 0.034 -0.281 -0.068 0.034     318     0.0000 0.00 0.00   0.000 0.000 6.120 6.120 0.000 6.160 6.160 0.000
WS7MET_125 2018-01-20 11:10:00 125 30483.0 -0.031 0.261 0.432 0.113 -0.240 100.000 100.000 -0.031 0.113 4.84 38.48 3.476 4.141 4.788 4.895 12.790 0.034 0.298 0.453 0.171 -0.194 0.034 0.171 5.37 45.66 0.0000   -0.136 0.221 0.414 0.034 -0.300 -0.137 0.034     318     0.0000 0.00 0.00   0.000 0.000 6.094 6.094 0.000 6.158 6.158 -0.000
WS7MET_125 2018-01-20 11:05:00 125 30483.0 -0.036 0.253 0.482 0.118 -0.252 100.000 100.000 -0.036 0.118 6.38 47.81 3.476 4.141 4.788 4.895 12.790 0.000 0.260 0.549 0.171 -0.213 0.000 0.171 6.72 49.69 0.0000   -0.102 0.240 0.433 0.068 -0.291 -0.102 0.068     318     0.0000 0.00 0.00   0.000 0.000 6.092 6.092 0.000 6.160 6.160 0.000
WS7MET_125 2018-01-20 11:00:00 125 30483.0 0.017 0.329 0.668 0.217 -0.368 100.000 100.000 0.017 0.217 6.04 48.21 3.476 4.141 4.789 4.895 12.780 0.102 0.395 0.751 0.307 -0.300 0.103 0.307 6.72 53.72 0.0000   -0.068 0.260 0.549 0.137 -0.397 -0.068 0.137     318     0.0000 0.00 0.00   0.000 0.000 6.115 6.115 0.000 6.205 6.205 -0.000
WS7MET_125 2018-01-20 10:55:00 125 30483.0 0.055 0.386 0.774 0.248 -0.297 100.000 100.000 0.055 0.248 7.66 58.69 3.476 4.142 4.788 4.895 12.780 0.137 0.414 0.819 0.307 -0.213 0.137 0.308 8.06 60.43 0.0000   -0.034 0.356 0.723 0.171 -0.378 -0.034 0.171     318     0.0000 0.00 0.00   0.000 0.000 6.132 6.132 0.000 6.219 6.219 0.000
WS7MET_125 2018-01-20 10:50:00 125 30483.0 0.005 0.299 0.707 0.207 -0.333 100.000 100.000 0.005 0.207 6.58 52.91 3.476 4.146 4.789 4.895 12.770 0.068 0.356 0.819 0.308 -0.242 0.069 0.308 6.72 57.75 0.0000   -0.068 0.260 0.645 0.103 -0.358 -0.068 0.103     318     0.0000 0.00 0.00   0.000 0.000 6.110 6.110 0.000 6.200 6.200 0.000
WS7MET_125 2018-01-20 10:45:00 125 30483.0 -0.040 0.265 0.612 0.190 -0.283 100.000 100.000 -0.040 0.190 7.45 61.98 3.479 4.150 4.789 4.894 12.770 0.035 0.356 0.684 0.273 -0.233 0.035 0.274 8.06 71.18 0.0000   -0.102 0.163 0.530 0.103 -0.378 -0.102 0.103     318     0.0000 0.00 0.00   0.000 0.000 6.090 6.090 0.000 6.193 6.193 0.000
WS7MET_125 2018-01-20 10:40:00 125 30483.0 -0.119 0.073 0.426 0.139 -0.471 100.000 100.000 -0.119 0.139 8.12 69.03 3.483 4.151 4.788 4.894 12.760 -0.034 0.144 0.510 0.206 -0.397 -0.034 0.206 9.40 73.86 0.0000   -0.205 0.047 0.375 0.103 -0.503 -0.205 0.103     318     0.0000 0.00 0.00   0.000 0.000 6.055 6.055 0.000 6.170 6.170 0.000
WS7MET_125 2018-01-20 10:35:00 125 30483.0 -0.049 0.215 0.568 0.210 -0.409 100.000 100.000 -0.049 0.211 6.24 56.61 3.491 4.151 4.789 4.894 12.750 0.069 0.318 0.665 0.274 -0.349 0.069 0.274 6.72 61.78 0.0000   -0.136 0.086 0.453 0.103 -0.513 -0.136 0.103     318     0.0000 0.00 0.00   0.000 0.000 6.086 6.086 0.000 6.202 6.202 0.000
WS7MET_125 2018-01-20 10:30:00 125 30483.0 -0.067 0.236 0.615 0.178 -0.377 100.000 100.000 -0.067 0.179 6.18 55.13 3.495 4.151 4.789 4.892 12.750 0.035 0.356 0.723 0.274 -0.339 0.035 0.274 6.72 59.09 0.0000   -0.169 0.086 0.510 0.103 -0.455 -0.169 0.103     318     0.0000 0.00 0.00   0.000 0.000 6.078 6.078 0.000 6.187 6.188 0.000
WS7MET_125 2018-01-20 10:25:00 125 30483.0 -0.084 0.147 0.599 0.145 -0.421 100.000 100.000 -0.084 0.145 6.72 58.02 3.495 4.153 4.789 4.889 12.740 -0.033 0.182 0.645 0.206 -0.378 -0.033 0.206 6.72 60.43 0.0000   -0.169 0.086 0.510 0.069 -0.474 -0.169 0.069     318     0.0000 0.00 0.00   0.000 0.000 6.071 6.071 0.000 6.173 6.173 0.000
WS7MET_125 2018-01-20 10:20:00 125 30483.0 0.004 0.238 0.659 0.168 -0.360 100.000 100.000 0.004 0.168 6.72 53.45 3.495 4.156 4.789 4.890 12.740 0.103 0.337 0.742 0.274 -0.281 0.103 0.274 6.72 56.40 0.1050   -0.136 0.144 0.578 0.069 -0.445 -0.136 0.069     318     0.0070 277.30 9.61   0.000 0.000 6.110 6.110 0.000 6.183 6.183 0.000
WS7MET_125 2018-01-20 10:15:00 125 30483.0 0.015 0.262 0.634 0.168 -0.345 100.000 100.000 0.015 0.168 7.45 57.95 3.495 4.160 4.788 4.887 12.730 0.137 0.318 0.723 0.240 -0.291 0.137 0.240 8.06 61.78 0.0000   -0.067 0.192 0.530 0.070 -0.397 -0.067 0.070     318     0.0000 0.00 0.00   0.000 0.000 6.114 6.114 0.000 6.183 6.183 0.000
WS7MET_125 2018-01-20 10:10:00 125 30483.0 -0.109 0.099 0.413 0.029 -0.357 100.000 100.000 -0.109 0.029 6.24 51.10 3.495 4.161 4.789 4.888 12.720 0.036 0.182 0.530 0.138 -0.339 0.036 0.138 6.72 56.40 0.0000   -0.203 0.028 0.318 -0.067 -0.397 -0.203 -0.067     318     0.0000 0.00 0.00   0.000 0.000 6.060 6.060 0.000 6.121 6.121 -0.000
WS7MET_125 2018-01-20 10:05:00 125 30483.0 -0.170 0.008 0.274 -0.057 -0.387 100.000 100.000 -0.170 -0.057 4.97 42.57 3.496 4.161 4.789 4.881 12.720 -0.066 0.028 0.298 0.002 -0.310 -0.066 0.002 5.37 47.00 0.0000   -0.237 -0.020 0.260 -0.168 -0.436 -0.237 -0.168     318     0.0000 0.00 0.00   0.000 0.000 6.033 6.033 0.000 6.083 6.083 0.000
WS7MET_125 2018-01-20 10:00:00 125 30483.0 -0.247 -0.042 0.217 -0.085 -0.376 100.000 100.000 -0.247 -0.085 4.97 43.44 3.496 4.161 4.789 4.880 12.720 -0.168 0.009 0.279 0.036 -0.291 -0.168 0.036 5.37 48.35 0.0000   -0.339 -0.117 0.144 -0.168 -0.474 -0.339 -0.168     318     0.0000 0.00 0.00   0.000 0.000 5.999 5.999 0.000 6.070 6.070 0.000
WS7MET_125 2018-01-20 09:55:00 125 30483.0 -0.289 -0.122 0.104 -0.178 -0.381 100.000 100.000 -0.289 -0.178 4.50 36.93 3.503 4.161 4.789 4.880 12.710 -0.202 -0.107 0.134 -0.099 -0.339 -0.202 -0.099 5.37 44.32 0.0000   -0.373 -0.146 0.067 -0.270 -0.455 -0.373 -0.271     318     0.0000 0.00 0.00   0.000 0.000 5.981 5.981 0.000 6.029 6.029 0.000
WS7MET_125 2018-01-20 09:50:00 125 30483.0 -0.357 -0.183 0.055 -0.249 -0.421 100.000 100.000 -0.357 -0.250 4.03 27.40 3.511 4.164 4.789 4.879 12.710 -0.270 -0.146 0.067 -0.202 -0.339 -0.270 -0.202 4.03 30.89 0.0000   -0.441 -0.233 0.028 -0.304 -0.513 -0.441 -0.304     318     0.0000 0.00 0.00   0.000 0.000 5.951 5.951 0.000 5.998 5.998 -0.000
WS7MET_125 2018-01-20 09:45:00 125 30483.0 -0.368 -0.219 -0.005 -0.256 -0.554 100.000 100.000 -0.369 -0.256 3.36 22.96 3.512 4.167 4.789 4.878 12.710 -0.302 -0.184 0.047 -0.167 -0.503 -0.303 -0.167 4.03 25.52 0.0000   -0.439 -0.242 -0.030 -0.338 -0.591 -0.439 -0.338     318     0.0000 0.00 0.00   0.000 0.000 5.946 5.946 0.000 5.995 5.995 0.000
WS7MET_125 2018-01-20 09:40:00 125 30483.0 -0.397 -0.196 0.031 -0.240 -0.447 100.000 100.000 -0.397 -0.240 4.03 29.28 3.514 4.173 4.789 4.876 12.710 -0.269 -0.175 0.067 -0.098 -0.349 -0.269 -0.098 4.03 30.89 0.0000   -0.474 -0.223 0.009 -0.338 -0.552 -0.474 -0.338     318     0.0000 0.00 0.00   0.000 0.000 5.934 5.934 0.000 6.002 6.002 -0.000
WS7MET_125 2018-01-20 09:35:00 125 30483.0 -0.432 -0.265 -0.031 -0.318 -0.443 100.000 100.000 -0.432 -0.318 4.03 25.78 3.515 4.175 4.789 4.876 12.710 -0.338 -0.223 -0.011 -0.236 -0.358 -0.338 -0.236 4.03 28.20 0.0000   -0.543 -0.300 -0.049 -0.407 -0.494 -0.543 -0.407     318     0.0000 0.00 0.00   0.000 0.000 5.918 5.918 0.000 5.968 5.968 0.000
WS7MET_125 2018-01-20 09:30:00 125 30483.0 -0.505 -0.343 -0.101 -0.391 -0.482 100.000 100.000 -0.505 -0.391 3.63 23.97 3.515 4.179 4.789 4.876 12.710 -0.441 -0.300 -0.059 -0.338 -0.455 -0.441 -0.338 4.03 26.86 0.0000   -0.577 -0.378 -0.146 -0.508 -0.542 -0.577 -0.509     318     0.0000 0.00 0.00   0.000 0.000 5.887 5.887 0.000 5.936 5.936 0.000
WS7MET_125 2018-01-20 09:25:00 125 30483.0 -0.521 -0.368 -0.166 -0.402 -0.559 100.000 100.000 -0.522 -0.402 2.75 20.08 3.515 4.179 4.789 4.876 12.710 -0.440 -0.358 -0.146 -0.337 -0.513 -0.440 -0.337 4.03 22.83 0.0000   -0.577 -0.378 -0.184 -0.508 -0.581 -0.577 -0.509     318     0.0000 0.00 0.00   0.000 0.000 5.880 5.880 0.000 5.931 5.931 -0.000
WS7MET_125 2018-01-20 09:20:00 125 30483.0 -0.501 -0.372 -0.216 -0.458 -0.501 100.000 100.000 -0.501 -0.458 2.35 14.97 3.515 4.180 4.789 4.876 12.710 -0.439 -0.339 -0.184 -0.371 -0.455 -0.439 -0.371 2.69 18.80 0.0000   -0.542 -0.397 -0.242 -0.542 -0.571 -0.542 -0.542     318     0.0000 0.00 0.00   0.000 0.000 5.889 5.889 0.000 5.907 5.907 0.000
WS7MET_125 2018-01-20 09:15:00 125 30483.0 -0.544 -0.428 -0.278 -0.510 -0.526 100.000 100.000 -0.545 -0.511 2.69 15.65 3.515 4.180 4.789 4.878 12.710 -0.473 -0.407 -0.242 -0.404 -0.494 -0.473 -0.405 2.69 16.12 0.0000   -0.643 -0.455 -0.310 -0.576 -0.571 -0.644 -0.576     318     0.0000 0.00 0.00   0.000 0.000 5.870 5.870 -0.000 5.885 5.884 0.000
WS7MET_125 2018-01-20 09:10:00 125 30483.0 -0.612 -0.470 -0.318 -0.555 -0.592 100.000 100.000 -0.612 -0.556 2.69 16.85 3.515 4.180 4.789 4.876 12.720 -0.539 -0.455 -0.310 -0.505 -0.561 -0.540 -0.506 2.69 17.46 0.0000   -0.710 -0.494 -0.329 -0.608 -0.639 -0.711 -0.608     318     0.0000 0.00 0.00   0.000 0.000 5.841 5.841 -0.000 5.865 5.865 0.000
WS7MET_125 2018-01-20 09:05:00 125 30483.0 -0.651 -0.520 -0.361 -0.600 -0.654 100.000 100.000 -0.652 -0.600 2.48 14.84 3.515 4.180 4.789 4.876 12.720 -0.607 -0.484 -0.329 -0.539 -0.620 -0.607 -0.539 2.69 16.12 0.0000   -0.709 -0.552 -0.397 -0.675 -0.687 -0.710 -0.675     318     0.0000 0.00 0.00   0.000 0.000 5.824 5.824 -0.000 5.846 5.846 0.000
WS7MET_125 2018-01-20 09:00:00 125 30483.0 -0.669 -0.559 -0.416 -0.637 -0.680 100.000 100.000 -0.670 -0.637 2.69 15.11 3.519 4.180 4.790 4.876 12.720 -0.573 -0.552 -0.397 -0.539 -0.629 -0.573 -0.539 2.69 16.12 0.0000   -0.745 -0.571 -0.436 -0.710 -0.726 -0.746 -0.711     318     0.0000 0.00 0.00   0.000 0.000 5.817 5.816 0.000 5.830 5.830 0.000
WS7MET_125 2018-01-20 08:55:00 125 30483.0 -0.708 -0.591 -0.484 -0.676 -0.679 100.000 100.000 -0.709 -0.676 2.08 14.24 3.524 4.181 4.792 4.876 12.730 -0.642 -0.571 -0.445 -0.573 -0.658 -0.643 -0.573 2.69 16.12 0.0000   -0.779 -0.610 -0.513 -0.779 -0.707 -0.780 -0.779     318     0.0000 0.00 0.00   0.000 0.000 5.800 5.800 0.000 5.814 5.814 0.000
WS7MET_125 2018-01-20 08:50:00 125 30483.0 -0.729 -0.629 -0.514 -0.659 -0.669 100.000 100.000 -0.729 -0.659 1.75 12.36 3.532 4.187 4.792 4.876 12.730 -0.641 -0.610 -0.513 -0.573 -0.639 -0.642 -0.574 2.69 14.77 0.0000   -0.779 -0.649 -0.523 -0.710 -0.707 -0.779 -0.711     318     0.0000 0.00 0.00   0.000 0.000 5.791 5.791 -0.000 5.821 5.821 0.000
WS7MET_125 2018-01-20 08:45:00 125 30483.0 -0.724 -0.650 -0.518 -0.678 -0.695 100.000 100.000 -0.725 -0.679 1.34 9.94 3.534 4.189 4.793 4.876 12.730 -0.607 -0.610 -0.494 -0.572 -0.610 -0.608 -0.573 1.34 12.09 0.0000   -0.778 -0.687 -0.532 -0.744 -0.745 -0.778 -0.744     318     0.0000 0.00 0.00   0.000 0.000 5.793 5.793 0.000 5.813 5.813 0.000
WS7MET_125 2018-01-20 08:40:00 125 30483.0 -0.745 -0.638 -0.538 -0.719 -0.681 100.000 100.000 -0.745 -0.720 1.54 12.69 3.534 4.191 4.793 4.876 12.730 -0.676 -0.610 -0.513 -0.675 -0.629 -0.677 -0.676 2.69 16.12 0.0000   -0.812 -0.668 -0.571 -0.780 -0.726 -0.813 -0.780     318     0.0000 0.00 0.00   0.000 0.000 5.784 5.784 0.000 5.796 5.795 0.000
WS7MET_125 2018-01-20 08:35:00 125 30483.0 -0.818 -0.729 -0.640 -0.804 -0.722 100.000 100.000 -0.819 -0.805 1.81 13.36 3.534 4.194 4.792 4.876 12.740 -0.746 -0.668 -0.571 -0.746 -0.687 -0.746 -0.746 2.69 16.12 0.0000   -0.918 -0.784 -0.687 -0.917 -0.803 -0.919 -0.918     318     0.0000 0.00 0.00   0.000 0.000 5.754 5.753 -0.000 5.760 5.759 0.000
WS7MET_125 2018-01-20 08:30:00 125 30483.0 -0.855 -0.772 -0.687 -0.860 -0.765 100.000 100.000 -0.855 -0.861 0.47 5.37 3.534 4.199 4.795 4.876 12.740 -0.748 -0.765 -0.668 -0.781 -0.697 -0.749 -0.782 1.34 9.40 0.0000   -0.918 -0.784 -0.707 -0.952 -0.813 -0.919 -0.953     318     0.0000 0.00 0.00   0.000 0.000 5.738 5.738 0.000 5.736 5.736 0.000
WS7MET_125 2018-01-20 08:25:00 125 30483.0 -0.909 -0.828 -0.735 -0.889 -0.795 100.000 100.000 -0.910 -0.889 0.00 2.89 3.534 4.199 4.797 4.876 12.740 -0.848 -0.784 -0.707 -0.813 -0.716 -0.848 -0.814 0.00 4.03 0.0000   -0.984 -0.852 -0.755 -0.950 -0.881 -0.984 -0.951     318     0.0000 0.00 0.00   0.000 0.000 5.715 5.715 0.000 5.724 5.724 0.000
WS7MET_125 2018-01-20 08:20:00 125 30483.0 -0.867 -0.816 -0.722 -0.852 -0.823 100.000 100.000 -0.868 -0.853 0.00 2.69 3.535 4.199 4.797 4.877 12.730 -0.745 -0.765 -0.687 -0.779 -0.755 -0.745 -0.779 0.00 2.69 0.0000   -0.949 -0.842 -0.745 -0.950 -0.852 -0.950 -0.950     318     0.0000 0.00 0.00   0.000 0.000 5.733 5.733 0.000 5.739 5.739 0.000
WS7MET_125 2018-01-20 08:15:00 125 30483.0 -0.891 -0.790 -0.711 -0.855 -0.748 100.000 100.000 -0.891 -0.855 0.00 2.69 3.538 4.199 4.798 4.877 12.740 -0.813 -0.765 -0.687 -0.812 -0.716 -0.814 -0.813 0.00 2.69 0.0000   -0.982 -0.813 -0.726 -0.915 -0.774 -0.983 -0.915     318     0.0000 0.00 0.00   0.000 0.000 5.723 5.723 0.000 5.738 5.738 0.000
WS7MET_125 2018-01-20 08:10:00 125 30483.0 -0.913 -0.824 -0.739 -0.890 -0.794 100.000 100.000 -0.913 -0.891 0.00 2.01 3.546 4.199 4.799 4.876 12.750 -0.846 -0.803 -0.726 -0.811 -0.765 -0.846 -0.812 0.00 2.69 0.0000   -0.982 -0.842 -0.745 -0.949 -0.823 -0.983 -0.950     318     0.0000 0.00 0.00   0.000 0.000 5.714 5.714 0.000 5.723 5.723 0.000
WS7MET_125 2018-01-20 08:05:00 125 30483.0 -0.922 -0.838 -0.754 -0.893 -0.768 100.000 100.000 -0.923 -0.894 0.00 1.34 3.551 4.200 4.799 4.876 12.750 -0.879 -0.823 -0.736 -0.812 -0.707 -0.879 -0.812 0.00 1.34 0.0000   -1.017 -0.881 -0.784 -0.948 -0.842 -1.018 -0.949     318     0.0000 0.00 0.00   0.000 0.000 5.710 5.710 -0.000 5.722 5.722 0.000
WS7MET_125 2018-01-20 08:00:00 125 30483.0 -0.955 -0.881 -0.786 -0.929 -0.849 100.000 100.000 -0.956 -0.930 0.00 1.34 3.553 4.203 4.800 4.876 12.750 -0.879 -0.881 -0.784 -0.880 -0.813 -0.880 -0.880 0.00 1.34 0.0000   -1.017 -0.881 -0.794 -1.016 -0.862 -1.018 -1.017     318     0.0000 0.00 0.00   0.000 0.000 5.696 5.696 0.000 5.707 5.707 0.000
WS7MET_125 2018-01-20 07:55:00 125 30483.0 -0.925 -0.855 -0.778 -0.913 -0.813 100.000 100.000 -0.926 -0.914 0.00 1.34 3.553 4.204 4.800 4.876 12.750 -0.844 -0.823 -0.765 -0.845 -0.755 -0.845 -0.845 0.00 1.34 0.0000   -1.016 -0.881 -0.794 -0.982 -0.871 -1.017 -0.983     318     0.0000 0.00 0.00   0.000 0.000 5.709 5.708 0.000 5.714 5.713 0.000
WS7MET_125 2018-01-20 07:50:00 125 30483.0 -0.977 -0.896 -0.818 -0.931 -0.864 100.000 100.000 -0.978 -0.932 0.00 1.21 3.553 4.210 4.802 4.876 12.760 -0.880 -0.881 -0.794 -0.880 -0.784 -0.880 -0.880 0.00 1.34 0.0000   -1.017 -0.900 -0.823 -1.016 -0.900 -1.017 -1.017     318     0.0000 0.00 0.00   0.000 0.000 5.687 5.687 0.000 5.706 5.706 0.000
WS7MET_125 2018-01-20 07:45:00 125 30483.0 -0.962 -0.884 -0.807 -0.943 -0.868 100.000 100.000 -0.963 -0.944 0.00 0.00 3.553 4.213 4.804 4.876 12.760 -0.914 -0.881 -0.803 -0.881 -0.842 -0.914 -0.881 0.00 0.00 0.0000   -1.051 -0.900 -0.823 -1.051 -0.891 -1.052 -1.052     318     0.0000 0.00 0.00   0.000 0.000 5.693 5.693 0.000 5.701 5.701 0.000
WS7MET_125 2018-01-20 07:40:00 125 30483.0 -0.967 -0.895 -0.814 -0.950 -0.853 100.000 100.000 -0.968 -0.951 0.00 0.00 3.553 4.216 4.807 4.876 12.760 -0.914 -0.871 -0.803 -0.879 -0.784 -0.914 -0.880 0.00 0.00 0.0000   -1.017 -0.920 -0.823 -1.017 -0.891 -1.018 -1.018     318     0.0000 0.00 0.00   0.000 0.000 5.691 5.691 0.000 5.698 5.698 0.000
WS7MET_125 2018-01-20 07:35:00 125 30483.0 -0.976 -0.886 -0.806 -0.945 -0.855 100.000 100.000 -0.976 -0.945 0.00 0.00 3.553 4.219 4.808 4.876 12.760 -0.881 -0.881 -0.803 -0.882 -0.823 -0.882 -0.882 0.00 0.00 0.0000   -1.087 -0.900 -0.823 -1.018 -0.891 -1.087 -1.019     318     0.0000 0.00 0.00   0.000 0.000 5.687 5.687 0.000 5.700 5.700 0.000
WS7MET_125 2018-01-20 07:30:00 125 30483.0 -0.929 -0.890 -0.808 -0.958 -0.866 100.000 100.000 -0.929 -0.958 0.00 0.00 3.553 4.219 4.808 4.876 12.770 -0.880 -0.862 -0.794 -0.881 -0.833 -0.880 -0.882 0.00 0.00 0.0000   -0.984 -0.900 -0.823 -1.051 -0.881 -0.984 -1.051     318     0.0000 0.00 0.00   0.000 0.000 5.707 5.707 0.000 5.695 5.695 0.000
WS7MET_125 2018-01-20 07:25:00 125 30483.0 -0.944 -0.881 -0.798 -0.941 -0.839 100.000 100.000 -0.945 -0.941 0.00 0.00 3.554 4.219 4.808 4.876 12.770 -0.881 -0.862 -0.784 -0.881 -0.784 -0.881 -0.881 0.00 0.00 0.0000   -0.983 -0.900 -0.803 -0.983 -0.881 -0.984 -0.984     318     0.0000 0.00 0.00   0.000 0.000 5.701 5.700 0.000 5.702 5.702 -0.000
WS7MET_125 2018-01-20 07:20:00 125 30483.0 -0.914 -0.876 -0.788 -0.939 -0.831 100.000 100.000 -0.914 -0.940 0.00 0.00 3.561 4.219 4.808 4.876 12.770 -0.881 -0.862 -0.784 -0.881 -0.765 -0.881 -0.881 0.00 0.00 0.0000   -0.984 -0.881 -0.803 -1.052 -0.862 -0.985 -1.053     318     0.0000 0.00 0.00   0.000 0.000 5.713 5.713 0.000 5.703 5.702 0.000
WS7MET_125 2018-01-20 07:15:00 125 30483.0 -0.893 -0.853 -0.770 -0.892 -0.815 100.000 100.000 -0.894 -0.892 0.00 0.00 3.569 4.219 4.808 4.876 12.760 -0.847 -0.842 -0.765 -0.848 -0.765 -0.848 -0.848 0.00 0.00 0.0000   -0.984 -0.871 -0.784 -0.950 -0.842 -0.985 -0.951     318     0.0000 0.00 0.00   0.000 0.000 5.722 5.722 0.000 5.723 5.723 0.000
WS7MET_125 2018-01-20 07:10:00 125 30483.0 -0.832 -0.789 -0.707 -0.839 -0.801 100.000 100.000 -0.832 -0.839 0.00 0.00 3.573 4.224 4.808 4.876 12.770 -0.745 -0.726 -0.649 -0.779 -0.668 -0.746 -0.780 0.00 0.00 0.0000   -0.916 -0.842 -0.765 -0.882 -0.862 -0.917 -0.883     318     0.0000 0.00 0.00   0.000 0.000 5.748 5.748 0.000 5.745 5.745 0.000
WS7MET_125 2018-01-20 07:05:00 125 30483.0 -0.810 -0.739 -0.665 -0.824 -0.703 100.000 100.000 -0.811 -0.824 0.00 0.00 3.573 4.228 4.808 4.876 12.780 -0.743 -0.726 -0.649 -0.743 -0.658 -0.744 -0.744 0.00 0.00 0.0000   -0.881 -0.745 -0.668 -0.881 -0.745 -0.881 -0.881     318     0.0000 0.00 0.00   0.000 0.000 5.757 5.757 0.000 5.751 5.751 0.000
WS7MET_125 2018-01-20 07:00:00 125 30483.0 -0.859 -0.770 -0.693 -0.834 -0.719 100.000 100.000 -0.860 -0.834 0.00 0.00 3.573 4.228 4.808 4.876 12.780 -0.811 -0.745 -0.668 -0.743 -0.687 -0.812 -0.744 0.00 0.00 0.0000   -0.914 -0.803 -0.716 -0.913 -0.765 -0.915 -0.914     318     0.0000 0.00 0.00   0.000 0.000 5.736 5.736 0.000 5.747 5.747 0.000
WS7MET_125 2018-01-20 06:55:00 125 30483.0 -0.888 -0.830 -0.748 -0.881 -0.760 100.000 100.000 -0.888 -0.882 0.00 0.00 3.573 4.229 4.808 4.876 12.780 -0.813 -0.803 -0.716 -0.811 -0.668 -0.813 -0.812 0.00 0.00 0.0000   -0.949 -0.842 -0.765 -0.949 -0.823 -0.950 -0.950     318     0.0000 0.00 0.00   0.000 0.000 5.724 5.724 0.000 5.727 5.727 0.000
WS7MET_125 2018-01-20 06:50:00 125 30483.0 -0.877 -0.831 -0.751 -0.880 -0.811 100.000 100.000 -0.877 -0.880 0.00 0.00 3.573 4.229 4.808 4.876 12.780 -0.814 -0.803 -0.726 -0.814 -0.774 -0.814 -0.814 0.00 0.00 0.0000   -0.950 -0.852 -0.765 -0.950 -0.842 -0.950 -0.950     318     0.0000 0.00 0.00   0.000 0.000 5.729 5.729 0.000 5.728 5.728 0.000
WS7MET_125 2018-01-20 06:45:00 125 30483.0 -0.849 -0.801 -0.726 -0.879 -0.763 100.000 100.000 -0.849 -0.880 0.00 0.00 3.573 4.233 4.808 4.876 12.790 -0.780 -0.784 -0.726 -0.815 -0.745 -0.781 -0.815 0.00 0.00 0.0000   -0.917 -0.803 -0.736 -0.951 -0.803 -0.918 -0.951     318     0.0000 0.00 0.00   0.000 0.000 5.741 5.741 0.000 5.728 5.728 0.000
WS7MET_125 2018-01-20 06:40:00 125 30483.0 -0.821 -0.791 -0.715 -0.853 -0.796 100.000 100.000 -0.821 -0.854 0.00 0.00 3.576 4.238 4.808 4.876 12.790 -0.711 -0.726 -0.687 -0.813 -0.736 -0.711 -0.814 0.00 0.00 0.0000   -0.883 -0.803 -0.726 -0.917 -0.823 -0.883 -0.918     318     0.0000 0.00 0.00   0.000 0.000 5.752 5.752 0.000 5.739 5.738 0.000
WS7MET_125 2018-01-20 06:35:00 125 30483.0 -0.786 -0.727 -0.670 -0.815 -0.716 100.000 100.000 -0.787 -0.816 0.00 0.00 3.585 4.238 4.808 4.876 12.790 -0.711 -0.726 -0.668 -0.745 -0.697 -0.711 -0.746 0.00 0.00 0.0000   -0.848 -0.736 -0.687 -0.916 -0.745 -0.848 -0.916     318     0.0000 0.00 0.00   0.000 0.000 5.767 5.767 0.000 5.755 5.754 0.000
WS7MET_125 2018-01-20 06:30:00 125 30483.0 -0.837 -0.754 -0.683 -0.839 -0.691 100.000 100.000 -0.837 -0.839 0.00 0.00 3.590 4.238 4.808 4.876 12.790 -0.746 -0.726 -0.668 -0.746 -0.668 -0.747 -0.747 0.00 0.00 0.0000   -0.918 -0.784 -0.707 -0.917 -0.707 -0.919 -0.917     318     0.0000 0.00 0.00   0.000 0.000 5.746 5.746 0.000 5.745 5.745 0.000
WS7MET_125 2018-01-20 06:25:00 125 30483.0 -0.885 -0.821 -0.729 -0.873 -0.765 100.000 100.000 -0.885 -0.874 0.00 0.00 3.592 4.238 4.808 4.876 12.790 -0.849 -0.794 -0.707 -0.780 -0.668 -0.850 -0.781 0.00 0.00 0.0000   -0.952 -0.842 -0.745 -0.951 -0.833 -0.953 -0.952     318     0.0000 0.00 0.00   0.000 0.000 5.725 5.725 0.000 5.730 5.730 0.000
WS7MET_125 2018-01-20 06:20:00 125 30483.0 -0.844 -0.772 -0.695 -0.840 -0.710 100.000 100.000 -0.844 -0.841 0.00 0.00 3.592 4.238 4.808 4.876 12.790 -0.747 -0.765 -0.687 -0.781 -0.639 -0.747 -0.781 0.00 0.00 0.0000   -0.918 -0.803 -0.726 -0.917 -0.803 -0.918 -0.918     318     0.0000 0.00 0.00   0.000 0.000 5.743 5.743 0.000 5.744 5.744 0.000
WS7MET_125 2018-01-20 06:15:00 125 30483.0 -0.845 -0.792 -0.705 -0.838 -0.768 100.000 100.000 -0.845 -0.839 0.00 0.00 3.592 4.238 4.808 4.875 12.790 -0.780 -0.765 -0.687 -0.780 -0.707 -0.780 -0.780 0.00 0.00 0.0000   -0.951 -0.803 -0.716 -0.917 -0.813 -0.951 -0.917     318     0.0000 0.00 0.00   0.000 0.000 5.742 5.742 0.000 5.745 5.745 0.000
WS7MET_125 2018-01-20 06:10:00 125 30483.0 -0.828 -0.762 -0.687 -0.832 -0.750 100.000 100.000 -0.829 -0.832 0.00 0.00 3.592 4.246 4.808 4.876 12.800 -0.747 -0.745 -0.687 -0.780 -0.716 -0.747 -0.781 0.00 0.00 0.0000   -0.917 -0.765 -0.687 -0.883 -0.765 -0.918 -0.884     318     0.0000 0.00 0.00   0.000 0.000 5.749 5.749 0.000 5.748 5.748 0.000
WS7MET_125 2018-01-20 06:05:00 125 30483.0 -0.827 -0.753 -0.681 -0.828 -0.725 100.000 100.000 -0.827 -0.829 0.00 0.00 3.592 4.248 4.808 4.876 12.800 -0.746 -0.745 -0.668 -0.780 -0.687 -0.746 -0.780 0.00 0.00 0.0000   -0.916 -0.765 -0.687 -0.849 -0.784 -0.917 -0.850     318     0.0000 0.00 0.00   0.000 0.000 5.750 5.750 0.000 5.749 5.749 0.000
WS7MET_125 2018-01-20 06:00:00 125 30483.0 -0.879 -0.793 -0.712 -0.849 -0.740 100.000 100.000 -0.880 -0.849 0.00 0.00 3.592 4.250 4.808 4.876 12.810 -0.849 -0.765 -0.687 -0.780 -0.707 -0.849 -0.781 0.00 0.00 0.0000   -0.917 -0.803 -0.726 -0.918 -0.765 -0.918 -0.918     318     0.0000 0.00 0.00   0.000 0.000 5.728 5.728 0.000 5.741 5.741 0.000
WS7MET_125 2018-01-20 05:55:00 125 30483.0 -0.885 -0.835 -0.743 -0.885 -0.759 100.000 100.000 -0.885 -0.885 0.00 0.00 3.593 4.252 4.808 4.876 12.810 -0.848 -0.813 -0.726 -0.814 -0.687 -0.849 -0.815 0.00 0.00 0.0000   -0.951 -0.842 -0.765 -0.951 -0.813 -0.951 -0.951     318     0.0000 0.00 0.00   0.000 0.000 5.725 5.725 0.000 5.725 5.725 0.000
WS7MET_125 2018-01-20 05:50:00 125 30483.0 -0.862 -0.810 -0.736 -0.889 -0.779 100.000 100.000 -0.862 -0.889 0.00 0.00 3.595 4.257 4.808 4.876 12.810 -0.813 -0.794 -0.726 -0.848 -0.726 -0.814 -0.848 0.00 0.00 0.0000   -0.917 -0.842 -0.745 -0.950 -0.813 -0.918 -0.951     318     0.0000 0.00 0.00   0.000 0.000 5.735 5.735 0.000 5.724 5.724 0.000
WS7MET_125 2018-01-20 05:45:00 125 30483.0 -0.858 -0.805 -0.738 -0.882 -0.779 100.000 100.000 -0.859 -0.883 0.00 0.00 3.602 4.257 4.808 4.876 12.810 -0.779 -0.784 -0.707 -0.813 -0.726 -0.779 -0.813 0.00 0.00 0.0000   -0.917 -0.842 -0.765 -0.951 -0.852 -0.917 -0.951     318     0.0000 0.00 0.00   0.000 0.000 5.737 5.736 0.000 5.727 5.726 0.000
WS7MET_125 2018-01-20 05:40:00 125 30483.0 -0.901 -0.809 -0.735 -0.872 -0.734 100.000 100.000 -0.902 -0.873 0.00 0.00 3.609 4.257 4.808 4.876 12.810 -0.813 -0.784 -0.716 -0.812 -0.707 -0.813 -0.812 0.00 0.00 0.0000   -0.984 -0.862 -0.774 -0.984 -0.784 -0.985 -0.985     318     0.0000 0.00 0.00   0.000 0.000 5.719 5.718 -0.000 5.731 5.730 0.000
WS7MET_125 2018-01-20 05:35:00 125 30483.0 -0.925 -0.853 -0.775 -0.920 -0.796 100.000 100.000 -0.925 -0.920 0.00 0.00 3.611 4.257 4.808 4.875 12.820 -0.882 -0.823 -0.745 -0.882 -0.736 -0.883 -0.883 0.00 0.00 0.0000   -1.019 -0.881 -0.803 -0.984 -0.862 -1.020 -0.985     318     0.0000 0.00 0.00   0.000 0.000 5.709 5.709 0.000 5.711 5.711 0.000
WS7MET_125 2018-01-20 05:30:00 125 30483.0 -0.945 -0.880 -0.793 -0.914 -0.854 100.000 100.000 -0.945 -0.915 0.00 0.00 3.611 4.258 4.809 4.875 12.820 -0.881 -0.871 -0.784 -0.847 -0.842 -0.882 -0.848 0.00 0.00 0.0000   -1.018 -0.881 -0.803 -0.984 -0.862 -1.019 -0.985     318     0.0000 0.00 0.00   0.000 0.000 5.700 5.700 0.000 5.713 5.713 0.000
WS7MET_125 2018-01-20 05:25:00 125 30483.0 -0.939 -0.859 -0.778 -0.910 -0.821 100.000 100.000 -0.940 -0.911 0.00 0.00 3.611 4.261 4.808 4.873 12.820 -0.881 -0.842 -0.765 -0.847 -0.774 -0.882 -0.847 0.00 0.00 0.0000   -0.984 -0.871 -0.784 -0.984 -0.852 -0.984 -0.984     318     0.0000 0.00 0.00   0.000 0.000 5.703 5.702 0.000 5.715 5.715 0.000
WS7MET_125 2018-01-20 05:20:00 125 30483.0 -0.884 -0.833 -0.756 -0.873 -0.840 100.000 100.000 -0.884 -0.874 0.00 0.00 3.611 4.266 4.808 4.871 12.820 -0.780 -0.745 -0.697 -0.780 -0.726 -0.781 -0.781 0.00 0.00 0.0000   -0.951 -0.871 -0.784 -0.983 -0.881 -0.952 -0.984     318     0.0000 0.00 0.00   0.000 0.000 5.726 5.726 0.000 5.730 5.730 0.000
WS7MET_125 2018-01-20 05:15:00 125 30483.0 -0.823 -0.742 -0.686 -0.823 -0.723 100.000 100.000 -0.823 -0.823 0.00 0.00 3.612 4.267 4.811 4.870 12.820 -0.712 -0.726 -0.658 -0.780 -0.668 -0.712 -0.780 0.00 0.00 0.0000   -0.883 -0.765 -0.716 -0.882 -0.823 -0.884 -0.883     318     0.0000 0.00 0.00   0.000 0.000 5.752 5.752 0.000 5.752 5.752 0.000
WS7MET_125 2018-01-20 05:10:00 125 30483.0 -0.876 -0.779 -0.709 -0.854 -0.739 100.000 100.000 -0.876 -0.854 0.00 0.00 3.614 4.266 4.809 4.868 12.830 -0.814 -0.745 -0.687 -0.780 -0.649 -0.814 -0.781 0.00 0.00 0.0000   -0.951 -0.803 -0.736 -0.917 -0.833 -0.952 -0.917     318     0.0000 0.00 0.00   0.000 0.000 5.729 5.729 0.000 5.738 5.738 0.000
WS7MET_125 2018-01-20 05:05:00 125 30483.0 -0.876 -0.766 -0.696 -0.856 -0.738 100.000 100.000 -0.877 -0.857 0.00 0.00 3.620 4.271 4.809 4.869 12.830 -0.746 -0.745 -0.668 -0.781 -0.639 -0.746 -0.781 0.00 0.00 0.0000   -0.951 -0.794 -0.726 -0.918 -0.852 -0.952 -0.919     318     0.0000 0.00 0.00   0.000 0.000 5.729 5.729 0.000 5.738 5.737 0.000
WS7MET_125 2018-01-20 05:00:00 125 30483.0 -0.940 -0.851 -0.771 -0.913 -0.793 100.000 100.000 -0.941 -0.914 0.00 0.00 3.625 4.276 4.809 4.871 12.840 -0.849 -0.784 -0.707 -0.850 -0.687 -0.849 -0.851 0.00 0.00 0.0000   -1.022 -0.881 -0.794 -0.953 -0.842 -1.022 -0.954     318     0.0000 0.00 0.00   0.000 0.000 5.702 5.702 0.000 5.714 5.713 0.000
WS7MET_125 2018-01-20 04:55:00 125 30483.0 -0.966 -0.883 -0.803 -0.950 -0.854 100.000 100.000 -0.966 -0.951 0.00 0.00 3.629 4.277 4.810 4.870 12.840 -0.852 -0.881 -0.803 -0.885 -0.803 -0.852 -0.886 0.00 0.00 0.0000   -1.022 -0.891 -0.803 -1.022 -0.881 -1.023 -1.023     318     0.0000 0.00 0.00   0.000 0.000 5.692 5.692 0.000 5.698 5.698 0.000
WS7MET_125 2018-01-20 04:50:00 125 30483.0 -0.965 -0.881 -0.803 -0.936 -0.867 100.000 100.000 -0.965 -0.936 0.00 0.00 3.630 4.277 4.810 4.867 12.840 -0.884 -0.881 -0.803 -0.884 -0.852 -0.885 -0.885 0.00 0.00 0.0000   -1.021 -0.881 -0.803 -0.987 -0.881 -1.022 -0.988     318     0.0000 0.00 0.00   0.000 0.000 5.692 5.692 0.000 5.704 5.704 -0.000
WS7MET_125 2018-01-20 04:45:00 125 30483.0 -0.939 -0.877 -0.803 -0.961 -0.843 100.000 100.000 -0.939 -0.962 0.00 0.00 3.630 4.277 4.811 4.868 12.840 -0.850 -0.862 -0.803 -0.884 -0.813 -0.851 -0.884 0.00 0.00 0.0000   -0.987 -0.881 -0.803 -1.056 -0.862 -0.988 -1.056     318     0.0000 0.00 0.00   0.000 0.000 5.703 5.703 0.000 5.694 5.693 0.000
WS7MET_125 2018-01-20 04:40:00 125 30483.0 -0.956 -0.879 -0.809 -0.966 -0.827 100.000 100.000 -0.957 -0.967 0.00 0.00 3.630 4.277 4.814 4.869 12.840 -0.883 -0.871 -0.803 -0.917 -0.784 -0.883 -0.917 0.00 0.00 0.0000   -1.053 -0.881 -0.823 -1.053 -0.881 -1.054 -1.054     318     0.0000 0.00 0.00   0.000 0.000 5.696 5.695 0.000 5.692 5.691 0.000
WS7MET_125 2018-01-20 04:35:00 125 30483.0 -0.965 -0.908 -0.837 -0.977 -0.836 100.000 100.000 -0.966 -0.978 0.00 0.00 3.630 4.278 4.816 4.868 12.850 -0.850 -0.881 -0.823 -0.917 -0.803 -0.850 -0.918 0.00 0.00 0.0000   -1.055 -0.920 -0.842 -1.054 -0.881 -1.056 -1.055     318     0.0000 0.00 0.00   0.000 0.000 5.692 5.692 0.000 5.687 5.687 0.000
WS7MET_125 2018-01-20 04:30:00 125 30483.0 -0.898 -0.866 -0.796 -0.937 -0.866 100.000 100.000 -0.899 -0.938 0.00 0.00 3.630 4.282 4.818 4.867 12.850 -0.850 -0.823 -0.745 -0.851 -0.755 -0.851 -0.852 0.00 0.00 0.0000   -0.986 -0.910 -0.833 -1.021 -0.929 -0.987 -1.022     318     0.0000 0.00 0.00   0.000 0.000 5.720 5.720 0.000 5.704 5.703 0.000
WS7MET_125 2018-01-20 04:25:00 125 30483.0 -0.852 -0.808 -0.740 -0.913 -0.818 100.000 100.000 -0.853 -0.914 0.00 0.00 3.630 4.287 4.821 4.867 12.850 -0.783 -0.784 -0.726 -0.849 -0.765 -0.783 -0.850 0.00 0.00 0.0000   -0.919 -0.823 -0.745 -0.954 -0.881 -0.920 -0.954     318     0.0000 0.00 0.00   0.000 0.000 5.739 5.739 0.000 5.714 5.713 0.000
WS7MET_125 2018-01-20 04:20:00 125 30483.0 -0.853 -0.792 -0.732 -0.884 -0.755 100.000 100.000 -0.854 -0.885 0.00 0.00 3.636 4.293 4.819 4.866 12.840 -0.782 -0.774 -0.726 -0.782 -0.736 -0.782 -0.782 0.00 0.00 0.0000   -0.987 -0.823 -0.745 -0.952 -0.784 -0.987 -0.953     318     0.0000 0.00 0.00   0.000 0.000 5.739 5.738 0.000 5.726 5.725 0.000
WS7MET_125 2018-01-20 04:15:00 125 30483.0 -0.876 -0.831 -0.763 -0.927 -0.794 100.000 100.000 -0.877 -0.928 0.00 0.00 3.647 4.294 4.821 4.865 12.850 -0.783 -0.803 -0.745 -0.850 -0.745 -0.784 -0.851 0.00 0.00 0.0000   -0.953 -0.852 -0.784 -0.988 -0.891 -0.953 -0.988     318     0.0000 0.00 0.00   0.000 0.000 5.729 5.729 0.000 5.708 5.707 0.000
WS7MET_125 2018-01-20 04:10:00 125 30483.0 -0.890 -0.837 -0.774 -0.939 -0.796 100.000 100.000 -0.891 -0.940 0.00 0.00 3.649 4.296 4.826 4.866 12.860 -0.850 -0.823 -0.765 -0.884 -0.745 -0.850 -0.884 0.00 0.00 0.0000   -0.987 -0.862 -0.784 -0.988 -0.842 -0.988 -0.988     318     0.0000 0.00 0.00   0.000 0.000 5.723 5.723 0.000 5.703 5.702 0.000
WS7MET_125 2018-01-20 04:05:00 125 30483.0 -0.934 -0.876 -0.808 -0.956 -0.848 100.000 100.000 -0.935 -0.957 0.00 0.00 3.650 4.296 4.825 4.866 12.860 -0.884 -0.852 -0.784 -0.884 -0.755 -0.884 -0.884 0.00 0.00 0.0000   -1.020 -0.900 -0.823 -0.987 -0.910 -1.021 -0.988     318     0.0000 0.00 0.00   0.000 0.000 5.705 5.704 0.000 5.696 5.695 0.000
WS7MET_125 2018-01-20 04:00:00 125 30483.0 -0.940 -0.891 -0.807 -0.960 -0.850 100.000 100.000 -0.940 -0.961 0.00 0.00 3.650 4.296 4.827 4.866 12.870 -0.884 -0.852 -0.784 -0.919 -0.765 -0.885 -0.920 0.00 0.00 0.0000   -0.988 -0.900 -0.823 -1.022 -0.900 -0.988 -1.023     318     0.0000 0.00 0.00   0.000 0.000 5.702 5.702 0.000 5.694 5.694 0.000
WS7MET_125 2018-01-20 03:55:00 125 30483.0 -0.888 -0.841 -0.749 -0.868 -0.839 100.000 100.000 -0.889 -0.868 0.00 0.00 3.650 4.296 4.825 4.864 12.870 -0.783 -0.794 -0.707 -0.783 -0.765 -0.783 -0.783 0.00 0.00 0.0000   -0.953 -0.900 -0.803 -0.953 -0.891 -0.954 -0.954     318     0.0000 0.00 0.00   0.000 0.000 5.724 5.724 0.000 5.733 5.733 0.000
WS7MET_125 2018-01-20 03:50:00 125 30483.0 -0.885 -0.772 -0.701 -0.861 -0.720 100.000 100.000 -0.885 -0.861 0.00 0.00 3.650 4.296 4.827 4.864 12.870 -0.783 -0.726 -0.668 -0.816 -0.620 -0.783 -0.817 0.00 0.00 0.0000   -0.952 -0.803 -0.726 -0.953 -0.823 -0.953 -0.953     318     0.0000 0.00 0.00   0.000 0.000 5.725 5.725 0.000 5.736 5.736 0.000
WS7MET_125 2018-01-20 03:45:00 125 30483.0 -0.927 -0.860 -0.785 -0.944 -0.777 100.000 100.000 -0.928 -0.945 0.00 0.00 3.650 4.298 4.827 4.864 12.870 -0.850 -0.803 -0.745 -0.816 -0.658 -0.850 -0.816 0.00 0.00 0.0000   -1.021 -0.881 -0.803 -1.021 -0.881 -1.022 -1.022     318     0.0000 0.00 0.00   0.000 0.000 5.708 5.707 0.000 5.701 5.700 0.000
WS7MET_125 2018-01-20 03:40:00 125 30483.0 -0.943 -0.859 -0.779 -0.888 -0.843 100.000 100.000 -0.943 -0.888 0.00 0.00 3.656 4.300 4.827 4.863 12.880 -0.850 -0.823 -0.745 -0.816 -0.803 -0.851 -0.817 0.00 0.00 0.0000   -0.987 -0.881 -0.803 -0.987 -0.881 -0.988 -0.988     318     0.0000 0.00 0.00   0.000 0.000 5.701 5.701 0.000 5.724 5.724 0.000
WS7MET_125 2018-01-20 03:35:00 125 30483.0 -0.955 -0.864 -0.782 -0.951 -0.792 100.000 100.000 -0.955 -0.952 0.00 0.00 3.668 4.305 4.827 4.865 12.880 -0.851 -0.803 -0.745 -0.885 -0.716 -0.851 -0.885 0.00 0.00 0.0000   -1.021 -0.900 -0.803 -1.056 -0.862 -1.021 -1.056     318     0.0000 0.00 0.00   0.000 0.000 5.696 5.696 0.000 5.698 5.697 0.000
WS7MET_125 2018-01-20 03:30:00 125 30483.0 -0.953 -0.894 -0.802 -0.931 -0.850 100.000 100.000 -0.954 -0.932 0.00 0.00 3.669 4.305 4.827 4.864 12.880 -0.851 -0.881 -0.794 -0.850 -0.833 -0.852 -0.851 0.00 0.00 0.0000   -1.022 -0.900 -0.803 -1.021 -0.871 -1.022 -1.022     318     0.0000 0.00 0.00   0.000 0.000 5.697 5.697 0.000 5.706 5.706 0.000
WS7MET_125 2018-01-20 03:25:00 125 30483.0 -0.902 -0.851 -0.765 -0.879 -0.832 100.000 100.000 -0.903 -0.879 0.00 0.00 3.669 4.307 4.827 4.862 12.880 -0.817 -0.784 -0.707 -0.817 -0.755 -0.817 -0.817 0.00 0.00 0.0000   -1.022 -0.881 -0.794 -0.954 -0.862 -1.023 -0.955     318     0.0000 0.00 0.00   0.000 0.000 5.718 5.718 0.000 5.728 5.728 0.000
WS7MET_125 2018-01-20 03:20:00 125 30483.0 -0.856 -0.798 -0.721 -0.880 -0.756 100.000 100.000 -0.856 -0.880 0.00 0.00 3.669 4.308 4.827 4.860 12.880 -0.816 -0.784 -0.707 -0.817 -0.726 -0.817 -0.817 0.00 0.00 0.0000   -0.919 -0.813 -0.726 -0.953 -0.813 -0.920 -0.954     318     0.0000 0.00 0.00   0.000 0.000 5.738 5.738 0.000 5.728 5.728 0.000
WS7MET_125 2018-01-20 03:15:00 125 30483.0 -0.815 -0.757 -0.690 -0.841 -0.772 100.000 100.000 -0.815 -0.841 0.00 0.00 3.669 4.314 4.827 4.860 12.880 -0.748 -0.726 -0.658 -0.749 -0.726 -0.749 -0.749 0.00 0.00 0.0000   -0.885 -0.803 -0.726 -0.919 -0.813 -0.886 -0.920     318     0.0000 0.00 0.00   0.000 0.000 5.755 5.755 0.000 5.744 5.744 0.000
WS7MET_125 2018-01-20 03:10:00 125 30483.0 -0.829 -0.741 -0.682 -0.840 -0.696 100.000 100.000 -0.829 -0.841 0.00 0.00 3.669 4.315 4.827 4.858 12.890 -0.748 -0.707 -0.649 -0.748 -0.629 -0.748 -0.748 0.00 0.00 0.0000   -0.885 -0.765 -0.707 -0.920 -0.765 -0.886 -0.920     318     0.0000 0.00 0.00   0.000 0.000 5.749 5.749 0.000 5.744 5.744 0.000
WS7MET_125 2018-01-20 03:05:00 125 30483.0 -0.894 -0.836 -0.751 -0.899 -0.780 100.000 100.000 -0.895 -0.900 0.00 0.00 3.669 4.315 4.827 4.858 12.890 -0.852 -0.784 -0.716 -0.851 -0.726 -0.852 -0.852 0.00 0.00 0.0000   -0.954 -0.862 -0.765 -0.954 -0.842 -0.955 -0.954     318     0.0000 0.00 0.00   0.000 0.000 5.722 5.721 0.000 5.720 5.719 0.000
WS7MET_125 2018-01-20 03:00:00 125 30483.0 -0.825 -0.771 -0.688 -0.825 -0.753 100.000 100.000 -0.825 -0.825 0.00 0.00 3.669 4.315 4.827 4.857 12.900 -0.716 -0.716 -0.639 -0.750 -0.678 -0.716 -0.750 0.00 0.00 0.0000   -0.954 -0.842 -0.755 -0.920 -0.842 -0.955 -0.921     318     0.0000 0.00 0.00   0.000 0.000 5.751 5.751 0.000 5.751 5.751 0.000
WS7MET_125 2018-01-20 02:55:00 125 30483.0 -0.774 -0.712 -0.633 -0.787 -0.665 100.000 100.000 -0.774 -0.788 0.00 0.00 3.672 4.315 4.827 4.856 12.900 -0.681 -0.687 -0.620 -0.716 -0.600 -0.682 -0.716 0.00 0.00 0.0000   -0.886 -0.726 -0.649 -0.852 -0.726 -0.887 -0.853     318     0.0000 0.00 0.00   0.000 0.000 5.772 5.772 -0.000 5.767 5.766 0.000
WS7MET_125 2018-01-20 02:50:00 125 30483.0 -0.811 -0.731 -0.651 -0.811 -0.665 100.000 100.000 -0.812 -0.812 0.00 0.00 3.682 4.316 4.827 4.856 12.900 -0.750 -0.687 -0.629 -0.750 -0.600 -0.750 -0.750 0.00 0.00 0.0000   -0.886 -0.765 -0.668 -0.886 -0.745 -0.887 -0.887     318     0.0000 0.00 0.00   0.000 0.000 5.757 5.756 0.000 5.757 5.756 0.000
WS7MET_125 2018-01-20 02:45:00 125 30483.0 -0.847 -0.760 -0.673 -0.811 -0.696 100.000 100.000 -0.847 -0.812 0.00 0.00 3.687 4.320 4.827 4.856 12.900 -0.784 -0.745 -0.649 -0.750 -0.620 -0.784 -0.750 0.00 0.00 0.0000   -0.920 -0.784 -0.697 -0.886 -0.745 -0.921 -0.887     318     0.0000 0.00 0.00   0.000 0.000 5.741 5.741 0.000 5.757 5.756 0.000
WS7MET_125 2018-01-20 02:40:00 125 30483.0 -0.870 -0.775 -0.692 -0.850 -0.693 100.000 100.000 -0.871 -0.851 0.00 0.00 3.688 4.331 4.827 4.856 12.910 -0.783 -0.726 -0.649 -0.783 -0.561 -0.784 -0.784 0.00 0.00 0.0000   -0.921 -0.823 -0.726 -0.921 -0.774 -0.921 -0.921     318     0.0000 0.00 0.00   0.000 0.000 5.732 5.731 0.000 5.740 5.740 0.000
WS7MET_125 2018-01-20 02:35:00 125 30483.0 -0.890 -0.813 -0.724 -0.847 -0.769 100.000 100.000 -0.890 -0.848 0.00 0.00 3.688 4.333 4.827 4.856 12.910 -0.818 -0.803 -0.707 -0.784 -0.745 -0.818 -0.784 0.00 0.00 0.0000   -0.955 -0.823 -0.726 -0.920 -0.794 -0.955 -0.921     318     0.0000 0.00 0.00   0.000 0.000 5.723 5.723 0.000 5.741 5.741 0.000
WS7MET_125 2018-01-20 02:30:00 125 30483.0 -0.813 -0.765 -0.679 -0.801 -0.732 100.000 100.000 -0.813 -0.801 0.00 0.00 3.688 4.334 4.827 4.856 12.910 -0.749 -0.726 -0.649 -0.715 -0.639 -0.750 -0.715 0.00 0.00 0.0000   -0.920 -0.803 -0.726 -0.886 -0.794 -0.921 -0.887     318     0.0000 0.00 0.00   0.000 0.000 5.756 5.756 0.000 5.761 5.761 0.000
WS7MET_125 2018-01-20 02:25:00 125 30483.0 -0.666 -0.662 -0.587 -0.700 -0.677 100.000 100.000 -0.666 -0.700 0.00 0.00 3.688 4.335 4.827 4.856 12.910 -0.579 -0.591 -0.532 -0.579 -0.610 -0.579 -0.579 0.00 0.00 0.0000   -0.783 -0.736 -0.649 -0.817 -0.726 -0.783 -0.818     318     0.0000 0.00 0.00   0.000 0.000 5.818 5.818 0.000 5.804 5.804 0.000
WS7MET_125 2018-01-20 02:20:00 125 30483.0 -0.533 -0.492 -0.432 -0.579 -0.506 100.000 100.000 -0.534 -0.580 0.00 0.00 3.688 4.335 4.827 4.856 12.920 -0.443 -0.455 -0.397 -0.511 -0.407 -0.443 -0.511 0.00 0.00 0.0000   -0.614 -0.591 -0.523 -0.648 -0.649 -0.614 -0.648     318     0.0000 0.00 0.00   0.000 0.000 5.875 5.874 0.000 5.855 5.855 0.000
WS7MET_125 2018-01-20 02:15:00 125 30483.0 -0.569 -0.524 -0.462 -0.620 -0.486 100.000 100.000 -0.569 -0.620 0.00 0.00 3.697 4.335 4.827 4.858 12.910 -0.510 -0.474 -0.416 -0.579 -0.407 -0.511 -0.579 0.00 0.00 0.0000   -0.613 -0.571 -0.503 -0.681 -0.610 -0.614 -0.682     318     0.0000 0.00 0.00   0.000 0.000 5.859 5.859 0.000 5.838 5.838 -0.000
WS7MET_125 2018-01-20 02:10:00 125 30483.0 -0.548 -0.507 -0.444 -0.563 -0.541 100.000 100.000 -0.548 -0.563 0.00 0.00 3.705 4.335 4.827 4.856 12.920 -0.509 -0.455 -0.397 -0.475 -0.465 -0.509 -0.475 0.00 0.00 0.0000   -0.613 -0.542 -0.474 -0.647 -0.610 -0.613 -0.647     318     0.0000 0.00 0.00   0.000 0.000 5.868 5.868 0.000 5.862 5.862 0.000
WS7MET_125 2018-01-20 02:05:00 125 30483.0 -0.530 -0.478 -0.402 -0.573 -0.431 100.000 100.000 -0.531 -0.573 0.00 0.00 3.707 4.335 4.827 4.856 12.920 -0.441 -0.455 -0.378 -0.441 -0.407 -0.441 -0.441 0.00 0.00 0.0000   -0.579 -0.513 -0.436 -0.681 -0.494 -0.579 -0.681     318     0.0000 0.00 0.00   0.000 0.000 5.876 5.876 0.000 5.858 5.858 0.000
WS7MET_125 2018-01-20 02:00:00 125 30483.0 -0.574 -0.518 -0.437 -0.569 -0.487 100.000 100.000 -0.575 -0.569 0.00 0.00 3.707 4.337 4.827 4.856 12.930 -0.477 -0.474 -0.407 -0.544 -0.416 -0.478 -0.545 0.00 0.00 0.0000   -0.648 -0.552 -0.474 -0.614 -0.571 -0.648 -0.614     318     0.0000 0.00 0.00   0.000 0.000 5.857 5.857 0.000 5.859 5.859 0.000
WS7MET_125 2018-01-20 01:55:00 125 30483.0 -0.564 -0.515 -0.426 -0.581 -0.494 100.000 100.000 -0.564 -0.581 0.00 0.00 3.707 4.344 4.827 4.856 12.930 -0.477 -0.484 -0.407 -0.511 -0.407 -0.477 -0.511 0.00 0.00 0.0000   -0.613 -0.532 -0.455 -0.647 -0.561 -0.614 -0.648     318     0.0000 0.00 0.00   0.000 0.000 5.862 5.862 0.000 5.854 5.854 0.000
WS7MET_125 2018-01-20 01:50:00 125 30483.0 -0.512 -0.490 -0.413 -0.543 -0.484 100.000 100.000 -0.513 -0.544 0.00 0.00 3.707 4.345 4.827 4.856 12.930 -0.442 -0.465 -0.397 -0.476 -0.436 -0.442 -0.477 0.00 0.00 0.0000   -0.614 -0.513 -0.416 -0.647 -0.523 -0.614 -0.648     318     0.0000 0.00 0.00   0.000 0.000 5.884 5.884 0.000 5.871 5.870 -0.000
WS7MET_125 2018-01-20 01:45:00 125 30483.0 -0.475 -0.432 -0.355 -0.475 -0.416 100.000 100.000 -0.475 -0.475 0.00 0.00 3.707 4.350 4.827 4.856 12.940 -0.408 -0.416 -0.339 -0.408 -0.358 -0.408 -0.409 0.00 0.00 0.0000   -0.545 -0.465 -0.387 -0.545 -0.465 -0.545 -0.545     318     0.0000 0.00 0.00   0.000 0.000 5.900 5.900 0.000 5.900 5.900 0.000
WS7MET_125 2018-01-20 01:40:00 125 30483.0 -0.415 -0.384 -0.310 -0.433 -0.435 100.000 100.000 -0.416 -0.433 0.00 0.00 3.707 4.353 4.828 4.856 12.940 -0.340 -0.339 -0.262 -0.341 -0.320 -0.341 -0.341 0.00 0.00 0.0000   -0.511 -0.416 -0.339 -0.545 -0.503 -0.511 -0.545     318     0.0000 0.00 0.00   0.000 0.000 5.926 5.925 0.000 5.918 5.918 0.000
WS7MET_125 2018-01-20 01:35:00 125 30483.0 -0.407 -0.346 -0.273 -0.446 -0.322 100.000 100.000 -0.407 -0.446 0.00 0.00 3.707 4.353 4.827 4.856 12.940 -0.306 -0.339 -0.262 -0.374 -0.291 -0.306 -0.374 0.00 0.00 0.0000   -0.443 -0.358 -0.281 -0.511 -0.349 -0.443 -0.511     318     0.0000 0.00 0.00   0.000 0.000 5.929 5.929 0.000 5.912 5.912 0.000
WS7MET_125 2018-01-20 01:30:00 125 30483.0 -0.403 -0.355 -0.289 -0.434 -0.317 100.000 100.000 -0.404 -0.434 0.00 0.00 3.713 4.354 4.827 4.856 12.950 -0.340 -0.339 -0.281 -0.375 -0.291 -0.340 -0.375 0.00 0.00 0.0000   -0.477 -0.397 -0.320 -0.511 -0.378 -0.477 -0.511     318     0.0000 0.00 0.00   0.000 0.000 5.931 5.931 0.000 5.918 5.918 0.000
WS7MET_125 2018-01-20 01:25:00 125 30483.0 -0.438 -0.387 -0.306 -0.451 -0.402 100.000 100.000 -0.438 -0.452 0.00 0.00 3.724 4.354 4.828 4.856 12.950 -0.375 -0.358 -0.281 -0.375 -0.358 -0.375 -0.375 0.00 0.00 0.0000   -0.545 -0.407 -0.320 -0.511 -0.436 -0.545 -0.512     318     0.0000 0.00 0.00   0.000 0.000 5.916 5.916 0.000 5.910 5.910 0.000
WS7MET_125 2018-01-20 01:20:00 125 30483.0 -0.448 -0.355 -0.280 -0.394 -0.307 100.000 100.000 -0.449 -0.394 0.00 0.00 3.727 4.354 4.828 4.856 12.950 -0.375 -0.339 -0.262 -0.340 -0.281 -0.375 -0.341 0.00 0.00 0.0000   -0.478 -0.397 -0.300 -0.444 -0.358 -0.478 -0.444     318     0.0000 0.00 0.00   0.000 0.000 5.912 5.911 0.000 5.935 5.935 0.000
WS7MET_125 2018-01-20 01:15:00 125 30483.0 -0.425 -0.383 -0.294 -0.406 -0.373 100.000 100.000 -0.425 -0.406 0.00 0.00 3.727 4.355 4.829 4.856 12.950 -0.341 -0.320 -0.223 -0.341 -0.281 -0.341 -0.341 0.00 0.00 0.0000   -0.478 -0.416 -0.320 -0.478 -0.445 -0.478 -0.478     318     0.0000 0.00 0.00   0.000 0.000 5.921 5.921 0.000 5.930 5.930 -0.000
WS7MET_125 2018-01-20 01:10:00 125 30483.0 -0.395 -0.333 -0.253 -0.402 -0.289 100.000 100.000 -0.395 -0.402 0.00 0.00 3.727 4.360 4.831 4.856 12.960 -0.306 -0.320 -0.242 -0.374 -0.262 -0.307 -0.375 0.00 0.00 0.0000   -0.477 -0.368 -0.281 -0.477 -0.320 -0.477 -0.477     318     0.0000 0.00 0.00   0.000 0.000 5.934 5.934 0.000 5.931 5.931 -0.000
WS7MET_125 2018-01-20 01:05:00 125 30483.0 -0.403 -0.344 -0.267 -0.408 -0.335 100.000 100.000 -0.404 -0.409 0.00 0.00 3.727 4.368 4.832 4.856 12.960 -0.306 -0.300 -0.242 -0.374 -0.271 -0.307 -0.374 0.00 0.00 0.0000   -0.477 -0.378 -0.291 -0.477 -0.397 -0.477 -0.477     318     0.0000 0.00 0.00   0.000 0.000 5.931 5.931 0.000 5.929 5.928 0.000
WS7MET_125 2018-01-20 01:00:00 125 30483.0 -0.383 -0.334 -0.252 -0.399 -0.304 100.000 100.000 -0.384 -0.399 0.00 0.00 3.727 4.373 4.834 4.856 12.960 -0.306 -0.320 -0.242 -0.272 -0.281 -0.307 -0.273 0.00 0.00 0.0000   -0.511 -0.349 -0.262 -0.512 -0.358 -0.512 -0.512     318     0.0000 0.00 0.00   0.000 0.000 5.940 5.939 0.000 5.933 5.933 0.000
WS7MET_125 2018-01-20 00:55:00 125 30483.0 -0.323 -0.298 -0.214 -0.371 -0.297 100.000 100.000 -0.323 -0.371 0.00 0.00 3.732 4.373 4.836 4.856 12.960 -0.272 -0.281 -0.204 -0.306 -0.271 -0.272 -0.306 0.00 0.00 0.0650   -0.409 -0.339 -0.262 -0.409 -0.368 -0.409 -0.409     318     0.0040 134.70 12.52   0.000 0.000 5.966 5.966 0.000 5.945 5.945 0.000
WS7MET_125 2018-01-20 00:50:00 125 30483.0 -0.331 -0.264 -0.185 -0.352 -0.251 100.000 100.000 -0.331 -0.352 0.00 0.00 3.738 4.373 4.836 4.856 12.970 -0.238 -0.262 -0.184 -0.271 -0.242 -0.238 -0.272 0.00 0.00 0.0000   -0.407 -0.271 -0.194 -0.443 -0.262 -0.408 -0.443     318     0.0000 0.00 0.00   0.000 0.000 5.962 5.962 -0.000 5.953 5.953 -0.000
WS7MET_125 2018-01-20 00:45:00 125 30483.0 -0.358 -0.287 -0.211 -0.384 -0.252 100.000 100.000 -0.358 -0.384 0.00 0.00 3.744 4.373 4.837 4.856 12.970 -0.307 -0.262 -0.184 -0.341 -0.223 -0.307 -0.341 0.00 0.00 0.2420   -0.409 -0.300 -0.223 -0.477 -0.291 -0.409 -0.478     318     0.0430 36.19 1.14   0.000 0.000 5.950 5.950 0.000 5.939 5.939 0.000
WS7MET_125 2018-01-20 00:40:00 125 30483.0 -0.378 -0.309 -0.226 -0.359 -0.297 100.000 100.000 -0.378 -0.359 0.00 0.00 3.746 4.373 4.837 4.856 12.970 -0.306 -0.300 -0.223 -0.306 -0.271 -0.306 -0.307 0.00 0.00 0.0000   -0.409 -0.320 -0.242 -0.443 -0.320 -0.409 -0.443     318     0.0000 0.00 0.00   0.000 0.000 5.942 5.942 0.000 5.950 5.950 -0.000
WS7MET_125 2018-01-20 00:35:00 125 30483.0 -0.366 -0.300 -0.222 -0.373 -0.276 100.000 100.000 -0.367 -0.373 0.00 0.00 3.746 4.373 4.839 4.856 12.970 -0.272 -0.291 -0.213 -0.306 -0.252 -0.273 -0.307 0.00 0.00 0.0000   -0.477 -0.300 -0.223 -0.443 -0.300 -0.477 -0.443     318     0.0000 0.00 0.00   0.000 0.000 5.947 5.947 0.000 5.944 5.944 0.000
WS7MET_125 2018-01-20 00:30:00 125 30483.0 -0.403 -0.313 -0.241 -0.390 -0.262 100.000 100.000 -0.404 -0.390 0.00 0.00 3.746 4.374 4.839 4.856 12.980 -0.306 -0.300 -0.223 -0.306 -0.252 -0.306 -0.306 0.00 0.00 0.0000   -0.477 -0.339 -0.262 -0.477 -0.271 -0.477 -0.477     318     0.0000 0.00 0.00   0.000 0.000 5.931 5.931 0.000 5.937 5.937 0.000
WS7MET_125 2018-01-20 00:25:00 125 30483.0 -0.448 -0.374 -0.295 -0.453 -0.314 100.000 100.000 -0.448 -0.453 0.00 0.00 3.746 4.374 4.842 4.856 12.980 -0.408 -0.339 -0.262 -0.374 -0.281 -0.408 -0.375 0.00 0.00 0.4180   -0.511 -0.416 -0.339 -0.545 -0.397 -0.511 -0.545     318     0.0840 49.06 12.97   0.000 0.000 5.912 5.912 0.000 5.909 5.909 0.000
WS7MET_125 2018-01-20 00:20:00 125 30483.0 -0.449 -0.402 -0.317 -0.447 -0.383 100.000 100.000 -0.449 -0.448 0.00 0.00 3.746 4.378 4.840 4.856 12.980 -0.374 -0.378 -0.300 -0.374 -0.358 -0.374 -0.374 0.00 0.00 0.2350   -0.545 -0.416 -0.339 -0.511 -0.416 -0.545 -0.511     318     0.0570 67.23 6.27   0.000 0.000 5.911 5.911 0.000 5.912 5.912 0.000
WS7MET_125 2018-01-20 00:15:00 125 30483.0 -0.455 -0.381 -0.294 -0.419 -0.335 100.000 100.000 -0.455 -0.420 0.00 0.00 3.746 4.383 4.842 4.856 12.980 -0.409 -0.378 -0.281 -0.374 -0.310 -0.409 -0.374 0.00 0.00 0.2680   -0.512 -0.397 -0.300 -0.512 -0.358 -0.512 -0.512     318     0.0250 272.60 26.30   0.000 0.000 5.908 5.908 0.000 5.924 5.924 -0.000
WS7MET_125 2018-01-20 00:10:00 125 30483.0 -0.431 -0.377 -0.287 -0.399 -0.361 100.000 100.000 -0.431 -0.399 0.00 0.00 3.748 4.383 4.844 4.856 12.990 -0.374 -0.339 -0.262 -0.306 -0.339 -0.375 -0.306 0.00 0.00 0.2160   -0.511 -0.397 -0.310 -0.477 -0.378 -0.512 -0.477     318     0.0150 130.80 29.86   0.000 0.000 5.919 5.919 0.000 5.933 5.933 0.000
WS7MET_125 2018-01-20 00:05:00 125 30483.0 -0.401 -0.334 -0.244 -0.353 -0.313 100.000 100.000 -0.401 -0.353 0.00 0.00 3.757 4.387 4.844 4.856 12.990 -0.341 -0.320 -0.242 -0.272 -0.281 -0.341 -0.272 0.00 0.00 0.1440   -0.443 -0.339 -0.262 -0.443 -0.349 -0.444 -0.443     318     0.0210 56.02 19.34   0.000 0.000 5.932 5.932 0.000 5.953 5.953 0.000
WS7MET_125 2018-01-20 00:00:00 125 30483.0 -0.325 -0.260 -0.175 -0.301 -0.250 100.000 100.000 -0.325 -0.301 0.00 0.00 3.763 4.391 4.844 4.856 13.000 -0.204 -0.223 -0.146 -0.237 -0.194 -0.204 -0.238 0.00 0.00 0.1700   -0.443 -0.329 -0.242 -0.341 -0.329 -0.443 -0.341     318     0.0100 72.63 9.34   0.000 0.000 5.965 5.965 0.000 5.975 5.975 0.000
WS7MET_125 2018-01-19 23:55:00 125 30483.0 -0.313 -0.236 -0.154 -0.280 -0.210 100.000 100.000 -0.313 -0.280 0.00 0.00 3.765 4.392 4.846 4.856 13.000 -0.203 -0.223 -0.146 -0.203 -0.194 -0.203 -0.203 0.00 0.00 0.0000   -0.409 -0.242 -0.165 -0.340 -0.252 -0.409 -0.340     318     0.0000 0.00 0.00   0.000 0.000 5.970 5.970 -0.000 5.984 5.984 0.000
WS7MET_125 2018-01-19 23:50:00 125 30483.0 -0.311 -0.229 -0.146 -0.292 -0.227 100.000 100.000 -0.311 -0.293 0.00 0.00 3.765 4.392 4.846 4.856 13.000 -0.238 -0.223 -0.146 -0.237 -0.184 -0.238 -0.238 0.00 0.00 0.1240   -0.340 -0.242 -0.155 -0.375 -0.262 -0.341 -0.375     318     0.0060 37.83 0.00   0.000 0.000 5.971 5.971 0.000 5.979 5.979 0.000
WS7MET_125 2018-01-19 23:45:00 125 30483.0 -0.321 -0.238 -0.162 -0.311 -0.188 100.000 100.000 -0.321 -0.311 0.00 0.00 3.765 4.392 4.845 4.856 13.000 -0.272 -0.223 -0.146 -0.238 -0.184 -0.272 -0.238 0.00 0.00 0.2480   -0.374 -0.262 -0.184 -0.408 -0.204 -0.375 -0.408     318     0.0270 37.95 0.00   0.000 0.000 5.967 5.967 0.000 5.971 5.971 0.000
WS7MET_125 2018-01-19 23:40:00 125 30483.0 -0.357 -0.284 -0.210 -0.352 -0.233 100.000 100.000 -0.357 -0.352 0.00 0.00 3.765 4.392 4.847 4.856 13.010 -0.305 -0.262 -0.184 -0.272 -0.194 -0.306 -0.272 0.00 0.00 0.0850   -0.409 -0.300 -0.223 -0.409 -0.281 -0.409 -0.409     318     0.0040 352.70 0.00   0.000 0.000 5.951 5.951 0.000 5.953 5.953 -0.000
WS7MET_125 2018-01-19 23:35:00 125 30483.0 -0.355 -0.293 -0.213 -0.343 -0.277 100.000 100.000 -0.356 -0.344 0.00 0.00 3.765 4.393 4.847 4.856 13.010 -0.272 -0.281 -0.204 -0.271 -0.242 -0.272 -0.272 0.00 0.00 0.3920   -0.408 -0.300 -0.223 -0.408 -0.310 -0.409 -0.409     318     0.0890 42.43 29.19   0.000 0.000 5.952 5.951 0.000 5.957 5.957 0.000
WS7MET_125 2018-01-19 23:30:00 125 30483.0 -0.332 -0.274 -0.191 -0.311 -0.260 100.000 100.000 -0.332 -0.312 0.00 0.00 3.770 4.397 4.846 4.856 13.010 -0.272 -0.262 -0.165 -0.238 -0.233 -0.273 -0.239 0.00 0.00 0.3990   -0.442 -0.281 -0.204 -0.375 -0.300 -0.442 -0.375     318     0.0600 8.22 5.95   0.000 0.000 5.962 5.962 0.000 5.971 5.971 0.000
WS7MET_125 2018-01-19 23:25:00 125 30483.0 -0.292 -0.231 -0.151 -0.298 -0.200 100.000 100.000 -0.292 -0.299 0.00 0.00 3.779 4.402 4.847 4.856 13.020 -0.238 -0.204 -0.126 -0.239 -0.175 -0.238 -0.239 0.00 0.00 0.5160   -0.341 -0.262 -0.175 -0.375 -0.242 -0.342 -0.376     318     0.1450 355.30 42.20   0.000 0.000 5.979 5.979 0.000 5.977 5.976 0.000
WS7MET_125 2018-01-19 23:20:00 125 30483.0 -0.316 -0.265 -0.189 -0.328 -0.228 100.000 100.000 -0.316 -0.328 0.00 0.00 3.785 4.406 4.847 4.856 13.020 -0.239 -0.242 -0.165 -0.273 -0.194 -0.239 -0.273 0.00 0.00 0.7380   -0.375 -0.281 -0.204 -0.375 -0.262 -0.376 -0.376     318     0.0700 52.70 8.25   0.000 0.000 5.969 5.969 0.000 5.964 5.964 0.000
WS7MET_125 2018-01-19 23:15:00 125 30483.0 -0.324 -0.279 -0.199 -0.331 -0.264 100.000 100.000 -0.324 -0.331 0.00 0.00 3.785 4.407 4.846 4.855 13.020 -0.205 -0.223 -0.146 -0.273 -0.213 -0.205 -0.273 0.00 0.00 0.9340   -0.375 -0.300 -0.223 -0.410 -0.310 -0.376 -0.410     318     0.3810 39.53 49.17   0.000 0.000 5.965 5.965 0.000 5.962 5.962 -0.000
WS7MET_125 2018-01-19 23:10:00 125 30483.0 -0.300 -0.223 -0.146 -0.282 -0.207 100.000 100.000 -0.300 -0.282 0.00 0.00 3.785 4.412 4.847 4.856 13.030 -0.239 -0.223 -0.146 -0.205 -0.184 -0.239 -0.205 0.00 0.00 0.6210   -0.375 -0.223 -0.146 -0.375 -0.233 -0.376 -0.376     318     0.0730 48.20 5.66   0.000 0.000 5.976 5.976 0.000 5.984 5.984 0.000
WS7MET_125 2018-01-19 23:05:00 125 30483.0 -0.329 -0.249 -0.166 -0.285 -0.212 100.000 100.000 -0.329 -0.285 0.00 0.00 3.785 4.412 4.847 4.856 13.030 -0.239 -0.223 -0.146 -0.205 -0.184 -0.239 -0.205 0.00 0.00 0.6340   -0.375 -0.281 -0.204 -0.341 -0.291 -0.376 -0.341     318     0.0460 29.47 2.68   0.000 0.000 5.963 5.963 -0.000 5.982 5.982 0.000
WS7MET_125 2018-01-19 23:00:00 125 30483.0 -0.298 -0.248 -0.171 -0.305 -0.233 100.000 100.000 -0.299 -0.305 0.00 0.00 3.785 4.412 4.847 4.856 13.030 -0.273 -0.223 -0.155 -0.205 -0.204 -0.273 -0.205 0.00 0.00 0.5490   -0.341 -0.281 -0.194 -0.409 -0.281 -0.341 -0.410     318     0.1630 55.81 40.39   0.000 0.000 5.977 5.976 0.000 5.974 5.974 0.000
WS7MET_125 2018-01-19 22:55:00 125 30483.0 -0.276 -0.215 -0.137 -0.271 -0.196 100.000 100.000 -0.276 -0.271 0.00 0.00 3.785 4.412 4.847 4.856 13.030 -0.170 -0.204 -0.126 -0.170 -0.175 -0.170 -0.170 0.00 0.00 0.7580   -0.341 -0.223 -0.165 -0.375 -0.213 -0.341 -0.375     318     0.3850 47.24 36.66   0.000 0.000 5.986 5.986 0.000 5.988 5.988 0.000
WS7MET_125 2018-01-19 22:50:00 125 30483.0 -0.330 -0.236 -0.147 -0.291 -0.191 100.000 100.000 -0.330 -0.291 0.00 0.00 3.788 4.412 4.847 4.856 13.040 -0.272 -0.213 -0.126 -0.238 -0.175 -0.273 -0.238 0.00 0.00 0.6140   -0.409 -0.262 -0.165 -0.341 -0.223 -0.409 -0.341     318     0.1070 89.60 11.52   0.000 0.000 5.963 5.963 0.000 5.980 5.980 0.000
WS7MET_125 2018-01-19 22:45:00 125 30483.0 -0.313 -0.241 -0.162 -0.301 -0.200 100.000 100.000 -0.313 -0.301 0.00 0.00 3.800 4.413 4.847 4.856 13.040 -0.238 -0.223 -0.146 -0.204 -0.184 -0.238 -0.204 0.00 0.00 0.5810   -0.375 -0.281 -0.204 -0.375 -0.242 -0.375 -0.375     318     0.1890 50.30 24.22   0.000 0.000 5.970 5.970 -0.000 5.975 5.975 0.000
WS7MET_125 2018-01-19 22:40:00 125 30483.0 -0.350 -0.298 -0.208 -0.347 -0.272 100.000 100.000 -0.351 -0.347 0.00 0.00 3.803 4.415 4.847 4.856 13.050 -0.306 -0.281 -0.204 -0.306 -0.242 -0.306 -0.306 0.00 0.00 0.2420   -0.443 -0.300 -0.223 -0.408 -0.300 -0.443 -0.409     318     0.0520 71.05 14.92   0.000 0.000 5.954 5.954 0.000 5.955 5.955 0.000
WS7MET_125 2018-01-19 22:35:00 125 30483.0 -0.344 -0.279 -0.200 -0.339 -0.258 100.000 100.000 -0.344 -0.339 0.00 0.00 3.804 4.425 4.847 4.856 13.050 -0.273 -0.271 -0.184 -0.238 -0.233 -0.273 -0.239 0.00 0.00 0.8040   -0.409 -0.281 -0.204 -0.409 -0.291 -0.409 -0.409     318     0.1760 62.59 23.45   0.000 0.000 5.957 5.957 0.000 5.959 5.959 0.000
WS7MET_125 2018-01-19 22:30:00 125 30483.0 -0.330 -0.284 -0.199 -0.327 -0.262 100.000 100.000 -0.331 -0.327 0.00 0.00 3.804 4.429 4.847 4.855 13.050 -0.272 -0.242 -0.155 -0.272 -0.223 -0.272 -0.272 0.00 0.00 1.0650   -0.375 -0.310 -0.223 -0.409 -0.300 -0.375 -0.409     318     0.3950 48.19 36.83   0.000 0.000 5.963 5.962 0.000 5.964 5.964 0.000
WS7MET_125 2018-01-19 22:25:00 125 30483.0 -0.320 -0.231 -0.144 -0.300 -0.190 100.000 100.000 -0.321 -0.300 0.00 0.00 3.805 4.431 4.847 4.856 13.060 -0.273 -0.223 -0.126 -0.239 -0.175 -0.273 -0.239 0.00 0.00 0.6210   -0.375 -0.262 -0.165 -0.375 -0.223 -0.375 -0.375     318     0.1520 245.70 45.44   0.000 0.000 5.967 5.967 0.000 5.976 5.976 0.000
WS7MET_125 2018-01-19 22:20:00 125 30483.0 -0.359 -0.303 -0.218 -0.353 -0.276 100.000 100.000 -0.360 -0.353 0.00 0.00 3.807 4.431 4.847 4.854 13.060 -0.272 -0.262 -0.165 -0.238 -0.213 -0.272 -0.238 0.00 0.00 0.9340   -0.409 -0.320 -0.242 -0.409 -0.320 -0.409 -0.409     318     0.1680 26.68 33.67   0.000 0.000 5.950 5.950 -0.000 5.953 5.953 0.000
WS7MET_125 2018-01-19 22:15:00 125 30483.0 -0.305 -0.242 -0.168 -0.297 -0.249 100.000 100.000 -0.305 -0.297 0.00 0.00 3.811 4.431 4.847 4.849 13.060 -0.239 -0.223 -0.146 -0.239 -0.194 -0.239 -0.239 0.00 0.00 0.8820   -0.375 -0.281 -0.204 -0.341 -0.281 -0.375 -0.341     318     0.2610 75.42 71.37   0.000 0.000 5.974 5.974 0.000 5.977 5.977 -0.000
WS7MET_125 2018-01-19 22:10:00 125 30483.0 -0.302 -0.242 -0.163 -0.298 -0.205 100.000 100.000 -0.302 -0.298 0.00 0.00 3.818 4.431 4.847 4.855 13.070 -0.272 -0.223 -0.146 -0.238 -0.184 -0.273 -0.238 0.00 0.00 1.0910   -0.341 -0.281 -0.184 -0.375 -0.242 -0.341 -0.375     318     0.3140 61.35 36.46   0.000 0.000 5.975 5.975 0.000 5.977 5.977 0.000
WS7MET_125 2018-01-19 22:05:00 125 30483.0 -0.281 -0.236 -0.151 -0.270 -0.216 100.000 100.000 -0.281 -0.271 0.00 0.00 3.822 4.431 4.847 4.854 13.070 -0.170 -0.204 -0.126 -0.204 -0.184 -0.170 -0.204 0.00 0.00 1.1370   -0.341 -0.281 -0.184 -0.375 -0.262 -0.341 -0.375     318     0.2850 57.56 51.04   0.000 0.000 5.984 5.984 0.000 5.989 5.988 0.000
WS7MET_125 2018-01-19 22:00:00 125 30483.0 -0.252 -0.185 -0.103 -0.249 -0.162 100.000 100.000 -0.253 -0.249 0.00 0.00 3.823 4.432 4.847 4.852 13.070 -0.168 -0.184 -0.088 -0.134 -0.146 -0.169 -0.134 0.00 0.00 0.5230   -0.306 -0.194 -0.117 -0.339 -0.194 -0.306 -0.340     318     0.1250 53.59 39.68   0.000 0.000 5.997 5.996 0.000 5.998 5.998 -0.000
WS7MET_125 2018-01-19 21:55:00 125 30483.0 -0.278 -0.206 -0.125 -0.278 -0.161 100.000 100.000 -0.278 -0.278 0.00 0.00 3.823 4.438 4.847 4.853 13.080 -0.203 -0.184 -0.098 -0.202 -0.146 -0.203 -0.203 0.00 0.00 0.2350   -0.340 -0.242 -0.165 -0.340 -0.194 -0.340 -0.340     318     0.0330 60.55 8.96   0.000 0.000 5.985 5.985 0.000 5.985 5.985 0.000
WS7MET_125 2018-01-19 21:50:00 125 30483.0 -0.253 -0.217 -0.137 -0.256 -0.189 100.000 100.000 -0.253 -0.257 0.00 0.00 3.823 4.448 4.847 4.850 13.080 -0.170 -0.184 -0.098 -0.204 -0.146 -0.170 -0.204 0.00 0.00 0.6600   -0.306 -0.252 -0.165 -0.307 -0.233 -0.306 -0.307     318     0.2290 61.21 17.65   0.000 0.000 5.996 5.996 0.000 5.995 5.995 0.000
WS7MET_125 2018-01-19 21:45:00 125 30483.0 -0.269 -0.211 -0.132 -0.264 -0.182 100.000 100.000 -0.269 -0.264 0.00 0.00 3.823 4.450 4.847 4.852 13.080 -0.238 -0.184 -0.107 -0.170 -0.146 -0.238 -0.170 0.00 0.00 2.2150   -0.341 -0.233 -0.155 -0.307 -0.213 -0.341 -0.307     318     0.4170 345.40 73.84   0.000 0.000 5.989 5.989 -0.000 5.991 5.991 0.000
WS7MET_125 2018-01-19 21:40:00 125 30483.0 -0.260 -0.187 -0.103 -0.218 -0.168 100.000 100.000 -0.261 -0.218 0.00 0.00 3.823 4.450 4.847 4.849 13.090 -0.204 -0.184 -0.088 -0.136 -0.155 -0.204 -0.136 0.00 0.00 0.7510   -0.341 -0.194 -0.117 -0.272 -0.194 -0.341 -0.273     318     0.1480 30.52 12.92   0.000 0.000 5.993 5.993 0.000 6.012 6.012 0.000
WS7MET_125 2018-01-19 21:35:00 125 30483.0 -0.252 -0.183 -0.089 -0.220 -0.160 100.000 100.000 -0.252 -0.220 0.00 0.00 3.824 4.450 4.847 4.849 13.090 -0.170 -0.165 -0.088 -0.170 -0.146 -0.170 -0.170 0.00 0.00 0.0000   -0.375 -0.184 -0.098 -0.307 -0.175 -0.375 -0.307     318     0.0000 0.00 0.00   0.000 0.000 5.997 5.997 0.000 6.011 6.011 -0.000
WS7MET_125 2018-01-19 21:30:00 125 30483.0 -0.271 -0.183 -0.091 -0.226 -0.139 100.000 100.000 -0.271 -0.227 0.00 0.00 3.829 4.450 4.847 4.848 13.090 -0.204 -0.165 -0.069 -0.170 -0.126 -0.204 -0.170 0.00 0.00 0.0000   -0.341 -0.223 -0.126 -0.307 -0.165 -0.341 -0.307     318     0.0000 0.00 0.00   0.000 0.000 5.988 5.988 0.000 6.008 6.008 0.000
WS7MET_125 2018-01-19 21:25:00 125 30483.0 -0.235 -0.196 -0.108 -0.237 -0.174 100.000 100.000 -0.235 -0.237 0.00 0.00 3.840 4.450 4.847 4.848 13.100 -0.170 -0.165 -0.078 -0.204 -0.146 -0.170 -0.205 0.00 0.00 0.9870   -0.307 -0.223 -0.126 -0.307 -0.194 -0.307 -0.307     318     0.1560 118.60 40.38   0.000 0.000 6.004 6.004 -0.000 6.003 6.003 0.000
WS7MET_125 2018-01-19 21:20:00 125 30483.0 -0.237 -0.165 -0.082 -0.216 -0.138 100.000 100.000 -0.237 -0.216 0.00 0.00 3.842 4.450 4.847 4.848 13.100 -0.170 -0.165 -0.069 -0.136 -0.126 -0.170 -0.136 0.00 0.00 0.0000   -0.306 -0.165 -0.088 -0.307 -0.146 -0.307 -0.307     318     0.0000 0.00 0.00   0.000 0.000 6.003 6.003 0.000 6.012 6.012 -0.000
WS7MET_125 2018-01-19 21:15:00 125 30483.0 -0.225 -0.165 -0.083 -0.202 -0.138 100.000 100.000 -0.225 -0.203 0.00 0.00 3.842 4.450 4.847 4.848 13.100 -0.136 -0.146 -0.069 -0.136 -0.126 -0.136 -0.136 0.00 0.00 0.0000   -0.307 -0.184 -0.088 -0.273 -0.165 -0.307 -0.273     318     0.0000 0.00 0.00   0.000 0.000 6.009 6.009 0.000 6.019 6.018 0.000
WS7MET_125 2018-01-19 21:10:00 125 30483.0 -0.240 -0.174 -0.090 -0.221 -0.136 100.000 100.000 -0.240 -0.221 0.00 0.00 3.842 4.453 4.847 4.844 13.110 -0.136 -0.165 -0.078 -0.136 -0.117 -0.136 -0.136 0.00 0.00 0.0000   -0.307 -0.184 -0.107 -0.273 -0.155 -0.307 -0.273     318     0.0000 0.00 0.00   0.000 0.000 6.002 6.002 -0.000 6.010 6.010 0.000
WS7MET_125 2018-01-19 21:05:00 125 30483.0 -0.268 -0.177 -0.098 -0.223 -0.134 100.000 100.000 -0.268 -0.224 0.00 0.00 3.842 4.458 4.847 4.843 13.110 -0.171 -0.165 -0.088 -0.102 -0.117 -0.171 -0.102 0.00 0.00 0.0000   -0.341 -0.184 -0.107 -0.307 -0.165 -0.341 -0.307     318     0.0000 0.00 0.00   0.000 0.000 5.990 5.990 0.000 6.009 6.009 0.000
WS7MET_125 2018-01-19 21:00:00 125 30483.0 -0.293 -0.224 -0.140 -0.244 -0.175 100.000 100.000 -0.294 -0.244 0.00 0.00 3.846 4.460 4.847 4.841 13.120 -0.239 -0.194 -0.107 -0.170 -0.126 -0.239 -0.171 0.00 0.00 0.0000   -0.409 -0.242 -0.165 -0.307 -0.223 -0.410 -0.307     318     0.0000 0.00 0.00   0.000 0.000 5.979 5.978 0.000 6.000 6.000 0.000
WS7MET_125 2018-01-19 20:55:00 125 30483.0 -0.259 -0.183 -0.095 -0.237 -0.136 100.000 100.000 -0.259 -0.237 0.00 0.00 3.855 4.461 4.847 4.840 13.120 -0.204 -0.165 -0.069 -0.136 -0.117 -0.205 -0.136 0.00 0.00 0.0000   -0.307 -0.204 -0.126 -0.307 -0.165 -0.307 -0.307     318     0.0000 0.00 0.00   0.000 0.000 5.994 5.994 0.000 6.003 6.003 0.000
WS7MET_125 2018-01-19 20:50:00 125 30483.0 -0.279 -0.209 -0.124 -0.248 -0.162 100.000 100.000 -0.279 -0.249 0.00 0.00 3.860 4.464 4.847 4.840 13.120 -0.170 -0.184 -0.107 -0.136 -0.126 -0.170 -0.136 0.00 0.00 0.0000   -0.341 -0.223 -0.146 -0.341 -0.184 -0.341 -0.341     318     0.0000 0.00 0.00   0.000 0.000 5.985 5.985 0.000 5.998 5.998 0.000
WS7MET_125 2018-01-19 20:45:00 125 30483.0 -0.294 -0.228 -0.142 -0.272 -0.173 100.000 100.000 -0.295 -0.272 0.00 0.00 3.862 4.470 4.847 4.840 13.130 -0.238 -0.223 -0.126 -0.204 -0.155 -0.238 -0.204 0.00 0.00 0.0000   -0.375 -0.242 -0.165 -0.341 -0.204 -0.375 -0.341     318     0.0000 0.00 0.00   0.000 0.000 5.978 5.978 0.000 5.988 5.988 0.000
WS7MET_125 2018-01-19 20:40:00 125 30483.0 -0.256 -0.218 -0.137 -0.234 -0.181 100.000 100.000 -0.256 -0.234 0.00 0.00 3.862 4.470 4.847 4.841 13.130 -0.171 -0.204 -0.107 -0.170 -0.155 -0.171 -0.171 0.00 0.00 0.0000   -0.341 -0.242 -0.165 -0.341 -0.213 -0.341 -0.341     318     0.0000 0.00 0.00   0.000 0.000 5.995 5.995 0.000 6.005 6.005 0.000
WS7MET_125 2018-01-19 20:35:00 125 30483.0 -0.256 -0.183 -0.096 -0.203 -0.146 100.000 100.000 -0.256 -0.203 0.00 0.00 3.862 4.470 4.847 4.839 13.130 -0.204 -0.165 -0.088 -0.136 -0.117 -0.205 -0.136 0.00 0.00 0.0000   -0.341 -0.204 -0.126 -0.273 -0.184 -0.341 -0.273     318     0.0000 0.00 0.00   0.000 0.000 5.995 5.995 0.000 6.018 6.018 0.000
WS7MET_125 2018-01-19 20:30:00 125 30483.0 -0.247 -0.174 -0.086 -0.203 -0.137 100.000 100.000 -0.247 -0.203 0.00 0.00 3.862 4.470 4.847 4.840 13.140 -0.170 -0.165 -0.069 -0.170 -0.117 -0.170 -0.170 0.00 0.00 0.0000   -0.341 -0.184 -0.107 -0.239 -0.155 -0.341 -0.239     318     0.0000 0.00 0.00   0.000 0.000 5.999 5.999 0.000 6.018 6.018 0.000
WS7MET_125 2018-01-19 20:25:00 125 30483.0 -0.221 -0.164 -0.073 -0.186 -0.127 100.000 100.000 -0.222 -0.186 0.00 0.00 3.862 4.470 4.847 4.840 13.140 -0.136 -0.146 -0.049 -0.102 -0.107 -0.136 -0.102 0.00 0.00 0.5680   -0.306 -0.184 -0.098 -0.272 -0.165 -0.307 -0.272     318     0.1070 158.10 50.35   0.000 0.000 6.010 6.010 0.000 6.026 6.026 0.000
WS7MET_125 2018-01-19 20:20:00 125 30483.0 -0.227 -0.165 -0.073 -0.201 -0.121 100.000 100.000 -0.227 -0.201 0.00 0.00 3.863 4.474 4.848 4.839 13.140 -0.136 -0.146 -0.069 -0.102 -0.107 -0.136 -0.102 0.00 0.00 0.5100   -0.307 -0.184 -0.088 -0.273 -0.146 -0.307 -0.273     318     0.1430 33.12 8.36   0.000 0.000 6.008 6.008 0.000 6.019 6.019 0.000
WS7MET_125 2018-01-19 20:15:00 125 30483.0 -0.269 -0.181 -0.091 -0.257 -0.138 100.000 100.000 -0.269 -0.257 0.00 0.00 3.873 4.481 4.848 4.840 13.140 -0.238 -0.165 -0.088 -0.204 -0.126 -0.238 -0.204 0.00 0.00 0.0000   -0.341 -0.184 -0.098 -0.340 -0.155 -0.341 -0.341     318     0.0000 0.00 0.00   0.000 0.000 5.989 5.989 -0.000 5.995 5.995 0.000
WS7MET_125 2018-01-19 20:10:00 125 30483.0 -0.250 -0.190 -0.106 -0.234 -0.143 100.000 100.000 -0.250 -0.235 0.00 0.00 3.881 4.488 4.847 4.838 13.160 -0.204 -0.184 -0.088 -0.169 -0.126 -0.204 -0.169 0.00 0.00 0.7380   -0.340 -0.204 -0.126 -0.306 -0.155 -0.341 -0.306     318     0.1620 22.22 27.76   0.000 0.000 5.998 5.998 0.000 6.005 6.004 0.000
WS7MET_125 2018-01-19 20:05:00 125 30483.0 -0.233 -0.169 -0.082 -0.180 -0.128 100.000 100.000 -0.233 -0.180 0.00 0.00 3.881 4.489 4.847 4.838 13.160 -0.170 -0.146 -0.049 -0.102 -0.107 -0.170 -0.102 0.00 0.00 0.8950   -0.307 -0.223 -0.126 -0.272 -0.165 -0.307 -0.272     318     0.3940 70.64 24.73   0.000 0.000 6.005 6.005 0.000 6.028 6.028 0.000
WS7MET_125 2018-01-19 20:00:00 125 30483.0 -0.211 -0.152 -0.056 -0.192 -0.112 100.000 100.000 -0.211 -0.192 0.00 0.00 3.881 4.489 4.847 4.837 13.170 -0.170 -0.146 -0.049 -0.102 -0.098 -0.170 -0.102 0.00 0.00 0.7970   -0.273 -0.165 -0.069 -0.272 -0.136 -0.273 -0.273     318     0.2240 70.69 22.52   0.000 0.000 6.015 6.015 0.000 6.023 6.023 0.000
WS7MET_125 2018-01-19 19:55:00 125 30483.0 -0.254 -0.168 -0.079 -0.199 -0.121 100.000 100.000 -0.254 -0.199 0.00 0.00 3.881 4.489 4.847 4.837 13.170 -0.204 -0.146 -0.049 -0.136 -0.098 -0.204 -0.136 0.00 0.00 0.9730   -0.341 -0.184 -0.107 -0.307 -0.155 -0.341 -0.307     318     0.4250 44.56 61.85   0.000 0.000 5.996 5.996 0.000 6.020 6.020 0.000
WS7MET_125 2018-01-19 19:50:00 125 30483.0 -0.250 -0.185 -0.100 -0.226 -0.137 100.000 100.000 -0.250 -0.227 0.00 0.00 3.882 4.489 4.847 4.838 13.170 -0.204 -0.175 -0.088 -0.136 -0.117 -0.204 -0.136 0.00 0.00 0.8230   -0.307 -0.194 -0.107 -0.307 -0.155 -0.307 -0.307     318     0.1960 75.38 11.05   0.000 0.000 5.998 5.998 0.000 6.008 6.008 0.000
WS7MET_125 2018-01-19 19:45:00 125 30483.0 -0.259 -0.196 -0.101 -0.204 -0.138 100.000 100.000 -0.259 -0.204 0.00 0.00 3.886 4.489 4.848 4.837 13.180 -0.170 -0.184 -0.088 -0.102 -0.117 -0.170 -0.102 0.00 0.00 1.2870   -0.341 -0.204 -0.107 -0.273 -0.155 -0.341 -0.273     318     0.3200 55.80 59.69   0.000 0.000 5.994 5.994 0.000 6.018 6.018 0.000
WS7MET_125 2018-01-19 19:40:00 125 30483.0 -0.201 -0.134 -0.039 -0.153 -0.099 100.000 100.000 -0.201 -0.153 0.00 0.00 3.895 4.489 4.848 4.837 13.180 -0.136 -0.126 -0.030 -0.068 -0.088 -0.136 -0.068 0.00 0.00 1.2090   -0.239 -0.184 -0.088 -0.238 -0.136 -0.239 -0.239     318     0.3940 67.50 49.43   0.000 0.000 6.019 6.019 0.000 6.040 6.040 0.000
WS7MET_125 2018-01-19 19:35:00 125 30483.0 -0.215 -0.136 -0.042 -0.186 -0.097 100.000 100.000 -0.215 -0.186 0.00 0.00 3.900 4.492 4.847 4.837 13.190 -0.136 -0.126 -0.030 -0.102 -0.088 -0.137 -0.102 0.00 0.00 1.0390   -0.273 -0.146 -0.059 -0.273 -0.117 -0.273 -0.273     318     0.3910 62.51 15.11   0.000 0.000 6.013 6.013 0.000 6.026 6.026 0.000
WS7MET_125 2018-01-19 19:30:00 125 30483.0 -0.217 -0.141 -0.045 -0.179 -0.097 100.000 100.000 -0.217 -0.179 0.00 0.00 3.900 4.494 4.848 4.837 13.190 -0.171 -0.126 -0.030 -0.136 -0.088 -0.171 -0.137 0.00 0.00 0.7580   -0.273 -0.165 -0.069 -0.239 -0.107 -0.273 -0.239     318     0.2380 61.95 17.72   0.000 0.000 6.012 6.012 0.000 6.029 6.029 0.000
WS7MET_125 2018-01-19 19:25:00 125 30483.0 -0.273 -0.189 -0.097 -0.201 -0.124 100.000 100.000 -0.273 -0.201 0.00 0.00 3.900 4.500 4.848 4.837 13.200 -0.205 -0.165 -0.069 -0.102 -0.107 -0.205 -0.102 0.00 0.00 0.5550   -0.341 -0.204 -0.126 -0.307 -0.146 -0.341 -0.307     318     0.1560 115.40 25.53   0.000 0.000 5.988 5.988 0.000 6.019 6.019 0.000
WS7MET_125 2018-01-19 19:20:00 125 30483.0 -0.240 -0.172 -0.076 -0.213 -0.108 100.000 100.000 -0.241 -0.213 0.00 0.00 3.900 4.506 4.849 4.837 13.200 -0.136 -0.165 -0.069 -0.136 -0.088 -0.137 -0.136 0.00 0.00 1.2870   -0.341 -0.184 -0.098 -0.341 -0.136 -0.341 -0.341     318     0.2030 287.60 48.38   0.000 0.000 6.002 6.002 -0.000 6.014 6.014 0.000
WS7MET_125 2018-01-19 19:15:00 125 30483.0 -0.213 -0.159 -0.066 -0.165 -0.112 100.000 100.000 -0.213 -0.165 0.00 0.00 3.900 4.506 4.852 4.839 13.200 -0.136 -0.126 -0.030 -0.102 -0.088 -0.136 -0.102 0.00 0.00 0.8620   -0.273 -0.184 -0.098 -0.239 -0.136 -0.273 -0.239     318     0.2610 309.00 55.55   0.000 0.000 6.014 6.014 0.000 6.035 6.035 0.000
WS7MET_125 2018-01-19 19:10:00 125 30483.0 -0.206 -0.123 -0.024 -0.148 -0.084 100.000 100.000 -0.206 -0.148 0.00 0.00 3.901 4.508 4.851 4.837 13.210 -0.136 -0.107 -0.020 -0.034 -0.078 -0.136 -0.034 0.00 0.00 0.7910   -0.307 -0.126 -0.030 -0.204 -0.098 -0.307 -0.205     318     0.3100 72.81 85.10   0.000 0.000 6.017 6.017 0.000 6.042 6.042 0.000
WS7MET_125 2018-01-19 19:05:00 125 30483.0 -0.203 -0.130 -0.033 -0.155 -0.087 100.000 100.000 -0.203 -0.155 0.00 0.00 3.903 4.508 4.853 4.837 13.220 -0.136 -0.126 -0.030 -0.068 -0.078 -0.136 -0.068 0.00 0.00 0.7120   -0.273 -0.146 -0.040 -0.205 -0.098 -0.273 -0.205     318     0.3460 49.17 68.56   0.000 0.000 6.018 6.018 0.000 6.039 6.039 0.000
WS7MET_125 2018-01-19 19:00:00 125 30483.0 -0.223 -0.151 -0.052 -0.167 -0.101 100.000 100.000 -0.224 -0.167 0.00 0.00 3.914 4.508 4.853 4.837 13.220 -0.136 -0.126 -0.030 -0.068 -0.078 -0.136 -0.068 0.00 0.00 0.8430   -0.307 -0.165 -0.069 -0.273 -0.126 -0.307 -0.273     318     0.2680 80.90 73.55   0.000 0.000 6.009 6.009 0.000 6.034 6.034 0.000
WS7MET_125 2018-01-19 18:55:00 125 30483.0 -0.218 -0.126 -0.027 -0.145 -0.084 100.000 100.000 -0.218 -0.145 0.00 0.00 3.920 4.508 4.854 4.837 13.230 -0.170 -0.117 -0.020 -0.068 -0.069 -0.170 -0.068 0.00 0.00 0.6270   -0.273 -0.126 -0.030 -0.205 -0.098 -0.273 -0.205     318     0.2330 69.54 11.12   0.000 0.000 6.012 6.012 0.000 6.044 6.044 0.000
WS7MET_125 2018-01-19 18:50:00 125 30483.0 -0.220 -0.137 -0.041 -0.146 -0.090 100.000 100.000 -0.220 -0.146 0.00 0.00 3.920 4.509 4.851 4.837 13.230 -0.102 -0.126 -0.030 -0.034 -0.078 -0.102 -0.034 0.00 0.00 0.7510   -0.307 -0.146 -0.059 -0.239 -0.107 -0.307 -0.239     318     0.2250 109.70 56.10   0.000 0.000 6.011 6.011 -0.000 6.043 6.043 0.000
WS7MET_125 2018-01-19 18:45:00 125 30483.0 -0.193 -0.124 -0.034 -0.140 -0.098 100.000 100.000 -0.193 -0.140 0.00 0.00 3.920 4.515 4.854 4.837 13.240 -0.137 -0.107 -0.020 -0.068 -0.069 -0.137 -0.068 0.00 0.00 0.6470   -0.273 -0.146 -0.059 -0.239 -0.126 -0.273 -0.239     318     0.0820 165.90 36.10   0.000 0.000 6.023 6.023 0.000 6.046 6.046 0.000
WS7MET_125 2018-01-19 18:40:00 125 30483.0 -0.200 -0.108 -0.019 -0.155 -0.071 100.000 100.000 -0.200 -0.155 0.00 0.00 3.920 4.524 4.853 4.837 13.240 -0.137 -0.107 -0.011 -0.102 -0.069 -0.137 -0.102 0.00 0.00 0.8490   -0.239 -0.117 -0.030 -0.239 -0.088 -0.239 -0.239     318     0.3300 65.23 16.17   0.000 0.000 6.019 6.019 0.000 6.039 6.039 0.000
WS7MET_125 2018-01-19 18:35:00 125 30483.0 -0.208 -0.134 -0.038 -0.160 -0.080 100.000 100.000 -0.208 -0.160 0.00 0.00 3.920 4.526 4.856 4.838 13.250 -0.137 -0.117 -0.020 -0.102 -0.069 -0.137 -0.102 0.00 0.00 0.7580   -0.307 -0.146 -0.049 -0.239 -0.088 -0.307 -0.239     318     0.2960 59.11 34.69   0.000 0.000 6.016 6.016 0.000 6.037 6.037 0.000
WS7MET_125 2018-01-19 18:30:00 125 30483.0 -0.179 -0.131 -0.046 -0.162 -0.095 100.000 100.000 -0.179 -0.162 0.00 0.00 3.924 4.528 4.855 4.837 13.250 -0.102 -0.107 -0.011 -0.068 -0.078 -0.102 -0.068 0.00 0.00 1.6010   -0.239 -0.155 -0.069 -0.205 -0.107 -0.239 -0.205     318     0.3930 174.30 70.61   0.000 0.000 6.029 6.029 0.000 6.036 6.036 0.000
WS7MET_125 2018-01-19 18:25:00 125 30483.0 -0.205 -0.111 -0.016 -0.150 -0.073 100.000 100.000 -0.205 -0.150 0.00 0.00 3.937 4.528 4.857 4.837 13.260 -0.137 -0.107 -0.011 -0.034 -0.069 -0.137 -0.034 0.00 0.00 1.0000   -0.273 -0.126 -0.030 -0.205 -0.088 -0.273 -0.205     318     0.3650 359.00 76.78   0.000 0.000 6.017 6.017 0.000 6.041 6.041 0.000
WS7MET_125 2018-01-19 18:20:00 125 30483.0 -0.229 -0.141 -0.048 -0.157 -0.087 100.000 100.000 -0.229 -0.157 0.00 0.00 3.939 4.528 4.856 4.837 13.260 -0.137 -0.126 -0.030 -0.068 -0.069 -0.137 -0.068 0.00 0.00 0.5680   -0.307 -0.165 -0.069 -0.205 -0.117 -0.307 -0.205     318     0.0940 355.10 22.77   0.000 0.000 6.007 6.007 0.000 6.038 6.038 0.000
WS7MET_125 2018-01-19 18:15:00 125 30483.0 -0.201 -0.141 -0.041 -0.152 -0.099 100.000 100.000 -0.201 -0.152 0.00 0.00 3.938 4.528 4.857 4.838 13.260 -0.102 -0.107 -0.011 -0.068 -0.078 -0.102 -0.068 0.00 0.00 0.6470   -0.273 -0.165 -0.069 -0.239 -0.117 -0.273 -0.239     318     0.2080 127.00 62.83   0.000 0.000 6.019 6.019 0.000 6.041 6.041 -0.000
WS7MET_125 2018-01-19 18:10:00 125 30483.0 -0.181 -0.115 -0.020 -0.126 -0.085 100.000 100.000 -0.181 -0.126 0.00 0.00 3.939 4.528 4.859 4.837 13.280 -0.102 -0.107 -0.011 -0.068 -0.059 -0.102 -0.068 0.00 0.00 0.7450   -0.239 -0.126 -0.030 -0.205 -0.107 -0.239 -0.205     318     0.1670 52.15 47.43   0.000 0.000 6.028 6.028 0.000 6.052 6.052 0.000
WS7MET_125 2018-01-19 18:05:00 125 30483.0 -0.171 -0.088 0.006 -0.128 -0.064 100.000 100.000 -0.171 -0.128 0.00 0.00 3.939 4.528 4.861 4.837 13.280 -0.102 -0.088 0.009 -0.068 -0.059 -0.102 -0.068 0.00 0.00 0.6660   -0.205 -0.088 -0.011 -0.171 -0.078 -0.205 -0.171     318     0.1390 69.40 7.65   0.000 0.000 6.032 6.032 0.000 6.051 6.051 0.000
WS7MET_125 2018-01-19 18:00:00 125 30483.0 -0.176 -0.094 -0.003 -0.123 -0.065 100.000 100.000 -0.176 -0.123 0.00 0.00 3.939 4.531 4.862 4.837 13.290 -0.102 -0.088 0.009 -0.068 -0.059 -0.102 -0.068 0.00 0.00 1.1690   -0.307 -0.107 -0.020 -0.205 -0.078 -0.307 -0.205     318     0.2580 298.90 10.80   0.000 0.000 6.030 6.030 -0.000 6.053 6.053 -0.000
WS7MET_125 2018-01-19 17:55:00 125 30483.0 -0.188 -0.107 -0.019 -0.140 -0.076 100.000 100.000 -0.188 -0.140 0.00 0.00 3.941 4.537 4.862 4.837 13.300 -0.136 -0.107 -0.011 -0.102 -0.059 -0.136 -0.102 0.00 0.00 1.1890   -0.273 -0.107 -0.030 -0.205 -0.088 -0.273 -0.205     318     0.3020 44.42 46.09   0.000 0.000 6.025 6.025 0.000 6.046 6.046 0.000
WS7MET_125 2018-01-19 17:50:00 125 30483.0 -0.187 -0.113 -0.024 -0.143 -0.094 100.000 100.000 -0.188 -0.143 0.00 0.00 3.955 4.538 4.866 4.837 13.300 -0.102 -0.098 -0.011 -0.102 -0.078 -0.102 -0.102 0.00 0.00 0.5750   -0.273 -0.126 -0.030 -0.239 -0.107 -0.273 -0.239     318     0.2250 263.80 15.35   0.000 0.000 6.025 6.025 0.000 6.045 6.045 0.000
WS7MET_125 2018-01-19 17:45:00 125 30483.0 -0.167 -0.092 -0.006 -0.114 -0.071 100.000 100.000 -0.167 -0.114 0.00 0.00 3.958 4.538 4.865 4.837 13.310 -0.102 -0.088 0.009 -0.068 -0.059 -0.102 -0.068 0.00 0.00 1.5940   -0.238 -0.107 -0.011 -0.204 -0.088 -0.239 -0.205     318     0.4220 52.38 53.93   0.000 0.000 6.034 6.034 0.000 6.057 6.057 0.000
WS7MET_125 2018-01-19 17:40:00 125 30483.0 -0.157 -0.096 -0.004 -0.104 -0.086 100.000 100.000 -0.157 -0.104 0.00 0.00 3.958 4.546 4.866 4.837 13.320 -0.102 -0.088 0.009 0.001 -0.059 -0.102 0.001 0.00 0.00 0.6930   -0.239 -0.107 -0.011 -0.171 -0.098 -0.239 -0.171     318     0.2500 204.10 87.60   0.000 0.000 6.038 6.038 0.000 6.062 6.062 0.000
WS7MET_125 2018-01-19 17:35:00 125 30483.0 -0.154 -0.081 0.010 -0.089 -0.065 100.000 100.000 -0.154 -0.089 0.00 0.00 3.958 4.547 4.866 4.837 13.320 -0.068 -0.069 0.018 -0.034 -0.049 -0.068 -0.034 0.00 0.00 0.8230   -0.239 -0.088 0.009 -0.171 -0.078 -0.239 -0.171     318     0.3790 71.79 54.81   0.000 0.000 6.040 6.040 0.000 6.068 6.068 -0.000
WS7MET_125 2018-01-19 17:30:00 125 30483.0 -0.140 -0.071 0.017 -0.096 -0.049 100.000 100.000 -0.140 -0.096 0.00 0.00 3.958 4.547 4.866 4.837 13.330 -0.068 -0.069 0.028 0.000 -0.040 -0.068 0.000 0.00 0.00 1.4050   -0.239 -0.088 0.009 -0.171 -0.069 -0.239 -0.171     318     0.5120 73.72 29.99   0.000 0.000 6.046 6.046 0.000 6.065 6.065 0.000
WS7MET_125 2018-01-19 17:25:00 125 30483.0 -0.159 -0.079 0.010 -0.097 -0.063 100.000 100.000 -0.159 -0.097 0.00 0.00 3.963 4.547 4.866 4.837 13.340 -0.137 -0.069 0.018 -0.034 -0.049 -0.137 -0.034 0.00 0.00 0.3590   -0.205 -0.088 0.009 -0.171 -0.069 -0.205 -0.171     318     0.0570 75.57 1.42   0.000 0.000 6.037 6.037 0.000 6.065 6.065 0.000
WS7MET_125 2018-01-19 17:20:00 125 30483.0 -0.143 -0.069 0.025 -0.092 -0.055 100.000 100.000 -0.143 -0.092 0.00 0.00 3.971 4.548 4.866 4.837 13.350 -0.102 -0.069 0.028 0.000 -0.049 -0.102 0.000 0.00 0.00 0.5360   -0.205 -0.069 0.018 -0.171 -0.069 -0.205 -0.171     318     0.1860 350.00 54.92   0.000 0.000 6.045 6.045 0.000 6.067 6.067 0.000
WS7MET_125 2018-01-19 17:15:00 125 30483.0 -0.116 -0.069 0.025 -0.096 -0.051 100.000 100.000 -0.116 -0.096 0.00 0.00 3.975 4.550 4.865 4.837 13.350 -0.068 -0.069 0.028 0.000 -0.040 -0.068 0.000 0.00 0.00 0.8750   -0.205 -0.069 0.009 -0.171 -0.059 -0.205 -0.171     318     0.3680 13.40 70.14   0.000 0.000 6.056 6.056 0.000 6.065 6.065 0.000
WS7MET_125 2018-01-19 17:10:00 125 30483.0 -0.140 -0.069 0.027 -0.085 -0.060 100.000 100.000 -0.140 -0.085 0.00 0.00 3.977 4.558 4.866 4.837 13.360 -0.034 -0.069 0.028 -0.034 -0.049 -0.034 -0.034 0.00 0.00 0.6860   -0.205 -0.069 0.009 -0.137 -0.069 -0.205 -0.137     318     0.1950 63.37 22.00   0.000 0.000 6.046 6.046 0.000 6.070 6.070 0.000
WS7MET_125 2018-01-19 17:05:00 125 30483.0 -0.135 -0.063 0.031 -0.084 -0.055 100.000 100.000 -0.135 -0.084 0.00 0.00 3.977 4.559 4.866 4.837 13.370 -0.068 -0.049 0.047 -0.034 -0.040 -0.068 -0.034 0.00 0.00 0.8950   -0.239 -0.069 0.028 -0.137 -0.069 -0.239 -0.137     318     0.4410 58.99 33.29   0.000 0.000 6.048 6.048 0.000 6.071 6.071 0.000
WS7MET_125 2018-01-19 17:00:00 125 30483.0 -0.137 -0.056 0.038 -0.082 -0.064 100.000 100.000 -0.137 -0.082 0.00 0.00 3.977 4.563 4.866 4.837 13.380 -0.068 -0.049 0.047 -0.034 -0.040 -0.068 -0.034 0.00 0.00 0.8490   -0.205 -0.069 0.028 -0.137 -0.088 -0.205 -0.137     318     0.1150 4.26 47.52   0.000 0.000 6.047 6.047 0.000 6.071 6.071 0.000
WS7MET_125 2018-01-19 16:55:00 125 30483.0 -0.121 -0.035 0.054 -0.080 -0.041 100.000 100.000 -0.121 -0.080 0.00 0.40 3.977 4.565 4.866 4.837 13.390 -0.068 -0.030 0.057 0.000 -0.030 -0.068 0.000 0.00 1.34 2.7770   -0.171 -0.049 0.047 -0.137 -0.059 -0.171 -0.137     318     0.6270 287.10 86.40   0.000 0.000 6.054 6.054 0.000 6.072 6.072 0.000
WS7MET_125 2018-01-19 16:50:00 125 30483.0 -0.089 -0.029 0.070 -0.053 -0.056 100.000 100.000 -0.089 -0.053 0.00 2.42 3.977 4.566 4.866 4.837 13.400 -0.034 0.009 0.096 0.000 -0.049 -0.034 0.000 0.00 2.69 1.0190   -0.205 -0.049 0.057 -0.102 -0.069 -0.205 -0.102     318     0.4170 67.80 46.24   0.000 0.000 6.068 6.068 -0.000 6.084 6.084 0.000
WS7MET_125 2018-01-19 16:45:00 125 30483.0 -0.075 0.021 0.114 -0.015 -0.011 100.000 100.000 -0.075 -0.015 0.00 1.34 3.982 4.566 4.866 4.837 13.410 0.000 0.047 0.134 0.068 0.018 0.000 0.068 0.00 1.34 1.3390   -0.171 0.009 0.105 -0.068 -0.040 -0.171 -0.068     318     0.4850 84.00 27.30   0.000 0.000 6.075 6.075 0.000 6.101 6.101 0.000
WS7MET_125 2018-01-19 16:40:00 125 30483.0 -0.087 0.027 0.123 -0.031 0.000 100.000 100.000 -0.087 -0.031 0.00 1.34 3.993 4.566 4.866 4.837 13.420 0.000 0.047 0.144 0.068 0.018 0.000 0.068 0.00 1.34 2.1820   -0.171 0.009 0.105 -0.102 -0.030 -0.171 -0.102     318     0.7790 252.90 55.76   0.000 0.000 6.069 6.069 -0.000 6.094 6.094 0.000
WS7MET_125 2018-01-19 16:35:00 125 30483.0 -0.080 0.009 0.105 -0.043 -0.022 100.000 100.000 -0.080 -0.043 0.00 1.81 3.997 4.568 4.866 4.837 13.430 -0.034 0.009 0.105 0.068 -0.011 -0.034 0.068 0.00 2.69 1.0710   -0.205 0.009 0.105 -0.137 -0.030 -0.205 -0.137     318     0.4450 321.90 59.16   0.000 0.000 6.072 6.072 0.000 6.089 6.089 0.000
WS7MET_125 2018-01-19 16:30:00 125 30483.0 -0.085 0.009 0.109 -0.041 -0.046 100.000 100.000 -0.085 -0.041 1.54 4.57 3.997 4.572 4.866 4.837 13.440 0.000 0.009 0.125 0.034 -0.030 0.000 0.034 2.69 6.72 1.4110   -0.137 0.009 0.105 -0.102 -0.078 -0.137 -0.102     318     0.6090 263.90 77.96   0.000 0.000 6.070 6.070 0.000 6.090 6.090 0.000
WS7MET_125 2018-01-19 16:25:00 125 30483.0 -0.060 0.036 0.133 -0.022 -0.033 100.000 100.000 -0.060 -0.022 2.69 8.12 3.997 4.576 4.866 4.837 13.460 0.000 0.047 0.144 0.068 -0.001 0.000 0.068 4.03 10.74 1.3920   -0.137 0.009 0.115 -0.102 -0.069 -0.137 -0.102     318     0.5480 26.51 85.30   0.000 0.000 6.081 6.081 -0.000 6.098 6.098 0.000
WS7MET_125 2018-01-19 16:20:00 125 30483.0 -0.085 0.009 0.107 -0.027 -0.042 100.000 100.000 -0.085 -0.027 2.28 7.18 3.998 4.582 4.865 4.837 13.460 -0.034 0.028 0.115 0.068 -0.030 -0.034 0.068 2.69 10.74 2.0250   -0.171 -0.001 0.105 -0.102 -0.059 -0.171 -0.102     318     0.5210 296.60 96.60   0.000 0.000 6.070 6.070 0.000 6.096 6.096 0.000
WS7MET_125 2018-01-19 16:15:00 125 30483.0 -0.051 0.037 0.153 0.017 -0.055 100.000 100.000 -0.051 0.017 1.95 5.91 4.003 4.584 4.866 4.837 13.490 0.034 0.086 0.211 0.102 -0.030 0.034 0.102 2.69 6.72 2.0250   -0.137 0.009 0.105 -0.068 -0.088 -0.137 -0.068     318     0.7090 82.80 59.87   0.000 0.000 6.085 6.085 0.000 6.115 6.115 0.000
WS7MET_125 2018-01-19 16:10:00 125 30483.0 0.014 0.130 0.242 0.065 -0.013 100.000 100.000 0.014 0.065 3.36 10.88 4.011 4.586 4.866 4.837 13.530 0.068 0.163 0.269 0.171 0.009 0.068 0.171 4.03 14.77 0.4830   -0.034 0.096 0.211 0.000 -0.049 -0.034 0.000     318     0.1030 316.90 32.41   0.000 0.000 6.114 6.114 0.000 6.137 6.137 0.000
WS7MET_125 2018-01-19 16:05:00 125 30483.0 -0.020 0.123 0.230 0.068 0.005 100.000 100.000 -0.020 0.068 4.50 18.13 4.016 4.586 4.866 4.837 13.560 0.034 0.144 0.260 0.137 0.009 0.034 0.137 5.37 22.83 1.1370   -0.068 0.105 0.211 0.000 -0.011 -0.068 0.000     318     0.1910 192.40 50.26   0.000 0.000 6.099 6.099 0.000 6.138 6.138 -0.000
WS7MET_125 2018-01-19 16:00:00 125 30483.0 0.009 0.081 0.192 0.058 -0.010 100.000 100.000 0.009 0.058 4.84 19.07 4.016 4.586 4.866 4.837 13.530 0.068 0.105 0.221 0.102 0.009 0.068 0.102 5.37 22.83 0.6080   -0.068 0.067 0.182 -0.034 -0.040 -0.068 -0.034     318     0.2970 59.90 40.16   0.000 0.000 6.112 6.112 0.000 6.134 6.134 0.000
WS7MET_125 2018-01-19 15:55:00 125 30483.0 0.027 0.131 0.243 0.094 -0.013 100.000 100.000 0.027 0.094 2.42 6.92 4.016 4.586 4.866 4.837 13.520 0.102 0.163 0.279 0.137 0.038 0.102 0.137 2.69 9.40 0.2740   -0.034 0.086 0.202 0.000 -0.049 -0.034 0.000     318     0.0190 235.00 28.92   0.000 0.000 6.120 6.120 0.000 6.150 6.150 0.000
WS7MET_125 2018-01-19 15:50:00 125 30483.0 0.053 0.182 0.289 0.130 0.036 100.000 100.000 0.053 0.130 3.83 12.02 4.016 4.586 4.866 4.837 13.550 0.102 0.202 0.298 0.205 0.057 0.102 0.205 4.03 13.43 0.6730   -0.068 0.173 0.279 0.068 0.009 -0.068 0.068     318     0.1490 219.90 69.70   0.000 0.000 6.131 6.131 0.000 6.166 6.166 0.000
WS7MET_125 2018-01-19 15:45:00 125 30483.0 0.084 0.193 0.301 0.171 0.066 100.000 100.000 0.084 0.171 4.70 18.67 4.016 4.593 4.866 4.837 13.600 0.137 0.221 0.327 0.205 0.086 0.137 0.205 6.72 26.86 1.0390   0.034 0.182 0.289 0.102 0.038 0.034 0.102     318     0.2290 289.60 69.42   0.000 0.000 6.145 6.145 0.000 6.184 6.184 0.000
WS7MET_125 2018-01-19 15:40:00 125 30483.0 0.060 0.179 0.289 0.142 0.028 100.000 100.000 0.060 0.142 6.11 23.84 4.016 4.601 4.866 4.837 13.630 0.137 0.202 0.327 0.239 0.047 0.137 0.239 6.72 26.86 1.2150   0.000 0.163 0.260 0.068 -0.011 0.000 0.068     318     0.4030 97.50 69.97   0.000 0.000 6.135 6.135 0.000 6.171 6.171 -0.000
WS7MET_125 2018-01-19 15:35:00 125 30483.0 0.090 0.231 0.345 0.188 0.029 100.000 100.000 0.091 0.188 7.92 30.55 4.021 4.605 4.866 4.837 13.680 0.171 0.260 0.375 0.239 0.038 0.171 0.239 10.74 41.63 1.4110   0.034 0.202 0.318 0.102 -0.001 0.034 0.102     318     0.3860 78.38 67.75   0.000 0.000 6.148 6.148 0.000 6.192 6.192 0.000
WS7MET_125 2018-01-19 15:30:00 125 30483.0 0.080 0.215 0.315 0.140 0.008 100.000 100.000 0.080 0.140 7.18 28.47 4.033 4.605 4.866 4.836 13.590 0.137 0.231 0.337 0.205 0.038 0.137 0.205 10.74 41.63 1.0000   0.000 0.202 0.298 0.068 -0.011 0.000 0.068     318     0.2630 34.02 63.66   0.000 0.000 6.143 6.143 0.000 6.170 6.170 -0.000
WS7MET_125 2018-01-19 15:25:00 125 30483.0 0.150 0.325 0.431 0.230 0.031 100.000 100.000 0.150 0.231 4.30 17.46 4.035 4.605 4.866 4.837 13.580 0.307 0.395 0.510 0.341 0.076 0.307 0.342 5.37 24.17 2.0580   0.034 0.240 0.346 0.102 -0.001 0.034 0.102     318     0.5460 24.12 69.07   0.000 0.000 6.175 6.175 0.000 6.211 6.211 0.000
WS7MET_125 2018-01-19 15:20:00 125 30483.0 0.155 0.351 0.459 0.287 0.030 100.000 100.000 0.155 0.287 7.79 29.95 4.035 4.605 4.866 4.837 13.670 0.205 0.375 0.501 0.341 0.047 0.205 0.342 10.74 42.97 0.6340   0.102 0.318 0.414 0.205 0.009 0.102 0.205     318     0.1770 77.74 53.72   0.000 0.000 6.177 6.177 0.000 6.237 6.237 0.000
WS7MET_125 2018-01-19 15:15:00 125 30483.0 0.106 0.284 0.385 0.244 0.052 100.000 100.000 0.106 0.244 14.71 54.26 4.036 4.605 4.866 4.835 13.830 0.171 0.337 0.443 0.307 0.076 0.171 0.307 16.12 60.43 0.8490   0.034 0.240 0.346 0.171 0.018 0.034 0.171     318     0.4750 82.20 20.42   0.000 0.000 6.155 6.155 -0.000 6.217 6.217 0.000
WS7MET_125 2018-01-19 15:10:00 125 30483.0 0.082 0.247 0.358 0.176 -0.016 100.000 100.000 0.082 0.176 10.41 39.75 4.037 4.605 4.866 4.837 13.620 0.137 0.279 0.395 0.273 0.018 0.137 0.273 13.43 51.03 0.7840   0.034 0.221 0.327 0.102 -0.040 0.034 0.102     318     0.3280 81.20 13.03   0.000 0.000 6.144 6.144 0.000 6.186 6.186 0.000
WS7MET_125 2018-01-19 15:05:00 125 30483.0 0.063 0.236 0.352 0.193 -0.039 100.000 100.000 0.063 0.193 8.53 33.84 4.042 4.606 4.866 4.837 13.600 0.205 0.279 0.375 0.239 -0.001 0.205 0.239 10.74 42.97 0.6080   -0.068 0.182 0.308 0.102 -0.088 -0.068 0.093     318     0.1600 59.64 37.44   0.000 0.000 6.136 6.136 0.000 6.194 6.194 0.000
WS7MET_125 2018-01-19 15:00:00 125 30483.0 0.058 0.245 0.347 0.200 -0.054 100.000 100.000 0.058 0.200 9.40 36.93 4.051 4.611 4.866 4.837 13.650 0.137 0.279 0.395 0.273 -0.030 0.137 0.273 10.74 40.29 0.6660   -0.034 0.202 0.298 0.102 -0.088 -0.034 0.102     318     0.2100 280.80 69.07   0.000 0.000 6.134 6.134 0.000 6.197 6.197 0.000
WS7MET_125 2018-01-19 14:55:00 125 30483.0 -0.005 0.141 0.246 0.137 -0.045 100.000 100.000 -0.005 0.136 14.71 55.06 4.055 4.615 4.866 4.835 13.650 0.102 0.202 0.298 0.239 -0.020 0.102 0.239 18.80 69.83 0.9870   -0.102 0.067 0.173 0.068 -0.069 -0.102 0.064     318     0.3170 47.99 74.14   0.000 0.000 6.106 6.106 0.000 6.169 6.169 0.000
WS7MET_125 2018-01-19 14:50:00 125 30483.0 -0.019 0.034 0.136 0.061 -0.041 100.000 99.700 -0.019 0.021 7.32 30.28 4.055 4.615 4.866 4.833 13.440 0.068 0.067 0.163 0.137 -0.020 0.068 0.071 10.74 41.63 1.8360   -0.102 0.009 0.105 0.000 -0.069 -0.102 -0.066     318     0.8110 130.30 96.80   0.000 0.000 6.099 6.099 0.000 6.135 6.117 0.018
WS7MET_125 2018-01-19 14:45:00 125 30483.0 0.051 0.131 0.250 0.121 0.001 100.000 99.300 0.051 0.028 2.69 7.25 4.055 4.616 4.866 4.831 13.420 0.068 0.182 0.327 0.205 0.018 0.068 0.101 2.69 10.74 1.4180   0.000 0.067 0.182 0.068 -0.030 0.000 -0.031     318     0.7800 274.90 65.05   0.000 0.000 6.131 6.131 0.000 6.162 6.120 0.043
WS7MET_125 2018-01-19 14:40:00 125 30483.0 0.121 0.252 0.415 0.210 -0.013 100.000 99.100 0.121 0.084 3.96 14.44 4.055 4.623 4.866 4.835 13.450 0.205 0.318 0.472 0.341 0.038 0.205 0.223 5.37 21.49 0.8950   0.000 0.182 0.337 0.137 -0.049 0.000 -0.005     318     0.2890 150.50 66.33   0.000 0.000 6.162 6.162 0.000 6.202 6.145 0.056
WS7MET_125 2018-01-19 14:35:00 125 30483.0 0.179 0.326 0.467 0.302 0.012 100.000 98.900 0.179 0.144 7.45 27.66 4.055 4.624 4.866 4.832 13.470 0.273 0.395 0.530 0.375 0.047 0.273 0.210 8.06 29.54 0.9540   0.102 0.269 0.404 0.205 -0.011 0.102 0.058     318     0.2670 68.69 17.70   0.000 0.000 6.188 6.188 0.000 6.243 6.172 0.069
WS7MET_125 2018-01-19 14:30:00 125 30483.0 0.241 0.440 0.598 0.379 0.006 100.000 98.600 0.241 0.187 5.98 23.23 4.055 4.624 4.866 4.828 13.460 0.307 0.510 0.713 0.478 0.018 0.307 0.298 6.72 25.52 0.9150   0.171 0.375 0.510 0.239 -0.001 0.171 0.049     318     0.3190 48.07 42.34   0.000 0.000 6.216 6.216 0.000 6.278 6.191 0.088
WS7MET_125 2018-01-19 14:25:00 125 30483.0 0.333 0.640 0.782 0.548 0.086 100.000 98.800 0.333 0.383 10.14 36.06 4.058 4.625 4.866 4.833 13.540 0.410 0.665 0.819 0.614 0.134 0.410 0.468 13.43 44.32 0.5620   0.239 0.549 0.703 0.478 0.028 0.239 0.298     318     0.1910 26.66 39.19   0.000 0.000 6.257 6.257 -0.000 6.356 6.280 0.076
WS7MET_125 2018-01-19 14:20:00 125 30483.0 0.258 0.575 0.723 0.503 0.065 100.000 98.900 0.258 0.355 17.59 59.43 4.070 4.625 4.866 4.833 13.570 0.341 0.665 0.809 0.614 0.115 0.342 0.468 20.14 65.80 0.7770   0.171 0.482 0.645 0.410 0.009 0.171 0.268     318     0.3280 243.60 82.90   0.000 0.000 6.223 6.223 0.000 6.335 6.267 0.070
WS7MET_125 2018-01-19 14:15:00 125 30483.0 0.237 0.484 0.655 0.459 0.035 100.000 99.000 0.237 0.325 17.86 64.13 4.074 4.631 4.867 4.829 13.450 0.273 0.510 0.703 0.546 0.057 0.273 0.428 21.49 79.23 1.2090   0.205 0.453 0.607 0.375 0.018 0.205 0.234     318     0.5660 67.06 32.17   0.000 0.000 6.214 6.214 0.000 6.315 6.254 0.063
WS7MET_125 2018-01-19 14:10:00 125 30483.0 0.227 0.443 0.614 0.427 0.033 100.000 99.100 0.227 0.306 21.02 75.54 4.074 4.638 4.866 4.830 13.430 0.341 0.472 0.665 0.478 0.067 0.342 0.360 26.86 98.00 1.4240   0.171 0.395 0.539 0.375 0.009 0.171 0.253     318     0.5160 76.02 53.89   0.000 0.000 6.209 6.209 0.000 6.300 6.245 0.057
WS7MET_125 2018-01-19 14:05:00 125 30483.0 0.208 0.368 0.517 0.393 0.038 100.000 99.000 0.208 0.252 19.07 71.98 4.074 4.641 4.866 4.829 13.350 0.307 0.414 0.607 0.478 0.067 0.307 0.326 21.49 83.30 1.1500   0.102 0.289 0.414 0.273 -0.001 0.102 0.103     318     0.3960 79.97 90.30   0.000 0.000 6.201 6.201 0.000 6.285 6.221 0.063
WS7MET_125 2018-01-19 14:00:00 125 30483.0 0.183 0.388 0.545 0.411 0.045 100.000 98.700 0.183 0.231 10.95 43.98 4.074 4.642 4.866 4.827 13.280 0.273 0.453 0.645 0.478 0.057 0.273 0.317 13.43 52.38 1.7900   0.102 0.298 0.424 0.307 0.028 0.102 0.127     318     0.5490 164.90 72.05   0.000 0.000 6.190 6.190 0.000 6.293 6.211 0.082
WS7MET_125 2018-01-19 13:55:00 125 30483.0 0.186 0.417 0.562 0.425 0.018 100.000 98.700 0.186 0.245 15.24 59.69 4.075 4.644 4.866 4.828 13.280 0.273 0.453 0.626 0.512 0.038 0.273 0.327 17.46 67.15 0.9410   0.137 0.375 0.530 0.341 -0.020 0.137 0.166     318     0.2870 38.13 70.84   0.000 0.000 6.191 6.191 0.000 6.299 6.218 0.082
WS7MET_125 2018-01-19 13:50:00 125 30483.0 0.150 0.358 0.481 0.363 0.015 100.000 98.500 0.150 0.154 12.89 51.91 4.083 4.644 4.866 4.828 13.240 0.273 0.395 0.520 0.410 0.038 0.273 0.220 14.77 57.75 1.2350   0.068 0.337 0.443 0.273 -0.011 0.068 0.060     318     0.5030 335.30 72.38   0.000 0.000 6.175 6.175 0.000 6.271 6.177 0.094
WS7MET_125 2018-01-19 13:45:00 125 30483.0 0.200 0.438 0.568 0.457 0.018 100.000 98.100 0.200 0.194 11.48 49.08 4.090 4.644 4.866 4.828 13.210 0.307 0.510 0.645 0.546 0.028 0.307 0.275 14.77 60.43 1.2150   0.137 0.375 0.482 0.341 0.009 0.137 0.099     318     0.6640 71.66 59.44   0.000 0.000 6.197 6.197 0.000 6.314 6.195 0.120
WS7MET_125 2018-01-19 13:40:00 125 30483.0 0.266 0.570 0.709 0.550 0.013 100.000 98.300 0.266 0.308 16.99 66.81 4.093 4.644 4.866 4.827 13.210 0.341 0.645 0.800 0.683 0.047 0.342 0.450 20.14 77.89 1.1430   0.171 0.510 0.645 0.444 -0.020 0.171 0.182     318     0.4260 56.29 69.93   0.000 0.000 6.227 6.227 0.000 6.357 6.246 0.108
WS7MET_125 2018-01-19 13:35:00 125 30483.0 0.232 0.546 0.684 0.585 0.027 100.000 98.600 0.232 0.392 21.62 88.40 4.093 4.644 4.866 4.827 13.160 0.273 0.626 0.800 0.683 0.047 0.273 0.493 26.86 110.10 1.9930   0.171 0.510 0.607 0.512 0.009 0.171 0.289     318     0.7340 294.20 82.80   0.000 0.000 6.212 6.212 0.000 6.373 6.284 0.089
WS7MET_125 2018-01-19 13:30:00 125 30483.0 0.189 0.484 0.633 0.517 -0.013 100.000 98.900 0.190 0.358 19.41 82.30 4.093 4.645 4.866 4.825 13.100 0.239 0.530 0.684 0.648 0.028 0.239 0.497 26.86 111.50 2.0320   0.137 0.443 0.607 0.375 -0.030 0.137 0.215     318     0.5570 11.31 63.05   0.000 0.000 6.192 6.193 0.000 6.341 6.269 0.070
WS7MET_125 2018-01-19 13:25:00 125 30483.0 0.162 0.443 0.638 0.488 -0.027 100.000 98.600 0.162 0.293 16.92 74.40 4.093 4.650 4.866 4.826 13.060 0.205 0.520 0.742 0.580 -0.011 0.205 0.376 21.49 94.00 2.3720   0.068 0.366 0.568 0.410 -0.040 0.068 0.206     318     0.3200 262.50 32.55   0.000 0.000 6.180 6.180 0.000 6.328 6.239 0.089
WS7MET_125 2018-01-19 13:20:00 125 30483.0 0.201 0.508 0.636 0.503 -0.040 100.000 98.600 0.202 0.315 17.66 79.37 4.093 4.653 4.866 4.826 13.030 0.273 0.568 0.723 0.614 -0.020 0.273 0.439 21.49 94.00 1.0780   0.137 0.453 0.568 0.410 -0.049 0.137 0.220     318     0.2290 259.40 38.58   0.000 0.000 6.198 6.198 0.000 6.335 6.249 0.089
WS7MET_125 2018-01-19 13:15:00 125 30483.0 0.155 0.500 0.574 0.444 -0.067 100.000 98.700 0.155 0.260 13.77 64.13 4.098 4.654 4.867 4.824 12.990 0.205 0.549 0.626 0.512 -0.059 0.205 0.337 16.12 72.52 1.2540   0.102 0.453 0.530 0.375 -0.078 0.102 0.181     318     0.3350 56.60 46.53   0.000 0.000 6.177 6.177 0.000 6.308 6.224 0.082
WS7MET_125 2018-01-19 13:10:00 125 30483.0 0.166 0.532 0.628 0.466 -0.078 100.000 99.100 0.166 0.336 17.46 82.70 4.108 4.659 4.866 4.826 12.980 0.239 0.588 0.713 0.580 -0.069 0.239 0.438 18.80 88.60 1.5680   0.068 0.453 0.568 0.375 -0.107 0.068 0.238     318     0.2520 284.40 41.73   0.000 0.000 6.182 6.182 0.000 6.318 6.259 0.057
WS7MET_125 2018-01-19 13:05:00 125 30483.0 0.056 0.327 0.422 0.328 -0.112 100.000 98.900 0.056 0.174 12.89 63.72 4.113 4.663 4.866 4.825 12.950 0.102 0.433 0.549 0.478 -0.088 0.102 0.345 17.46 83.30 0.0000   -0.068 0.250 0.356 0.239 -0.146 -0.068 0.088     318     0.0000 0.00 0.00   0.000 0.000 6.133 6.133 0.000 6.255 6.186 0.069
WS7MET_125 2018-01-19 13:00:00 125 30483.0 0.020 0.306 0.396 0.302 -0.129 100.000 98.900 0.021 0.156 11.15 55.67 4.113 4.663 4.866 4.824 12.930 0.068 0.395 0.472 0.341 -0.117 0.068 0.209 12.09 59.09 1.3130   -0.034 0.231 0.318 0.205 -0.146 -0.034 0.053     318     0.2210 313.50 33.79   0.000 0.000 6.117 6.117 0.000 6.243 6.177 0.069
WS7MET_125 2018-01-19 12:55:00 125 30483.0 -0.051 0.190 0.312 0.184 -0.169 100.000 98.700 -0.051 0.007 12.15 60.23 4.113 4.663 4.866 4.820 12.910 0.034 0.279 0.395 0.307 -0.126 0.034 0.142 13.43 67.15 0.0000   -0.137 0.125 0.260 0.068 -0.184 -0.137 -0.140     318     0.0000 0.00 0.00   0.000 0.000 6.085 6.085 0.000 6.190 6.111 0.080
WS7MET_125 2018-01-19 12:50:00 125 30483.0 -0.049 0.174 0.304 0.189 -0.171 100.000 98.400 -0.050 -0.031 10.48 51.57 4.113 4.663 4.866 4.819 12.890 0.000 0.240 0.375 0.273 -0.146 0.000 0.040 12.09 57.75 1.9210   -0.102 0.125 0.231 0.068 -0.194 -0.102 -0.150     318     0.3230 268.40 37.17   0.000 0.000 6.086 6.086 0.000 6.192 6.094 0.099
WS7MET_125 2018-01-19 12:45:00 125 30483.0 -0.061 0.183 0.305 0.271 -0.211 100.000 98.100 -0.061 0.008 8.66 44.12 4.116 4.664 4.866 4.818 12.880 0.068 0.346 0.453 0.375 -0.194 0.068 0.138 10.74 55.06 1.2090   -0.137 0.105 0.240 0.171 -0.223 -0.137 -0.086     318     0.3600 245.30 29.14   0.000 0.000 6.081 6.081 0.000 6.229 6.111 0.118
WS7MET_125 2018-01-19 12:40:00 125 30483.0 0.061 0.477 0.536 0.440 -0.163 100.000 98.700 0.061 0.254 11.08 54.26 4.127 4.667 4.866 4.819 12.870 0.137 0.539 0.607 0.512 -0.126 0.137 0.336 14.77 72.52 0.0000   -0.034 0.356 0.462 0.341 -0.194 -0.034 0.152     318     0.0000 0.00 0.00   0.000 0.000 6.135 6.135 0.000 6.306 6.222 0.082
WS7MET_125 2018-01-19 12:35:00 125 30483.0 -0.036 0.345 0.440 0.317 -0.204 100.000 98.900 -0.036 0.160 15.98 76.15 4.131 4.677 4.866 4.818 12.860 0.137 0.510 0.607 0.512 -0.146 0.137 0.375 17.46 80.60 0.0000   -0.137 0.182 0.308 0.171 -0.271 -0.137 -0.014     318     0.0000 0.00 0.00   0.000 0.000 6.092 6.092 0.000 6.250 6.179 0.069
WS7MET_125 2018-01-19 12:30:00 125 30483.0 -0.085 0.150 0.278 0.195 -0.254 100.000 98.700 -0.085 0.008 14.24 67.75 4.132 4.680 4.866 4.818 12.840 0.000 0.279 0.366 0.273 -0.194 0.000 0.117 16.12 73.86 1.5880   -0.171 0.086 0.221 0.102 -0.281 -0.171 -0.087     318     0.2710 133.90 46.09   0.000 0.000 6.070 6.070 0.000 6.195 6.111 0.081
WS7MET_125 2018-01-19 12:25:00 125 30483.0 -0.031 0.246 0.273 0.179 -0.201 100.000 98.900 -0.031 0.026 12.83 61.24 4.132 4.682 4.866 4.818 12.830 0.068 0.318 0.375 0.273 -0.184 0.068 0.131 13.43 65.80 0.0000   -0.102 0.202 0.192 0.102 -0.223 -0.102 -0.054     318     0.0000 0.00 0.00   0.000 0.000 6.094 6.094 0.000 6.188 6.119 0.068
WS7MET_125 2018-01-19 12:20:00 125 30483.0 -0.048 0.181 0.182 0.167 -0.210 100.000 98.900 -0.048 0.008 10.21 49.55 4.132 4.682 4.866 4.818 12.810 0.000 0.202 0.202 0.239 -0.184 0.000 0.088 12.09 57.75 0.0000   -0.102 0.163 0.154 0.068 -0.252 -0.102 -0.092     318     0.0000 0.00 0.00   0.000 0.000 6.086 6.086 0.000 6.182 6.111 0.068
WS7MET_125 2018-01-19 12:15:00 125 30483.0 -0.012 0.257 0.267 0.181 -0.157 100.000 98.800 -0.012 0.020 6.85 33.71 4.132 4.682 4.866 4.818 12.790 0.068 0.279 0.298 0.239 -0.146 0.068 0.088 8.06 37.60 0.0000   -0.068 0.240 0.221 0.102 -0.184 -0.068 -0.054     318     0.0000 0.00 0.00   0.000 0.000 6.102 6.102 0.000 6.189 6.117 0.074
WS7MET_125 2018-01-19 12:10:00 125 30483.0 -0.041 0.258 0.297 0.191 -0.199 100.000 98.600 -0.041 -0.002 7.18 35.05 4.132 4.682 4.866 4.818 12.800 0.034 0.279 0.337 0.273 -0.165 0.034 0.069 8.06 37.60 0.8230   -0.102 0.240 0.279 0.137 -0.252 -0.102 -0.072     318     0.0910 54.90 3.00   0.000 0.000 6.090 6.090 0.000 6.193 6.107 0.087
WS7MET_125 2018-01-19 12:05:00 125 30483.0 -0.020 0.310 0.381 0.205 -0.257 100.000 98.500 -0.020 -0.007 7.52 36.86 4.135 4.682 4.866 4.818 12.790 0.034 0.346 0.433 0.307 -0.213 0.034 0.089 9.40 42.97 0.0000   -0.102 0.260 0.298 0.171 -0.310 -0.102 -0.062     318     0.0000 0.00 0.00   0.000 0.000 6.099 6.099 0.000 6.200 6.105 0.093
WS7MET_125 2018-01-19 12:00:00 125 30483.0 0.014 0.394 0.458 0.277 -0.262 100.000 98.900 0.014 0.119 10.41 48.41 4.143 4.682 4.866 4.818 12.790 0.103 0.472 0.510 0.341 -0.204 0.103 0.219 10.74 52.38 0.0000   -0.068 0.298 0.395 0.205 -0.329 -0.068 -0.023     318     0.0000 0.00 0.00   0.000 0.000 6.114 6.114 0.000 6.232 6.161 0.069
WS7MET_125 2018-01-19 11:55:00 125 30483.0 -0.034 0.353 0.382 0.214 -0.266 100.000 99.000 -0.034 0.082 10.74 49.02 4.150 4.684 4.866 4.818 12.780 0.034 0.433 0.453 0.307 -0.213 0.034 0.185 10.74 51.03 0.0000   -0.136 0.240 0.298 0.103 -0.339 -0.136 -0.053     318     0.0000 0.00 0.00   0.000 0.000 6.093 6.093 0.000 6.204 6.144 0.062
WS7MET_125 2018-01-19 11:50:00 125 30483.0 -0.109 0.216 0.255 0.171 -0.321 100.000 99.100 -0.109 0.045 10.61 49.15 4.151 4.689 4.866 4.818 12.770 -0.034 0.260 0.308 0.239 -0.262 -0.034 0.131 12.09 56.40 0.0000   -0.204 0.173 0.202 0.103 -0.349 -0.204 -0.058     318     0.0000 0.00 0.00   0.000 0.000 6.060 6.060 0.000 6.184 6.128 0.056
WS7MET_125 2018-01-19 11:45:00 125 30483.0 -0.116 0.211 0.258 0.168 -0.297 100.000 99.400 -0.116 0.080 12.29 55.40 4.151 4.692 4.866 4.818 12.760 0.034 0.260 0.318 0.239 -0.242 0.034 0.154 13.43 59.09 0.0000   -0.204 0.182 0.202 0.102 -0.349 -0.204 0.004     318     0.0000 0.00 0.00   0.000 0.000 6.056 6.056 0.000 6.183 6.143 0.037
WS7MET_125 2018-01-19 11:40:00 125 30483.0 -0.169 0.108 0.202 0.061 -0.439 100.000 99.300 -0.169 -0.039 10.14 47.41 4.151 4.693 4.866 4.818 12.750 -0.102 0.163 0.240 0.137 -0.291 -0.102 0.037 12.09 52.38 0.0000   -0.239 0.067 0.163 0.000 -0.494 -0.239 -0.108     318     0.0000 0.00 0.00   0.000 0.000 6.033 6.033 0.000 6.135 6.090 0.043
WS7MET_125 2018-01-19 11:35:00 125 30483.0 -0.148 0.165 0.233 0.068 -0.323 100.000 99.500 -0.149 -0.001 9.80 46.26 4.153 4.696 4.866 4.818 12.740 -0.068 0.211 0.298 0.205 -0.300 -0.068 0.139 10.74 48.35 0.1310   -0.239 0.096 0.163 -0.034 -0.378 -0.239 -0.105     318     0.0070 317.20 0.00   0.000 0.000 6.042 6.042 0.000 6.138 6.107 0.031
WS7MET_125 2018-01-19 11:30:00 125 30483.0 -0.188 0.075 0.130 0.029 -0.393 100.000 99.400 -0.188 -0.049 9.40 44.25 4.162 4.701 4.866 4.818 12.730 -0.068 0.202 0.221 0.137 -0.339 -0.068 0.089 9.40 45.66 0.0000   -0.273 -0.011 0.067 -0.068 -0.474 -0.273 -0.153     318     0.0000 0.00 0.00   0.000 0.000 6.025 6.025 0.000 6.121 6.086 0.037
WS7MET_125 2018-01-19 11:25:00 125 30483.0 -0.113 0.186 0.225 0.104 -0.310 100.000 99.800 -0.113 0.074 9.40 43.98 4.170 4.702 4.866 4.818 12.720 -0.034 0.211 0.279 0.205 -0.271 -0.034 0.186 9.40 44.32 0.0000   -0.171 0.163 0.182 0.000 -0.349 -0.171 -0.047     318     0.0000 0.00 0.00   0.000 0.000 6.058 6.058 0.000 6.154 6.141 0.012
WS7MET_125 2018-01-19 11:20:00 125 30483.0 -0.118 0.196 0.310 0.060 -0.291 100.000 100.000 -0.118 0.055 10.27 48.75 4.170 4.702 4.866 4.818 12.710 -0.034 0.240 0.366 0.102 -0.271 -0.034 0.102 10.74 52.38 0.0000   -0.205 0.134 0.240 -0.034 -0.320 -0.205 -0.034     318     0.0000 0.00 0.00   0.000 0.000 6.056 6.056 -0.000 6.135 6.132 0.000
WS7MET_125 2018-01-19 11:15:00 125 30483.0 -0.225 0.066 0.132 -0.010 -0.377 100.000 100.000 -0.225 -0.010 9.53 45.66 4.170 4.702 4.866 4.818 12.700 -0.136 0.125 0.221 0.068 -0.310 -0.137 0.068 10.74 52.38 0.0000   -0.307 0.028 0.096 -0.068 -0.416 -0.307 -0.068     318     0.0000 0.00 0.00   0.000 0.000 6.009 6.009 0.000 6.103 6.103 0.000
WS7MET_125 2018-01-19 11:10:00 125 30483.0 -0.307 -0.014 0.087 -0.092 -0.354 100.000 100.000 -0.307 -0.092 7.79 37.74 4.170 4.702 4.866 4.818 12.700 -0.239 0.028 0.125 -0.034 -0.310 -0.239 -0.034 8.06 40.29 0.0000   -0.375 -0.088 0.047 -0.171 -0.474 -0.376 -0.171     318     0.0000 0.00 0.00   0.000 0.000 5.973 5.973 0.000 6.067 6.067 0.000
WS7MET_125 2018-01-19 11:05:00 125 30483.0 -0.338 -0.080 0.027 -0.143 -0.434 100.000 100.000 -0.338 -0.143 8.46 41.03 4.170 4.704 4.866 4.818 12.700 -0.273 -0.020 0.086 -0.068 -0.339 -0.273 -0.068 9.40 42.97 0.0000   -0.409 -0.136 -0.011 -0.239 -0.523 -0.410 -0.239     318     0.0000 0.00 0.00   0.000 0.000 5.959 5.959 0.000 6.045 6.045 0.000
WS7MET_125 2018-01-19 11:00:00 125 30483.0 -0.378 -0.172 -0.090 -0.235 -0.507 100.000 100.000 -0.379 -0.236 7.99 39.62 4.170 4.711 4.866 4.818 12.690 -0.273 -0.107 -0.030 -0.170 -0.426 -0.273 -0.170 8.06 41.63 0.0000   -0.477 -0.223 -0.126 -0.273 -0.552 -0.478 -0.277     318     0.0000 0.00 0.00   0.000 0.000 5.942 5.941 0.000 6.004 6.004 -0.000
WS7MET_125 2018-01-19 10:55:00 125 30483.0 -0.344 -0.126 -0.041 -0.192 -0.490 100.000 100.000 -0.344 -0.192 6.72 34.72 4.175 4.714 4.866 4.818 12.690 -0.238 -0.088 0.009 -0.136 -0.455 -0.238 -0.136 6.72 36.26 0.0000   -0.443 -0.184 -0.107 -0.273 -0.542 -0.443 -0.273     318     0.0000 0.00 0.00   0.000 0.000 5.957 5.957 0.000 6.023 6.023 0.000
WS7MET_125 2018-01-19 10:50:00 125 30483.0 -0.310 -0.126 -0.022 -0.194 -0.501 100.000 100.000 -0.310 -0.194 5.98 31.02 4.187 4.716 4.866 4.818 12.690 -0.204 -0.088 0.009 -0.102 -0.455 -0.205 -0.102 6.72 34.92 0.0000   -0.375 -0.146 -0.049 -0.307 -0.542 -0.375 -0.307     318     0.0000 0.00 0.00   0.000 0.000 5.971 5.971 0.000 6.022 6.022 0.000
WS7MET_125 2018-01-19 10:45:00 125 30483.0 -0.272 -0.091 0.002 -0.132 -0.470 100.000 100.000 -0.273 -0.133 7.66 38.95 4.190 4.720 4.866 4.818 12.690 -0.136 0.009 0.086 -0.067 -0.320 -0.136 -0.067 8.06 41.63 0.0000   -0.375 -0.146 -0.049 -0.238 -0.552 -0.375 -0.239     318     0.0000 0.00 0.00   0.000 0.000 5.988 5.988 0.000 6.049 6.049 0.000
WS7MET_125 2018-01-19 10:40:00 125 30483.0 -0.222 -0.011 0.061 -0.072 -0.356 100.000 100.000 -0.223 -0.072 7.86 37.80 4.190 4.721 4.866 4.818 12.680 -0.101 0.009 0.086 0.035 -0.329 -0.101 0.035 8.06 40.29 0.0000   -0.306 -0.020 0.047 -0.170 -0.387 -0.306 -0.170     318     0.0000 0.00 0.00   0.000 0.000 6.010 6.009 0.000 6.076 6.076 0.000
WS7MET_125 2018-01-19 10:35:00 125 30483.0 -0.233 -0.007 0.089 -0.076 -0.357 100.000 100.000 -0.233 -0.076 6.92 32.77 4.190 4.721 4.866 4.818 12.680 -0.170 0.009 0.105 0.001 -0.320 -0.170 0.001 8.06 36.26 0.0000   -0.340 -0.030 0.086 -0.204 -0.397 -0.340 -0.204     318     0.0000 0.00 0.00   0.000 0.000 6.005 6.005 0.000 6.074 6.074 0.000
WS7MET_125 2018-01-19 10:30:00 125 30483.0 -0.275 -0.054 0.053 -0.111 -0.498 100.000 100.000 -0.275 -0.111 7.25 33.31 4.190 4.721 4.866 4.818 12.680 -0.169 -0.030 0.086 -0.033 -0.368 -0.169 -0.033 8.06 36.26 0.0000   -0.374 -0.069 0.009 -0.169 -0.571 -0.375 -0.169     318     0.0000 0.00 0.00   0.000 0.000 5.987 5.987 0.000 6.059 6.059 0.000
WS7MET_125 2018-01-19 10:25:00 125 30483.0 -0.257 -0.047 0.053 -0.129 -0.362 100.000 100.000 -0.257 -0.129 6.72 29.88 4.192 4.722 4.866 4.817 12.670 -0.203 -0.030 0.086 -0.067 -0.310 -0.203 -0.067 6.72 30.89 0.0000   -0.341 -0.069 0.009 -0.204 -0.455 -0.341 -0.204     318     0.0000 0.00 0.00   0.000 0.000 5.995 5.995 0.000 6.051 6.051 0.000
WS7MET_125 2018-01-19 10:20:00 125 30483.0 -0.239 -0.028 0.041 -0.086 -0.393 100.000 100.000 -0.239 -0.086 7.59 34.72 4.206 4.722 4.866 4.818 12.670 -0.135 0.009 0.067 0.001 -0.339 -0.135 0.001 8.06 38.95 0.0000   -0.306 -0.049 0.009 -0.203 -0.436 -0.306 -0.203     318     0.0000 0.00 0.00   0.000 0.000 6.002 6.002 -0.000 6.070 6.070 0.000
WS7MET_125 2018-01-19 10:15:00 125 30483.0 -0.227 -0.026 0.084 -0.074 -0.373 100.000 100.000 -0.227 -0.074 7.86 35.12 4.208 4.731 4.865 4.816 12.660 -0.169 -0.011 0.105 0.002 -0.339 -0.169 0.002 8.06 37.60 0.0000   -0.340 -0.049 0.047 -0.135 -0.407 -0.340 -0.135     318     0.0000 0.00 0.00   0.000 0.000 6.008 6.008 0.000 6.075 6.075 0.000
WS7MET_125 2018-01-19 10:10:00 125 30483.0 -0.254 -0.089 0.045 -0.171 -0.355 100.000 100.000 -0.255 -0.171 5.91 26.19 4.209 4.731 4.866 4.818 12.670 -0.203 -0.059 0.057 -0.067 -0.339 -0.203 -0.067 6.72 30.89 0.0000   -0.306 -0.107 0.028 -0.237 -0.378 -0.306 -0.238     318     0.0000 0.00 0.00   0.000 0.000 5.996 5.995 0.000 6.032 6.032 0.000
WS7MET_125 2018-01-19 10:05:00 125 30483.0 -0.295 -0.100 -0.003 -0.223 -0.376 100.000 100.000 -0.295 -0.223 4.90 22.02 4.209 4.734 4.866 4.818 12.660 -0.237 -0.069 0.028 -0.101 -0.329 -0.237 -0.101 5.37 24.17 0.0000   -0.339 -0.107 -0.020 -0.305 -0.436 -0.339 -0.305     318     0.0000 0.00 0.00   0.000 0.000 5.978 5.978 0.000 6.009 6.009 0.000
WS7MET_125 2018-01-19 10:00:00 125 30483.0 -0.270 -0.108 -0.001 -0.210 -0.463 100.000 100.000 -0.270 -0.210 4.57 20.55 4.209 4.740 4.866 4.818 12.660 -0.201 -0.069 0.067 -0.098 -0.368 -0.202 -0.098 5.37 21.49 0.0000   -0.338 -0.126 -0.030 -0.304 -0.532 -0.338 -0.304     318     0.0000 0.00 0.00   0.000 0.000 5.989 5.989 0.000 6.015 6.015 0.000
WS7MET_125 2018-01-19 09:55:00 125 30483.0 -0.213 -0.020 0.101 -0.107 -0.365 100.000 100.000 -0.213 -0.107 4.84 20.61 4.209 4.740 4.866 4.818 12.670 -0.133 0.047 0.182 -0.065 -0.320 -0.133 -0.065 5.37 21.49 0.0000   -0.270 -0.078 0.067 -0.167 -0.416 -0.270 -0.167     318     0.0000 0.00 0.00   0.000 0.000 6.014 6.014 0.000 6.060 6.060 0.000
WS7MET_125 2018-01-19 09:50:00 125 30483.0 -0.228 0.032 0.164 -0.106 -0.377 100.000 100.000 -0.228 -0.107 7.59 30.15 4.213 4.740 4.866 4.818 12.670 -0.133 0.067 0.202 -0.065 -0.349 -0.133 -0.065 9.40 36.26 0.0000   -0.339 -0.030 0.086 -0.237 -0.426 -0.339 -0.237     318     0.0000 0.00 0.00   0.000 0.000 6.007 6.007 -0.000 6.061 6.060 0.000
WS7MET_125 2018-01-19 09:45:00 125 30483.0 -0.345 -0.154 0.002 -0.263 -0.428 100.000 100.000 -0.345 -0.263 10.48 40.15 4.225 4.740 4.866 4.818 12.670 -0.268 -0.049 0.086 -0.134 -0.358 -0.269 -0.134 12.09 44.32 0.0000   -0.407 -0.223 -0.088 -0.371 -0.494 -0.407 -0.371     318     0.0000 0.00 0.00   0.000 0.000 5.956 5.956 0.000 5.992 5.992 0.000
WS7MET_125 2018-01-19 09:40:00 125 30483.0 -0.422 -0.258 -0.142 -0.343 -0.474 100.000 100.000 -0.422 -0.343 6.31 25.11 4.228 4.740 4.866 4.818 12.660 -0.337 -0.223 -0.088 -0.268 -0.436 -0.337 -0.268 9.40 34.92 0.0000   -0.473 -0.291 -0.184 -0.405 -0.552 -0.473 -0.405     318     0.0000 0.00 0.00   0.000 0.000 5.923 5.923 0.000 5.957 5.957 0.000
WS7MET_125 2018-01-19 09:35:00 125 30483.0 -0.402 -0.268 -0.171 -0.318 -0.526 100.000 100.000 -0.402 -0.318 5.37 23.37 4.228 4.742 4.866 4.817 12.660 -0.337 -0.223 -0.126 -0.235 -0.455 -0.337 -0.235 5.37 24.17 0.0000   -0.508 -0.300 -0.204 -0.372 -0.591 -0.508 -0.372     318     0.0000 0.00 0.00   0.000 0.000 5.931 5.931 -0.000 5.968 5.968 0.000
WS7MET_125 2018-01-19 09:30:00 125 30483.0 -0.385 -0.217 -0.107 -0.287 -0.400 100.000 100.000 -0.385 -0.288 5.37 22.16 4.228 4.754 4.866 4.817 12.660 -0.303 -0.194 -0.088 -0.201 -0.349 -0.303 -0.201 5.37 24.17 0.0000   -0.439 -0.242 -0.126 -0.371 -0.455 -0.440 -0.371     318     0.0000 0.00 0.00   0.000 0.000 5.939 5.939 0.000 5.981 5.981 0.000
WS7MET_125 2018-01-19 09:25:00 125 30483.0 -0.429 -0.283 -0.165 -0.364 -0.478 100.000 100.000 -0.430 -0.365 5.37 20.28 4.229 4.758 4.866 4.818 12.650 -0.369 -0.252 -0.126 -0.302 -0.397 -0.369 -0.302 5.37 21.49 0.0000   -0.507 -0.300 -0.223 -0.438 -0.542 -0.507 -0.438     318     0.0000 0.00 0.00   0.000 0.000 5.920 5.919 0.000 5.948 5.947 0.000
WS7MET_125 2018-01-19 09:20:00 125 30483.0 -0.464 -0.295 -0.211 -0.376 -0.463 100.000 100.000 -0.465 -0.376 5.37 20.14 4.231 4.759 4.866 4.817 12.650 -0.403 -0.281 -0.204 -0.266 -0.416 -0.403 -0.266 5.37 20.14 0.0000   -0.539 -0.329 -0.223 -0.438 -0.503 -0.540 -0.438     318     0.0000 0.00 0.00   0.000 0.000 5.905 5.904 0.000 5.943 5.943 0.000
WS7MET_125 2018-01-19 09:15:00 125 30483.0 -0.555 -0.388 -0.280 -0.482 -0.510 100.000 100.000 -0.556 -0.482 5.37 20.88 4.244 4.760 4.864 4.815 12.650 -0.505 -0.339 -0.233 -0.403 -0.494 -0.506 -0.403 5.37 22.83 0.0000   -0.609 -0.455 -0.339 -0.609 -0.532 -0.609 -0.609     318     0.0000 0.00 0.00   0.000 0.000 5.865 5.865 0.000 5.897 5.897 0.000
WS7MET_125 2018-01-19 09:10:00 125 30483.0 -0.616 -0.496 -0.382 -0.520 -0.643 100.000 100.000 -0.616 -0.520 5.71 21.55 4.247 4.760 4.866 4.817 12.660 -0.540 -0.474 -0.358 -0.472 -0.552 -0.540 -0.472 6.72 22.83 0.0000   -0.678 -0.513 -0.397 -0.608 -0.668 -0.678 -0.609     318     0.0000 0.00 0.00   0.000 0.000 5.839 5.839 0.000 5.880 5.880 0.000
WS7MET_125 2018-01-19 09:05:00 125 30483.0 -0.518 -0.421 -0.326 -0.480 -0.576 100.000 100.000 -0.518 -0.481 4.23 16.85 4.248 4.760 4.866 4.818 12.650 -0.439 -0.397 -0.300 -0.405 -0.523 -0.440 -0.405 5.37 18.80 0.0000   -0.644 -0.484 -0.378 -0.542 -0.658 -0.644 -0.542     318     0.0000 0.00 0.00   0.000 0.000 5.881 5.881 0.000 5.898 5.897 -0.000
WS7MET_125 2018-01-19 09:00:00 125 30483.0 -0.444 -0.357 -0.256 -0.425 -0.514 100.000 100.000 -0.444 -0.426 4.03 14.17 4.248 4.760 4.866 4.815 12.660 -0.404 -0.339 -0.223 -0.336 -0.455 -0.405 -0.336 4.03 14.77 0.0000   -0.541 -0.416 -0.320 -0.508 -0.610 -0.541 -0.508     318     0.0000 0.00 0.00   0.000 0.000 5.913 5.913 0.000 5.921 5.921 0.000
WS7MET_125 2018-01-19 08:55:00 125 30483.0 -0.411 -0.314 -0.247 -0.410 -0.457 100.000 100.000 -0.412 -0.410 4.03 13.23 4.248 4.760 4.866 4.814 12.660 -0.302 -0.300 -0.223 -0.336 -0.368 -0.302 -0.336 4.03 13.43 0.0000   -0.473 -0.329 -0.262 -0.473 -0.513 -0.473 -0.473     318     0.0000 0.00 0.00   0.000 0.000 5.928 5.927 0.000 5.928 5.928 0.000
WS7MET_125 2018-01-19 08:50:00 125 30483.0 -0.473 -0.338 -0.257 -0.458 -0.403 100.000 100.000 -0.474 -0.458 4.03 13.50 4.249 4.763 4.866 4.814 12.660 -0.405 -0.300 -0.223 -0.405 -0.349 -0.405 -0.405 4.03 16.12 0.0000   -0.576 -0.378 -0.300 -0.542 -0.465 -0.576 -0.542     318     0.0000 0.00 0.00   0.000 0.000 5.901 5.900 0.000 5.907 5.907 0.000
WS7MET_125 2018-01-19 08:45:00 125 30483.0 -0.552 -0.422 -0.343 -0.521 -0.487 100.000 100.000 -0.552 -0.521 5.57 19.81 4.261 4.768 4.866 4.813 12.670 -0.472 -0.378 -0.310 -0.438 -0.455 -0.472 -0.438 6.72 21.49 0.0000   -0.608 -0.474 -0.397 -0.608 -0.513 -0.609 -0.609     318     0.0000 0.00 0.00   0.000 0.000 5.867 5.867 -0.000 5.880 5.880 0.000
WS7MET_125 2018-01-19 08:40:00 125 30483.0 -0.662 -0.547 -0.464 -0.639 -0.573 100.000 100.000 -0.663 -0.639 4.03 12.69 4.267 4.769 4.866 4.812 12.670 -0.539 -0.494 -0.416 -0.573 -0.503 -0.540 -0.574 5.37 17.46 0.0000   -0.745 -0.591 -0.494 -0.745 -0.610 -0.745 -0.745     318     0.0000 0.00 0.00   0.000 0.000 5.820 5.819 0.000 5.830 5.830 0.000
WS7MET_125 2018-01-19 08:35:00 125 30483.0 -0.730 -0.628 -0.548 -0.686 -0.634 100.000 100.000 -0.730 -0.686 2.69 7.99 4.267 4.770 4.866 4.813 12.670 -0.642 -0.591 -0.494 -0.609 -0.561 -0.642 -0.609 2.69 8.06 0.0000   -0.814 -0.668 -0.591 -0.745 -0.745 -0.815 -0.746     318     0.0000 0.00 0.00   0.000 0.000 5.791 5.791 0.000 5.810 5.810 0.000
WS7MET_125 2018-01-19 08:30:00 125 30483.0 -0.719 -0.636 -0.562 -0.690 -0.685 100.000 100.000 -0.719 -0.690 2.22 5.71 4.267 4.773 4.866 4.808 12.670 -0.608 -0.610 -0.532 -0.642 -0.581 -0.608 -0.642 2.69 8.06 0.0000   -0.779 -0.668 -0.591 -0.744 -0.745 -0.779 -0.745     318     0.0000 0.00 0.00   0.000 0.000 5.796 5.796 0.000 5.808 5.808 0.000
WS7MET_125 2018-01-19 08:25:00 125 30483.0 -0.767 -0.670 -0.586 -0.704 -0.634 100.000 100.000 -0.767 -0.704 1.34 4.03 4.267 4.778 4.866 4.807 12.670 -0.676 -0.610 -0.532 -0.642 -0.542 -0.677 -0.643 1.34 4.03 0.0000   -0.881 -0.726 -0.649 -0.779 -0.755 -0.882 -0.780     318     0.0000 0.00 0.00   0.000 0.000 5.775 5.775 0.000 5.802 5.802 0.000
WS7MET_125 2018-01-19 08:20:00 125 30483.0 -0.700 -0.665 -0.593 -0.702 -0.694 100.000 100.000 -0.701 -0.703 1.21 3.22 4.273 4.780 4.863 4.808 12.660 -0.574 -0.600 -0.542 -0.608 -0.571 -0.574 -0.609 1.34 4.03 0.0000   -0.813 -0.726 -0.649 -0.779 -0.774 -0.814 -0.779     318     0.0000 0.00 0.00   0.000 0.000 5.804 5.803 0.000 5.803 5.802 0.000
WS7MET_125 2018-01-19 08:15:00 125 30483.0 -0.721 -0.645 -0.575 -0.721 -0.662 100.000 100.000 -0.721 -0.721 1.28 2.69 4.280 4.780 4.863 4.804 12.670 -0.676 -0.629 -0.552 -0.676 -0.542 -0.676 -0.676 1.34 2.69 0.0000   -0.813 -0.658 -0.600 -0.779 -0.755 -0.814 -0.780     318     0.0000 0.00 0.00   0.000 0.000 5.795 5.795 0.000 5.795 5.795 0.000
WS7MET_125 2018-01-19 08:10:00 125 30483.0 -0.766 -0.698 -0.633 -0.783 -0.641 100.000 100.000 -0.767 -0.784 1.34 2.69 4.286 4.779 4.866 4.803 12.680 -0.677 -0.649 -0.571 -0.712 -0.552 -0.677 -0.712 1.34 2.69 0.0000   -0.883 -0.745 -0.687 -0.883 -0.707 -0.883 -0.883     318     0.0000 0.00 0.00   0.000 0.000 5.776 5.775 0.000 5.768 5.768 0.000
WS7MET_125 2018-01-19 08:05:00 125 30483.0 -0.792 -0.757 -0.693 -0.835 -0.779 100.000 100.000 -0.793 -0.836 0.27 2.69 4.286 4.780 4.866 4.805 12.680 -0.711 -0.726 -0.668 -0.746 -0.726 -0.712 -0.747 1.34 2.69 0.0000   -0.883 -0.765 -0.707 -0.917 -0.803 -0.883 -0.918     318     0.0000 0.00 0.00   0.000 0.000 5.765 5.764 0.000 5.746 5.746 0.000
WS7MET_125 2018-01-19 08:00:00 125 30483.0 -0.799 -0.729 -0.668 -0.808 -0.721 100.000 100.000 -0.800 -0.808 0.00 1.81 4.286 4.785 4.866 4.804 12.680 -0.711 -0.726 -0.668 -0.744 -0.697 -0.711 -0.745 0.00 2.69 0.0000   -0.915 -0.745 -0.668 -0.848 -0.745 -0.916 -0.848     318     0.0000 0.00 0.00   0.000 0.000 5.762 5.761 0.000 5.758 5.758 0.000
WS7MET_125 2018-01-19 07:55:00 125 30483.0 -0.852 -0.783 -0.696 -0.833 -0.711 100.000 100.000 -0.852 -0.834 0.00 0.47 4.286 4.796 4.866 4.803 12.680 -0.779 -0.765 -0.668 -0.744 -0.649 -0.779 -0.745 0.00 1.34 0.0000   -0.915 -0.823 -0.745 -0.949 -0.833 -0.916 -0.950     318     0.0000 0.00 0.00   0.000 0.000 5.739 5.739 0.000 5.747 5.747 -0.000
WS7MET_125 2018-01-19 07:50:00 125 30483.0 -0.811 -0.764 -0.697 -0.830 -0.758 100.000 100.000 -0.812 -0.831 0.00 0.00 4.287 4.798 4.866 4.802 12.690 -0.745 -0.726 -0.649 -0.779 -0.668 -0.745 -0.779 0.00 0.00 0.0000   -0.915 -0.823 -0.736 -0.915 -0.833 -0.916 -0.916     318     0.0000 0.00 0.00   0.000 0.000 5.757 5.756 0.000 5.749 5.748 0.000
WS7MET_125 2018-01-19 07:45:00 125 30483.0 -0.843 -0.770 -0.693 -0.839 -0.744 100.000 100.000 -0.843 -0.840 0.00 0.00 4.295 4.798 4.866 4.801 12.690 -0.779 -0.745 -0.687 -0.779 -0.707 -0.780 -0.780 0.00 0.00 0.0000   -0.916 -0.784 -0.707 -0.916 -0.803 -0.917 -0.916     318     0.0000 0.00 0.00   0.000 0.000 5.743 5.743 0.000 5.745 5.744 0.000
WS7MET_125 2018-01-19 07:40:00 125 30483.0 -0.826 -0.773 -0.694 -0.831 -0.735 100.000 100.000 -0.827 -0.832 0.00 0.00 4.302 4.798 4.866 4.799 12.690 -0.712 -0.755 -0.668 -0.780 -0.678 -0.712 -0.781 0.00 0.00 0.0000   -0.917 -0.784 -0.707 -0.883 -0.794 -0.918 -0.883     318     0.0000 0.00 0.00   0.000 0.000 5.750 5.750 0.000 5.748 5.748 -0.000
WS7MET_125 2018-01-19 07:35:00 125 30483.0 -0.849 -0.785 -0.699 -0.812 -0.763 100.000 100.000 -0.850 -0.812 0.00 0.00 4.306 4.798 4.866 4.799 12.690 -0.779 -0.765 -0.678 -0.711 -0.687 -0.780 -0.711 0.00 0.00 0.0000   -0.916 -0.803 -0.726 -0.882 -0.803 -0.916 -0.882     318     0.0000 0.00 0.00   0.000 0.000 5.741 5.740 0.000 5.756 5.756 0.000
WS7MET_125 2018-01-19 07:30:00 125 30483.0 -0.732 -0.704 -0.634 -0.765 -0.720 100.000 100.000 -0.733 -0.765 0.00 0.00 4.306 4.799 4.866 4.799 12.690 -0.575 -0.629 -0.571 -0.643 -0.591 -0.576 -0.644 0.00 0.00 0.0000   -0.882 -0.765 -0.687 -0.849 -0.803 -0.883 -0.849     318     0.0000 0.00 0.00   0.000 0.000 5.790 5.790 0.000 5.776 5.776 0.000
WS7MET_125 2018-01-19 07:25:00 125 30483.0 -0.708 -0.677 -0.601 -0.759 -0.657 100.000 100.000 -0.708 -0.760 0.00 0.00 4.306 4.803 4.866 4.799 12.700 -0.642 -0.649 -0.571 -0.711 -0.581 -0.643 -0.712 0.00 0.00 0.0000   -0.780 -0.687 -0.610 -0.781 -0.697 -0.781 -0.781     318     0.0000 0.00 0.00   0.000 0.000 5.800 5.800 0.000 5.779 5.778 0.000
WS7MET_125 2018-01-19 07:20:00 125 30483.0 -0.703 -0.668 -0.602 -0.764 -0.653 100.000 100.000 -0.703 -0.765 0.00 0.00 4.315 4.807 4.865 4.798 12.700 -0.643 -0.668 -0.591 -0.711 -0.620 -0.643 -0.712 0.00 0.00 0.0000   -0.746 -0.668 -0.610 -0.848 -0.678 -0.747 -0.848     318     0.0000 0.00 0.00   0.000 0.000 5.802 5.802 0.000 5.776 5.776 0.000
WS7MET_125 2018-01-19 07:15:00 125 30483.0 -0.695 -0.665 -0.598 -0.746 -0.647 100.000 100.000 -0.696 -0.747 0.00 0.00 4.322 4.808 4.862 4.801 12.700 -0.610 -0.629 -0.561 -0.678 -0.581 -0.611 -0.678 0.00 0.00 0.0000   -0.746 -0.687 -0.629 -0.814 -0.716 -0.747 -0.815     318     0.0000 0.00 0.00   0.000 0.000 5.806 5.805 0.000 5.784 5.784 0.000
WS7MET_125 2018-01-19 07:10:00 125 30483.0 -0.731 -0.687 -0.596 -0.755 -0.660 100.000 100.000 -0.731 -0.755 0.00 0.00 4.325 4.810 4.865 4.799 12.700 -0.678 -0.658 -0.581 -0.644 -0.610 -0.679 -0.644 0.00 0.00 0.0000   -0.815 -0.707 -0.610 -0.815 -0.726 -0.815 -0.815     318     0.0000 0.00 0.00   0.000 0.000 5.790 5.790 -0.000 5.780 5.780 0.000
WS7MET_125 2018-01-19 07:05:00 125 30483.0 -0.725 -0.670 -0.584 -0.747 -0.675 100.000 100.000 -0.726 -0.748 0.00 0.00 4.325 4.815 4.864 4.798 12.700 -0.644 -0.649 -0.571 -0.677 -0.649 -0.644 -0.677 0.00 0.00 0.0000   -0.815 -0.687 -0.600 -0.848 -0.726 -0.815 -0.848     318     0.0000 0.00 0.00   0.000 0.000 5.793 5.793 0.000 5.784 5.783 -0.000
WS7MET_125 2018-01-19 07:00:00 125 30483.0 -0.728 -0.654 -0.576 -0.728 -0.613 100.000 100.000 -0.728 -0.728 0.00 0.00 4.325 4.817 4.864 4.798 12.710 -0.644 -0.649 -0.552 -0.610 -0.581 -0.644 -0.611 0.00 0.00 0.0000   -0.747 -0.668 -0.610 -0.814 -0.668 -0.747 -0.815     318     0.0000 0.00 0.00   0.000 0.000 5.792 5.792 0.000 5.792 5.792 0.000
WS7MET_125 2018-01-19 06:55:00 125 30483.0 -0.719 -0.671 -0.597 -0.772 -0.642 100.000 100.000 -0.719 -0.772 0.00 0.00 4.325 4.818 4.864 4.798 12.710 -0.644 -0.639 -0.571 -0.678 -0.532 -0.644 -0.678 0.00 0.00 0.0000   -0.815 -0.697 -0.610 -0.849 -0.726 -0.815 -0.850     318     0.0000 0.00 0.00   0.000 0.000 5.796 5.796 0.000 5.773 5.773 0.000
WS7MET_125 2018-01-19 06:50:00 125 30483.0 -0.725 -0.677 -0.597 -0.763 -0.656 100.000 100.000 -0.726 -0.763 0.00 0.00 4.326 4.818 4.865 4.798 12.710 -0.677 -0.668 -0.591 -0.678 -0.591 -0.677 -0.678 0.00 0.00 0.0000   -0.780 -0.687 -0.610 -0.814 -0.707 -0.781 -0.815     318     0.0000 0.00 0.00   0.000 0.000 5.793 5.793 0.000 5.777 5.777 0.000
WS7MET_125 2018-01-19 06:45:00 125 30483.0 -0.722 -0.666 -0.596 -0.768 -0.643 100.000 100.000 -0.722 -0.768 0.00 0.00 4.341 4.818 4.864 4.799 12.710 -0.643 -0.649 -0.571 -0.745 -0.600 -0.644 -0.745 0.00 0.00 0.0000   -0.813 -0.697 -0.629 -0.848 -0.697 -0.814 -0.849     318     0.0000 0.00 0.00   0.000 0.000 5.794 5.794 0.000 5.775 5.775 -0.000
WS7MET_125 2018-01-19 06:40:00 125 30483.0 -0.692 -0.657 -0.595 -0.753 -0.676 100.000 100.000 -0.692 -0.754 0.00 0.00 4.344 4.820 4.864 4.798 12.710 -0.610 -0.629 -0.561 -0.678 -0.591 -0.611 -0.679 0.00 0.00 0.0000   -0.780 -0.687 -0.629 -0.849 -0.707 -0.781 -0.850     318     0.0000 0.00 0.00   0.000 0.000 5.807 5.807 0.000 5.781 5.781 0.000
WS7MET_125 2018-01-19 06:35:00 125 30483.0 -0.746 -0.668 -0.581 -0.753 -0.616 100.000 100.000 -0.746 -0.753 0.00 0.00 4.344 4.827 4.863 4.798 12.710 -0.678 -0.649 -0.552 -0.712 -0.552 -0.678 -0.712 0.00 0.00 0.0000   -0.849 -0.697 -0.610 -0.813 -0.678 -0.849 -0.814     318     0.0000 0.00 0.00   0.000 0.000 5.784 5.784 0.000 5.781 5.781 0.000
WS7MET_125 2018-01-19 06:30:00 125 30483.0 -0.752 -0.693 -0.615 -0.774 -0.670 100.000 100.000 -0.753 -0.775 0.00 0.00 4.344 4.828 4.861 4.798 12.720 -0.711 -0.668 -0.571 -0.711 -0.610 -0.711 -0.711 0.00 0.00 0.0000   -0.813 -0.707 -0.629 -0.882 -0.697 -0.814 -0.882     318     0.0000 0.00 0.00   0.000 0.000 5.782 5.781 0.000 5.772 5.772 -0.000
WS7MET_125 2018-01-19 06:25:00 125 30483.0 -0.736 -0.666 -0.582 -0.743 -0.625 100.000 100.000 -0.737 -0.743 0.00 0.00 4.348 4.835 4.862 4.798 12.720 -0.678 -0.649 -0.571 -0.678 -0.571 -0.678 -0.678 0.00 0.00 0.0000   -0.815 -0.687 -0.591 -0.815 -0.668 -0.815 -0.815     318     0.0000 0.00 0.00   0.000 0.000 5.788 5.788 -0.000 5.785 5.785 0.000
WS7MET_125 2018-01-19 06:20:00 125 30483.0 -0.718 -0.661 -0.587 -0.741 -0.627 100.000 100.000 -0.719 -0.741 0.00 0.00 4.362 4.837 4.863 4.798 12.720 -0.644 -0.649 -0.581 -0.678 -0.591 -0.645 -0.679 0.00 0.00 0.0000   -0.782 -0.678 -0.600 -0.816 -0.668 -0.783 -0.816     318     0.0000 0.00 0.00   0.000 0.000 5.796 5.796 0.000 5.786 5.786 0.000
WS7MET_125 2018-01-19 06:15:00 125 30483.0 -0.702 -0.636 -0.568 -0.741 -0.602 100.000 100.000 -0.703 -0.742 0.00 0.00 4.364 4.837 4.859 4.800 12.720 -0.611 -0.610 -0.542 -0.680 -0.532 -0.612 -0.681 0.00 0.00 0.0000   -0.782 -0.668 -0.600 -0.783 -0.687 -0.783 -0.783     318     0.0000 0.00 0.00   0.000 0.000 5.803 5.802 0.000 5.786 5.786 0.000
WS7MET_125 2018-01-19 06:10:00 125 30483.0 -0.713 -0.669 -0.606 -0.797 -0.610 100.000 100.000 -0.714 -0.797 0.00 0.00 4.364 4.837 4.859 4.799 12.720 -0.645 -0.639 -0.581 -0.747 -0.542 -0.645 -0.748 0.00 0.00 0.0000   -0.782 -0.687 -0.629 -0.850 -0.658 -0.783 -0.851     318     0.0000 0.00 0.00   0.000 0.000 5.798 5.798 0.000 5.762 5.762 0.000
WS7MET_125 2018-01-19 06:05:00 125 30483.0 -0.729 -0.696 -0.625 -0.784 -0.673 100.000 100.000 -0.730 -0.784 0.00 0.00 4.364 4.837 4.857 4.798 12.730 -0.644 -0.668 -0.610 -0.711 -0.629 -0.644 -0.712 0.00 0.00 0.0000   -0.781 -0.716 -0.649 -0.884 -0.716 -0.782 -0.884     318     0.0000 0.00 0.00   0.000 0.000 5.791 5.791 -0.000 5.768 5.768 0.000
WS7MET_125 2018-01-19 06:00:00 125 30483.0 -0.666 -0.660 -0.600 -0.758 -0.656 100.000 100.000 -0.666 -0.758 0.00 0.00 4.364 4.838 4.854 4.799 12.730 -0.575 -0.610 -0.552 -0.677 -0.581 -0.576 -0.678 0.00 0.00 0.0000   -0.745 -0.707 -0.629 -0.848 -0.726 -0.746 -0.849     318     0.0000 0.00 0.00   0.000 0.000 5.818 5.818 0.000 5.779 5.779 0.000
WS7MET_125 2018-01-19 05:55:00 125 30483.0 -0.625 -0.613 -0.560 -0.695 -0.651 100.000 100.000 -0.625 -0.695 0.00 0.00 4.364 4.845 4.854 4.798 12.730 -0.542 -0.571 -0.542 -0.610 -0.581 -0.542 -0.610 0.00 0.00 0.0000   -0.677 -0.629 -0.571 -0.781 -0.707 -0.678 -0.781     318     0.0000 0.00 0.00   0.000 0.000 5.836 5.836 0.000 5.806 5.806 0.000
WS7MET_125 2018-01-19 05:50:00 125 30483.0 -0.585 -0.552 -0.508 -0.668 -0.551 100.000 100.000 -0.585 -0.669 0.00 0.00 4.377 4.847 4.853 4.798 12.740 -0.542 -0.513 -0.474 -0.576 -0.474 -0.542 -0.576 0.00 0.00 0.0000   -0.645 -0.571 -0.542 -0.747 -0.620 -0.645 -0.747     318     0.0000 0.00 0.00   0.000 0.000 5.853 5.853 0.000 5.817 5.817 0.000
WS7MET_125 2018-01-19 05:45:00 125 30483.0 -0.652 -0.612 -0.550 -0.706 -0.574 100.000 100.000 -0.652 -0.707 0.00 0.00 4.382 4.847 4.852 4.798 12.740 -0.577 -0.571 -0.513 -0.645 -0.532 -0.577 -0.645 0.00 0.00 0.0000   -0.747 -0.629 -0.571 -0.747 -0.620 -0.748 -0.748     318     0.0000 0.00 0.00   0.000 0.000 5.824 5.824 0.000 5.801 5.801 0.000
WS7MET_125 2018-01-19 05:40:00 125 30483.0 -0.628 -0.615 -0.561 -0.698 -0.651 100.000 100.000 -0.628 -0.698 0.00 0.00 4.383 4.848 4.851 4.798 12.740 -0.541 -0.571 -0.532 -0.576 -0.620 -0.542 -0.577 0.00 0.00 0.0000   -0.747 -0.649 -0.591 -0.781 -0.687 -0.748 -0.782     318     0.0000 0.00 0.00   0.000 0.000 5.834 5.834 0.000 5.804 5.804 -0.000
WS7MET_125 2018-01-19 05:35:00 125 30483.0 -0.647 -0.564 -0.495 -0.673 -0.538 100.000 100.000 -0.647 -0.673 0.00 0.00 4.383 4.854 4.849 4.798 12.740 -0.577 -0.552 -0.474 -0.577 -0.494 -0.577 -0.577 0.00 0.00 0.0000   -0.748 -0.591 -0.523 -0.748 -0.600 -0.748 -0.748     318     0.0000 0.00 0.00   0.000 0.000 5.826 5.826 0.000 5.815 5.815 0.000
WS7MET_125 2018-01-19 05:30:00 125 30483.0 -0.714 -0.653 -0.582 -0.727 -0.612 100.000 100.000 -0.714 -0.728 0.00 0.00 4.385 4.856 4.849 4.798 12.740 -0.645 -0.610 -0.542 -0.645 -0.523 -0.646 -0.646 0.00 0.00 0.0000   -0.816 -0.687 -0.610 -0.782 -0.678 -0.816 -0.782     318     0.0000 0.00 0.00   0.000 0.000 5.798 5.798 0.000 5.792 5.792 -0.000
WS7MET_125 2018-01-19 05:25:00 125 30483.0 -0.710 -0.660 -0.582 -0.710 -0.639 100.000 100.000 -0.711 -0.711 0.00 0.00 4.396 4.856 4.849 4.798 12.740 -0.611 -0.610 -0.532 -0.577 -0.571 -0.612 -0.578 0.00 0.00 0.0000   -0.816 -0.687 -0.610 -0.816 -0.678 -0.817 -0.817     318     0.0000 0.00 0.00   0.000 0.000 5.799 5.799 0.000 5.799 5.799 0.000
WS7MET_125 2018-01-19 05:20:00 125 30483.0 -0.740 -0.663 -0.583 -0.740 -0.617 100.000 100.000 -0.740 -0.740 0.00 0.00 4.402 4.858 4.851 4.798 12.750 -0.646 -0.629 -0.552 -0.714 -0.552 -0.646 -0.714 0.00 0.00 0.0000   -0.817 -0.687 -0.610 -0.816 -0.649 -0.817 -0.817     318     0.0000 0.00 0.00   0.000 0.000 5.787 5.787 0.000 5.787 5.787 0.000
WS7MET_125 2018-01-19 05:15:00 125 30483.0 -0.748 -0.683 -0.604 -0.736 -0.670 100.000 100.000 -0.748 -0.736 0.00 0.00 4.402 4.863 4.850 4.799 12.740 -0.611 -0.658 -0.591 -0.645 -0.649 -0.611 -0.645 0.00 0.00 0.0000   -0.851 -0.707 -0.620 -0.817 -0.687 -0.852 -0.817     318     0.0000 0.00 0.00   0.000 0.000 5.783 5.783 0.000 5.788 5.788 -0.000
WS7MET_125 2018-01-19 05:10:00 125 30483.0 -0.683 -0.632 -0.561 -0.700 -0.626 100.000 100.000 -0.683 -0.700 0.00 0.00 4.402 4.866 4.849 4.798 12.750 -0.611 -0.610 -0.552 -0.645 -0.591 -0.611 -0.645 0.00 0.00 0.0000   -0.781 -0.649 -0.591 -0.748 -0.658 -0.782 -0.749     318     0.0000 0.00 0.00   0.000 0.000 5.811 5.811 0.000 5.804 5.804 0.000
WS7MET_125 2018-01-19 05:05:00 125 30483.0 -0.596 -0.574 -0.513 -0.642 -0.603 100.000 100.000 -0.597 -0.643 0.00 0.00 4.402 4.866 4.850 4.798 12.750 -0.509 -0.532 -0.455 -0.578 -0.532 -0.509 -0.578 0.00 0.00 0.0000   -0.679 -0.610 -0.552 -0.713 -0.649 -0.680 -0.714     318     0.0000 0.00 0.00   0.000 0.000 5.848 5.847 -0.000 5.828 5.828 0.000
WS7MET_125 2018-01-19 05:00:00 125 30483.0 -0.541 -0.481 -0.422 -0.594 -0.494 100.000 100.000 -0.542 -0.594 0.00 0.00 4.406 4.870 4.847 4.798 12.760 -0.508 -0.455 -0.397 -0.508 -0.426 -0.509 -0.509 0.00 0.00 0.0000   -0.611 -0.532 -0.474 -0.646 -0.571 -0.612 -0.646     318     0.0000 0.00 0.00   0.000 0.000 5.871 5.871 -0.000 5.849 5.849 0.000
WS7MET_125 2018-01-19 04:55:00 125 30483.0 -0.625 -0.534 -0.457 -0.636 -0.471 100.000 100.000 -0.626 -0.636 0.00 0.00 4.421 4.870 4.847 4.798 12.760 -0.542 -0.455 -0.397 -0.508 -0.407 -0.542 -0.508 0.00 0.00 0.0000   -0.712 -0.620 -0.532 -0.713 -0.610 -0.713 -0.713     318     0.0000 0.00 0.00   0.000 0.000 5.836 5.835 0.000 5.831 5.831 0.000
WS7MET_125 2018-01-19 04:50:00 125 30483.0 -0.647 -0.608 -0.513 -0.647 -0.587 100.000 100.000 -0.647 -0.647 0.00 0.00 4.421 4.876 4.847 4.798 12.760 -0.577 -0.600 -0.513 -0.577 -0.571 -0.577 -0.577 0.00 0.00 0.0000   -0.714 -0.610 -0.513 -0.748 -0.610 -0.715 -0.749     318     0.0000 0.00 0.00   0.000 0.000 5.826 5.826 0.000 5.826 5.826 0.000
WS7MET_125 2018-01-19 04:45:00 125 30483.0 -0.564 -0.544 -0.463 -0.598 -0.570 100.000 100.000 -0.564 -0.598 0.00 0.00 4.421 4.876 4.847 4.798 12.760 -0.475 -0.494 -0.426 -0.542 -0.503 -0.475 -0.543 0.00 0.00 0.0000   -0.646 -0.591 -0.494 -0.646 -0.600 -0.646 -0.646     318     0.0000 0.00 0.00   0.000 0.000 5.862 5.862 0.000 5.847 5.847 0.000
WS7MET_125 2018-01-19 04:40:00 125 30483.0 -0.476 -0.469 -0.401 -0.536 -0.483 100.000 100.000 -0.477 -0.536 0.00 0.00 4.422</